Alumni

Home  >>  Alumni

Alumni Fakultas Ekonomi dan Bisnis Islam UIN Fatmawati Sukarno Bengkulu

NIMNAMAALAMATTELPEMAILANGKATANTEMPAT LAHIRTANGGAL LAHIRJENIS KELAMINPROGRAM STUDITANGGAL LULUSIPKLAMA STUDI
1911130002DORA AYU UTAMIJl. Bumi Ayu Raya 7b, RT.007/ RW.001081379163549doraayu640@gmail.com2019Curup22 November 2000Perempuan39-Ekonomi Syari'ah06-02-20233,693 tahun, 9 bulan
1911130006FIRDA SUZAN ANUGGRAENYDesa Marga Bakti RT.01 RW.07 D.5,KEC.PINANG RAYA082273962712firdasuzan01@gmail.com2019BENGKULU25 September 2000Perempuan39-Ekonomi Syari'ah06-02-20233,723 tahun, 9 bulan
1911130011MAHARANIPerum Kemiling Asri Pratama Blok. C No.09 RT.011 RW. 008 Kel. Pekan Sabtu Kec. Selebar083121676932maharaniiainbkl@gmail.com, mrmilenmikelmarqes@gmail.com, smnto74@gmail.com2019BENGKULU15 Mei 2001Perempuan39-Ekonomi Syari'ah23-01-20233,863 tahun, 8 bulan
1911130019WIDYA WULAN SARIJalan Melur No.17 RT.05 RW.01 Kelurahan Nusa Indah, Kecamatan Ratu Agung081368178941widyaawws23@gmail.com2019BENGKULU23 Maret 2001Perempuan39-Ekonomi Syari'ah23-01-20233,763 tahun, 8 bulan
1911130021MELDAPagar dewa Jln.Akasia RT.35 RW.07082175664428meldabkl0@gmail.com2019KOTA BENGKULU01 Januari 2001Perempuan39-Ekonomi Syari'ah25-01-20233,693 tahun, 8 bulan
1911130034ANI OKTAVIANINGSIHDesa Agung Jaya Kec. Air Manjunto Kabupaten Mukomuko082162566013anioktavianingsih2606@gmail.com2019AGUNG JAYA26 Oktober 2000Perempuan39-Ekonomi Syari'ah24-01-20233,773 tahun, 6 bulan
1911130044AULIA RAHMAWATIJln.Raden Fatah
(dibelakang Samsat Air sebakul kota bengkulu)
081368960525auliarahmawati810@gmail.com2019Air Baus 130 Juli 2000Perempuan39-Ekonomi Syari'ah24-01-20233,813 tahun, 6 bulan
1911130103ENDAH ZULSIA AWWALISYAPs. Pedati085363605618endahzulsia07@gmail.com2019Bengkulu07 Februari 2001Perempuan39-Ekonomi Syari'ah27-01-20233,723 tahun, 5 bulan
1911130124MELSA NELA SARIJalan pulau panggung kecamatan luas kabupaten kaur085384536877melsanelasari09@gmail.com2019Pulau panggung25 September 2002Perempuan39-Ekonomi Syari'ah06-02-20233,633 tahun, 5 bulan
1911130142RENA REGINADesa Muara Pinang Kec, Muara Pinang, Kab Empat Lawang Jln, lintas Pagar Alam081368668535renaregina1301@gmail.com2019Bogor06 Juni 2002Perempuan39-Ekonomi Syari'ah25-01-20233,733 tahun, 5 bulan
1911130152MELVIA LESTARIJL. Hibrida 3 no 8c, RT 18, RW 3081632795343melvialestari2001@gmail.com2019BINTUHAN02 Agustus 2001Perempuan39-Ekonomi Syari'ah24-01-20233,733 tahun, 5 bulan
1911140010Dika AristawidyahartantiJl. Kerinci 1, No. 127, RT. 11085367353936dikaaristawidya@gmail.com2019PARIAMAN13 Desember 2001Perempuan40-Perbankan Syari'ah24-01-20233,753 tahun, 8 bulan
1911140015SITI ROHANIJl. Teratai indah082279207668Shitye24@gmail.com2019KABUPATEN LAHAT08 Januari 2000Perempuan40-Perbankan Syari'ah06-02-20233,643 tahun, 8 bulan
1911140016TENTI DWIYANIDesa Prabumulih 1 Kecamatan Muara Lakitan082250325107tentidwiyani22@gmail.com2019Prabumulih 117 Juli 2002Perempuan40-Perbankan Syari'ah24-01-20233,753 tahun, 8 bulan
1911140024TIYAH AGUSTIJL. Raya Padang Kemiling Kelurahan Pekan Sabtu Kecamatan Selebar Kota Bengkulu0895370970918tiyahagusti03@gmail.com2019Curup03 Agustus 2000Perempuan40-Perbankan Syari'ah24-01-20233,793 tahun, 8 bulan
1911140038SHINTIA PUTRI AMANDAKelurahan Lubuk durian kecamatan kerkap085366025838shintiaputri138@gmail.com2019Padang13 Agustus 2000Perempuan40-Perbankan Syari'ah24-01-20233,793 tahun, 6 bulan
1911140041INDAH LESTARI PRATIWIDesa Taba teret kec.taba penanjung083803857728Indahlestarip15@gmail.com2019Taba Teret kec.taba penanjung15 Mei 2001Perempuan40-Perbankan Syari'ah07-02-20233,553 tahun, 6 bulan
1911140046SITI PATIMAH WULANDARIJUM'AT082282408163sifaawulan94@gmail.com2019Bengkulu16 September 2001Perempuan40-Perbankan Syari'ah24-01-20233,683 tahun, 6 bulan
1911140049KIKI ULANDARITanjung iman085664932681Kikiulandari23@gmail.com2019Tanjung iman20 Agustus 2001Perempuan40-Perbankan Syari'ah24-01-20233,763 tahun, 6 bulan
1911140050QURNIA RAHMADINAHJL. RE. MARTADINATA 06 PAGAR DEWA085378734077qurniadina@gmail.com2019BENGKULU11 Desember 2000Perempuan40-Perbankan Syari'ah24-01-20233,683 tahun, 6 bulan
1911140054VENI APRIYANIJl. Karang Indah RT.18 RW.03 Kec. Selebar Kel. Sumur Dewa Kota Bengkulu08978746617bangwek95@gmail.com2019BENGKULU14 April 2001Perempuan40-Perbankan Syari'ah06-02-20233,623 tahun, 6 bulan
1911140056MERITA TRI RESKYNANTI AGUNG083802434719meritatriresky01@gmail.com2019NANTI AGUNG01 April 2002Perempuan40-Perbankan Syari'ah19-01-20233,773 tahun, 6 bulan
1911140061MINISADesa Lubuk Ladung, Kec. Kedurang ilir, Kab. Bengkulu selatan082177327607ichaminisa@gmail.com2019Lubuk ladung05 Februari 2001Perempuan40-Perbankan Syari'ah24-01-20233,653 tahun, 6 bulan
1911140063TRI YULIANTI ROSITAbtn air bang blok h no 28083190249157triyulianti7055@gmail.com2019curup28 Februari 2001Perempuan40-Perbankan Syari'ah24-01-20233,683 tahun, 6 bulan
1911140064SOFIA NABILLAkebun vetran 2 rt.07 rw02 kec.ratu agung kel.nusa indah083163514906sofianabilla706@gmail.com2019Curup04 Juli 2001Perempuan40-Perbankan Syari'ah24-01-20233,623 tahun, 6 bulan
1911140066TIA KURNIATI ULFAHJl. Pematang said, medan baru, kandang limun, RT. 15082114579544tiakurniatiulfah01@gmail.com2019Bengkulu01 April 2001Perempuan40-Perbankan Syari'ah24-01-20233,623 tahun, 6 bulan
1911140068ROSI AYU SAFITRIPerumahan taman indah permai blok b nomor 20 rt 38 rw 07 kec. Selebar kota bengkulu085609409098,rositakaur@gmail.com2019tanjung iman02 Februari 2001Perempuan40-Perbankan Syari'ah24-01-20233,593 tahun, 6 bulan
1911140069KENTI APRILIABUKIT082235699068Kentiaprilia123@gmail.com2019Talang karet21 April 2001Perempuan40-Perbankan Syari'ah27-01-20233,643 tahun, 6 bulan
1911140093SELPI DWI PUTRIDesa Muara Betung.Kec Ulu Musi. Kab Empat Lawang081218836467selvidwiputri9@gmail.com2019Lubuk Puding25 Desember 2000Perempuan40-Perbankan Syari'ah24-01-20233,713 tahun, 5 bulan
1911140094WIWIN YULISTIANIDesa Niur Dusun V083803860376yulistianiwiwin@gmail.com2019Padang Pelawi21 Mei 2001Perempuan40-Perbankan Syari'ah24-01-20233,703 tahun, 5 bulan
1911140101SERLY WULANSARIJalan manggis 3 no55081278132836Serlywulan792@gmail.com2019Bengkulu26 Oktober 2000Perempuan40-Perbankan Syari'ah25-01-20233,713 tahun, 5 bulan
1911140110EMILIA PUTRI MULYANIjl. raden patah 3 no 06 rt16 rw 03 kelurahan pagar dewa kecamatan selebar kota bengkulu085788074260emeliaptr00@gmail.com2019BENGKULU12 Oktober 1999Perempuan40-Perbankan Syari'ah25-01-20233,453 tahun, 5 bulan
1911140121SYLVINA INTAN RAHMAWATIJalan Timur Indah III RT 26 NO 21 A Gang Timur ( Gang Timur Jaya 3 Kosan 4 Saudara)082269887556sylvinaintan222001@gmail.com2019Wonoharjo22 Juni 2001Perempuan40-Perbankan Syari'ah24-01-20233,823 tahun, 5 bulan
1911140135RESI HARNIATIJl.raya komering desa tridadi kec.madang suku 1 Oku timur082178634565resiharniati01@gmail.com2019Tridadi15 Januari 2001Perempuan40-Perbankan Syari'ah24-01-20233,783 tahun, 5 bulan
1911140139TRIA SAFITRIPerumnas tiara, blok A3, No 4082279465358triasafitri00@gmail.com2019LAHAT11 September 2001Perempuan40-Perbankan Syari'ah24-01-20233,833 tahun, 5 bulan
1911140154LIKA HANDAYANIGUMAY ULU083182433322likahandayani2019@gmail.com2019PAGAR ALAM13 Januari 2001Perempuan40-Perbankan Syari'ah19-01-20233,683 tahun, 4 bulan
1911160003OKTIKADesa cokoh betung kecamatan padang guci ulu kabupaten kaur provinsi bengkulu082376496922oktika03oktober@gmail.com2019KABUPATEN KAUR03 Oktober 2000Perempuan48-Manajemen Zakat dan Wakaf07-02-20233,773 tahun, 9 bulan
1911170006NOPITA SARIDesa tanah abang kec.ilir talo kab.seluma081278886633Nopitasari0001@gmail.com2019Tanah abang10 Mei 2001Perempuan78-Manajemen Haji dan Umroh07-02-20233,763 tahun, 6 bulan
1911170010RANDY APRIYANSYAHDESA RETAK MUDIK082281689050randyapriansyah84@gmail.com2019RETAK MUDIK28 April 2000Laki-laki78-Manajemen Haji dan Umroh27-01-20233,723 tahun, 6 bulan
1911170011MEPI EPRIANIsungai petai082376030755mepiepriani@gmail.com2019Sungai Petai28 Desember 2000Perempuan78-Manajemen Haji dan Umroh07-02-20233,743 tahun, 6 bulan
1911170013MUHAMMAD ZAQI NURIL TAMZISJl.erlangga RW03 Rt06082287246296muhamadzaqi666@gmail.com2019Karang tengah05 Januari 2001Laki-laki78-Manajemen Haji dan Umroh27-01-20233,763 tahun, 6 bulan
1911170016WANDA FIRLAH DWIVAJln kini balu Rt. 02 Rw. 01089671478844Wandadwiva@gmail.com2019Bengkulu17 Maret 2001Perempuan78-Manajemen Haji dan Umroh27-02-20233,683 tahun, 7 bulan
1911170024FEFRIZAL PRATAMAJL P NATADIRJA0895604757154febripratama24@gmail.com2019Bengkulu24 Februari 2001Laki-laki78-Manajemen Haji dan Umroh27-01-20233,743 tahun, 5 bulan
1911170036LIA KURNIATIPerumahan Oase,kota Bengkulu083803258301liakurniati29@gmail.2019Bengkulu29 Juni 2001Perempuan78-Manajemen Haji dan Umroh20-01-20233,823 tahun, 4 bulan
1911170041ARIKEN PUSPITA SARISUKAMERINDU085669316953arikenpuspitasari@gmail.com2019SUKAMERINDU03 Oktober 2001Perempuan78-Manajemen Haji dan Umroh20-01-20233,773 tahun, 4 bulan
1811130003TINTI TRI HANDAYANIJl. Suka Maju082374475431tintitrihandayani@gmail.com2018KAB. BENGKULU SELATAN24 Oktober 2000Perempuan39-Ekonomi Syari'ah27-07-20223,644 tahun, 1 bulan
1811130004ANDIKA M. TAFSILYJalan Raya Karang Agung081272601288Silyyyy123@gmail.com2018KAB. BENGKULU SELATAN30 September 2000Laki-laki39-Ekonomi Syari'ah10-11-20223,634 tahun, 4 bulan
1811130005RISKIYANSAHJl. kalimantan Gg.Merpati 04 Rt 14 Rw 02 No 92081368627088riskiyansahh.bandung@gmail.com2018KOTA BANDUNG26 Oktober 2000Laki-laki39-Ekonomi Syari'ah14-07-20223,754 tahun, 0 bulan
1811130006FENNY DHITYA WIDIANAjalan hibrida 10 gang panti asuhan 10 rt.12 rw.02 kode pos 382116283156468973fennydhitya123@gmail.com2018Sukadana Ilir05 Juli 2000Perempuan39-Ekonomi Syari'ah19-02-20223,893 tahun, 7 bulan
1811130007YETMI KUSNITAJl.Lintas Desa Karang Dapo Kec.Semidang Gumay Kab.Kaur082373216766yetmikusnita@gmail.com2018Karang Dapo31 Januari 2001Perempuan39-Ekonomi Syari'ah03-06-20223,753 tahun, 11 bulan
1811130009MIA ANDESPAPagar Tengah Kec. Pendopo Ka. Lintang Empat Lawang Sumatra Selatan081368748717miaandespa904@gmail.com2018Pagar Alam01 Juni 2000Perempuan39-Ekonomi Syari'ah12-01-20233,534 tahun, 6 bulan
1811130010NOLA TRI FEBILIAdesa padang genteng kecamatan kaur selatan kabupaten kaur081532216899nolatrif@gmail.com2018KAB. KAUR12 Februari 2000Perempuan39-Ekonomi Syari'ah01-12-20223,544 tahun, 5 bulan
1811130011FENZY EFNITAtanjung ganti 2, kecamatan kelam tengah.085286797736efnitafenzy@gmail.com2018KAB. KAUR20 November 1999Perempuan39-Ekonomi Syari'ah03-06-20223,623 tahun, 11 bulan
1811130012ASTIKA WULAN SARIdesa pagardin kec.Ulok Kupai kab.bengkulu utara085369003774astikawulansari09@mail.com2018KAB. BENGKULU UTARA12 Maret 2000Perempuan39-Ekonomi Syari'ah01-07-20223,664 tahun, 0 bulan
1811130013IIN JULIA HARDIANTIRt.09, Rw.02, Dusun II (Kahuripan)
Jln. Temanggung jalur kidul
085383200040iinjuliahardianti07@gmail.com2018KAB. LAMPUNG UTARA31 Juli 2000Perempuan39-Ekonomi Syari'ah27-07-20223,664 tahun, 1 bulan
1811130014JULIA AYU WIDHIARTIPinju Layang082374803968juliawidhiarti@gmail.com2018Pinju Layang22 Juli 2000Perempuan39-Ekonomi Syari'ah07-07-20223,814 tahun, 0 bulan
1811130015NOVI WINDA SARIjalan Pematang Indah 1 Rt 25 RW 02083187687233noviiws08@gmail.co.id, Nwinda811@gmail.com2018Landur08 November 2000Perempuan39-Ekonomi Syari'ah03-06-20223,843 tahun, 11 bulan
1811130016RIDO SAPUTRAKampung paneh,Aie tajun Lubuk Alung082285557340sahputraridho7@gmail.com2018KAB. PADANG PARIAMAN09 Mei 1999Laki-laki39-Ekonomi Syari'ah31-10-20223,624 tahun, 4 bulan
1811130017HENDRI SAMUDRADesa Pulau Panggung, kec. Semende Darat Laut, kab. Muara Enim, prov. Sumatera Selatan082269214760hendrisamoedra33@gmail.com2018KAB. MUARA ENIM18 Mei 2000Laki-laki39-Ekonomi Syari'ah27-05-20223,613 tahun, 11 bulan
1811130018SUCI LIA AGATAjl arahman083181395184suciliaagata1@gmail.com2018KOTA BENGKULU12 Desember 1992Perempuan39-Ekonomi Syari'ah18-02-20223,623 tahun, 7 bulan
1811130019DEWI MARHANANYJl.Transmigrasi Dusun 1 No.19 Desa Sido Luhur Kec.Sukaraja Kab.Seluma082376361122dewimarhanany23@gmail.com2018BUKIT PENINJAUAN 123 September 1999Perempuan39-Ekonomi Syari'ah09-06-20223,723 tahun, 11 bulan
1811130021TRI WAHYUNIJln.Adam Malik 9 RT 05 RW 01( gang sd n 74)0895616124919triwahyuni10071999@gmail.com2018KOTA BENGKULU10 Juli 1999Perempuan39-Ekonomi Syari'ah27-07-20223,734 tahun, 1 bulan
1811130022CAMELIA HASANAHJl. Ak. Gani No.2 Prumnas BTN Karang Anyar II082279186121cameliahasana6@gmail.com2018KAB. BENGKULU UTARA06 Juni 2000Perempuan39-Ekonomi Syari'ah09-06-20223,733 tahun, 11 bulan
1811130023YENI SASMITA PUTRIBenua Ratu082279207618Sasmitayeny@gmail.com2018KAB. KAUR30 Desember 2000Perempuan39-Ekonomi Syari'ah27-05-20223,703 tahun, 11 bulan
1811130024ECA NUPITA SARIBenua Ratu082371107140ecanupita14@gmail2018KAB. KAUR14 September 1999Perempuan39-Ekonomi Syari'ah27-07-20223,664 tahun, 1 bulan
1811130025YEFI JULIARIZKADESA BABATAN ILIR083164638070yefi88juliarizka@gmail.com2018KAB. BENGKULU SELATAN05 Juli 2000Perempuan39-Ekonomi Syari'ah25-07-20223,634 tahun, 0 bulan
1811130028RUKIYANJalan Raya Tanjung Alam081541058472rukiyan45@gmail.com2018KAB. BENGKULU SELATAN21 Mei 2000Laki-laki39-Ekonomi Syari'ah01-07-20223,844 tahun, 0 bulan
1811130030LINDA MASRIYANTIDesa Bunga Melur Kec. Semidang gumay Kab. Kaur082344157218lindamasriyantindut@gmail.com2018Bunga Melur05 Juli 2000Perempuan39-Ekonomi Syari'ah19-02-20223,823 tahun, 7 bulan
1811130032DESI NOPITA SARIDesa Pulau Panggung085379215545desikaur39@gmail.com2018KAB. KAUR29 November 2000Perempuan39-Ekonomi Syari'ah09-06-20223,663 tahun, 11 bulan
1811130033RANI HANDANIJl. Sulawesi No. 26 Rt. 11 Rw. 04082385376616ranihandani99@gmail.com2018KOTA BENGKULU19 Februari 2000Perempuan39-Ekonomi Syari'ah14-02-20223,823 tahun, 7 bulan
1811130035EVA GUSTINAJalan Raya Lubuk Ladung082311394365evagustina@gmail.com2018Lubuk Ladung27 April 1999Perempuan39-Ekonomi Syari'ah01-07-20223,554 tahun, 0 bulan
1811130036NADYA OKTAVIANAJL. ABDULLAH IBRAHIM Rt.25 Rw. 4 No. 8 Kel. Bentiring Permai085268896162nadyaoktaviana589@gmail.com2018KOTA BENGKULU10 Juli 1999Perempuan39-Ekonomi Syari'ah07-07-20223,784 tahun, 0 bulan
1811130037YUNI KARTIKA HAKIM PUTRIJL. Majapahit NO. 30 RT. 010895610038370yunikartika1804@gmail.com2018KOTA LUBUK LINGGAU22 April 1999Perempuan39-Ekonomi Syari'ah27-07-20223,894 tahun, 0 bulan
1811130038PIRA YUNIDAJl. Gunung Bungkuk081368681261pirayunida@gmail.com2018KAB. BENGKULU TENGAH04 September 1999Perempuan39-Ekonomi Syari'ah17-06-20223,553 tahun, 11 bulan
1811130040THESA LONICADesa Suka Banjar/jalan lintas barat sumatra081318202419lonicat14@gmail.com2018Tanjung Bunga27 Juni 2000Perempuan39-Ekonomi Syari'ah07-07-20223,864 tahun, 0 bulan
1811130041NENGRUM PRANSISKAJl. Raya Masat081273698788nengrumfransiska@gmail.com2018KAB. BENGKULU SELATAN24 Juni 1999Perempuan39-Ekonomi Syari'ah03-06-20223,823 tahun, 11 bulan
1811130042DONI SAPUTRADesa Serang Bulan Kecamatan Pino Raya Kabupaten Bengkulu Selatan085352552752donisaputra6678@gmail.com2018SERANG BULAN02 Mei 2000Laki-laki39-Ekonomi Syari'ah25-01-20233,524 tahun, 6 bulan
1811130043NABELLA PENI RESTUTIdesa kepala pasar083187674426nabellapeni@gmail.com2018TANGERANG07 Februari 2000Perempuan39-Ekonomi Syari'ah25-01-20233,704 tahun, 6 bulan
1811130044VENY RAHMASARIJalan Desa Padang Binjai081279670399rahmasariveny@gmail.com2018KOTA BENGKULU07 April 2000Perempuan39-Ekonomi Syari'ah25-07-20223,734 tahun, 0 bulan
1811130045DELTI INDAH SARIJl Raya Tanjung Sakti -Manna081272058317deltiindahsari@gmail.com2018Pulau Timun25 Agustus 2000Perempuan39-Ekonomi Syari'ah19-07-20223,613 tahun, 11 bulan
1811130047LOSYI RISTIADesa Tanjung Baru Kec.Maje Kab.Kaur Prov.Bengkulu085366611299losyiristia@gmail.com2018Tanjung Beringin12 Desember 1992Perempuan39-Ekonomi Syari'ah18-02-20223,713 tahun, 6 bulan
1811130049ADE IRAWANjl. al mukaromah 14089634080410adeirawanbkl@gmail.com2018BENGKULU01 Januari 1998Laki-laki39-Ekonomi Syari'ah27-07-20223,604 tahun, 0 bulan
1811130050MIRA SARI LIAWATIJl. Raden Fatah0895344993116mirasari461@gmail.com2018Air Sebakul10 Mei 1998Perempuan39-Ekonomi Syari'ah17-06-20223,593 tahun, 10 bulan
1811130051YOGI NUGROHOJalan Diponegoro Rt/Rw : 03/02082279887163yoginugroho@gmail.com2018BENGKULU09 Oktober 1998Laki-laki39-Ekonomi Syari'ah15-12-20223,434 tahun, 4 bulan
1811130052MUHAMMAD APRIADIJl.Lintas Kembang seri - Taba lagan desa tengah padang kacematan talang empat kab.bengkulu tengah085764488381apriadimuhammadd@gmail.com2018KEMBANG SERI03 April 2000Laki-laki39-Ekonomi Syari'ah03-06-20223,693 tahun, 10 bulan
1811130053MUHAMMAD RAFLI FIRMANSYAHjln.sepakat11 Rt 23 Rw 06 Sawah lebar baru Kec.Ratu agung Kota Bengkulu081367578748raflifirmansyahbkl7@gmail.com2018Palembang02 Juni 1969Laki-laki39-Ekonomi Syari'ah27-07-20223,684 tahun, 0 bulan
1811130054WIDIYANTORODusun 1 Desa Air Kemuning Kecamatan Sukaraja Kabupaten Seluma085658311499widiantorobkl17@gmail.com2018BUKIT KEMUNING06 Juli 1998Laki-laki39-Ekonomi Syari'ah17-06-20223,513 tahun, 10 bulan
1811130055AKBAR HIDAYATULLAHdesa tanjung dalam kecamatan pondok kubang kab.bengkulu tengah085771887283akbarhidayatullahbkl@gmail.com2018Tanjung dalam02 Juni 1969Laki-laki39-Ekonomi Syari'ah27-07-20223,514 tahun, 0 bulan
1811130056NOPRIAN DINATAjl.irian no 36 rt 1 rw 1081369306267nopridinata15@gmail.com2018bengkulu02 November 2000Laki-laki39-Ekonomi Syari'ah15-12-20223,584 tahun, 4 bulan
1811130057YULIA SEPTIANADesa Suka Negeri085268734498yuliaseptiana1999@gmail.com2018Suka Negeri27 September 1998Perempuan39-Ekonomi Syari'ah19-07-20223,763 tahun, 11 bulan
1811130059INKE CHAROLINE AGUSTINJl. Ak. Gani081279728015inkec@yahoo.com2018Talang Benteng07 Agustus 2000Perempuan39-Ekonomi Syari'ah23-06-20223,753 tahun, 10 bulan
1811130061CANDRA ROMADHANdesa padang pelawi081532868613candrakiki602@gmail.com2018Bengkulu10 Desember 1999Laki-laki39-Ekonomi Syari'ah18-02-20223,583 tahun, 6 bulan
1811130063KIKI ANANDAjl.lintas sengkuang-permu desa sinar gunung085767101282kikikph04@Gmail.com2018Nanti Agung12 Desember 1992Laki-laki39-Ekonomi Syari'ah18-02-20223,793 tahun, 6 bulan
1811130064FINO VIOLITADESA BATU BANDUNG085369515340yunitaselly606@gmail.com2018BATU BANDUNG26 Agustus 2001Perempuan39-Ekonomi Syari'ah14-07-20223,563 tahun, 11 bulan
1811130065AYU PURNAMASARIJL.KENANGA NO 3B RT 10 RT 0308992240095ayu.purnama170@gmail.com2018KARANGANYAR17 Februari 2000Perempuan39-Ekonomi Syari'ah08-12-20223,754 tahun, 4 bulan
1811130066JUMILDA DIAN JOSAJl. Setia Rt.10 Rw.08 Kel. Kandang Mas Kec. Kampung Melayu085335477617jumildadianjosa@gmail.com2018Bengkulu02 Juli 2000Perempuan39-Ekonomi Syari'ah07-07-20223,643 tahun, 11 bulan
1811130067DESTI YOVITA SARIjl.lintas padang-bengkulu085758675164destidesti882@gmail.com2018TUNGGANG12 Desember 2000Perempuan39-Ekonomi Syari'ah07-07-20223,713 tahun, 11 bulan
1811130068MELA KOMALASARIJln Lintas Sumatra Bengkulu-PadangKm 197081369287771melakomala@gmil.com2018TUNGGANG22 April 1999Perempuan39-Ekonomi Syari'ah25-07-20223,673 tahun, 11 bulan
1811130070INES LESVITAJln raya bntunan kec batiknau bengkulu utara085788373292ineslesvita@gmail.com2018Bintunan23 Desember 1999Perempuan39-Ekonomi Syari'ah03-06-20223,853 tahun, 10 bulan
1811130071SAPLI HARYADIJl. Air Nipis085664864347sapliharyadi@yahoo.com2018JAMBAT AKAR13 Mei 1999Laki-laki39-Ekonomi Syari'ah12-01-20233,284 tahun, 5 bulan
1811130072LINDA ERMALASARIDesa Purbosari RT.05 RW 02085267132152lindaermalasary@gmail.com2018PURBOSARI20 Mei 2000Perempuan39-Ekonomi Syari'ah25-07-20223,773 tahun, 11 bulan
1811130075SYAMSUL ARIFINJL. PUYANG SAKTI0895337189731syamsularifin206@yahoo.com2018manna28 Desember 1996Laki-laki39-Ekonomi Syari'ah27-01-20233,584 tahun, 5 bulan
1811130076YESI IRANA SYAFITRIDesa Talang empat kec. seluma utara kab.seluma082378555927yesiirana1999.@gmail.com2018kelurahan puguk22 Desember 1999Perempuan39-Ekonomi Syari'ah19-01-20233,504 tahun, 5 bulan
1811130079PUPUT TRI WAHYUNIDesa Purbosari Rt. 11 Rw. 05082280292172puputtriwahyuni08@yahoo.co.id2018Lunjuk14 Agustus 1998Perempuan39-Ekonomi Syari'ah29-07-20223,503 tahun, 11 bulan
1811130080RATNA AGUSTINADusun Mulya
RT 12
082289278262ratnaagustina408@gmail.com, ratnaagustina0705@gmail.com2018Bengkulu23 Agustus 2000Perempuan39-Ekonomi Syari'ah19-07-20223,673 tahun, 11 bulan
1811130081MIYA YUSTIKADESA RIAK SIABUN KEC. SUKRAJA KAB. SELUMA082385872471miyayustika489@gmail.com2018arau bintang30 Maret 2000Perempuan39-Ekonomi Syari'ah27-07-20223,663 tahun, 11 bulan
1811130082TETAP NUPITASARIDESA SUKARAMI0858381039492018SUKARAMI15 Juni 1999Perempuan39-Ekonomi Syari'ah12-01-20233,614 tahun, 5 bulan
1811130083DEWI SOLFA SARIDesa sukarami, Dusun kayu kunyit kecamatan kedurang ilir0822791870032018bumi agung29 September 1999Perempuan39-Ekonomi Syari'ah13-01-20233,734 tahun, 5 bulan
1811130084LOVA FITA LOKAdesa sukamaju kec.air periukan kab.seluma6282289121946lovafitaloka@gmail.com2018Sukamaju22 Desember 1999Perempuan39-Ekonomi Syari'ah19-05-20223,463 tahun, 9 bulan
1811130085RIKA MARETIJl. Gunung Bungkuk Desa Pelajau082219331052rikamareti04@gmail.com2018PELAJAU19 Maret 1999Perempuan39-Ekonomi Syari'ah09-06-20223,513 tahun, 10 bulan
1811130087RAFIKA DEWI SEPTIAMuara Pulutan083803856419rafikadewiseptia@gmail.com2018Tanjung Raya22 September 1999Perempuan39-Ekonomi Syari'ah09-06-20223,793 tahun, 10 bulan
1811130088NOPRIANTI WULANDARINUSA INDAH RT. 003 RW. 004083176669101nopriantiwulandari@gmail.com2018Pagaralam26 November 2000Perempuan39-Ekonomi Syari'ah25-07-20223,643 tahun, 11 bulan
1811130090ASEF PORWANTOtalang randai085212164751z.alyah@yahoo.com2018Talang randai17 September 1998Laki-laki39-Ekonomi Syari'ah14-07-20223,433 tahun, 11 bulan
1811130091MARWAN SOPIAN PENIGARAJALAN CICARUA NO 93 BLOK 08 RT 21 RW 07089699195886marwansp93@gmai.com2018BENGKULU18 Oktober 1999Laki-laki39-Ekonomi Syari'ah07-07-20223,853 tahun, 11 bulan
1811130092PISLA HANDAYANIJln. Raya lintas Tuguhiu-pelajau desa Pondok Kubang. Kecamatan Pondok Kubang. Kabupaten BENTENG081532469862pislahandayanii@gmail.com2018Pondok kubang27 Maret 2000Perempuan39-Ekonomi Syari'ah13-01-20233,684 tahun, 5 bulan
1811130093DECIA SAPUTRIDesa Wayhawang Kec. Maje Kab. Kaur085896174358deciaputri2000@gmail.com2018WAYHAWANG25 Mei 2000Perempuan39-Ekonomi Syari'ah06-02-20233,124 tahun, 6 bulan
1811130095TRI YOLANDADesa Tanjung Harapan Kecamatan Ipuh Kabupaten Mukomuko Provinsi Bengkulu089516781238triyolanda01@gmail.com2018TANJUNG HARAPAN01 Juli 2000Perempuan39-Ekonomi Syari'ah18-01-20233,384 tahun, 5 bulan
1811130097PIRDI SAPUTRAPinang Jawa II085382118138saputraperdi558@gmail.com2018Pinang Jawa20 November 2000Laki-laki39-Ekonomi Syari'ah25-07-20223,303 tahun, 11 bulan
1811130099TRI ZAKINA WAHYU NINGSIHJALAN LINTAS SUMATERA SELATAN083179276149zakina77@gmail.com2018UJANMAS BARU21 Juli 2000Perempuan39-Ekonomi Syari'ah09-06-20223,713 tahun, 10 bulan
1811130100PEPON ADOLAHUJUNG PADANG085783138208Pepone. bkl@gmail.com2018ujung padang25 Mei 2000Laki-laki39-Ekonomi Syari'ah29-12-20223,374 tahun, 4 bulan
1811130102DINI MURSALINAGANG RAFLESIA 2 DUSUN 1 NO.40085369589232ddinimursalina@gmail.com2018BANDAR LAMPUNG05 Januari 2001Perempuan39-Ekonomi Syari'ah07-02-20233,844 tahun, 6 bulan
1811130103MUTIARA MAR'ATUSSOLEHAHJalan kuala lempuing rt.08 rw.02 no.10082388309870mutiarams23@gmail.com2018Bengkulu22 April 1999Perempuan39-Ekonomi Syari'ah25-07-20223,883 tahun, 11 bulan
1811130104RENALDIjl. belakang prumdam rt. 17 rw. 05 kelurahan kandang mas kecamatan kampung melayu089605409664aldiren0602@gmail.com2018Bengkulu06 Februari 2000Laki-laki39-Ekonomi Syari'ah09-06-20223,553 tahun, 10 bulan
1811130105YOLANDA AZELAdesa tanjung menang menang, kecamatan seginim, kabupaten bengkulu selatan.082279087960yolandaazela321@gmail.com2018desa tanjung menang kecamatan seginim kelurahan tanjung menang23 Mei 1999Perempuan39-Ekonomi Syari'ah19-01-20233,414 tahun, 5 bulan
1811130106ADI BAYU PANGESTUJl. bakti husada 6, RT.12 RW.03085377505415adibayupangestu7@gmail.com2018Bengkulu19 Agustus 1999Laki-laki39-Ekonomi Syari'ah19-07-20223,853 tahun, 11 bulan
1811130110WIDYA INTAN PRANSISCAbandar agung082373690273widyapransisca17@gmail.com2018BANDAR AGUNG17 September 1999Perempuan39-Ekonomi Syari'ah05-01-20233,594 tahun, 5 bulan
1811130111ERDI SUHENDROjl. raya bengkulu manna desa air teras085357303101suhendroerdi@gmail.com2018Air Teras07 Juli 2000Laki-laki39-Ekonomi Syari'ah19-01-20233,294 tahun, 5 bulan
1811130113LILIS ALVIANIDesa Bukit Makmur Kec. Ketahun Kab. Bengkulu Utara085709185399lilisalviani67@gmail.com2018KETAHUN12 Mei 1999Perempuan39-Ekonomi Syari'ah07-07-20223,763 tahun, 11 bulan
1811130115AL IMRONjalan pasar rabu082185772843alialkhoir123@gmail.com2018penago II01 Juni 1996Laki-laki39-Ekonomi Syari'ah06-02-20233,424 tahun, 6 bulan
1811130117SISKA KURNIA SARIDESA SUMBER MAKMUR, KECAMATAN LUBUK PINANG, KABUPATEN MUKOMUKO, PROVINSI BENGKULU082281784772siskakurniasari59@gmail.com2018SUMBER MAKMUR03 Agustus 2000Perempuan39-Ekonomi Syari'ah01-12-20223,744 tahun, 4 bulan
1811130118NOVA TRIANINGSIHRT 05 kelurahan dermayu kecamatan air periukan kabupaten seluma provinsi bengkulu083181394707novatria2311@gmail.com2018DERMAYU23 November 1999Perempuan39-Ekonomi Syari'ah28-07-20223,793 tahun, 11 bulan
1811130120PRATAMA AGESTENJL.VETERAN GG.MAWAR085788758803pratamaagesten700@gmail.com2018MANNA25 Agustus 1999Laki-laki39-Ekonomi Syari'ah25-01-20233,434 tahun, 5 bulan
1811130121RIZTI MULYANIDesa jenggalu RT.03 Kec.Sukaraja Kab.Seluma082269100063raraaprillianti585@yahoo.co.id2018JENGGALU25 Agustus 2000Perempuan39-Ekonomi Syari'ah01-07-20223,723 tahun, 11 bulan
1811130122M DONI ALIAS ARIPINJalan gunung bungkuk082372087472DONIarifin0110@gmail.2018BENGKULU UTARA01 Oktober 1999Laki-laki39-Ekonomi Syari'ah21-12-20223,634 tahun, 4 bulan
1811130123JODI HARIANTODesa Air Buluh Kecamatan Ipuh Kabupaten Mukomuko Provinsi Bengkulu082269586823hengkirm29@gmail.com2018Desa Air Bulh28 Februari 1999Laki-laki39-Ekonomi Syari'ah08-12-20223,454 tahun, 4 bulan
1811130124RAFFLES GUNAWANJL. Lintas Sumatera081379788154rafflesgunawan52@gmail.com2018BINGIN RUPIT ILIR31 Agustus 2000Laki-laki39-Ekonomi Syari'ah13-12-20223,514 tahun, 4 bulan
1811130126RENO AGUSTIAWANDusun Baru Manunggal6282289639841rans2020st@gmail.com2018Babatan ulu17 Agustus 1999Laki-laki39-Ekonomi Syari'ah15-12-20223,364 tahun, 4 bulan
1811130129RICKY DWI KURNIAWANDusun I/kec. Sukakarya Kab. Musi Rawas Prov. Sumatera Selatan085348573741rickydwiky560@gmail.com2018TAMBANGAN20 Mei 2000Laki-laki39-Ekonomi Syari'ah25-01-20233,274 tahun, 5 bulan
1811130131ADE KRISTINAJl.Zainul arifin Gg Mandiri083802884121kristinaade504@gmail.com2018Curup14 Mei 2000Perempuan39-Ekonomi Syari'ah27-07-20223,533 tahun, 11 bulan
1811130132NURHIDAYATIDesa makmur jaya082258634773nh5884253@gmail.com2018Makmur Jaya27 Juli 1999Perempuan39-Ekonomi Syari'ah31-01-20223,803 tahun, 5 bulan
1811130133DEWI MAYANG SYARIDesa Padang Hangat082385466138dewimayangsaribkl@gmail.com2018Padang Hangat01 Januari 2000Perempuan39-Ekonomi Syari'ah10-11-20223,804 tahun, 3 bulan
1811130134MUHAMAD MARDIRIANSYAHJL. TERATAI INDAH08978761967rianbae18071998@gmail.com2018BENGKULU18 Juli 1998Laki-laki39-Ekonomi Syari'ah08-12-20223,344 tahun, 4 bulan
1811130136EVA PRATIWIDATAR LEBAR II082377407996eva.p0410@gmail.com2018Datar Lebar04 Oktober 1999Perempuan39-Ekonomi Syari'ah01-07-20223,653 tahun, 11 bulan
1811130137RIZKI HASANAH PUTRI MANURUNGjalan kenanga RT 01 RW 01 kel. kebun kenanga kec. ratu agung0895640135085kikihasanah07@gmail.com2018Bengkulu07 Desember 1999Perempuan39-Ekonomi Syari'ah03-06-20223,943 tahun, 10 bulan
1811130138IGA ATRIANIPerum Kandang Mas Mulya Blok A No. 155 RT. 24 RW. 0608984950110igaatriani15@gmail.com2018PADANG GUCI15 Januari 2000Perempuan39-Ekonomi Syari'ah14-07-20223,893 tahun, 11 bulan
1811130140NURVITA WAHYU SARIJalan Jenggalu 1089624785221nurvitawahyusari16@gmail.com2018BENGKULU26 November 1999Perempuan39-Ekonomi Syari'ah18-01-20233,874 tahun, 5 bulan
1811130142MERI MARTA DELAJL. MERANTI 2 SAWAH LEBAR0856649596552018Ulak Tanding04 Desember 2000Perempuan39-Ekonomi Syari'ah25-01-20233,664 tahun, 5 bulan
1811130143HARLIANTOdesa pasar lama08995249936harlianto220198@gmail.com2018Bintuhan22 Januari 1998Laki-laki39-Ekonomi Syari'ah12-01-20233,494 tahun, 5 bulan
1811130148MEYDINA PUTRIDesa Pulau Baru Kecamatan Ipuh Kabupaten Mukomuko Provinsi Bengkulu082280504285meydinaputrimudasri@gmail.com2018Pulau baru12 Desember 1992Perempuan39-Ekonomi Syari'ah18-02-20223,913 tahun, 6 bulan
1811130150SINTIA NOVITA SARIDESA BANDUNG AYU KEC PINO RAYA081265770323sintianovitasari@yahoo.com2018BANDUNG AYU23 Februari 1999Perempuan39-Ekonomi Syari'ah14-07-20223,723 tahun, 10 bulan
1811130151HERMAWANSYAHjalan semidang alas085383815366hermawanpga@gmail.com2018semidang alas08 Oktober 1999Laki-laki39-Ekonomi Syari'ah25-01-20233,474 tahun, 5 bulan
1811130152ISNANDA USWATUN SHOLEKHAds.Purbosari rt.12 rw 05082378986821uswatunisnanda26@gmail.com2018PURBOSARI26 Maret 2000Perempuan39-Ekonomi Syari'ah17-06-20223,903 tahun, 9 bulan
1811130153TRINADI PRAMUDIAJL. TUGU HIU-GUNUNG BUNGKUK DESA PONDOK KUBANG KEC. PONDOK KUBANG KAB. BENGKULU TENGAH085609001019Trinadipramudiya@gmail.com2018PONDOK KUBANG25 Maret 2000Laki-laki39-Ekonomi Syari'ah06-02-20233,434 tahun, 5 bulan
1811130154FAUZIA NURUL HUSNAJalan Kemuning085832961266Fauzianurulhusna1102@gmail.com2018Giri kencana11 Februari 1997Perempuan39-Ekonomi Syari'ah13-01-20233,974 tahun, 4 bulan
1811130155MIRANTIKA TININGSIHDusun III, rt 9, ds marga jaya, kec. padang jaya kab. bengkulu utara, bengkulu082176088082Mirantikatiningsih@G-mail.com2018Marga Jaya25 Maret 2000Perempuan39-Ekonomi Syari'ah27-02-20233,764 tahun, 6 bulan
1811130156ALDI GUSNIANSYAHjalan danau simpang brimob, kec sungai serut081273440835aldi.super.ir@gmail.com2018remban24 Agustus 1998Laki-laki39-Ekonomi Syari'ah25-07-20223,753 tahun, 11 bulan
1811130157GUSTIAN MAJID SAPUTRADESA PADANG BETUAH082177546398gustianmajid1102@gmail.com2018PADANG RAMBUN02 Agustus 2000Laki-laki39-Ekonomi Syari'ah27-07-20223,683 tahun, 11 bulan
1811130159EMA SERIATIJalan kuala lempuing Gg cemara 01 RT 008 RW 002 NO:12085381559195seriatiema@yahoo.com2018BENGKULU05 Oktober 1998Perempuan39-Ekonomi Syari'ah07-02-20233,644 tahun, 5 bulan
1811130160DEPI AKBARBatu Raja, Kec, Pondok Kubang081539848479depiakbar004sa@gmail.com2018Batu Raja12 Februari 2000Laki-laki39-Ekonomi Syari'ah13-01-20233,514 tahun, 4 bulan
1811130161BOBI CANDRADesa Kota Padang Kec. Manna kabupaten Bengkulu Selatan085279007390ilahiwahyu889@gmail.com2018Kota Padang19 Juni 1998Laki-laki39-Ekonomi Syari'ah12-01-20233,424 tahun, 4 bulan
1811130162REPTON ADEN UTAMADesa Kota Padang082373447442adenutamarefton@gmail.com2018Kota Padang06 Desember 1999Laki-laki39-Ekonomi Syari'ah19-01-20233,494 tahun, 4 bulan
1811130163KURNIADesa kota lekat . Jl. Lintas bengkulu utara082374201140kurniabkl773@gmail.com2018Desa kota lekat23 Agustus 1990Perempuan39-Ekonomi Syari'ah27-05-20223,793 tahun, 9 bulan
1811130164SRI FATIMAH DALIMUNTHEbelakang prumdam0895620995308srifatimah592@gmail.com2018bengkulu30 November 1999Perempuan39-Ekonomi Syari'ah01-07-20223,753 tahun, 10 bulan
1811130165DELA PUSPITA SARIJln raya tambangan085367265930dp373742@gmail.com2018Tambangan27 Februari 1999Perempuan39-Ekonomi Syari'ah19-07-20223,613 tahun, 10 bulan
1811130166AMELIA OKTAVIANIJl. Raya Leuwiliang kp. Banyuresmi085773873559ameliaoktaviani81@yahoo.co.id2018Bogor21 Juni 1997Perempuan39-Ekonomi Syari'ah17-06-20223,843 tahun, 9 bulan
1811130167OLIVIA PRISILIKOTabapenanjung085709094780oliviaprisiliko01@gmail.com2018Tabapenanjung12 Desember 1992Perempuan39-Ekonomi Syari'ah18-02-20223,833 tahun, 5 bulan
1811130168ELPA JULITADesa dsun baru081930543395elpa.julita11@gmail.com2018Desa dusun baru02 Juni 1969Perempuan39-Ekonomi Syari'ah27-07-20223,703 tahun, 11 bulan
1811130169PUJI HASTUTIDs.Tanjung Agung,Kec.Ulu Musi,Kab.Empat Lawang,Provinsi.Sumatra Selatan082361569462pujihastutibkl@gmail.com2018Tanjung Agung12 Desember 1992Perempuan39-Ekonomi Syari'ah18-02-20223,603 tahun, 5 bulan
1811130170ECI PRAMITADesa Telang Kuning Kecamatan Teras terunjam kab mukomuko082289105813ecipramita90@gmail.com2018Teras Terunjam22 Juli 1999Perempuan39-Ekonomi Syari'ah03-11-20223,644 tahun, 2 bulan
1811130172AMELIA DWI SAPUTRIDesa Marga Bakti Kec.Ketahun Kab.Bengkulu Utara085384882949ameliadwisaputri2208@gmail.com2018Marga Bakti22 Agustus 2000Perempuan39-Ekonomi Syari'ah25-07-20223,643 tahun, 11 bulan
1811130173NADA AYU ABRINAJalan Kemit Rt 01 rw 05 Donan,Cilacap085692960377nadaayu09@gmail.com2018Cilacap09 Juni 2001Perempuan39-Ekonomi Syari'ah07-07-20223,823 tahun, 10 bulan
1811130174HERYUNDA AFISTADesa sibak0852689216162018Sibak09 September 1999Laki-laki39-Ekonomi Syari'ah19-01-20233,624 tahun, 4 bulan
1811130176ANNASTASYA KHAIRUNNISAJl.Hibrida ujung gang tirta dewa 4,No71,Rt 09,Rw 02-Kota Bengkulu-Kecamatan Selebar085268125975Annastayabkl12@gmail.com2018Kota Bengkulu11 Agustus 1999Perempuan39-Ekonomi Syari'ah27-01-20233,604 tahun, 5 bulan
1811130178MARISA WINDIRAJalan Cendana 10895616798162drapitasari@gmail.com2018Bengkulu15 Maret 2000Perempuan39-Ekonomi Syari'ah28-07-20223,703 tahun, 11 bulan
1811130181AZISUN HAMIDDesa Rigangan 3082282334470azisunhamid24@gmail.com2018RIGANGAN14 Desember 1996Laki-laki39-Ekonomi Syari'ah19-08-20213,562 tahun, 11 bulan
1811130182EMILIA KUSNITAdesa sendawar, kec.semidang alas maras, kab.seluma0822893342532018Desa Sendawar01 Agustus 2000Perempuan39-Ekonomi Syari'ah18-01-20233,574 tahun, 4 bulan
1811130183SELVI AFRILYANIJalan Lintas Bengkulu-Padang,Desa Dusun Baru V Koto,Kec.Air Dikit,Kabupaten Mukomuko,Kota Bengkulu082282681511Selviafrilyani24@gmail.com2018MUKOMUKO12 Desember 1992Perempuan39-Ekonomi Syari'ah18-02-20223,833 tahun, 5 bulan
1811130184OKTI YUNITAjalan tratai indah blok.f0822895989082018bengkulu07 Oktober 2000Perempuan39-Ekonomi Syari'ah27-01-20233,714 tahun, 5 bulan
1811130185ARNI TIYULIA NENGSIHDESA BUMI MEKAR JAYA082285823854arnitiyulia@gmail.com2018AIR HITAM26 Mei 1999Perempuan39-Ekonomi Syari'ah19-07-20223,623 tahun, 10 bulan
1811130186FITER PRAYOGAJL.MERAWAN SAWAH LEBAR BARU085609020216Ismailharun616@gmail.com2018MUARA RUNGGA16 April 2000Laki-laki39-Ekonomi Syari'ah13-01-20233,464 tahun, 4 bulan
1811130187ISTIQOMATIS SYURURIYAHjalan sumur dewa 5089649449788istiqomatissyururiyah@gmail.com2018bengkulu20 April 2000Perempuan39-Ekonomi Syari'ah19-07-20223,903 tahun, 10 bulan
1811130188ALNA BIYANAJl. Merawan 20, Blok B4089628890750alnaabe26@gmail.com2018KALIANDA26 Februari 2000Perempuan39-Ekonomi Syari'ah28-07-20223,803 tahun, 11 bulan
1811130190AHMAD ZIKRI DWI ATMAJAjl. pasar senak kec.lungkang kule kab.kaur082175544788ahmadzikridwiatmaja17@gmail.com2018PALEMBANG17 November 1999Laki-laki39-Ekonomi Syari'ah19-07-20223,723 tahun, 10 bulan
1811130192ALDI ARIYANSAPondok kubang085788016417aldi.ariansah99@gmail.com2018Pondok kubang11 September 1999Laki-laki39-Ekonomi Syari'ah19-01-20233,404 tahun, 4 bulan
1811140001MELISAJalan Raya Durian Sebatang085268725737melisa120900@gmail.com2018KAB. BENGKULU SELATAN12 September 2000Perempuan40-Perbankan Syari'ah30-06-20223,564 tahun, 0 bulan
1811140003JESSIKA CHANDRA UTAMIDesa Pekik Nyaring, Dusun V, RT 005, Kecamatan Pondok Kelapa, Kabupaten Bengkulu Tengah083183662350jessikachandrautami@gmail.com2018KAB. BENGKULU TENGAH07 Juli 2000Perempuan40-Perbankan Syari'ah30-06-20223,634 tahun, 0 bulan
1811140005SHI BADIO MUHAMMAD JULIANSYAHJL.Kepahiang-Bengkulu, Desa Tebat Monok.082350752768shibadiomuhammadjuliansyah@gmail.com2018KAB. KEPAHIANG12 Juli 2000Laki-laki40-Perbankan Syari'ah07-07-20223,874 tahun, 0 bulan
1811140006FEBRI SYAFLY FADHILAHJalan sungai lakam timur rt03/rw02082384036242febri.safli43@gmail.com2018BATAM,DAERAH KOTA BATAM23 Februari 2001Laki-laki40-Perbankan Syari'ah22-12-20223,574 tahun, 5 bulan
1811140007ANGGUN SEPTIA PUTRIDusun 2 Desa Pasar Ipuh Kecamatan Ipuh Kabupaten Mukomuko085367275845anggunseptiaputri00@gmail.com2018KAB. MUKO-MUKO09 September 2000Perempuan40-Perbankan Syari'ah23-06-20223,783 tahun, 11 bulan
1811140008SRI ASTUTIJl. Samudra ujung Rt. 014 Rw. 001 kel. Teluk sepang kec. Kampung melayu083173352593sri.astuti9966@gmail.com, astutisri162@gmail.com2018Muara Pinang12 Desember 1992Perempuan40-Perbankan Syari'ah18-02-20223,773 tahun, 7 bulan
1811140010AYU HIDAYATULLAHJL. KENANGA 2 GG.KEBANGKITAN NO.35 RT.06085380119595ayuhidayatulah09@gmail.com2018KOTA LUBUK LINGGAU25 Maret 2000Perempuan40-Perbankan Syari'ah16-02-20223,763 tahun, 7 bulan
1811140011TIYA AYU DIWI ASTARIJl.lintas barat desa Beriang Tinggi kec. Tanjung kemuning kab. Kaur082183563290tiyaayu018@gmail.com2018KAB. KAUR30 September 1999Perempuan40-Perbankan Syari'ah27-05-20223,733 tahun, 11 bulan
1811140012ROSA NURMARLIYANIKarang jaya082179378520nurmarliyanirosa@gmail.com2018KAB. MUKO-MUKO02 Maret 2000Perempuan40-Perbankan Syari'ah29-07-20223,554 tahun, 1 bulan
1811140013LARAS SINTIAJalan Raya Rantau Sialang082175822989larassintya1@gmail.com2018KAB. BENGKULU UTARA04 September 2000Perempuan40-Perbankan Syari'ah09-06-20223,683 tahun, 11 bulan
1811140015ZANTOS TANDRIANSYAHJalan Ratu Samban No 56085927509354ztandriansyah@gmail.com2018Lubuk saung10 April 2000Laki-laki40-Perbankan Syari'ah19-07-20223,774 tahun, 0 bulan
1811140017WILYANDIjalan remaja pasar ujung kepahiang085357558783willbengkulu123@gmail.com2018KAB. KEPAHIANG02 Mei 1999Laki-laki40-Perbankan Syari'ah07-07-20223,754 tahun, 0 bulan
1811140019MEMID NANGGRA LORENZApadang kedondong085896328092memet06122000@gmail.com2018KAB. KAUR06 Desember 2000Perempuan40-Perbankan Syari'ah09-06-20223,613 tahun, 11 bulan
1811140020BUNGA SHANDRINA ELISTIAJalan Raja Muda082185028283bungashandrina9@gmail.com2018KAB. BENGKULU SELATAN07 April 2000Perempuan40-Perbankan Syari'ah17-06-20223,733 tahun, 11 bulan
1811140021GRASELA LELI ANGGRAINITalang karet082281940741gracellaanggraini4@gmail.com2018Talang Karet16 Agustus 2000Perempuan40-Perbankan Syari'ah07-07-20223,754 tahun, 0 bulan
1811140022FITRIANA YULIANTIDusun Air Solok desa samban jaya kec.batiknau kab bengkulu utara082183233403fitrianayulianti.28@gmail.com2018KAB. BENGKULU UTARA28 November 2000Perempuan40-Perbankan Syari'ah07-07-20223,914 tahun, 0 bulan
1811140023RAHMAD IQLESSUMBER AGUNG0853812170422018KOTA.Lubuklinggau30 Oktober 1999Laki-laki40-Perbankan Syari'ah17-06-20223,773 tahun, 11 bulan
1811140024WELDA HOTIVAJL. SOPRAPTO DALAM RT 18 RW 06 BETUNGAN082374944675weldahotiva@gmail.com2018KOTA BENGKULU20 Juli 1999Perempuan40-Perbankan Syari'ah27-05-20223,763 tahun, 11 bulan
1811140025YUNI MULIANADesa Permu Bawah, Lingkungan 3 JL. Lintas Pagar Alam Kepahiang-Bengkulu, gang manggis082371139247yunimuliana071@gmail.com2018KAB. KEPAHIANG16 Juni 2000Perempuan40-Perbankan Syari'ah03-06-20223,673 tahun, 11 bulan
1811140026NARA NIRWANAjalan desa tungkal 2081279677295naranirwana18@gmail.com2018KAB. BENGKULU SELATAN02 Oktober 1999Perempuan40-Perbankan Syari'ah14-07-20223,574 tahun, 0 bulan
1811140027NURMEYDA LESTARIJalan Kinibalu 708985620003nurmeydalestari16@gmail.com2018KOTA BENGKULU16 Mei 2000Perempuan40-Perbankan Syari'ah23-06-20223,853 tahun, 11 bulan
1811140028ALDY FIKARDIPadang burnai Kec.Muara pinang Kab.Empat Lawang082380769046aldyfikardii@gmail.com2018KAB. EMPAT LAWANG26 Januari 2000Laki-laki40-Perbankan Syari'ah17-06-20223,623 tahun, 11 bulan
1811140029DEPA MEIZIAPAGAR JATI081368080406meiziadepa@gmail.com2018KAB. EMPAT LAWANG06 Mei 2001Perempuan40-Perbankan Syari'ah17-02-20223,503 tahun, 7 bulan
1811140030CHIKA DWIRAHMA YULIANTIjalan enggano RT 08 RW 02081539409322chikadwirahma.2509@gmailcom2018KOTA BENGKULU25 September 2000Perempuan40-Perbankan Syari'ah30-06-20223,844 tahun, 0 bulan
1811140031DEPI NOPITARATIJL SEJAHTERA0895616070942depinovitarati@gmail.com2018KAB. BENGKULU SELATAN20 Januari 2000Perempuan40-Perbankan Syari'ah27-10-20223,564 tahun, 4 bulan
1811140033ELSI FITRIANIDesa batu kuning kec.ulu manna,jalan raya manna-tanjung sakti kode pos 38571085367891443elsifitriani187@gmail.com2018KAB. BENGKULU SELATAN16 Januari 2000Perempuan40-Perbankan Syari'ah23-06-20223,693 tahun, 11 bulan
1811140034WENYJln. Trans Bumi Lampung, Desa Lubuk Tampang Kecamatan Kikim Timur Kabupaten Lahat Sumatera Selatan0000000000Susijabar.1@gmail.com2018KAB. LAHAT23 November 2000Perempuan40-Perbankan Syari'ah18-01-20233,714 tahun, 6 bulan
1811140035NINA GUSTINAKelurahan Bandar Jaya083178499486ninagustina234@gmail.com2018bintuhan18 Agustus 2000Perempuan40-Perbankan Syari'ah27-05-20223,623 tahun, 10 bulan
1811140036LEZY YOLANDAJALAN RAYA TANJUNG ALAM081541229141Lezyyolanda17@gmail.com2018KAB. BENGKULU SELATAN17 September 2015Perempuan40-Perbankan Syari'ah28-07-20223,604 tahun, 1 bulan
1811140037LIKA FIDIARTIJl. Merawan RT. 28 RW.0708978746001likafidia4@gmail.com2018KOTA BENGKULU29 April 2000Perempuan40-Perbankan Syari'ah28-07-20223,754 tahun, 1 bulan
1811140038YOVA NOVELAdesa kali081287481626-yovanovela9@gmail.com2018Desa kali,27 November 2000Perempuan40-Perbankan Syari'ah27-05-20223,613 tahun, 10 bulan
1811140039AYU WULANDARITanjung Harapan, Kec. Ipuh, Kab. MUKOMUKO0852739865012018Tanjung Harapan19 Mei 1999Perempuan40-Perbankan Syari'ah14-07-20223,564 tahun, 0 bulan
1811140040MIA FEBRIANTIDesa jembatan dua085769373235miafebrianti16022000@gmail.com2018KAB. KAUR22 April 1999Perempuan40-Perbankan Syari'ah27-07-20223,824 tahun, 0 bulan
1811140041ANESTI WIDYA HARTATIDusun Ulu Danau, Desa Padang betuah, Kecamatan Pondok Kelapa Kabupaten Bengkulu Tengah0895604792070anestiwidyah@gmail.com2018KAB. BENGKULU TENGAH02 Maret 2000Perempuan40-Perbankan Syari'ah21-02-20223,833 tahun, 7 bulan
1811140042RIA KARUNIAJl,Rinjani Rt/Rw : 010/003085769404050riakarunia90@gmail.com2018KOTA PAGAR ALAM10 Januari 1999Perempuan40-Perbankan Syari'ah14-07-20223,644 tahun, 0 bulan
1811140043DEVI KRISTINALubuk belimbing2085357830694devikristina@gmail.id2018LUBUK BELIMBING II24 Januari 1999Perempuan40-Perbankan Syari'ah14-07-20223,643 tahun, 11 bulan
1811140044LIDYA PELIYANItanjung aro jalan wedana gani085215014847Lidyapeliyanipga@gmail.com2018pagar alam18 Mei 1999Perempuan40-Perbankan Syari'ah27-05-20223,623 tahun, 10 bulan
1811140045SARI FAJRIANIPRUMNAS KORPRI 16 RT.12 RW.03 N0.659085282099280sarifajriani.sf@gmail.com2018BENGKULU16 Mei 1999Perempuan40-Perbankan Syari'ah13-01-20233,824 tahun, 5 bulan
1811140047ZITRI RAJIPAJalan Raya Naga Rantai081367765681zitrirajipa@gmail.com2018Iy vin naga rantai28 Maret 2001Perempuan40-Perbankan Syari'ah18-01-20233,604 tahun, 5 bulan
1811140048LITA PATRICIA NOVIANTYJl.Re.Martadinata Gang.al-barokah 2 RT.15 RW.02 No.11089634149784litapatricia18@gmail.com2018Bengkulu21 Februari 2000Perempuan40-Perbankan Syari'ah14-02-20223,913 tahun, 6 bulan
1811140049YOYOH SATRIANTOJALAN RAYA KINAL081377519044yoyobkljg@gmail.com2018papahan04 Juli 2000Laki-laki40-Perbankan Syari'ah09-06-20223,443 tahun, 10 bulan
1811140050HELEN MONALISAjl.lintas kepahiang - curup, kelurahan pensiunan belakang085764898332helenmonalisa29@gmail.com2018KEPAHIANG21 Februari 2000Perempuan40-Perbankan Syari'ah14-02-20223,803 tahun, 6 bulan
1811140051ANDRI SIRTA APRIANDOjln.Lintas Pagar Alam Desa Talang Karet Kecamatan Tebat Karai kab. Kepahiang Prov. Bengkulu081379707191ndeboy95@gmail.com2018talang karet14 April 2000Laki-laki40-Perbankan Syari'ah22-12-20223,264 tahun, 4 bulan
1811140052SONI ARIANTOjln.cinta damai desa padang lekat kecamatan kepahiang kabupaten kepahiang perovinsi bengkulu083271948500soniarianto@gmail.com2018kepahiang21 Februari 2000Laki-laki40-Perbankan Syari'ah14-02-20223,493 tahun, 6 bulan
1811140053NOPITA SARIdesa gelombang kec.SAM kabupaten seluma082372492593nsari0782@gmail.com2018gelumbang04 Mei 1998Perempuan40-Perbankan Syari'ah17-06-20223,463 tahun, 10 bulan
1811140054ANGGI ARRIS MUNADARJALAN RAYA KINAL082186494611Anggiarrism@gmail.com2018Gunung terang19 Februari 2000Laki-laki40-Perbankan Syari'ah12-01-20233,634 tahun, 5 bulan
1811140055NOPTI HANIFAH NURIAHJln. Bukit Barisan 1 rt 9 rw 3, Kebun Tebeng08984896987noptihanifah0@gmai.com2018Bengkulu18 November 1998Perempuan40-Perbankan Syari'ah13-01-20233,634 tahun, 5 bulan
1811140056ANIS TRI HANDAYANIJL. Merapi12 No.32A RT.2 RW.1 Kelurahan Kebun Tebeng Kecamatan Ratu Agung085155155156anishandayani@gmail.com2018BENGKULU10 April 2000Perempuan40-Perbankan Syari'ah27-07-20223,744 tahun, 0 bulan
1811140057ZERINAH KIANIJl. Raya Paragalam Bengkulu082182333348qianizerinah@gmail.com2018Muara Lintang09 Agustus 2001Perempuan40-Perbankan Syari'ah19-05-20223,673 tahun, 9 bulan
1811140058NURJUNI ARNITAJl Merawan 14 Rt 29 Rw 07089639124834nrjuniarnta99@yahoo.com2018Curup01 Juni 1999Perempuan40-Perbankan Syari'ah13-01-20233,814 tahun, 5 bulan
1811140060VINNI SEFTI ALPIANITADesa surulangun. No rumah 04. Dusun 03. Provinsi sumatera selatan. kode pos 31656085279614496vinnisefti2018@gmail.com2018Surulangun20 September 2000Perempuan40-Perbankan Syari'ah10-11-20223,614 tahun, 3 bulan
1811140061FRENZI PURNAMA SARYDesa Surulangun083182840439Resy9185@gmail.com2018desa surulangun21 Februari 2000Perempuan40-Perbankan Syari'ah14-02-20223,873 tahun, 6 bulan
1811140066HENI TRI HASTUTIDs. Semidang.Kec.Karang Tinggi Kab. Bengkulu Tengah082175909172henny.tryhastuti@gmail.com2018Karang Nanding09 April 2000Perempuan40-Perbankan Syari'ah19-05-20223,853 tahun, 9 bulan
1811140067MUHAMMAD EGI WHIDYANTOJalan lintas pagar alam desa talang karet kec tebat karai kab kepahiang prov bengkulu082386584585egiwhidyanto202018Talang karet20 September 2000Laki-laki40-Perbankan Syari'ah14-07-20223,593 tahun, 11 bulan
1811140068TIARA NOPIANTIKAJln lintas pagar alam.desa talang karet.kecamatan tebat karai.kabupaten kepahiang.provinsi bengkulu082135817144tiaraaaaa56@gmail.com2018TALANG KARET12 November 2000Perempuan40-Perbankan Syari'ah14-07-20223,643 tahun, 11 bulan
1811140069ULAN KRISDAYANTIDesa Gunung Tiga 1081369183254lkehpadilla1122@gmail.com2018GUNUNG TIGA09 Mei 1999Perempuan40-Perbankan Syari'ah14-07-20223,533 tahun, 11 bulan
1811140070MONICA DESI RAHMADANILemong/jl.syekh aminullah082186928906monicadesirahmadani22@gmail.com2018lemong03 Januari 1998Perempuan40-Perbankan Syari'ah07-02-20233,534 tahun, 6 bulan
1811140071ASRISA MEYLIZASimpang Air Muring082280437253asrisaph@gmail.com2018MEDAN19 Mei 2000Perempuan40-Perbankan Syari'ah28-07-20223,853 tahun, 11 bulan
1811140072WIDIA RICKYDesa dusun raja Kec.lais kab.bengkulu utara082183491402Widyaricky694@yahoo.com2018curup14 Oktober 1999Perempuan40-Perbankan Syari'ah19-07-20223,463 tahun, 11 bulan
1811140073RELY RAHMADALENAAir Kemang085261712613relyramadalena23@gmail.com2018Air kemang20 Agustus 2000Perempuan40-Perbankan Syari'ah28-07-20223,713 tahun, 11 bulan
1811140074RESKA JUNIVIADESA BANDUNG AYU KEC PINO RAYA085269949472efendireska22@gmail.com2018DESA BANDUNG AYU22 Juni 2000Perempuan40-Perbankan Syari'ah27-01-20233,564 tahun, 5 bulan
1811140075LEVI OKTAFIANITanjung Iman Kecamatan Kaur Tengah Kab. Kaur085609105188levioktafiani3@gmail.com2018TANJUNG IMAN17 Oktober 2000Perempuan40-Perbankan Syari'ah18-01-20233,314 tahun, 5 bulan
1811140076NURJANADusun ll Desa Lubuk Rumbai Kecamatan Rupit082217561676nurjanaaa7@gmail.com2018Lubuk Rumbai20 Agustus 2000Perempuan40-Perbankan Syari'ah23-06-20223,733 tahun, 10 bulan
1811140078WENDI FEBRIANTObengkulu selatan / kutau /jalan grakalam089628782933Wendifebrianto0@gmail.com2018Bengkulu selatan (manna)25 Mei 2000Laki-laki40-Perbankan Syari'ah27-07-20223,763 tahun, 11 bulan
1811140079DONNDA ANELPIAir Kemang082177414273donndaanelpi17@gmail.com2018AIR KEMANG17 Februari 2000Perempuan40-Perbankan Syari'ah23-06-20223,683 tahun, 10 bulan
1811140080MILINIA SULRIHAIBumi ayu / Jln bumi ayu 8 RT 10 RW 02 / bumi ayu 8082180500958sintarahayu110594@gmail.com2018bengkulu16 Januari 2000Perempuan40-Perbankan Syari'ah15-12-20223,554 tahun, 4 bulan
1811140081SUCI PUJA PRATAMAJln. Melur No. 38 Rt 05 Rw 01085268247503pujabkl.15@gmail.com,pujaapujaaa@yahoo.com2018LAHAT05 Agustus 2001Perempuan40-Perbankan Syari'ah22-12-20223,844 tahun, 4 bulan
1811140083NABILA OKTARINA IRAWANJalan Merawan 18 No 38 RT 25 RW 07 Kota Bengkulu081367267785nabila.oktarinairawan@gmail.com2018Bengkulu17 Oktober 2000Perempuan40-Perbankan Syari'ah10-11-20223,804 tahun, 3 bulan
1811140087HERLI HENDEKIJalan Bengkulu Manna Km 81085609976115herlihendeki0714@gmail.com2018Bunut tinggi14 Juli 1999Laki-laki40-Perbankan Syari'ah03-06-20223,513 tahun, 10 bulan
1811140088ANGEL PURWANINGSIHDusun ll bangun rejo. Desa sukaraya baru085839094514angelpurwaningsih1@gmail.com2018BENGKULU07 Januari 1998Perempuan40-Perbankan Syari'ah30-06-20223,803 tahun, 11 bulan
1811140089BETY MEILENSEDESA BABATAN ILIR KEC.SEGINIM085273236770meilensebety@gmail.com2018Babatan19 Mei 2000Perempuan40-Perbankan Syari'ah27-01-20233,544 tahun, 5 bulan
1811140090CINTYA DWI PUTRIJL. RAYA MUARA PINANG Kec.muara pinang kab. Empat lawang087796076927Cintiaaaya@gmail.com2018Muara Pinang25 Agustus 2001Perempuan40-Perbankan Syari'ah19-01-20233,504 tahun, 5 bulan
1811140093LEGI PIANIJl.lintas beriang tinggi082306454411Legipiani@mail.com2018Beriang tinggi30 Juni 2000Perempuan40-Perbankan Syari'ah27-07-20223,633 tahun, 11 bulan
1811140094SRI DARTIjl.lintas sematera bengkulu-padang desa pondok suguh, kecamatan pondok Suguh, Kabupaten Mukomuko082278200982sridarti02@gmail.com2018Pondok Suguh10 Juli 2000Perempuan40-Perbankan Syari'ah28-07-20223,703 tahun, 11 bulan
1811140096AGIL MAGRIBdesa air mayan pasemah air keruh081270934485agilmagrib1234@gmail.com2018DESA AIR MAYAN10 November 2000Laki-laki40-Perbankan Syari'ah15-12-20223,554 tahun, 4 bulan
1811140097MARFUAHRT 02 RW 01082376970169marfuah.bks@gmail.com2018DESA PURBOSARI07 September 1999Perempuan40-Perbankan Syari'ah03-11-20223,954 tahun, 3 bulan
1811140098FERA AYU JUWITAJalan Semarak 1, Bentiring RT 01 RW 02 Muara Bangkahulu Kota Bengkulu0000000000rimadwisp19@gmail.com2018BENGKULU27 Februari 2000Perempuan40-Perbankan Syari'ah27-01-20233,534 tahun, 5 bulan
1811140100DEA AYU LARASTYDEsa Pagar Gading Kecamatan Pino Raya Kabupaten Bengkulu Selatan081368681299deaayu059@gmail.com2018pagar gading17 Agustus 2000Perempuan40-Perbankan Syari'ah10-11-20223,564 tahun, 3 bulan
1811140101TYA ALVADETADESA LAWANG AGUNG KEC.MULAK ULU KAB.LAHAT085366961215mahendraxiaomi4@gmail.com2018Lawang agung25 Juli 2000Perempuan40-Perbankan Syari'ah30-06-20223,563 tahun, 11 bulan
1811140102RORI OKTA PRATAMAPematang Riding082387333128roripratama672@gmail.com2018Pematang riding13 Oktober 1999Laki-laki40-Perbankan Syari'ah23-06-20223,513 tahun, 10 bulan
1811140103OKTA VIANIGUNUNG KAYA085269950185oktaviani2814@gmail.com2018Gunung Kaya02 Oktober 1999Perempuan40-Perbankan Syari'ah18-01-20233,584 tahun, 5 bulan
1811140104MUHAMMAD RYANSYAHYUVAN ALWENDOjalan galunggung 2082269055087ryansyahyuvan@gmail.com2018Bengkulu02 Februari 1999Laki-laki40-Perbankan Syari'ah28-07-20223,823 tahun, 11 bulan
1811140105TENSY AGUSTIANADusun baru depan smp 1081279402394Tensyagustiana@gmail.com2018Lubuk Dalam29 Agustus 1999Perempuan40-Perbankan Syari'ah16-02-20223,743 tahun, 6 bulan
1811140106BELA OKTARIAJl. Tengah bengkulu - Argamakmur085211480719belaoktaria2207@gmail.com2018BENGKULU22 Oktober 2000Perempuan40-Perbankan Syari'ah22-12-20223,584 tahun, 4 bulan
1811140107HENY LESTARIDesa Tanjung Betuah Kec. Nasal Kab. Kaur085384384841lheny4373@gmail.com2018desa tanjung betuah16 Juli 1999Perempuan40-Perbankan Syari'ah10-11-20223,794 tahun, 3 bulan
1811140108DESTI DOMAYANTIDesa Suku Tiga Kec. Nasal Kab. Kaur085368224259damayantidesti748@gmail.com2018Airpalawan20 November 1999Perempuan40-Perbankan Syari'ah27-01-20233,604 tahun, 5 bulan
1811140111CITRA RAMADHAWITAKota Agung082282671011Citraramadhawita@gmail.com2018KOTA AGUNG07 Desember 2000Perempuan40-Perbankan Syari'ah25-01-20233,524 tahun, 5 bulan
1811140114DEA RATNA SARIJalan Bakti Husada 6 RT.12 RW.03 Kota Bengkulu089630905382deacharly@ymail.com2018Bengkulu20 September 1999Perempuan40-Perbankan Syari'ah25-01-20233,504 tahun, 5 bulan
1811140115WIKA ARDIYANTIJL.Durian Bumi Ayu Kota Bengkulu089629548161wikaardiyanti32@gmail.com2018Pagar Banyu20 Januari 2001Perempuan40-Perbankan Syari'ah17-06-20223,683 tahun, 10 bulan
1811140117NATLY ANNISA NASUTIONjalan irian .dibelakang masjid al azhar tanjung agung
Rt: 01 Rw :01
08990876914natlynasution@gmail.com2018Bengkulu22 Desember 1999Perempuan40-Perbankan Syari'ah24-01-20233,674 tahun, 5 bulan
1811140119MITA AUDINIASuka Bandung085382384860mita53155@gmail.com2018tanjung kurung04 Mei 2000Perempuan40-Perbankan Syari'ah30-06-20223,913 tahun, 11 bulan
1811140121SANTI GANTARIPadang Bindu Rt. 01 Rw. 01081235673008santigantari@gmail.com2018PADANG BINDU12 Juni 2000Perempuan40-Perbankan Syari'ah27-07-20223,643 tahun, 11 bulan
1811140122CINDY GASELLA TRI JUNIARTIJalan belimbing 3 Rt.24 Rw.08082281931056grasella_cindy@ymail.com2018BENGKULU03 Juni 1999Perempuan40-Perbankan Syari'ah19-07-20223,863 tahun, 11 bulan
1811140124SEFTI DELIA MAHARANIJalan lintas pagar alam Desa Talang karet kec Tebat karai Kab Kepahiang Prov Bengkulu085283276808seftideliamaharani@gmail.com2018TALANG KARET08 September 2000Perempuan40-Perbankan Syari'ah08-12-20223,634 tahun, 4 bulan
1811140126WULAN DARIseleka 1081273355072Rensiendangsari@gail.com2018SELIKA 125 Januari 1998Perempuan40-Perbankan Syari'ah19-01-20233,524 tahun, 5 bulan
1811140127AYU ANGGUN SARIJl.perm betungan no.189089629136250ayu.anggunsari280400@gmail.com2018Curup28 Februari 2000Perempuan40-Perbankan Syari'ah08-12-20223,814 tahun, 4 bulan
1811140128MELISA SEPTIARADesa Cahaya Negeri Kec. Luas Kab. Kaur082269563543melisaseptiara@gmail.com2018cahaya negeri09 September 2001Perempuan40-Perbankan Syari'ah27-07-20223,573 tahun, 11 bulan
1811140130DEWI RATNASARIJL. KUSUMA081532245467dewiratna202006@gmail.com2018AIR SEBAYUR11 Januari 2000Perempuan40-Perbankan Syari'ah24-01-20233,634 tahun, 5 bulan
1811140131MUHAMMAD ALI MURTADHOKelurahan Desa Baru082269271993muhhamadalimurtadho@gmail.com2018Kel.dusun baru11 September 2000Laki-laki40-Perbankan Syari'ah27-01-20233,644 tahun, 5 bulan
1811140132DILA KURNIA RAHAYURT 01 RW 06 Dusun Bukit Mulya Desa Tanjung Anom Kec.Giri Mulya Kabupaten Bengkulu Utara085764493096dilakurniarahayu@gmail.com2018Tanjung Anom22 Oktober 1999Perempuan40-Perbankan Syari'ah22-12-20223,584 tahun, 4 bulan
1811140136DETA ERLINA WATINanti agung085783821828detaerlina75@gmail.com2018Desa nanti agung01 Desember 1999Perempuan40-Perbankan Syari'ah24-01-20233,654 tahun, 5 bulan
1811140139RANADESA PASAR PINO KEC PINO RAYA082185004609ranapinoraya@gmail.com2018PASAR PINO12 Juni 2000Perempuan40-Perbankan Syari'ah27-07-20223,633 tahun, 11 bulan
1811140140YUNITA SRI LESTARIJalan tengah bengkulu arga makmur KM 42082186822080lestariyunita021@gmail.com2018Dusun curup21 Juni 1999Perempuan40-Perbankan Syari'ah18-01-20233,614 tahun, 5 bulan
1811140141SEPTI WITRIANIDesa Talang Jarang, Kec. Air Napal, Kab. Bengkulu utara085266660449septiwitriani15@gmail.com2018Talang jarang22 September 2000Perempuan40-Perbankan Syari'ah20-12-20223,844 tahun, 4 bulan
1811140142RIKA APRIL YANTIDesa Talang Jarang, Kec. Air Napal, Kab. Bengkulu utara085379412810rikaaprilyanti04@gmail.com2018Talang Jarang04 April 2000Perempuan40-Perbankan Syari'ah19-07-20223,583 tahun, 11 bulan
1811140146MONICA MARSELIYANTIJl Tengah Km 42 Bengkulu-Argamakmur085383617570www.monicamarseliyanti040301@gmail.com2018Dusun curup04 Maret 2001Perempuan40-Perbankan Syari'ah08-12-20223,774 tahun, 4 bulan
1811140148YAKIN AKBAR MAKBULDesa Tanjung Sakti No:03 Rt:02 Pondok Kelapa II Kec.Pondok Kelapa Kab.Bengkulu Tengah Prov.Bengkulu081373340386yakinakbarmakbul000@gmail.com2018Tanjung sakti17 Juni 2000Laki-laki40-Perbankan Syari'ah07-02-20233,764 tahun, 6 bulan
1811140149RIZKI PUTRI ANANDAPRUM VINESA BLOK B NO.01 RT 026 RW 006085766873001rizkiputriananda747@gmail.com2018BENGKULU20 Juni 2000Perempuan40-Perbankan Syari'ah29-07-20223,523 tahun, 11 bulan
1811140151HELMI SUTRIJl. Raya Padang Kemiling RT. 07 RW. 03089607069109hsriri98@gmail.com2018BENGKULU08 Juni 1999Perempuan40-Perbankan Syari'ah22-12-20223,564 tahun, 4 bulan
1811140153FATMA WATIDesa Tanjung Besar Kec. Kaur Selatan Kab. kaur081278751845fatmabk33@gmail.com2018Tanjung Besar01 Januari 2000Perempuan40-Perbankan Syari'ah25-07-20223,593 tahun, 11 bulan
1811140156CINDY AFRIANIJalan bhayangkara no 5 komp stm087801385893cindyafriani15@gmail.com2018BENGKULU15 Januari 2000Perempuan40-Perbankan Syari'ah14-07-20223,933 tahun, 11 bulan
1811140157FADILATUL SYAFIRAH NURJl.Rangkong No.132 RT.19 RW.060895605901741fadilatulsyafirahnur@gmail.com2018Bengkulu30 Oktober 1999Perempuan40-Perbankan Syari'ah14-07-20223,663 tahun, 11 bulan
1811140159ARIZA PUTRIANIsindang bulan,kecamatan seginim,kabupaten bengkulu selatan082185713460arizaputriani@gmail.com2018sindang bulan24 April 2000Perempuan40-Perbankan Syari'ah22-12-20223,444 tahun, 4 bulan
1811140161SEPTHANIA NURAINIDESA TALANG JARANG ,KEC,AIR NAPAL ,KABUPATEN BENGKULU UTARA082373991169Septhanianuraini13@gmail.com2018talang jarang11 September 1999Perempuan40-Perbankan Syari'ah22-12-20223,544 tahun, 4 bulan
1811140162KRISMANTOJL.DEMPO IV RT.14 RW.04 NO.200895610015004kris65303@gmail.com2018Bengkulu utara09 Maret 1999Laki-laki40-Perbankan Syari'ah28-07-20223,683 tahun, 11 bulan
1811140164MUHAMMAD SANTOSOJl. Letnan Munandar082289680420santosobandar30@gmail.com2018Lahat15 Agustus 1999Laki-laki40-Perbankan Syari'ah19-01-20233,254 tahun, 5 bulan
1811140166FIRLI SETYA SUHENDARJL.P.natadirja 14 RT/RW:14/04089644134086firlysetiasuhendar@gmail.com2018Sukabumi21 Juli 1998Laki-laki40-Perbankan Syari'ah28-07-20223,903 tahun, 11 bulan
1811140167REPI REPITASARIDesa Renah Semanek Kec.Karang Tinggi.Kab.Bengkulu Tengah/Jl.Karang tinggi,Pelajau/Gang Perkantoran085658310414repirepitasari@gmail.com2018Renah Lebar24 November 1999Perempuan40-Perbankan Syari'ah14-07-20223,643 tahun, 11 bulan
1811140168PAHMI JEPISONDesa Pasar Baru Bintuhan Kec. Kaur selatan085664679972pahmijepison@gmail.com2018BINTUHAN02 Juni 2001Laki-laki40-Perbankan Syari'ah18-01-20233,334 tahun, 5 bulan
1811140169HELIDA RAMADHANIjln. teratai bumi ayu Bengkulu08984903970helidaramadhani@gmail.com2018TALANG BERINGIN11 Desember 1999Perempuan40-Perbankan Syari'ah01-12-20223,664 tahun, 3 bulan
1811140171ADE TRIPURWANTOJalan lintas pagam alam, desa imigrasi permu,gang lembur tonggoh085764487597adetripurwanto7799@gmail.com2018lampung07 Juli 1999Laki-laki40-Perbankan Syari'ah29-12-20223,694 tahun, 4 bulan
1811140172ANJAS SAPUTRAJln. Sumur Dewa Blok.B No.5 Rt.20 Rw.06082374742410anjas181198@gmail.com2018Bengkulu18 November 1998Laki-laki40-Perbankan Syari'ah28-07-20223,663 tahun, 11 bulan
1811140174NOPA PEBRIANIdesa sidorejo ,kecamatan pondok kelapa bengkulu tengah085788064542neoseven17@gmail.com2018desa sidorejo, Pondok kelapa, Bengkulu Tengah28 November 1999Perempuan40-Perbankan Syari'ah25-01-20233,854 tahun, 5 bulan
1811140175MARLINDAPerumnas Kemiling Permai085832193236Lindamar682@.gmail.com ,marlindalinda268@gmail.com2018Lubuk Resam26 Januari 1999Perempuan40-Perbankan Syari'ah27-07-20223,753 tahun, 11 bulan
1811140176RAHMA PUTRIPERUM VILLA DANAU INDAH I BLOK E2-4408984431895rahmap43@gmail.com2018BENGKULU24 Maret 2000Perempuan40-Perbankan Syari'ah25-01-20233,754 tahun, 5 bulan
1811140177ICI MUTIARADs. Penandingan085382393996Icimutiara@gmail.com2018Penandingan09 September 1999Perempuan40-Perbankan Syari'ah03-06-20223,713 tahun, 9 bulan
1811140178NINUK AFRINIJL.KUALA LEMPUING085208126776Ninukafrini04@yahoo.com2018BENGKULU27 April 1998Perempuan40-Perbankan Syari'ah27-01-20233,444 tahun, 5 bulan
1811140179ATIKA TRI ARYANIPerumnas griya betungan asri082218995778atikatriaryani.14@gmail.com2018Talang tais14 Maret 2000Perempuan40-Perbankan Syari'ah17-02-20223,893 tahun, 5 bulan
1811140180DEDENG YUZUMI YANZAJl.raya seginim085758069877Yuzumiyanza@gmail.com2018Kota bumi baru20 Juli 2000Laki-laki40-Perbankan Syari'ah08-12-20223,334 tahun, 3 bulan
1811140181SARI RAMADANTIDesa sungai pura085366539342sariajo458@gmail.com2018sungai pura09 Desember 1999Perempuan40-Perbankan Syari'ah01-12-20223,664 tahun, 3 bulan
1811140182NANDA EGI SENTOSA PUTRAJALAN SADANG RAYA NO. 15 RT 09 RW 03085832106122nandaegi2000@gmail.com2018BENGKULU27 Juni 2000Laki-laki40-Perbankan Syari'ah22-12-20223,594 tahun, 3 bulan
1811140184TASSHA SASKIAJL.KUALA LEMPUING083177597251tasshaasaskia24@gmail.com2018BENGKULU27 Agustus 2000Perempuan40-Perbankan Syari'ah19-05-20223,823 tahun, 8 bulan
1811140185WIKE SINTIADesa Tanjung Raman kecamatan Manna kabupaten Bengkulu Selatan085379493649wikesintia30@gmail.com2018Tanjung Raman30 Agustus 1998Perempuan40-Perbankan Syari'ah27-07-20223,703 tahun, 11 bulan
1811140186LISA APRILIA FEBRIANjalan irian No 28 RT 01 RW 01 Kelurahan Tj agung kecamatan Sungai Serut Kota Bengkulu089627291873lisaaprilia0502@gmail.com2018pasar kerkap,bengkulu utara04 Februari 2000Perempuan40-Perbankan Syari'ah17-06-20223,863 tahun, 9 bulan
1811140188ADE RAHMAT SAPUTRAjln ciliwung bawah blok e no 9 Rt 02 Rw 01081334475469aderahmat26.ar@gmail.com2018bengkulu30 Juni 1999Laki-laki40-Perbankan Syari'ah27-07-20223,723 tahun, 11 bulan
1811140189NORA AZIZADesa muara tiga082311394083noraaziza88@yahoo.com2018desa muara tiga09 Januari 2000Perempuan40-Perbankan Syari'ah01-12-20223,784 tahun, 3 bulan
1811140190SYARAH OKTARINA WIRANTIJln. Re Martadinata 2 rt 27 rw 05 Pagar Dewa Kota Bengkulu085273343619sarahoktarina56@gmail.com2018Bengkulu22 Oktober 1999Perempuan40-Perbankan Syari'ah01-12-20223,914 tahun, 3 bulan
1811140191ALIMATUS SA'DIYAHDesa Lokasi Baru Kec. Sukaraja Kab. Seluma082372658425alimabengkulu@gmail.com2018Talang Benuang05 Mei 2000Perempuan40-Perbankan Syari'ah13-01-20233,864 tahun, 4 bulan
1811140192WAHYU AGUS VIANTIKAJL BUMI AYU 05 NO 29089632346022tikaviantika99@gmail.com2018BENGKULU24 Agustus 1999Perempuan40-Perbankan Syari'ah27-07-20223,993 tahun, 11 bulan
1811140193SILVIA DWI RAMA DINAJln.GANDARIA 108984293334silviadwi541@gmail.com2018BENGKULU30 April 2000Perempuan40-Perbankan Syari'ah03-06-20223,793 tahun, 9 bulan
1811140194KUSUMA RAMADHAN EKA SAPUTRAJL. HIBRIDA UJUNG, TIRTA DEWA 3089632435146ramamadon129@gmail.com2018Bengkulu03 Januari 1999Laki-laki40-Perbankan Syari'ah12-01-20233,814 tahun, 4 bulan
1811140195VINA ANZALINATANJUNG ALAI082280689131vinaanzalina27@gmail.com2018TANJUNG ALAI27 November 1999Perempuan40-Perbankan Syari'ah27-07-20223,663 tahun, 11 bulan
1811140196ELISA PERMATASARIprumnas tugu hiu081368058698elisaaja822@gmail.com2018Dusun baru 123 Februari 1999Perempuan40-Perbankan Syari'ah14-07-20223,763 tahun, 10 bulan
1811140197TOMI NIKARDOLubuk Dalam0852736424192018Semidang Alas20 Juli 2000Laki-laki40-Perbankan Syari'ah25-01-20233,384 tahun, 5 bulan
1811140198RISA APRILIAJln. Pensiunan belakang (dekat kantor PDAM) nomor rumah 041. Kepahiang0895609765273rissaprilll@gmail.com2018Kepahiang03 April 2000Perempuan40-Perbankan Syari'ah08-07-20223,743 tahun, 10 bulan
1811140201WINDI REZKI DWI BAKTILUBUK PINANG085281661293dwirezkibakti@gmail.com2018LUBUK PINANG30 Juli 1998Laki-laki40-Perbankan Syari'ah12-01-20233,554 tahun, 4 bulan
1811140202NOVA DESTIANADESA DURIAN BESAR KECAMATAN LUAS KABUPATEN KAUR PROVINSI BENGKULU082378314334Novadestiana2017@gmail.com2018DURIAN BESAR12 Desember 2000Perempuan40-Perbankan Syari'ah19-05-20223,693 tahun, 8 bulan
1811140205CHINDI SEPTINAjl.hibrida ujung gg. tirta dewa 50895411352759septinachindi@gmail.com2018BENGKULU15 September 1999Perempuan40-Perbankan Syari'ah25-01-20233,644 tahun, 5 bulan
1811140206MIKA SEPTIA REZADIJl. Sungai Rupat Gg. Bhakti Husada 03 Rt.42 Rw.080895640695827mikabkl04@gmail.com2018BENGKULU04 September 1999Perempuan40-Perbankan Syari'ah25-01-20233,884 tahun, 5 bulan
1811140208ANISAH JAYANTIjalan jawa 01 RT.10 RW.01 No.61 sukamerindu089604173520anisariski45@gmail.com2018ARGAMAKMUR22 April 1999Perempuan40-Perbankan Syari'ah14-07-20223,863 tahun, 10 bulan
1811140210RINADesa Dusun Raja Kecamatan Ketahun Bengkulu Utara082261838376rinarinnn17@gmail.con2018Dusun Raja17 Mei 2000Perempuan40-Perbankan Syari'ah30-06-20223,743 tahun, 10 bulan
1811140211FEZY INNE LESTARIHibrida Ujung,Gang Palawan,Rt.10,Rw.02, Kelurahan Pagar Dewa, Kec.Selebar, Kota Bengkulu. Propinsi Bengkulu082282678748fezyinnelestari@gmail.com2018Desa.Padang Beriang Kec.Pino Raya Kab.Bengkulu Selatan21 Oktober 1999Perempuan40-Perbankan Syari'ah25-07-20223,653 tahun, 11 bulan
1811140212EXA LADEKA STIADIlubuk kuta082373395260exaladeka06@gmail.com2018bengkulu06 September 2000Laki-laki40-Perbankan Syari'ah22-12-20223,694 tahun, 3 bulan
1811140213LIYA GUSTRIAWATIdesa karang are0000000000liyagustriawati@gmail.com2018karang are27 Agustus 1999Perempuan40-Perbankan Syari'ah25-01-20233,594 tahun, 5 bulan
1811140215TIARA INDRIANIDs. Kerinjing08154161633tiaraindrianugmail@.com2018Pagaralam07 Agustus 2000Perempuan40-Perbankan Syari'ah28-07-20223,823 tahun, 11 bulan
1811140216SANLONA SARIjln almukaromah ujung Rt 27 Rw 05082185657930Sanlona02@gmail.com2018bengkulu01 Agustus 1999Perempuan40-Perbankan Syari'ah19-02-20223,773 tahun, 5 bulan
1811140217RIVEN AFRIANSAHJl. Raya selika 3085369615667rivena@gmail.com2018Selika313 April 2000Laki-laki40-Perbankan Syari'ah03-06-20223,663 tahun, 9 bulan
1811140218SAKINAH SALSABILAJalan depati payung negara 508975305387Sakinahsalsabila06@gmail.com2018Palembang06 Desember 1999Perempuan40-Perbankan Syari'ah14-07-20223,793 tahun, 10 bulan
1811140219ANISA DEVI PARAMITATANAH ABANG085366304643paramitaanisa17@gmail.com2018TANAH ABANG17 April 2000Perempuan40-Perbankan Syari'ah14-07-20223,533 tahun, 10 bulan
1811140220DIANA TUSSHOLEHAdesa talang jarang082269226046Tussholehadianata@gmail.com2018desa talang jarang09 Desember 1999Perempuan40-Perbankan Syari'ah22-12-20223,784 tahun, 3 bulan
1811140222NOVITA TARIJL BUMI AYU 05082385887847novitatarii@gmail.com2018BENGKULU11 September 1999Perempuan40-Perbankan Syari'ah25-01-20233,694 tahun, 5 bulan
1811140223MUTYA QARUNIA SARIPERUMAHAN BENTIRING INDAH085357787830mutyaqaruniasari2000@gmail.com2018BENGKULU21 November 1998Perempuan40-Perbankan Syari'ah25-02-20223,623 tahun, 6 bulan
1811140225BAFELA DWI RISITADesa taba jambu089606404689Bafeladwirisita@gmail.com2018Tanjung dalam09 Desember 2000Perempuan40-Perbankan Syari'ah19-07-20223,623 tahun, 10 bulan
1811140227YEYES MEREPSIJl. Anggrek082281723037merepsiyeyes@gmail.com2018Sawang Lebar, Ilir17 Maret 2000Perempuan40-Perbankan Syari'ah08-07-20223,533 tahun, 10 bulan
1811140231AGNES MONIKADesa keban agung 2085874029448Agnesmonika.gmail.com2018desa keban agung 228 Agustus 2000Perempuan40-Perbankan Syari'ah09-06-20223,663 tahun, 9 bulan
1811140232HELDA YUTAMIDESA JAJARAN LAMA0823800675212018JAJARAN LAMA25 Oktober 1999Perempuan40-Perbankan Syari'ah27-07-20223,553 tahun, 11 bulan
1811140235REFA INTAN PERMATAKUDESA RAMBAI KACA082182807237refaintanp@gmail.com2018RAMBAI KACA01 Januari 2001Perempuan40-Perbankan Syari'ah28-07-20223,813 tahun, 11 bulan
1811140236AHMAD MUKTARIDItanjung agung082316637100ahmadmutaridi@gmail.com2018TANJUNG AGUNG17 Agustus 2000Laki-laki40-Perbankan Syari'ah17-11-20223,444 tahun, 2 bulan
1811140237ANTRY JANA LESTARIJalan Padat Karya 6 Nomor 05 RT 001 RW 004 Kelurahan Sumur Dewa Kecamatan Selebar Kota Bengkulu089524413308antryjana.lestari83@gmail.com2018Bengkulu10 Januari 1999Perempuan40-Perbankan Syari'ah19-02-20223,673 tahun, 5 bulan
1811140239NUR KHOLIFAH PRAMITAsalam harjo kec. kerkap bengkulu utara082281206781Nurkholifahpramita 123@gmail.com2018salam harjo23 November 2000Perempuan40-Perbankan Syari'ah28-07-20223,503 tahun, 11 bulan
1811140241YEFRI YADIJl.jati kota bengkulu0895616565650Yefriyadi10@gmail.com2018Bengkulu07 Oktober 1999Laki-laki40-Perbankan Syari'ah19-07-20223,623 tahun, 10 bulan
1811140242DHEA HIKMA AMELIAGang merpati 7 no 01082281068673dheahikmahamelia420@gmail.com2018pagaralam19 September 1999Perempuan40-Perbankan Syari'ah19-02-20223,663 tahun, 5 bulan
1811140243MONALISAJl. kalimantan merpati 4. RT4. RW 2. NO 310895331145380teukieduckie@gmail.com,2018bengkulu22 Mei 1997Perempuan40-Perbankan Syari'ah14-07-20223,703 tahun, 10 bulan
1811140245YUNITA RAHMAWATYJl. Yos Sudarso Kel. Taba Jemekeh Kec. Lubuklinggau Timur 1 No. 23 RT. 110895336456585haloyunita11@gmail.com2018Lubuklinggau11 Juni 2000Perempuan40-Perbankan Syari'ah28-07-20223,693 tahun, 11 bulan
1811140246SEPTI DWI ANGGRAINIperumahan alfatindo blok b no.080853819721042018bengkulu27 September 1999Perempuan40-Perbankan Syari'ah28-07-20223,563 tahun, 11 bulan
1811140248ADELA RISKITAJalan Lubuk Puding Baru Kelurahan Lubuk Puding Baru Kecamatan Ulu Musi085266226469adelariskita17@gmail.com2018LUBUK PUDING BARU20 April 2000Perempuan40-Perbankan Syari'ah19-07-20223,773 tahun, 10 bulan
1811140249RAHMAD ISJUANTOJl. WIJAYA KUSUMA RT.12 RW.04081366632873rahmadisjuanto@gmail.com2018BENGKULU03 Juli 2000Laki-laki40-Perbankan Syari'ah27-07-20223,753 tahun, 11 bulan
1811160002SENA DWI ANDIKADESA TEDUNAN KECAMATAN SEMIDANG ALAS MARAS KABUPATEN SELUMA085267643601MARITALESTARI7@GMAIL.COM2018KAB. SELUMA21 September 2000Perempuan48-Manajemen Zakat dan Wakaf26-07-20223,574 tahun, 1 bulan
1811160003MILA MAYANG UTAMIJalan lintas kabawetan kepahiang0822862955952018KAB. KEPAHIANG02 Juni 1969Perempuan48-Manajemen Zakat dan Wakaf26-07-20223,364 tahun, 1 bulan
1811160004RADATUL JANA PUTRIdesa padang leban082377928273putrijanbengkulu@gmail.com2018KAB. KAUR01 Desember 1999Perempuan48-Manajemen Zakat dan Wakaf01-12-20223,634 tahun, 5 bulan
1811160005DIAH JIMIARTIGunung Kaya Kec. Pd. Guci Hilir085368223010diahjimiarti03@gmail.com2018Gunung Kaya03 Januari 2000Perempuan48-Manajemen Zakat dan Wakaf26-07-20223,584 tahun, 1 bulan
1811160006NOPPIA ANGGRAINIJl.Bumi Ayu 3 perum depag Rt 09 Rw 010895621506038nopiaanggraini51@gmail.com2018BENGKULU27 November 1999Perempuan48-Manajemen Zakat dan Wakaf09-06-20223,883 tahun, 11 bulan
1811160007WORI ARUNIKA RAHAYUPADANG LEBAN081271890674Woriarunica30@gmail.com2018padang leban30 April 1998Perempuan48-Manajemen Zakat dan Wakaf16-12-20223,304 tahun, 4 bulan
1811160011ERIKA CAMELIADesa Tanjung Raman ,Kecamatan Manna,Kab Bengkulu Selatan085601618009erikacamelia1@gmail.com2018Tanjung raman05 Mei 1999Perempuan48-Manajemen Zakat dan Wakaf26-07-20223,653 tahun, 11 bulan
1811160012LAURA NASEVAjln lintas barat km 15 desa padang jawi kec bunga mas kab bengkulu selatan085378658068lauranaseva@gmail.com2018Padang jawi13 April 1999Perempuan48-Manajemen Zakat dan Wakaf08-07-20223,473 tahun, 11 bulan
1811160014RETNO AGUSTINDesa Talang Alai082315790202agustinretno.co.id2018Talang Alai19 Agustus 1999Perempuan48-Manajemen Zakat dan Wakaf15-07-20223,863 tahun, 10 bulan
1811160016RARA MONICAMUARA TIMPUT085764477931raramonicaseluma1234@gmail.com2018KETAPANG BARU12 April 2000Perempuan48-Manajemen Zakat dan Wakaf15-07-20223,653 tahun, 10 bulan
1811160018SITI MARDIAH HAJARWATIDesa Genting Jaya, Kelurahan Jokoh, Kecamatan Dempo Tengah Kota Pagar Alam082178729433Sitimardiyahhajarwati03@gmail.com2018Pagar Alam16 April 2000Perempuan48-Manajemen Zakat dan Wakaf08-07-20223,583 tahun, 10 bulan
1811160020LETRHA AVDELLADesa Nanjungan085273365232letraavdella@gmail.com2018Nanjungan28 Mei 2000Perempuan48-Manajemen Zakat dan Wakaf20-01-20233,574 tahun, 4 bulan
1811160022DWI RUSTALINAcoko betung085368621806putrimarlena1403@gmail.com2018coko betung06 Juni 2000Perempuan48-Manajemen Zakat dan Wakaf27-01-20233,404 tahun, 5 bulan
1811160025HERU APRILIANSAHsungai dangku081379708165apriliansyahheru@gmail.com2018megang sakti24 April 2000Laki-laki48-Manajemen Zakat dan Wakaf26-07-20223,233 tahun, 11 bulan
1811170001KUNTO AGUNG PARAYOGAJl.prumnas pintu langit082279338095agungkuntop@gmail.com2018Tanjung Beringin08 April 2000Laki-laki78-Manajemen Haji dan Umroh01-12-20223,774 tahun, 5 bulan
1811170002TRI SANTYADESA GINDO SULI081367609566trisantya0@gmail.com2018KAB. BENGKULU SELATAN20 Februari 2000Perempuan78-Manajemen Haji dan Umroh26-07-20223,794 tahun, 1 bulan
1811170003REVO AKSI MANDARAJalan Raya Palak Siring0823752526072018KAB. BENGKULU SELATAN28 Mei 1999Laki-laki78-Manajemen Haji dan Umroh26-07-20223,764 tahun, 1 bulan
1811170004RAFHENSYI HARSSILAHDesa Papahan, Kecamatan Kinal, Kabupaten Kaur082186049204rafhensyharssilah@gmail.com2018KAB. KAUR12 Desember 1992Perempuan78-Manajemen Haji dan Umroh18-02-20223,923 tahun, 7 bulan
1811170005NUR PADILAPagar Tengah6285768068180nurpadila589@gmail.com2018KAB. EMPAT LAWANG23 Januari 2000Perempuan78-Manajemen Haji dan Umroh26-07-20223,704 tahun, 1 bulan
1811170006REZI SAPUTRADesa Suka Raja085764473001Rezisaputra69@gmail.com2018KAB. BENGKULU SELATAN07 Februari 1999Laki-laki78-Manajemen Haji dan Umroh04-11-20223,834 tahun, 4 bulan
1811170007M. WAHYU DIANSYAHDesa Muara Pinang Baru Jalan Siring Agung082183130286m.wahyu.diansyah.07.09.2000@gmail.com2018KAB. EMPAT LAWANG07 September 2000Laki-laki78-Manajemen Haji dan Umroh04-11-20223,704 tahun, 4 bulan
1811170008TIKA ANDARIjln. desa selika lll0813797789192018KAB. KAUR19 September 1999Perempuan78-Manajemen Haji dan Umroh13-01-20233,714 tahun, 6 bulan
1811170009ANNISA FAJRIANILAGAN GADANG MUDIK /PASAR JUMAT SDN18082162759539ANNISAFAJRIANI00@GMAIL.COM2018KAB. PESISIR SELATAN19 Februari 2000Perempuan78-Manajemen Haji dan Umroh26-07-20223,734 tahun, 1 bulan
1811170011SELFIA AGUSTINAArau Bintang
Jln. Riak Siabun
082286738007selfiaagustina305@gmail.com2018Arau Bintang27 Agustus 2000Perempuan78-Manajemen Haji dan Umroh26-07-20223,934 tahun, 0 bulan
1811170012YERNI JULIADesa Retak Ilir, kec.Ipuh, kab.Mukomuko081368057423yernijulia958@gmail.com2018Retak Ilir23 Juli 1999Perempuan78-Manajemen Haji dan Umroh15-07-20223,844 tahun, 0 bulan
1811170014YULISMI ASMARA SARISukarami0823726131430858329022562018KOTA BENGKULU22 Juni 2000Perempuan78-Manajemen Haji dan Umroh16-06-20223,743 tahun, 11 bulan
1811170016OKTARI PRAMUDITAJl Setia Negara Rt. 29 Rw. 04085234605444oktaripramudita88022@gmail.com2018CURUP14 Oktober 1999Perempuan78-Manajemen Haji dan Umroh26-07-20223,664 tahun, 0 bulan
1811170018AHMAD NABILA KARIMjln sumeru085367860303ahmadnabila17@gmail.com2018padang jaya17 Juni 2000Laki-laki78-Manajemen Haji dan Umroh16-06-20223,703 tahun, 10 bulan
1811170021KESY ASRINICahaya Negeri Kec. Sukaraja Kab. Seluma082213719477kesyasrini@gmail.com2018Pasar ngalam29 Juli 1999Perempuan78-Manajemen Haji dan Umroh16-06-20223,833 tahun, 10 bulan
1811170022WIZIA NIRWANADusun V Desa Lubuk Rumbai Kecamatan Rupit0852149135612018Lubuk Rumbai03 Agustus 2000Perempuan78-Manajemen Haji dan Umroh15-07-20223,723 tahun, 11 bulan
1811170023VADELA ERDIANIJL.A.YANI089522616260vadelaerdian@gmail.com2018Manna20 Oktober 2000Perempuan78-Manajemen Haji dan Umroh26-07-20223,703 tahun, 11 bulan
1811170025RESTI FITRI PRATIWIjl.iskandar 9b.tengah padang0895331142219resti98pratiwi@gmail.com2018BENGKULU14 Januari 1999Perempuan78-Manajemen Haji dan Umroh26-07-20223,683 tahun, 11 bulan
1811170027PIPING LESIKAdusun lubuk layang kec.pendopo kab.empat lawang sumatera selatan085273240740pipinglesika@gmail.com2018LUBUK LAYANG04 Juni 2000Perempuan78-Manajemen Haji dan Umroh27-01-20233,684 tahun, 5 bulan
1811170029SYAFITRI ANGRAINIJl. M. Ali Amin Rt 027 Rw 004082282674997syafitriangraini6@gmail.com2018Bintuhan12 Desember 1992Perempuan78-Manajemen Haji dan Umroh18-02-20223,843 tahun, 6 bulan
1811170030NUR ANNISA FITRAHJL.H.Adam Malik NO.O1 RT.05 RW.01 Pagar Dewa Bengkulu089628775758nura51963@gmail.com2018Bengkulu02 Maret 2000Perempuan78-Manajemen Haji dan Umroh16-06-20223,863 tahun, 10 bulan
1811170032SEPTI WULANDARIrenah semanek085788767830septi4461@gmail.com2018Rena lebar16 September 2000Perempuan78-Manajemen Haji dan Umroh13-01-20233,774 tahun, 5 bulan
1811170033HALIMAH TULSAKDIAHdesa perbo kecamatan kerkap kabupaten bengkulu082374745516halimahtulsakdiah1934@gmail.com2018JAKARTA03 November 2000Perempuan78-Manajemen Haji dan Umroh16-12-20223,744 tahun, 4 bulan
1811170035DARSIHJl. Setapak dusun 1 sukamana082110002698darsihtasiyah@gmail.com2018Sukamana17 Mei 2000Perempuan78-Manajemen Haji dan Umroh26-07-20223,763 tahun, 11 bulan
1811170036BELA FADILAHDesa Talang Bunut005263697805belafadilah02@gmail.com2018TALANG BUNUT06 September 2000Perempuan78-Manajemen Haji dan Umroh26-07-20223,833 tahun, 11 bulan
1811170037YUNITADesa Talang Empat Kec. Karang Tinggi Kab. Bengkulu082158867762yuniiiyunitaa@gmail.com2018TANJUNG ENIM22 Juni 2000Perempuan78-Manajemen Haji dan Umroh26-07-20223,793 tahun, 11 bulan
1811170038HELLEN OKTARINA SARIdesa sinar pagi/jl.padang keliki082175823866hellen.oktarina@yahoo.com2018SEKUNYIT15 Oktober 2000Perempuan78-Manajemen Haji dan Umroh26-07-20223,753 tahun, 11 bulan
1811170039INDAH LESTARIJl. Raya Batu Raja KM 10 Ds.Karangan, Kec: Rambang Kpaka Tengah, Kota Prabumulih081278965161indahhlestariiww10@gmail.com2018prabumuliah26 Mei 2000Perempuan78-Manajemen Haji dan Umroh26-07-20223,783 tahun, 11 bulan
1711130005BELLA LUSIANAPERUMNAS KEMILING PERMAI BLOK K3 NO.491 RT 20 RW 06
KELURAHAN PEKAN SABTU
KECAMATAN SELEBAR
089515171599lusianabella4@gmail.com2017KOTA BENGKULU23 Juli 1999Perempuan39-Ekonomi Syari'ah03-09-20213,664 tahun, 2 bulan
1711130006CINDY TIARA PUTRIJENGGALU082280009127cindytiaraputri111@gmail.com2017KAB. SELUMA22 Oktober 1999Perempuan39-Ekonomi Syari'ah28-07-20223,405 tahun, 1 bulan
1711130009FETI INDRIANIDESA TANJUNG DALAM,KEC.PONDOK KUBANG,KAB.BENGKULU TENGAH082298364034indribkl1@gmail.com2017Tanjung Dalam14 Juni 1998Perempuan39-Ekonomi Syari'ah19-02-20213,813 tahun, 8 bulan
1711130010HAVIZONJl. Pepaya Gg. Jeruk 1 No 600895399021277havizondk11@gmail.com,nadyaannisa96@gmail.com2017KOTA BENGKULU22 Oktober 1996Laki-laki39-Ekonomi Syari'ah23-07-20213,594 tahun, 1 bulan
1711130011KRISMAYANTIJALAN KALIMANTAN RT 004 RW 001 NO.58 KELURAHAN KAMPUNG KELAWI KECAMATAN SUNGAI SERUT KOTA BENGKULU082372714203krismayanti989898@gmail.com2017KOTA BENGKULU04 April 1997Perempuan39-Ekonomi Syari'ah27-08-20213,774 tahun, 2 bulan
1711130012KURNIA PERMATASARIPerumahan PTPN VII081271039734kurniapermatasari28@gmail.com2017KOTA BENGKULU28 Juni 1998Perempuan39-Ekonomi Syari'ah28-07-20223,305 tahun, 1 bulan
1711130013LICET LIONHARJalan poros Lais085369593300ARGAMAKMURLICET99@GMAIL.COM2017KAB. BENGKULU UTARA19 Oktober 1998Laki-laki39-Ekonomi Syari'ah09-02-20223,614 tahun, 7 bulan
1711130015MEILINDA SARI PUTRIJalan Telaga Dewa 1081368629519meilindadariputri@gmail.com2017KOTA BENGKULU14 Juni 1998Perempuan39-Ekonomi Syari'ah19-02-20213,703 tahun, 8 bulan
1711130016NOVENIA YUHANGRILAjln setian negara. kandang mas08962706312veniayuhangrila@gmail.com2017KOTA BENGKULU14 Juni 1998Perempuan39-Ekonomi Syari'ah19-02-20213,663 tahun, 8 bulan
1711130017NOVITRI NANDA SARIJl. Danau Raya085379307415novitrinanda1@gmail.com2017Lawang Agung14 Juni 1998Perempuan39-Ekonomi Syari'ah19-02-20213,793 tahun, 8 bulan
1711130019OKTIA LEBISMAWATIjl. kuala lempuing RT 04 RW 01081532234551oktialebismawati123@gmail.com2017KOTA BENGKULU14 Desember 1996Perempuan39-Ekonomi Syari'ah25-07-20223,765 tahun, 1 bulan
1711130020QORIEN ARIFAH ELHANI MAHAKAJL.SUMAS GANG SEPAKAT 3 NO.24 RT 06 RW 02081274339843qorienarifahelhany1999@gmail.com2017KOTA BENGKULU12 Juni 1999Perempuan39-Ekonomi Syari'ah28-01-20223,744 tahun, 7 bulan
1711130021RHADITYA TRI ANUGRAHjln. Batang Hari 1 NO 37B RT. 11/RW.03
KEL. Nusa Indah KEC. Ratu Agung
0895640710321rhadityatrianugrah@yahoo.com2017KOTA BENGKULU12 Desember 1992Laki-laki39-Ekonomi Syari'ah18-02-20223,594 tahun, 7 bulan
1711130022RARA MARDIANTIDesa Batu Raja Kec.Pondok Kubang Kab.Bengkulu Tengah
Jln.Gunung Bungkuk
082225029284raramardiantiii@gmail.com, raramardiantii@gmail.com2017BATU RAJA01 Maret 1999Perempuan39-Ekonomi Syari'ah28-01-20223,584 tahun, 7 bulan
1711130024RISKA LUSTIANADs. Padang Peri081278978605riskalustiana98@gmail.com2017KAB. SELUMA16 Juni 1998Perempuan39-Ekonomi Syari'ah28-01-20223,644 tahun, 7 bulan
1711130026SILVINA RAMADANIBengkulu,perumdam Jl.Sepakat 3089631967412perumdam2017KOTA BENGKULU14 Juni 1998Perempuan39-Ekonomi Syari'ah19-02-20213,713 tahun, 8 bulan
1711130027SINYE MERNA WATIAMARGA TUNGGAL081373091794sinye.mernawati@facebook.com2017MUSI RAWAS28 Juni 1999Perempuan39-Ekonomi Syari'ah24-01-20233,665 tahun, 7 bulan
1711130028WINDI BESPANOLIDesa Noman, Kec. Rupit, Kab. Musirawas Utara, Prov. Sumatera Selatan082377966299windi. bespa99@gmail.com2017Noman14 Agustus 1998Perempuan39-Ekonomi Syari'ah13-08-20213,664 tahun, 1 bulan
1711130029YOSI KUMITA SARILubuk balam085832344304yosikumitasari16@gmail.com2017Lubuk Balam05 Februari 1999Perempuan39-Ekonomi Syari'ah12-08-20213,664 tahun, 1 bulan
1711130030ZETIARA OKTAVIAHibrida Ujung Gg. Tirta Dewa 3082386787577zetiaraoktavia123@gmail.com2017Talang Leak14 Juni 1998Perempuan39-Ekonomi Syari'ah19-02-20213,543 tahun, 8 bulan
1711130031EDWARD SETIAWANJl.walet, No.28, RT.21, Lingkar Barat0895604786698edwardsetiawan00@gmail.com2017bengkulu30 November 1999Laki-laki39-Ekonomi Syari'ah06-09-20213,424 tahun, 1 bulan
1711130034M IQBAL FALEVIJL PURI 09 B7 NO 01 RT 09 RW 03082282653413iqbalfalevi25gmail.com2017BENGKULU05 Juli 2000Laki-laki39-Ekonomi Syari'ah19-02-20223,304 tahun, 7 bulan
1711130035MIKE ASHARITELAGA DEWA 5085378646521Mikeashari36@gmail.com2017telaga dalam26 Desember 1998Perempuan39-Ekonomi Syari'ah12-08-20213,634 tahun, 0 bulan
1711130036NURHASANAH FITRI AYUtalang beringin082183429926nurhasanah.fitriayubkl220@gmail.com2017talang beringin10 Februari 2000Perempuan39-Ekonomi Syari'ah19-02-20223,564 tahun, 7 bulan
1711130037RENGGA AGNES WIJAYATELAGA DEWA 5082345058881renggaagnes17@gmail.com2017telaga dalam14 Desember 1996Perempuan39-Ekonomi Syari'ah25-07-20223,735 tahun, 0 bulan
1711130039SIRATNA SARIDesa Padang Manis Kec. Kaur Utara0822798249592017Padang Manis27 Juli 1999Perempuan39-Ekonomi Syari'ah31-01-20223,634 tahun, 6 bulan
1711130040SYALU EKA PRATIWIJl.kalimantan rawa makmur merpati 4 rt 4 rw 2081373930750Syaluekapratiwi@gmail.com2017Bengkulu31 Maret 1997Perempuan39-Ekonomi Syari'ah30-07-20213,834 tahun, 0 bulan
1711130041YULINA AGATATelaga Dewa 6 RT.15 RW.03083853714454agatayulina07@gmail.com2017Talang Tais20 Juli 1999Perempuan39-Ekonomi Syari'ah19-02-20223,684 tahun, 7 bulan
1711130042MEPIN SATRIANImuara danau0853669388902017MUARA DANAU19 Februari 2000Perempuan39-Ekonomi Syari'ah14-02-20223,414 tahun, 6 bulan
1711130043M. ISTI JULIANTIDesa Talang Gading082279831249Juliantiisti99@gmail.com2017Talang Gading14 Juni 1998Perempuan39-Ekonomi Syari'ah19-02-20213,733 tahun, 7 bulan
1711130044PUTRI MAYANGSARIJl. kenanga 16 RT 005 RW 002 NO 52085267701844putrimayangsari123@yahoo.com,putrikokmayang@gmail.com2017BENGKULU09 Desember 1998Perempuan39-Ekonomi Syari'ah10-12-20213,614 tahun, 4 bulan
1711130046AMELIA PUTRI UTAMIKomplek Perumdam Blok. J. No. 04. Rt. 003/ Rw. 001082279323930ameliapu98@gmail.com2017BENGKULU02 Juli 1998Perempuan39-Ekonomi Syari'ah18-02-20223,604 tahun, 6 bulan
1711130048AYU RAHAYUJalan Mahakam no 32 lingkar barat Bengkulu6282287898465ayurahayu046@yahoo.com2017tunas harapan-curup03 Januari 1995Perempuan39-Ekonomi Syari'ah12-08-20213,744 tahun, 0 bulan
1711130049PUTRI RAMADATIJl. Halmahera no. 37 RT 04/02082178868247putriramadati866@gmail.com2017bengkulu18 Desember 1998Perempuan39-Ekonomi Syari'ah14-07-20213,793 tahun, 11 bulan
1711130050TRIMAL JUMMARTA ERLANJL.KANDANG MAS 1089676964828trimaljummartaes27@gmail.com2017BENGKULU27 Maret 1998Laki-laki39-Ekonomi Syari'ah25-07-20223,425 tahun, 0 bulan
1711130052AGUNG PRATAMA WIJAYAperumahan telaga dewa asri blok e. 25 RT/Rw 02/01082371870064agung.wijaya.pw13@gmail.com2017BENGKULU13 Mei 1999Laki-laki39-Ekonomi Syari'ah17-02-20223,494 tahun, 6 bulan
1711130053WULANDARItelaga dewa 7082268726159wulandariluha.02@gmail.com2017Rambai Kaca14 Agustus 1998Perempuan39-Ekonomi Syari'ah13-08-20213,744 tahun, 0 bulan
1711130054RANSEN KASTRATalang Padang082371338013kastraransen@gmail.com2017Ulak Agung14 Agustus 1998Laki-laki39-Ekonomi Syari'ah13-08-20213,864 tahun, 0 bulan
1711130055DYANA DWI KARTIKA SARIjl depati payung negara rt 19 rw 04082326282413dwikartikasaridiana@gmail.com2017Bengkulu13 Mei 1999Perempuan39-Ekonomi Syari'ah10-12-20213,554 tahun, 4 bulan
1711130056LOLA APRILLIAtelaga dewa085289334551lolaaprillia11@gmail.com2017PULAU PANGGUNG11 April 2000Perempuan39-Ekonomi Syari'ah14-07-20213,913 tahun, 11 bulan
1711130057ANGGI JAMICHOjl.Dp negara 5,RT 24,RW 05, PAGAR DEWA082180949021anggijamicho46@gmail.com2017GEMBUNG RAYA,14 Agustus 1998Laki-laki39-Ekonomi Syari'ah13-08-20213,454 tahun, 0 bulan
1711130058RESTI SELIANAKelurahan Napal,Kecamatan Seluma,Kabupaten Seluma082372563920restiseliana03@gmail.com2017MEKARJAYA21 Maret 1999Perempuan39-Ekonomi Syari'ah21-07-20213,663 tahun, 11 bulan
1711130060AINANI FITRIPasar Palik082269563232ainanifitri10@gmail.com2017PASAR PALIK20 Januari 1999Perempuan39-Ekonomi Syari'ah18-02-20223,384 tahun, 6 bulan
1711130062INDAH NURBAITIPerumnas Pinang Mas Blok H NO 184 RT 01 RW 01 KEL BENTIRING PERMAI KEC MUARA BANGKAHULU KOTA BENGKULU082328073851indahnurbaiti1233@gmail.com2017BENGKULU03 September 1998Perempuan39-Ekonomi Syari'ah10-12-20213,764 tahun, 4 bulan
1711130066MARETA YUSIANTIJL. Telaga Dewa 6 RT 14 RW 03 NO 41 kec.selebar kel. Pagar Dewa Kota Bengkulu08992211623mareta.m205@gmail.com2017BENGKULU30 Maret 1999Perempuan39-Ekonomi Syari'ah25-07-20223,684 tahun, 11 bulan
1711130067NUR HOLIPAHSukamaju0812712719362017Bengkulu05 Agustus 1998Perempuan39-Ekonomi Syari'ah17-02-20223,414 tahun, 6 bulan
1711130070ARHADIAN ROLIANSYAHJL. TIMUR INDAH 2 RT.13 RW. 05 Gg. 3089633667945arhadianroliansyah@gmail.com2017BENGKULU30 September 1999Laki-laki39-Ekonomi Syari'ah18-02-20223,814 tahun, 5 bulan
1711130072ERIKA SEFTIANADESA DURIAN AMPARAN085268982545erikaseftiana13@yahoo.com2017DURIAN AMPARAN11 September 1999Perempuan39-Ekonomi Syari'ah29-07-20213,673 tahun, 11 bulan
1711130073HENDHRAWANJL. DANAU RAYA NO2081271271906wanhendra33@yahoo.com2017Bengkulu14 September 1998Laki-laki39-Ekonomi Syari'ah27-07-20213,573 tahun, 11 bulan
1711130074HERY UTAMIJl.Walet082269361848hery.utami17@gmail.com2017Bukit Berlian17 Februari 1999Perempuan39-Ekonomi Syari'ah30-07-20213,613 tahun, 11 bulan
1711130075ILHAM ADDI NULLAHdesa tengah padang kcamatan talang empat kabupaten bengkulu tengah0816321970022017desa lagan14 Agustus 1998Laki-laki39-Ekonomi Syari'ah13-08-20213,483 tahun, 11 bulan
1711130077M. EKHSANIDesa niur082374828083saninakbkl@gmail.com2017BUKIT PANINJAUAN03 Januari 1999Laki-laki39-Ekonomi Syari'ah23-07-20213,713 tahun, 11 bulan
1711130079MUHAMMAD IQBALUL ICHSANJL. RANGKONG IX NO 65 RT 18 RW 06089632010747muhammadiqbalichsan1210@gmail.com2017BENGKULU12 Oktober 1998Laki-laki39-Ekonomi Syari'ah28-07-20213,313 tahun, 11 bulan
1711130081PIPIT ANI SAFITRIDesa Arga Jaya, Rt 002, Rw 004082258753654pipitanisafitri97@gmail.com2017ARGA JAYA11 Desember 1998Perempuan39-Ekonomi Syari'ah27-07-20213,813 tahun, 11 bulan
1711130082RIMA AZAMDesa Suka Merindu089516781685rimaazam0@gmail.com2017Lampung04 Desember 1999Perempuan39-Ekonomi Syari'ah18-01-20233,415 tahun, 4 bulan
1711130083RIZANDO PURGAdesa lubuk banyau kecamatan padang jaya kabupaten bengkulu utara081367161185rizandopurga@gmail.com2017lubuk banyau21 Maret 2000Laki-laki39-Ekonomi Syari'ah06-09-20213,414 tahun, 0 bulan
1711130084ROMANA AKBARITransos Jambu Permai , Jln. Padat Karya082283326182romanaakbari25@gmail.com2017BENGKULU UTARA25 Juli 1999Laki-laki39-Ekonomi Syari'ah29-07-20213,793 tahun, 11 bulan
1711130085SAFITRI HANDAYANITERAS TERUNJAM082278415560handayanisafitri248@gmail.com2017TERAS TERUNJAM14 Agustus 1998Perempuan39-Ekonomi Syari'ah13-08-20213,553 tahun, 11 bulan
1711130086SENTIA PURNAMAJl.Dempo kelurahan kebun tebeng082269945505sentiapurnama8899@gmail.com2017LUBUK LAGAN14 Agustus 1998Perempuan39-Ekonomi Syari'ah13-08-20213,413 tahun, 11 bulan
1711130087SINTA NURIYADESA LUBUK LAGAN KECAMATAN TALO KECIL KABUPATEN SELUMA082176897637sintanuria779@gmail.com2017LUBUK LAGAN14 Desember 1996Perempuan39-Ekonomi Syari'ah25-07-20223,464 tahun, 11 bulan
1711130088SUDARMIGanda suli/ jl.transos benua ratu082282741885Sudarmibkl99@gmail.com2017Ganda suli14 Agustus 1998Perempuan39-Ekonomi Syari'ah13-08-20213,593 tahun, 11 bulan
1711130089WIGATIDusun 5 Tanjung Asri085267195242wigati.wigati2000@gmail.com2017braja emas14 Desember 1996Perempuan39-Ekonomi Syari'ah25-07-20223,744 tahun, 11 bulan
1711130090WULAN SARIjl. setia 9085213043275wulanatm77@gmail.com2017AIR SULAU08 Mei 1999Perempuan39-Ekonomi Syari'ah27-07-20213,743 tahun, 11 bulan
1711130091YAYAN AFRIKAdesa sekiau081368049811yayanafrika81@gmail.com2017Sekiau25 Desember 1998Perempuan39-Ekonomi Syari'ah30-07-20213,443 tahun, 11 bulan
1711130092YENKA AUSTIDesa Lubuk Resam0815392509922017Lubuk Resam14 Agustus 1998Perempuan39-Ekonomi Syari'ah13-08-20213,373 tahun, 11 bulan
1711130093AHMAD DANIJl. SIMPANG KANDIS082269726436Ahmad.dany05@gmail.com2017Benteng30 Desember 1999Laki-laki39-Ekonomi Syari'ah13-08-20213,563 tahun, 11 bulan
1711130094AKMALUDDINJl. SIMPANG KANDIS081363629039au740422@gmail.com2017Sungai Belah15 Mei 1999Laki-laki39-Ekonomi Syari'ah13-08-20213,643 tahun, 11 bulan
1711130095ANI SUNANItrans selolong0821800248562017air simpang 114 Agustus 1998Perempuan39-Ekonomi Syari'ah13-08-20213,503 tahun, 11 bulan
1711130097ARTUN LAKITRAJln. Betungan Rt. 35 RW. 03 Kecamatan Selebar kota Bengkulu082371280972Artunbkl@gmail.com2017DURIAN SEBATANG08 Desember 1998Laki-laki39-Ekonomi Syari'ah23-07-20213,723 tahun, 11 bulan
1711130098BENNI SETIAWANDESA LAGAN KECAMATAN TALANG EMPAT KABUPATEN BENGKULU TENGAH085383574897benni.setiawan15@gmail.com2017LAGAN15 November 1998Laki-laki39-Ekonomi Syari'ah03-09-20213,354 tahun, 0 bulan
1711130099BIMA YAZIDA AKMALdusun jombang ds sugihwaras kec wonomulyo kab polman082393182360bimayazida@gmail.com2017sugihwaras11 Desember 1998Laki-laki39-Ekonomi Syari'ah13-08-20213,633 tahun, 11 bulan
1711130100DWITA SUKMALIAJln. Melinjo082279067109dwitasukmaliaa@gmail.com2017Bengkulu07 Juli 1998Perempuan39-Ekonomi Syari'ah21-07-20213,693 tahun, 10 bulan
1711130102FARINADusun V Desa Tanjung Beringin082180938135farinaa289@gmail.com2017TANJUNG BERINGIN14 Agustus 1998Perempuan39-Ekonomi Syari'ah13-08-20213,573 tahun, 11 bulan
1711130103FERI HENDRAWANJl. Bukit Berangin082269698529ferryhendrawan03@gmail.com2017Semundam06 Maret 1997Laki-laki39-Ekonomi Syari'ah23-07-20213,603 tahun, 11 bulan
1711130104GEPI TRI MARETAHibrida 10 ujung, sumur dewa082371096803trigepi@gmail.com2017Ds. datar penokot, Bengkulu tengah14 Desember 1996Perempuan39-Ekonomi Syari'ah25-07-20223,614 tahun, 11 bulan
1711130106IDA YULIANA SAPUTRIJl. Dharma wanita08976131807idayuli30ana@gmail.com2017BENGKULU30 Juli 1999Perempuan39-Ekonomi Syari'ah21-07-20213,813 tahun, 10 bulan
1711130107LIDIA TRISNAWATIDesa kembang sri Kec. Pino Raya Kab. Bengkulu Selatan085363305226Lidiatrisnawati45@gmail.com2017BENGKULU21 Mei 1999Perempuan39-Ekonomi Syari'ah30-07-20213,523 tahun, 11 bulan
1711130108LISA NURLAILAdesa semeteh081272066378lisanurlaila409@gmail.com2017semeteh25 Maret 2000Perempuan39-Ekonomi Syari'ah29-07-20213,763 tahun, 11 bulan
1711130109LIZA HERDIYANTIJl Raya bkl manna ds Bunut Tinggi08578903340362823712lizaherdiyantiii@gmail.com2017BUNUT TINGGI19 Juni 1999Perempuan39-Ekonomi Syari'ah12-08-20213,353 tahun, 11 bulan
1711130110LOLA ANGGOLARIADESA KEPALA SIRING TANJUNG SAKTI PUMU085378871676lolaanggolaria40@gmail.com2017KEPALA SIRING19 Februari 2000Perempuan39-Ekonomi Syari'ah14-02-20223,344 tahun, 5 bulan
1711130111MASWIRANTOTELANG KUNING0822584322082017TERAS TERUNJAM14 Agustus 1998Laki-laki39-Ekonomi Syari'ah13-08-20213,183 tahun, 11 bulan
1711130114MIYA MONICA SARIJln. Sadang 1089637701751miyamonica03@gmail.com, miyamonica03@yahoo.com2017Bengkulu14 Agustus 1998Perempuan39-Ekonomi Syari'ah13-08-20213,833 tahun, 11 bulan
1711130115MUHAMMAD FIRZA FERNANDAJl. Bukit Barisan 06 RT10/RW03085380559767firzafernanda2@gmail.com2017Bengkulu19 Februari 2000Laki-laki39-Ekonomi Syari'ah14-02-20223,454 tahun, 5 bulan
1711130116NISI PERMATA SARIKINAL082372396627nisipermatasari11@gmail.com2017GERAMAT05 Juli 2000Perempuan39-Ekonomi Syari'ah19-02-20223,274 tahun, 5 bulan
1711130117OWEN RINALDIJALAN RADEN FATAH085379321890owenrinaldi1@gmail.com2017SUKA RAMI18 Januari 1998Laki-laki39-Ekonomi Syari'ah29-07-20213,913 tahun, 11 bulan
1711130119RAZI DHARMAWAN PUTRAPerumnas Surabaya Permai Jl. Amanah 208970096163raziputra123@gmail.com2017Bengkulu21 Januari 1998Laki-laki39-Ekonomi Syari'ah25-07-20223,834 tahun, 11 bulan
1711130120RHEESTY ILLAHYANAPerumahan Telaga Dewa Asri Blok E3 No.41 RT.02 RW.01089648717675rheestyi@gmail.com2017BENGKULU10 November 1999Perempuan39-Ekonomi Syari'ah30-07-20213,813 tahun, 11 bulan
1711130121SHOLIKUL NIDOMdesa manggul kecamatan manna kabupaten bengkulu selatan085357912538sholikuln14@gmail.com2017rembang19 Februari 2000Laki-laki39-Ekonomi Syari'ah14-02-20223,484 tahun, 5 bulan
1711130123VERDI MARDIANSYAHJln. Semarak Perum Grand Mahido Estate Pematang Gubernur, Kec. Muara Bangka Hulu, Kota Bengkulu081368058508mardiansyahverdi99@gmail.com2017Bengkulu19 Februari 2000Laki-laki39-Ekonomi Syari'ah14-02-20223,474 tahun, 5 bulan
1711130124WIRA DARGA PUTRA PRATAMAJL.KORPRI IX NO 526085268353471pwira04@gmail.com2017BENGKULU14 Agustus 1998Laki-laki39-Ekonomi Syari'ah13-08-20213,753 tahun, 11 bulan
1711130125YUSTIKA APRIANIjl kalimantan 2 kampung kelawi089615334684yustikaapriani21@gmail.com2017bengkulu08 Maret 1973Perempuan39-Ekonomi Syari'ah26-07-20213,513 tahun, 11 bulan
1711130126ADESTINES ARIASWARAPasar Palik,Kec.Air Napal,Kab.Bengkulu Utara082373444528adestinesariaswara@gmail.com2017Pasar Palik07 Agustus 1999Perempuan39-Ekonomi Syari'ah06-08-20213,623 tahun, 11 bulan
1711130127RICKA ARSITAjl Raya Bengkulu Manna Ds. Bunut Tinggi Kec. Talo085669901655rikaarsita00.gmail.com2017Penago 214 Desember 1996Perempuan39-Ekonomi Syari'ah25-07-20223,364 tahun, 11 bulan
1711130128WANDA ANGGRAINIMuara Timput081367586966wandaanggraini0422@gmail.com2017Muara Timput05 Oktober 1999Perempuan39-Ekonomi Syari'ah30-07-20213,283 tahun, 11 bulan
1711130129ZUL FIKRIJL.SEPAKAT 02 SAWAH LEBAR085669329991zulfikri16022@gmail.com2017BENGKULU13 Februari 1999Laki-laki39-Ekonomi Syari'ah30-07-20213,633 tahun, 11 bulan
1711130130ANNISAH MONICA JULIYANTIPERUMDAM BLOK H NO 10082280677930mimitari92@gmail.com2017BENGKULU28 Juli 1998Perempuan39-Ekonomi Syari'ah30-07-20213,973 tahun, 11 bulan
1711130132LUPI AYU LESTARIDs. Rantau Dodor, Kec. Pendopo Barat, Kab. Empat Lawang. Prop. Sumatera Selatan082178729923efrizaldedi279@gmail.com2017Rantau Dodor08 Maret 1973Perempuan39-Ekonomi Syari'ah26-07-20213,763 tahun, 11 bulan
1711130133BENI GUNAWANjalan raya bengkulu-curup km. 25, Desa Karang tinggi. Gang Harapan 2083192435448ibnubeben5@gmail.com2017Karang Tinggi05 Mei 1998Laki-laki39-Ekonomi Syari'ah26-07-20213,453 tahun, 11 bulan
1711130134CITRI PORNIAJl. Raya Manna-Tanjung Sakti Desa Bandar Agung, Kecamatan Ulu Manna, Kabupaten Bengkulu Selatan085269618437citripornia@gmail.com2017Bandar Agung08 Mei 1998Perempuan39-Ekonomi Syari'ah07-01-20223,254 tahun, 4 bulan
1711130135EGI JULIANTODesa Tirta Mulya082282405842egijulianto1999@gmail.com2017TANJUNG JAYA13 Juli 1999Laki-laki39-Ekonomi Syari'ah09-06-20223,664 tahun, 9 bulan
1711130137FEBI YOSITA APRILLINADesa Kota Agung085274541464Febibengkulu5@gmail.com2017Kota Agung26 April 1999Perempuan39-Ekonomi Syari'ah07-01-20223,444 tahun, 4 bulan
1711130141MUHAMMAD ARFIAH ARLENDJL. SUMUR DEWA PERUMAHAN CITRA GARDENA BLOK D NO.3 RT. 20 RW. 06085758549006ariejunaidi3@gmail.com2017BENGKULU11 November 1998Laki-laki39-Ekonomi Syari'ah13-08-20213,393 tahun, 11 bulan
1711130142OKA MEDIAJln. Cempaka X No. 37 RT. 8 / 3 Kebun Beler081373178170okamedia99@gmail.com2017Bakal Dalam09 Oktober 1999Perempuan39-Ekonomi Syari'ah07-09-20213,724 tahun, 0 bulan
1711130143PUJI PITRIANIdesa jagobayo085365088423pujie.fitriyany@gmail.com2017jagobayo16 Oktober 1998Perempuan39-Ekonomi Syari'ah06-09-20213,654 tahun, 0 bulan
1711130144SILI MARYANIBUNGIN TAMBUN 3082372996244Sitimaryanibkl16@gmail.com2017BANGKO18 Maret 1999Perempuan39-Ekonomi Syari'ah07-09-20213,604 tahun, 0 bulan
1711130146TRIANA YOLAN DARIJL.RAFFLESIA II NUSA INDAH081274731140trianaaa99@gmail.com2017BENGKULU21 Agustus 1999Perempuan39-Ekonomi Syari'ah03-09-20213,854 tahun, 0 bulan
1711130147WAHYU MUSTAHERUJl.Anggrek no 18 nusah indah kecamatan ratu agung089644404572wahyumustaheru29@gmail.com2017Bengkulu29 Juni 1999Laki-laki39-Ekonomi Syari'ah03-09-20213,324 tahun, 0 bulan
1711130148ENGGA JUNIA LESRIDesa Pandan082306316784Engga@yahoo.co.id2017Pandan19 Juni 1999Perempuan39-Ekonomi Syari'ah06-09-20213,504 tahun, 0 bulan
1711130149HARRI KURNIAWATIdesa maninjau dusun air limas 1082280695742erma.mega@yahoo.com2017AIR LIMAS 127 Juli 1999Perempuan39-Ekonomi Syari'ah09-02-20223,504 tahun, 5 bulan
1711130151IMRON ROSADIdesa tenangan kac.seluma timur kab.seluma082375119962imron.rdy@gmail.com2017TENANGAN14 Desember 1996Laki-laki39-Ekonomi Syari'ah25-07-20223,224 tahun, 11 bulan
1711130153JUMAIDIDesa Lubuk Gong Kec. Semidang Gumay Kab. Kaur083172765103jumaidi710@gmail.com2017LAMURAN KOTA AGUNG14 Desember 1996Laki-laki39-Ekonomi Syari'ah25-07-20223,364 tahun, 11 bulan
1711130156MUHAMAD ALFINURJl.Bengkulu - Kepahiang082315073677muhamadalfinur242829@gmail.com2017Ciamis11 Desember 1994Laki-laki39-Ekonomi Syari'ah27-07-20213,593 tahun, 11 bulan
1711130161SARI NUR'ROHMAH YUNIARTADesa Giri Mulya
Jalan Wijaya Kusuma
081274761276sarinurrohmah10@gmail.com2017Giri Mulya28 Juni 1999Perempuan39-Ekonomi Syari'ah03-09-20213,744 tahun, 0 bulan
1711130162WAHYU MUHAMMAD ILHAMJl. Hibrida 08081379683054wahyumuhammadilham@yahoo.co.id2017BENGKULU11 November 1998Laki-laki39-Ekonomi Syari'ah13-08-20213,263 tahun, 11 bulan
1711130163ADE USWATUL HASANADs. Nanti Agung, Kec. Tebat Karai, Kab. Kepahiang, Prop. Bengkulu085367203414uswatulade@gmail.com2017Nanti Agung16 Oktober 1998Perempuan39-Ekonomi Syari'ah26-07-20213,893 tahun, 11 bulan
1711130165CRISTY SEPTIANAjln korpri 9 no.902 rt. 14 rw.003085273370051cristysefti@gmail.com2017bengkulu27 September 1998Perempuan39-Ekonomi Syari'ah03-09-20213,774 tahun, 0 bulan
1711130166LILIS KURNIATIJalan Desa Rigangan 2, Kecamatan Kelam Tengah, Kabupaten Kaur, Propinsi Bengkulu082378551788liliskurniatihendaya@gmail.com2017RIGANGAN 205 Juli 1999Perempuan39-Ekonomi Syari'ah03-09-20213,604 tahun, 0 bulan
1711130169SAIFUL HUDADesa Padang Betuah082372080033saifulhuda.bkl33@gmail.com2017Karang Baru16 Juni 1999Laki-laki39-Ekonomi Syari'ah25-07-20223,094 tahun, 11 bulan
1711130170YUPAN CANRIYAWANDesa Penandingan085377517158jofiheriantomi@gmail.com2017Penandingan27 Juli 1999Laki-laki39-Ekonomi Syari'ah31-01-20223,274 tahun, 5 bulan
1711130172SRI NURHAYATIDesa Pulau Panggung085841674464ayukyi.srinurhayati@gmail.com2017Pulau Panggung05 Januari 1999Perempuan39-Ekonomi Syari'ah23-12-20213,644 tahun, 3 bulan
1711130173SYAHIRjalan wirakarya 2 kelurahan cereme taba kecamatan lubuk linggau timur 2 < Sumatera selatan085378458080syahir0998@gmail.com2017lubuk Linggau, Sumatera Selatan22 September 1998Laki-laki39-Ekonomi Syari'ah29-07-20213,533 tahun, 11 bulan
1711130174FENNY PUSPA SAGITADesa Sukarami085217595006fennypuspasagita@gmail.com2017Sukarami17 November 1998Perempuan39-Ekonomi Syari'ah29-07-20213,803 tahun, 11 bulan
1711140001ANDIKA SEPRIYADITebat Baru Ulu rt 03 rw 02081368069591andikasepriyadi@gmail.com2017KOTA PAGAR ALAM08 Desember 1990Laki-laki40-Perbankan Syari'ah22-07-20213,854 tahun, 1 bulan
1711140002ATIKA SEVTARIDesa beriang tinggi081379780718atikaseptari@gmail.com2017KAB. KAUR03 November 1996Perempuan40-Perbankan Syari'ah09-08-20213,484 tahun, 1 bulan
1711140003AYU HANIFAH ROSYADADesa Taba Padang Kol Kecamatan Hulu Palik Kabupaten bengkulu Utara082376288586Ayuhanifahrosyada@gmail.com2017KAB. MOJOKERTO03 November 1996Perempuan40-Perbankan Syari'ah09-08-20213,674 tahun, 1 bulan
1711140004BETTI ANGGRAINIJalan raden fatah 13085267869538bettyanggra236@gmail.com2017Siring Agung15 April 1999Perempuan40-Perbankan Syari'ah28-01-20223,554 tahun, 7 bulan
1711140005DESI SARTIKA SARIKelurahan Lingkar barat kecamatan Gading cempaka Rt
19 Rw 03 No 13
081366153010sartika_desy@yahoo.com2017KAB. REJANG LEBONG02 Desember 2000Perempuan40-Perbankan Syari'ah27-01-20223,474 tahun, 7 bulan
1711140006DIANA FEBRIYANTISidorejo / Talang Jelatang NO : 54082378107957dianafebrianti.nanol@gmail.com2017Sidorejo14 Juni 1998Perempuan40-Perbankan Syari'ah19-02-20213,693 tahun, 8 bulan
1711140008DWI SETIAWATIdesa sekunyit kec.kaur selatan kab.kaur085896832842dwisetiawati112233@gmail.com2017D. Kepayang15 Oktober 1998Perempuan40-Perbankan Syari'ah19-08-20213,674 tahun, 2 bulan
1711140009EVANDRI NOTALINJln. Hibrida 10 No 18A081373911414evandrinotalin20@gmail.com2017Bengkulu28 Februari 1995Laki-laki40-Perbankan Syari'ah14-01-20213,813 tahun, 6 bulan
1711140010FATHIEN RAMADHONIJalan Raya Tanjung Iman082279428120Fathienramadhoni@yahoo.com2017KAB. KERINCI11 Desember 1999Laki-laki40-Perbankan Syari'ah07-01-20223,624 tahun, 6 bulan
1711140011FEBI AKENTIDesa Dusun Curup Kecamatan Air Besi Kabupaten Bengkulu Utara08153574378febiakenti@gmail.com2017KAB. BENGKULU UTARA03 Februari 2000Perempuan40-Perbankan Syari'ah15-12-20223,545 tahun, 5 bulan
1711140012LENA TIARA WIDYAJALAN RAYA MASAT GANG SMPN 6 BENGKULU SELATAN085609446401lenatiarawidya@gmail.com2017KAB. BANGKULU SELATAN22 Oktober 1999Perempuan40-Perbankan Syari'ah28-01-20223,664 tahun, 7 bulan
1711140013MELI YULIZAJalan Pahlawan Ratu083172896174meliyuliza@yahoo.com,melyzabintuhan@gmail.com2017KAB. KAUR14 Juni 1998Perempuan40-Perbankan Syari'ah19-02-20213,823 tahun, 8 bulan
1711140014MELSA FITRIANIDESA PADANG HANGAT085809953658melsafitriani38@gmail.com2017KAB. KAUR28 Desember 1999Perempuan40-Perbankan Syari'ah22-07-20213,764 tahun, 1 bulan
1711140015MIRNA SARIDESA MUARA PINANG BARU082286707557mirnasari0411@gmail.com2017KAB. EMPAT LAWANG04 November 1999Perempuan40-Perbankan Syari'ah22-07-20213,664 tahun, 1 bulan
1711140016NINA BELAdesa ujung karang kec. karang tinggi kab. bengkulu tengah082181771025bungafitri2313@gmail.com2017KAB. BENGKULU TENGAH27 Desember 1999Perempuan40-Perbankan Syari'ah07-01-20223,644 tahun, 6 bulan
1711140017RATIH AYU WULANDARIDesa Taba Pasemah Kecamatan Talang Empat Kabupaten Bengkulu Tengah082181771026Ratihayhu793@gmail.com2017KAB. BENGKULU TENGAH28 November 1998Perempuan40-Perbankan Syari'ah07-01-20223,704 tahun, 6 bulan
1711140018RINY ANGGRAENYJl. A Yani Kelurahan Kemumu Kecamatan Arma Jaya Kabupaten Bengkulu Utara Provinsi Bengkulu082243633473rinyra56@gmail.com2017KAB. BENGKULU UTARA12 Juni 1999Perempuan40-Perbankan Syari'ah27-01-20223,474 tahun, 7 bulan
1711140019SANDI FERIZALJln Raden Fatah 5081367351718Sandiferizal99@gmail.com2017Kemuning22 Februari 1999Laki-laki40-Perbankan Syari'ah01-12-20223,585 tahun, 5 bulan
1711140020SINDI LIVIA DAMAYANTIDesa Barumanis Gang SD114 Bermani Ulu085382440835sindilivia39@gmail.com2017KAB. REJANG LEBONG28 Februari 1995Perempuan40-Perbankan Syari'ah14-01-20213,943 tahun, 6 bulan
1711140021SISTI KEMALA DEWIDurian besar085664738096sistibuyung02@gmail.com2017KAB. KAUR11 Juni 1999Perempuan40-Perbankan Syari'ah19-08-20213,574 tahun, 2 bulan
1711140023YOGA ADITYA PUTRAPulau Baru085366962492yogaadityaputra66@gmail.com2017KAB. MUKO-MUKO06 Juni 1996Laki-laki40-Perbankan Syari'ah29-07-20213,654 tahun, 1 bulan
1711140024YUSUF BAKTIARds.kepahiang, jl kepahiang curup, gang masjidal-hidayah081215392164Yusuf0912199@gmail.com2017KAB. KEPAHIANG08 Desember 1990Laki-laki40-Perbankan Syari'ah22-07-20213,854 tahun, 1 bulan
1711140026ALDO SAPUTRAJl. timur indah ujung0895609719208aldosaputra21@yahoo.com2017MANNA14 Juni 1998Laki-laki40-Perbankan Syari'ah19-02-20213,653 tahun, 7 bulan
1711140028CELINE QUATROBumi agung082281473591tanjungflowrinka@gmail.com2017Bumi Agung26 Desember 1999Perempuan40-Perbankan Syari'ah30-07-20213,724 tahun, 0 bulan
1711140029MIRA ENJELITADESA PASAR KERKAP087897180705miraenjelita678@gmail.com2017pasar kerkap26 Mei 1997Perempuan40-Perbankan Syari'ah14-07-20213,713 tahun, 11 bulan
1711140030NANDA SETIAWANRT1 DESA BATIKNAU JALAN RATU SAMBAN085379448014nandasubadio9@gmail.com2017Batik Nau11 Juni 1999Laki-laki40-Perbankan Syari'ah07-01-20223,404 tahun, 5 bulan
1711140031POPY OKTAREZABelakang P.U, JL.Kapten Mahyudin Nanung082371105013popyoktareza@gmail.com,poppyoktareza9@gmail.com2017Pagar Alam03 Januari 1998Perempuan40-Perbankan Syari'ah10-09-20203,583 tahun, 1 bulan
1711140032SARI PUSPITA DEWIJl. Padat Karya Rt. 14 Rw. 04 hibrida 10 bengkulu0895345590596saripuspitadewi2017@gmail.com2017pangkal pinang14 Juni 1998Perempuan40-Perbankan Syari'ah19-02-20213,893 tahun, 7 bulan
1711140033YEPI YANIJl. KEPAHIANG -CURUP DESA TABA TEBELET NO.68 KEC.KEPAHIANG KAB.KEPAHIANG BENGKULU INDONESIA085369043052yepiyani4@gmail.com2017desa taba tebelet28 Februari 1995Perempuan40-Perbankan Syari'ah14-01-20213,873 tahun, 5 bulan
1711140034SUCI KARMILASYAH PUTRIJln.Desa Penyangkak082281119749sucikarmila@yahoo.com2017kota agung27 Januari 1998Perempuan40-Perbankan Syari'ah19-02-20223,554 tahun, 7 bulan
1711140035VIVI MAYASARIJl. muhajirin 17 RT 11 RW 04 Kec. Singaran Pati Kel. Padang Nangka0895604727495vivimayasari28@gmail.com2017Karang gede28 Agustus 1998Perempuan40-Perbankan Syari'ah31-07-20213,884 tahun, 0 bulan
1711140036ADITYA FADILAHJln.Lokan Desa Tanah Rekah081367715202adityafadilah269@yahoo.com / adityafadilah1498@gmail.com2017TANAH REKAH14 Juni 1998Laki-laki40-Perbankan Syari'ah19-02-20213,943 tahun, 7 bulan
1711140037INDRI YANI PUTRIJl.sepakat 3 belakang perumdam Rt.35 Rw.08 No.80085382846560indriyaniputri591@gmail.com2017bengkulu06 Maret 1999Perempuan40-Perbankan Syari'ah27-01-20223,824 tahun, 6 bulan
1711140038MUHAMMAD REVKI SAPUTRAJALAN BUMI AYU 8 RT 10 RW 02082289114870sahputrarefki@gmail.com2017BENGKULU23 Juni 1998Laki-laki40-Perbankan Syari'ah02-09-20213,444 tahun, 1 bulan
1711140039FEGA LIANDA PUTRIDESA KAYU ARANG KECAMATAN SUKARAJA KABUPATEN SELUMA085769187428fegalianda@gmail.com2017Dermayu14 Desember 1996Perempuan40-Perbankan Syari'ah25-07-20223,825 tahun, 0 bulan
1711140040ADAM RAMADHONjalan merawan 14, rt 24, rw 0708985793877adamramadhon@gmail.com2017BANDAR LAMPUNG14 Desember 1996Laki-laki40-Perbankan Syari'ah25-07-20223,565 tahun, 0 bulan
1711140041SULISTIYANI RAHMA SARIjalan irian rt.09 rw.02 no.03082178729031sulistianibkl123@gmail.com2017Bengkulu03 November 1996Perempuan40-Perbankan Syari'ah09-08-20213,654 tahun, 0 bulan
1711140042SYAMSUL RIZALJl. RE Martadinata RT 17 RW 04085838213436syamsulr140@gmail.com2017BENGKULU03 November 1996Laki-laki40-Perbankan Syari'ah09-08-20213,504 tahun, 0 bulan
1711140043LINDA FRANSISKAJl. Raya Bengkulu-Tais, RT. 03, RW. 01, kel. Dermayu, kec. Air Periukan, kab. Seluma082269085584lindafransiskabkl@gmail.com2017DERMAYU28 Maret 1998Perempuan40-Perbankan Syari'ah02-09-20213,664 tahun, 1 bulan
1711140044EPAN SAPUTRADesa Lubuk Lagan Kec. Seluma Barat Kab.Seluma085809796301epanokt@gmail.com2017TRANS MANDALA17 Oktober 1999Laki-laki40-Perbankan Syari'ah29-07-20213,854 tahun, 0 bulan
1711140045MELKY YOLAN DINARI PRATAMADESA TALANG KARET081273576735yolanmelky@yahoo.com2017TALANG KARET09 Mei 1999Laki-laki40-Perbankan Syari'ah03-09-20213,404 tahun, 1 bulan
1711140046HALIMA TUSYAHDIYAJALAN SUKAMAJU RT 07 RW 0208227920164226dutaponsel@gmail.com2017BENGKULU22 Januari 1999Perempuan40-Perbankan Syari'ah06-08-20213,864 tahun, 0 bulan
1711140047IKE PUSPITASARIjalan raya arga makmur bengkulu utara0853800876610857582426612017desa ketapi08 Maret 1973Perempuan40-Perbankan Syari'ah26-07-20213,654 tahun, 0 bulan
1711140048AYU SUTRIANA WDesa sumber arum082281607803ayusutriana@gmail.com2017babatan24 Juni 1999Perempuan40-Perbankan Syari'ah19-08-20213,754 tahun, 0 bulan
1711140049ARIF AINUN FAJRIJl, Mangga Rt 19 Rw 06 Lingkar Timur Bengkulu089615520333arifainunf@yahoo.com2017BENGKULU16 Mei 1999Laki-laki40-Perbankan Syari'ah29-07-20213,564 tahun, 0 bulan
1711140050ERLITA INTAN AZHARIJl. Padat Karya III, Kel. Sumur Dewa, Kec. Selebar, Kota Bengkulu081273704809erlitaintanazhari20072000@gmail.com2017TANGGERANG20 Juli 2000Perempuan40-Perbankan Syari'ah27-07-20213,964 tahun, 0 bulan
1711140051IKA NOVIANTYDesa karang nanding kecamatan karang tinggi kabupaten bengkulu tengah082287160128noviantyika98@gmail.com2017KARANG NANDING10 November 1998Perempuan40-Perbankan Syari'ah03-09-20213,614 tahun, 1 bulan
1711140052ELSA SAFITRIjln timur indah 3 gang bersama no 12 rt 19 rw 02082182692406elsasafitri2799@gmail2017Bengkulu27 Januari 1999Perempuan40-Perbankan Syari'ah07-09-20213,724 tahun, 1 bulan
1711140053TIA ANGRAINI SAFITRIsimpang kandis , rt : 17 , rw : 05 , gang damai085839370329tiaanggraini529@gmail.com2017BENGKULU19 Oktober 1998Perempuan40-Perbankan Syari'ah07-09-20213,704 tahun, 1 bulan
1711140054PUTRI HANDAYANITALANG SAWAH RT. 002 RW. 001085758579094willy.ana20@yahoo.com2017talang sawah07 Agustus 1999Perempuan40-Perbankan Syari'ah19-01-20233,585 tahun, 5 bulan
1711140055YUNITASinar asi , RT : 10 , RW : 0508993576117yunitha1818@gmail.com2017Lubuk Linggau03 November 1996Perempuan40-Perbankan Syari'ah09-08-20213,654 tahun, 0 bulan
1711140056NOVILIA PUTRILagan Gadang Mudik. Dusun Lagan Mudik0822869055862017LAGAN GADANG MUDIK14 Agustus 1998Perempuan40-Perbankan Syari'ah13-08-20213,774 tahun, 0 bulan
1711140057YULISTIA ANDRIYANIkelurahan napal082391411743yulistiaandriyani23@g-mail.com2017SUKABUMI06 Juni 1996Perempuan40-Perbankan Syari'ah29-07-20213,724 tahun, 0 bulan
1711140058RIZKY WULANDARIJL.PS.TAIS081378380987rizkywulandari99aj4@gmail.com2017TAIS12 April 1999Perempuan40-Perbankan Syari'ah19-01-20233,655 tahun, 5 bulan
1711140059DARA DELVITA ALHIDAYAHJl. Unib Permai II No.28 RT.12 RW 03081220892694daradelvita1998@gmail.com2017BENGKULU03 November 1996Perempuan40-Perbankan Syari'ah09-08-20213,804 tahun, 0 bulan
1711140060AFIQAH DAHNIATYjl.beringin 1 no 14 rt.06 rw.03081367679180afiqah.dahniaty@yahoo.com2017Bengkulu15 November 1998Perempuan40-Perbankan Syari'ah07-09-20213,834 tahun, 1 bulan
1711140061RIANJULIA SUTRADESA GUNUNG AYU0852730835332017gunung ayu,kec.seginim07 Juli 1998Laki-laki40-Perbankan Syari'ah07-01-20223,614 tahun, 5 bulan
1711140062MAYLANDAJl. Lintas Arga Makmur081377585060Meylanda11@gmail.com2017Padang bendar03 November 1996Perempuan40-Perbankan Syari'ah09-08-20213,704 tahun, 0 bulan
1711140063RULY SEPTIA HARDIANTIDusun III RT.03 Desa Marga Sakti082213178459ruly.septia.hardianti@gmail.com2017BUKIT MAKMUR19 September 1997Perempuan40-Perbankan Syari'ah17-02-20223,584 tahun, 6 bulan
1711140064FIEN SAFTA RANIJl. Merapi Ujung RT.27 RW.09083801643997fiensaftarani@gmail.com2017BENGKULU10 Juli 1999Perempuan40-Perbankan Syari'ah30-07-20213,814 tahun, 0 bulan
1711140065A.MUHAIMINTalang ulu Jln.A.yani081271499773basing.net@yahoo.com2017Curup22 Mei 2000Laki-laki40-Perbankan Syari'ah22-07-20213,763 tahun, 11 bulan
1711140067LARASATIJLN.Bumiayu 6 RT 23 RW 01 No 180895338393890LarasatiEffendy13@gmail.com2017Bengkulu13 Mei 1998Perempuan40-Perbankan Syari'ah13-07-20213,683 tahun, 11 bulan
1711140068LICA MIANADESA KARANG GEDE KEC.SIKAP DALAM KAB. EMPAT LAWANG PROVINSI SUMATERA SELATAN082282400868licamiana99@gmail.com2017KARANG DAPO LAMA31 Maret 1998Perempuan40-Perbankan Syari'ah19-02-20213,883 tahun, 5 bulan
1711140069MALIAN ABDUL WARTAtebat laut085832905491maliyan15@yahoo.com2017Tebat Laut03 November 1996Laki-laki40-Perbankan Syari'ah09-08-20213,503 tahun, 11 bulan
1711140070NAHDATUL AYSAHpadang tambak085384693200nahdatulaysah@gmail.com2017tanjung eran13 Oktober 1998Perempuan40-Perbankan Syari'ah31-07-20213,443 tahun, 11 bulan
1711140071OKI ADE PUTRADs. Talang Karet, Kec. Tebat Karai, Kab. Kepahiang, Prop. Bengkulu081632797589efrizaldedi279@gmail.com2017Talang Karet31 Maret 1998Laki-laki40-Perbankan Syari'ah19-02-20213,433 tahun, 5 bulan
1711140072OVYKA ANGGRAINIjalan padat karya 7085758559013ovykaanggraini004@gmail.com2017SUKA RAJA03 November 1996Perempuan40-Perbankan Syari'ah09-08-20213,513 tahun, 11 bulan
1711140073RESA KOMARIAJln.Raya suka negeri085379020809resakomaria999@gmail.com2017Suka Negeri05 Agustus 1998Perempuan40-Perbankan Syari'ah17-02-20223,484 tahun, 5 bulan
1711140074RIDHA REVINAJLN PUTRI GADING CEMPAKA 19082371332538Ridharevina227@yahoo.com2017BENGKULU26 Agustus 1998Perempuan40-Perbankan Syari'ah25-01-20233,475 tahun, 5 bulan
1711140075SITI NURJANAHPAGAR DEWA085273265128sitinurjanah75557@gmail.com2017DESA. BUKIT BERLIAN KEC.ULOK KUPAI KAB.BENGKULU UTARA19 Februari 1999Perempuan40-Perbankan Syari'ah12-07-20213,683 tahun, 10 bulan
1711140076SUSILO ADI SAPUTRASUKA BUMI RT. 002 RW. 005 KEL. SUKA BUMI KEC. BUAY BAHUGA PROV. LAMPUNG082283327173Susilosaputra72@gmail.com2017suka bumi28 Februari 1995Laki-laki40-Perbankan Syari'ah14-01-20213,683 tahun, 4 bulan
1711140077SYARAH SAPUTRIKepala Pasar081276643847Syarah.saputri99@gmail.com2017Pasar Inpres (Kaur)22 April 1999Perempuan40-Perbankan Syari'ah19-05-20223,464 tahun, 8 bulan
1711140079WAHYU HIDAYAT FEBRIANSYAHJalan Suprapto Dalam085609444927hidayatwahyu9742@gmail.com2017Bengkulu03 November 1996Laki-laki40-Perbankan Syari'ah09-08-20213,463 tahun, 11 bulan
1711140080WIDYA LESTARIJL.BJ.Katamso,Unit 5085609426091Widyakyuhyun1@gmail.com2017SIDOMUKTI07 Februari 1999Perempuan40-Perbankan Syari'ah17-02-20223,514 tahun, 5 bulan
1711140081YOLI NOVIKADESA PADANG BENDAR /JALAN RAYA LUBUK DURIAN/ GANG BATU LAYANG083809424308yolinovika@gmail.com2017PADANG BENDAR04 Mei 1999Perempuan40-Perbankan Syari'ah30-07-20213,613 tahun, 11 bulan
1711140082ZAKIYYAH NUR FITRIJl.Melinjo08992349808zakianurfitri03@gmail.co.id2017Bengkulu31 Maret 1998Perempuan40-Perbankan Syari'ah19-02-20213,873 tahun, 5 bulan
1711140084ARMA YUDA NOVIANTODESA WONOHARJO. JL.BRAWIJAYA082281220561armayuda441@gmail.com2017ARGAMAKMUR08 November 1999Laki-laki40-Perbankan Syari'ah12-07-20213,553 tahun, 10 bulan
1711140085BOBBY WAHYU PURNAMAmuara payang082289122182bobbywpm51@gmail.com2017Muara Payang19 Juni 1999Laki-laki40-Perbankan Syari'ah13-07-20213,583 tahun, 10 bulan
1711140086CHENNY MAULYCA GLORIAJL.KOLONEL BARLIAN081271241438chennymaulycag26@gmail.com2017MANNA28 Februari 1995Perempuan40-Perbankan Syari'ah14-01-20213,613 tahun, 4 bulan
1711140087CHIKA PUTRI UTAMIdesa durian seginim083172050945putrichika408@yahoo.com2017seginim29 September 1999Perempuan40-Perbankan Syari'ah13-07-20213,743 tahun, 10 bulan
1711140088CICI WAHYU SAPUTRIJL.CENDANA II GG JAMBU TIGA SAWAH LEBAR BARU.085381617606CICIWAHYUS@GMAIL.COM2017KOTA BENGKULU25 Desember 1998Perempuan40-Perbankan Syari'ah31-07-20213,583 tahun, 11 bulan
1711140089DEWI ARDIA NENGSIdesa tumbuk082280714755dewiardianengsih@gmail.com2017desa tumbuk09 Desember 1994Perempuan40-Perbankan Syari'ah14-07-20213,683 tahun, 10 bulan
1711140090DIKA JULIANTOJL.RAJAWALI085609408185dikajulian64@gmail.com2017MUARA SAHUNG18 Juli 1999Laki-laki40-Perbankan Syari'ah07-09-20213,544 tahun, 0 bulan
1711140091ENDAH EFRIANItalang ginting081287263436endahajh38@gmail.com2017talang ginting31 Maret 1998Perempuan40-Perbankan Syari'ah19-02-20213,723 tahun, 5 bulan
1711140092FIKA LESTARIJL. RADEN FATAH NO. 78 RT. 11 RW. 02 GANG TAIS085709505664elesti20@gmail.com2017BENGKULU31 Maret 1998Perempuan40-Perbankan Syari'ah19-02-20213,673 tahun, 5 bulan
1711140093HENIDA UTARIJL. desa awat mata085788061660henidautari@gmail.com2017PARDA SUKA24 Agustus 1999Perempuan40-Perbankan Syari'ah19-02-20223,304 tahun, 5 bulan
1711140094INDAH DWI LESTARIDESA TALANG BERINGIN081219524869indahdwii1899@gmail.com2017KETAPANG BARU13 April 1999Perempuan40-Perbankan Syari'ah12-07-20213,733 tahun, 10 bulan
1711140095KIKI MARIAHMEKAR ALAM JL. PERINTIS089628775286kikimariah18@gmail.com2017PAGAR ALAM27 Juni 2000Perempuan40-Perbankan Syari'ah13-07-20213,633 tahun, 10 bulan
1711140096LENSI YUNIARTIDs. Nanti Agung, Kec. Tabat Karai, Kab. Kepahiang, Prop. Bengkulu085378785676lensiyuniarti23@gmail.com2017Karang Tengah23 Agustus 1997Perempuan40-Perbankan Syari'ah06-08-20213,453 tahun, 11 bulan
1711140098DINDI ANGGARAjl. kinibalu 80895633105285Dindianggara25@gmail.com2017Bengkulu15 Maret 1996Laki-laki40-Perbankan Syari'ah12-07-20213,693 tahun, 10 bulan
1711140099DIONA SARIJl.Raden Fatah/ gang Telaga Dewa 6081377587715dionasari21@gmil.com2017Taba Baru14 Agustus 1998Perempuan40-Perbankan Syari'ah13-08-20213,813 tahun, 11 bulan
1711140100ESTI NADIANITeras Terunjam / j l.raya Teras Terunjam/ -082178342667estinadiani21@gmail.com2017Teras Terunjam21 April 1999Perempuan40-Perbankan Syari'ah26-07-20213,533 tahun, 11 bulan
1711140101FIRA PRASILIA DWINTAMAJLN PANCURMAS, RT 35, RW 08, KEL SUKARAMI, KEC SELEBAR, KOTA BENGKULU083173217991fira3385@gmail.com2017BENGKULU24 Mei 1999Perempuan40-Perbankan Syari'ah20-08-20213,813 tahun, 11 bulan
1711140102IWAN SAPUTRAJALAN GANDARIA 60895410677773Iwansaputra02081997@gmail.com2017PALEMBANG03 November 1996Laki-laki40-Perbankan Syari'ah09-08-20213,353 tahun, 11 bulan
1711140103JANES KURNIA HADIJl. Air Kemuning081367082327kurniahadijanes@gmail.com2017BENGKULU23 Desember 1997Laki-laki40-Perbankan Syari'ah28-07-20223,634 tahun, 11 bulan
1711140104KUTA KARMILA UTARIJl. Raden fatah kel.pagar dewakec.selebar kota bengkulu085379633118kutakarmilautari@gmail.com2017KARANG CAYA12 Desember 1992Perempuan40-Perbankan Syari'ah18-02-20223,734 tahun, 5 bulan
1711140105LATIFHATUL QOLBIDs.suku menanti082278556056latifatulqolbi9@gmail.com2017Ailang03 Mei 2000Perempuan40-Perbankan Syari'ah21-02-20223,854 tahun, 5 bulan
1711140106MUTIARA APRIZAtelaga dewa 9085766346485mutiaraapriza0495@gmail.com2017selika14 Desember 1996Perempuan40-Perbankan Syari'ah25-07-20223,584 tahun, 11 bulan
1711140108NERI KURNIATIJL. BELAKANG PERUMDAM085283470218mandasari0302@gmail.com2017BENGKULU08 September 1998Perempuan40-Perbankan Syari'ah28-07-20213,573 tahun, 11 bulan
1711140109NINA MARTANITAtalang marap081369295541ninamartanita021119@gmail.com2017talang marap02 November 1999Perempuan40-Perbankan Syari'ah26-07-20213,543 tahun, 11 bulan
1711140110NURRAHMA PUTRIJl. Raden Patah082280918473putrynurahma@gmail.com2017SAWANG LEBAR14 Desember 1996Perempuan40-Perbankan Syari'ah25-07-20223,474 tahun, 11 bulan
1711140111RAMA DIANA PUTRIjl.catur prasetia085383104628ramadianaputrils@gmail.com2017Bengkulu14 Desember 1996Perempuan40-Perbankan Syari'ah25-07-20223,744 tahun, 11 bulan
1711140112RENDI AGUSTIANDesa Suka Rami Kec. Air Nipis Kab. Bengkulu selatan085357912469rendyagustian0402@gmail.com2017Suka Rami04 Februari 1998Laki-laki40-Perbankan Syari'ah29-07-20213,723 tahun, 11 bulan
1711140114RISKA NESITRIJL. Raden Fatah082375261079riskanesitri@gmail.com2017Tanjung Beringin05 September 1998Perempuan40-Perbankan Syari'ah28-07-20213,773 tahun, 11 bulan
1711140115RONALDE NESU PARERADs. Tanah Abang, Kec. Ilir Talo, Kab. Seluma082282741802mudisdm123@gmail.com2017Tanah Abang05 Mei 1999Laki-laki40-Perbankan Syari'ah27-07-20223,344 tahun, 11 bulan
1711140116SATRIO RAMADHANJl. Halmahera Gg. Halmahera 3082180258198rioramadhan319@gmail.com2017Bengkulu23 Desember 1999Laki-laki40-Perbankan Syari'ah07-09-20213,604 tahun, 0 bulan
1711140117SILVI WULANDARITelaga dewa 9082177535738silvywulandari@gmail.com2017pasar ipuh14 Desember 1996Perempuan40-Perbankan Syari'ah25-07-20223,674 tahun, 11 bulan
1711140118SOLEHIN DAUDMUARA SINDANG085788345193solihindaud19@gmail.com2017MUARA SINDANG19 Juni 1998Laki-laki40-Perbankan Syari'ah28-07-20223,494 tahun, 11 bulan
1711140121VIVILIAN UTARIJl. A.K. Gani082373871969vivilianutari@gmail.com2017Jakarta02 Mei 1999Perempuan40-Perbankan Syari'ah20-08-20213,713 tahun, 11 bulan
1711140122YENI SEPTIYANAjalan padat karya 6082269542034yeniseptiyana08@gmail.com2017bengkulu12 Desember 1992Perempuan40-Perbankan Syari'ah18-02-20223,684 tahun, 5 bulan
1711140123YESI YULITADesa sawang lebar,Kecamatan Tanjung agung palik,Kabupaten Bengkulu utara082175531352yesiyulitabkl@gmail.com2017Desa sawan Lebar,Kecamatan Tanjung agung palik,Kabupaten Bengkulu utara14 Desember 1996Perempuan40-Perbankan Syari'ah25-07-20223,514 tahun, 11 bulan
1711140124YOGI FRANATAJL.Bengko Sengkuang Ds.Bandung Jaya Kec. Kabawetan Kab. Kepahiang Prov. Bengkulu085609444588yogipranata121@gmail.com2017Kepahiang21 Februari 1997Laki-laki40-Perbankan Syari'ah28-07-20223,384 tahun, 11 bulan
1711140125ADI PUTRADusun Baru V Koto/ jl.Lintas Bengkulu-padang?*081279532931adip76298@gmail.com2017Dusun Baru V Koto25 Oktober 1998Laki-laki40-Perbankan Syari'ah06-08-20213,623 tahun, 11 bulan
1711140126ALIDIA PRADELLAJL. KS TUBUN BLOK B NO.6081367259257alidiapradella26@gmail.com2017BENGKULU26 Oktober 1998Perempuan40-Perbankan Syari'ah20-08-20213,463 tahun, 11 bulan
1711140128DEDEK SRI RAMADHANIPT. Agri Andalas Afd 1B085758315626dedekbkl589@gmail.com2017Medan14 Agustus 1998Perempuan40-Perbankan Syari'ah13-08-20213,833 tahun, 11 bulan
1711140129DENI ISWANDIDESA DURIAN DEMANG KEC. KARANG TINGGI KAB. BENGKULU TENGAH085758155174deniiswandi333@gmail.com2017DURIAN DEMANG15 Februari 1997Laki-laki40-Perbankan Syari'ah29-07-20213,773 tahun, 11 bulan
1711140130DENI WIDYA SANTIDusun curup085839100898Deniwidyasanti2019@gmail.com2017DUSUN CURUP01 Desember 1997Perempuan40-Perbankan Syari'ah02-09-20213,484 tahun, 0 bulan
1711140131FRESELIA AMANDAJL.IRIAN NO.78085609726253Amandafreselia@yahoo.com2017Bengkulu12 November 1999Perempuan40-Perbankan Syari'ah21-01-20223,804 tahun, 4 bulan
1711140132IMAN FAUQA DARAJATDESA PULAU BARU KECAMATAN IPUH KABUPATEN MUKO-MUKO PROVINSI BENGKULU082376680537IMANFAUQA17@GMAIL.COM2017PULAU BARU IPUH17 September 1998Laki-laki40-Perbankan Syari'ah07-09-20213,734 tahun, 0 bulan
1711140133LORA SARTIKAJl. Mahoni no.57 Kota Bengkulu0895321425880lorasartika89@yahoo.com2017Bengkulu14 September 1998Perempuan40-Perbankan Syari'ah19-08-20213,633 tahun, 11 bulan
1711140135RATY ARMALINDA SARIDesa talang Curup082282718387Portin_93@yahoo.com2017talang Curup29 Mei 1998Perempuan40-Perbankan Syari'ah06-09-20213,644 tahun, 0 bulan
1711140137BELLA PURNAMADESA PONDOK KUBANG KECAMATAN PONDOK KUBANG KABUPATEN BENGKULU TENGAH PROPINSI BENGKULU.082391196313bellapurnama305@gmail.com2017pondok kubang22 Juli 1999Perempuan40-Perbankan Syari'ah17-02-20223,544 tahun, 5 bulan
1711140138DHEA OKTAVIAJln. Kuala alam no 4508994931736dheaoktavia18@yahoo.com2017Bengkulu09 Oktober 1999Perempuan40-Perbankan Syari'ah06-08-20213,543 tahun, 11 bulan
1711140139DIAN AFRIANI ANGRAINIAIR PUTIH085758288571dianbengkulu4@gmail.com2017AIR SEBAKUL14 Agustus 1998Perempuan40-Perbankan Syari'ah13-08-20213,533 tahun, 11 bulan
1711140141ERA FAZIRAjl.jeruk ujung08980987451faziraera32@gmail.com2017Ter,Tempatih19 April 2000Perempuan40-Perbankan Syari'ah30-07-20213,613 tahun, 11 bulan
1711140142INDRY YANI RAHAYUDESA PUAU BARU0821756948712017MEDAN JAYA14 Desember 1996Perempuan40-Perbankan Syari'ah25-07-20223,624 tahun, 11 bulan
1711140143INTAN PUSPITA SARIDESA TALANG PERAPAT KECAMATAN SELUMA BARAT KABUPATEN SELUMA082181628690intanpuspitasari094@gmail.com2017TALANG PERAPAT14 Agustus 1998Perempuan40-Perbankan Syari'ah13-08-20213,493 tahun, 11 bulan
1711140144JUTIAN DESTIkarang dapo baru085377337732Jutiandesti@gmail.com2017karang dapo baru28 Februari 1999Perempuan40-Perbankan Syari'ah06-09-20213,544 tahun, 0 bulan
1711140145LINDRA ZANJAYACURUP082216910257Lindra130619@gmail.com2017PAGAR ALAM14 Desember 1996Laki-laki40-Perbankan Syari'ah25-07-20223,404 tahun, 11 bulan
1711140146NATASYA MEILANDAkarang dapo baru085269731607natasya.meilanda@gmail.com2017lahat03 November 1996Perempuan40-Perbankan Syari'ah09-08-20213,713 tahun, 11 bulan
1711140147PANCA DESRIANSYAH HERLANGGAJL.SERUNI 1 NO 47 RT 08 RW 02 KELURAHAN NUSA INDAH KECAMATAN RATU AGUNG KOTA BENGKULU08993989408jojonkito@gmail.com2017BENGKULU14 Desember 1996Laki-laki40-Perbankan Syari'ah25-07-20223,474 tahun, 11 bulan
1711140149PUJA SYAFITRIPerum graha asri blok B15082372980396pujasafitri1999@gmail.com2017barus10 Januari 1999Perempuan40-Perbankan Syari'ah06-09-20213,624 tahun, 0 bulan
1711140150RAMADHANTI SAPUTRIjalan lingkar barat pepabri blok b5 no11082278225847ramadhantisaputri@gmail.com2017bengkulu14 Desember 1996Perempuan40-Perbankan Syari'ah25-07-20223,664 tahun, 11 bulan
1711140152TIARA AGNESTAdesa tanjung heran, kecamatan taba penanjung, kabupaten bengkulu tengah083164607922tiara11agnesta@gmail.com2017desa tanjung heran11 September 1999Perempuan40-Perbankan Syari'ah09-07-20213,603 tahun, 10 bulan
1711140154VERA OKTAVIADesa Talang Jarang Kec. Air Napal Kab. Bengkulu Utara085758131330veraoktavia297@gmail.com2017RAWA MAKMUR08 Maret 1973Perempuan40-Perbankan Syari'ah26-07-20213,793 tahun, 11 bulan
1711140155WAHYU SEPTANTOJALAN LETKOL SANTOSO NO 23A081366406386wahyuseptanto@gmail.com2017BENGKULU24 September 1999Laki-laki40-Perbankan Syari'ah25-07-20223,674 tahun, 11 bulan
1711140156WIDIA AVETA SARIPulau Panggung Jalan Raya Padang Guci Hilir082376268407widiaavetasari98@gmail.com2017Pulau Panggung31 Desember 1998Perempuan40-Perbankan Syari'ah08-12-20223,545 tahun, 3 bulan
1711140159ABDUL KADIRJL.KALIMANTAN,MERPATI 15 RAWA MAKMUR PERMAI085832096931abdulqhadirj@gmail.com2017DESA KOTA LEKAT11 Desember 1999Laki-laki40-Perbankan Syari'ah06-09-20213,444 tahun, 0 bulan
1711140163ERMA MEGA CAHYANINGSIHdesa maninjau dusun air limas 2082279757501erma.mega@yahoo.com2017air limas 214 Desember 1996Perempuan40-Perbankan Syari'ah25-07-20223,564 tahun, 11 bulan
1711140165ILHAM WAHYUDINANTI AGUNG082180592810Wahyudiilham6067@gmail.com2017NANTI AGUNG17 Mei 1998Laki-laki40-Perbankan Syari'ah25-07-20223,364 tahun, 11 bulan
1711140167LEDI MARSEP KARNIALEJln Mayjend. Sutoyo 6. Rt 19, Rw 02. Kelurahan Tanah Patah. Kecamatan Ratu Agung.085783254969ledimarsep@gmail.com2017manggilan13 September 1996Laki-laki40-Perbankan Syari'ah27-01-20223,664 tahun, 5 bulan
1711140168MUHAMMAD YUSUFjl. H.M Zahab082388248603myusufbengkulu2@gmail.com2017Bengkulu13 Agustus 1998Laki-laki40-Perbankan Syari'ah07-01-20223,434 tahun, 4 bulan
1711140169PITRI HAYATIJL.CEMPAKA X082279352166neldawitri@gmail.com2017pagardin21 Februari 2000Perempuan40-Perbankan Syari'ah14-02-20223,434 tahun, 5 bulan
1711140170RAHMAT ILAHIDesa Tanjung Terdana Kec. Pondok Kubang Kab. Bengkulu Tengah082267347748ilahirahmat2018@gmail.com,ilahirahmat1998@yahoo.co2017Tj terdana21 Februari 2000Laki-laki40-Perbankan Syari'ah14-02-20223,624 tahun, 5 bulan
1711140171RANI PURNAMA SARIJln.Perum.Alfatindo.Blok.E. Sebakul082180711131ranipurnamasari097@gmail.com.2017Bengkulu06 April 1998Perempuan40-Perbankan Syari'ah27-01-20223,654 tahun, 5 bulan
1711140173ROYAN ADITYA UTAMAJL.MANISO082285035596royanutama3@gmail.com2017SUNGAI PUTIH07 Desember 1998Laki-laki40-Perbankan Syari'ah06-09-20213,524 tahun, 0 bulan
1711140174RUDI JULIANTOTANJUNG AUR 1082387176071rudijulianto2207@gmail.com2017ULAK LEBAR03 November 1996Laki-laki40-Perbankan Syari'ah09-08-20213,423 tahun, 11 bulan
1711140175SENDY STAMOSJl. Timur Indah 1089603877602sendidewa35@yahoo.com2017Bengkulu08 Maret 1973Laki-laki40-Perbankan Syari'ah26-07-20213,743 tahun, 11 bulan
1711140176SHELLY PALINADESA TANJUNG NEGARA0823164540052017tanjung negara18 November 1999Perempuan40-Perbankan Syari'ah02-09-20213,654 tahun, 0 bulan
1711140177SUTI MARITAdesa suka mulya jalan suka mulya082282668886suti.marita1@gmail.com2017padang guci22 Februari 1999Perempuan40-Perbankan Syari'ah27-10-20223,725 tahun, 2 bulan
1711140178WANDIRA PUSPITA SARIJL.PLAMBOYAN SIMPANG SKIP KOTA BENGKULU082282658856wandirapuspita99@gmail.com2017BATU LINTANG29 Agustus 1999Perempuan40-Perbankan Syari'ah16-02-20223,394 tahun, 5 bulan
1711140180BENNI PRANSISKOjl. Raden Fatah085311086256jajajojo123495@gmail.com2017BENGKULU03 November 1996Laki-laki40-Perbankan Syari'ah09-08-20213,553 tahun, 11 bulan
1711140181DELA SAFITRIjl. Depati Payung Negara085366265739safitridela07@gmail.com2017Curup03 November 1996Perempuan40-Perbankan Syari'ah09-08-20213,683 tahun, 11 bulan
1711140182EKE WARDANIJL.DANAU NO08 RT.03 RW.001 KEL.PANORAMA KEC.SINGARANPATI08972800721wardanieke@gmail.com2017BENGKULU03 Februari 1998Perempuan40-Perbankan Syari'ah17-02-20223,564 tahun, 5 bulan
1711140183ERDA PEBRIANIDusun 3 Desa Kuro Tidur, Kec. Arga Makmur, Kab. Bengkulu Utara, Prov. Bengkulu082278774990erdapebriani02@gmail.com2017Lambur11 Februari 1999Perempuan40-Perbankan Syari'ah28-01-20223,624 tahun, 5 bulan
1711140184FIA NOPITASARIjl.kz abdini 1 no 66c083172492257novitafia02.fn@gmail.com2017Bengkulu14 Desember 1996Perempuan40-Perbankan Syari'ah25-07-20223,644 tahun, 11 bulan
1711140186PEPIDesa Muara Karang082268726124phepyaihar@gmail.com2017MUARA KARANG14 Desember 1996Perempuan40-Perbankan Syari'ah25-07-20223,694 tahun, 11 bulan
1711140187RAHMAT HIDAYATDESA SUKASARI KEC AIR PERIUKAN KAB SELUMA RT 08082179093455rh260775@gmail.com2017SUKASARI08 Maret 1973Laki-laki40-Perbankan Syari'ah26-07-20213,483 tahun, 11 bulan
1711140189ROSPITA RAHAYUDesa Tanjung Kemuning081290291923rospita.rahayue13@gmail.com2017Kinal08 Maret 1973Perempuan40-Perbankan Syari'ah26-07-20213,603 tahun, 11 bulan
1711140190YETTI VERONIKADesa Pulau Panggung, Kec. Tanjung sakti Pumi085709505615yettiveronika3@gmail.com2017Pulau Panggung14 Desember 1996Perempuan40-Perbankan Syari'ah25-07-20223,664 tahun, 11 bulan
1711140192MONICA SELLA DWI ARTIESHAJl. Citarum No. 16 RT 11 RW 05 Kel Jalan gedang Kec Gading cempaka kota bengkulu082279805189monicadwisella@gmail.com2017Bengkulu30 Juli 1999Perempuan40-Perbankan Syari'ah25-07-20223,434 tahun, 11 bulan
1711140193ROTIPA AULIADESA. PULAU PANGGUNG KEC. LUAS KAB. KAUR082281914017rotyvaa@gmail.com2017PULAU PANGGUNG03 November 1996Perempuan40-Perbankan Syari'ah09-08-20213,613 tahun, 11 bulan
1711140196DINDA MURAH ATIPANCA MUKTI BLOK 6 BENGKULU TENGAH082178816239dhindhahati33@yahoo.com2017PANCA MUKTI14 Desember 1996Perempuan40-Perbankan Syari'ah25-07-20223,654 tahun, 10 bulan
1711160001IKA ANGGRAINIJl. Guru Hadi082175772280Ikaanggraini1799@gmail.com2017Bandar Jaya31 Maret 1998Perempuan48-Manajemen Zakat dan Wakaf19-02-20213,783 tahun, 8 bulan
1711160002ENDANG MUSTIKApadang kemiling rt 05 rw 02 pekan sabtu089624731043endangmuustika154@gmail.com2017Bengkulu04 Maret 1999Perempuan48-Manajemen Zakat dan Wakaf23-07-20213,664 tahun, 0 bulan
1711160004YONARDIjl. setia negara kec. semidang alas maras kab. seluma081369507182yonardikaddey5@gmail.com2017SELUMA31 Maret 1998Laki-laki48-Manajemen Zakat dan Wakaf19-02-20213,613 tahun, 7 bulan
1711160005FRANSISCA LORENTZA AL MARSYAHperumnas pintu langit desa tebat kubu08527323669302017Manna31 Maret 1998Perempuan48-Manajemen Zakat dan Wakaf19-02-20213,653 tahun, 6 bulan
1711160006MSY MARDIANAjalan cereme dalam No. 34 Rt 07 kel. cereme taba kec. lubuklinggau timur II kota lubuklinggau provinsi sumatera selatan082374007883ayumsymardiana@gmail.com2017lubuk linggau31 Maret 1998Perempuan48-Manajemen Zakat dan Wakaf19-02-20213,843 tahun, 6 bulan
1711160007FITRAH OKTI SEPRIATIsuka merindu085788060786FITRAH.OKTI@FACEBOOK.COM2017SUKA MERINDU31 Maret 1998Perempuan48-Manajemen Zakat dan Wakaf19-02-20213,593 tahun, 5 bulan
1711160008NOVERA DAMAIYANTIjl.kesehatan082177061915NOVERADAMAIYANTI00@gmaij.com2017KOTA BUMI14 Agustus 1998Perempuan48-Manajemen Zakat dan Wakaf13-08-20213,423 tahun, 11 bulan
1711160009PITER SAPUTRA YOPIPadang kemiling permai , rt 4 rw 2082289441031saputrayopipiter@gmail.com2017desa jarakan16 Mei 1998Laki-laki48-Manajemen Zakat dan Wakaf16-02-20223,114 tahun, 5 bulan
1711160010RATI ALPITA SARIAL MUKAROMAH 12082264995661ratialpitasari@gmail.com2017RANTAU ALIH31 Maret 1998Perempuan48-Manajemen Zakat dan Wakaf19-02-20213,623 tahun, 5 bulan
1711160012RAMADIperum kehutanan air sebakul085267568956ramadi2101@gmail.com2017Bengkulu31 Maret 1998Laki-laki48-Manajemen Zakat dan Wakaf19-02-20213,393 tahun, 5 bulan
1711160014TITIN AGUSTINDESA SERIAN BANDUNG081273334705titin.agustin.170899@gmail.com2017TALANG ALAI31 Maret 1998Perempuan48-Manajemen Zakat dan Wakaf19-02-20213,583 tahun, 5 bulan
1711160016LITA ANDESPAJI. Radenfata kel Pagar Dewa no 22 Rt 07 Rw 02 kec. Selebar Kota Bengkulu085267966193litaandespah.com2017TANJUNG BETUNG II31 Maret 1998Perempuan48-Manajemen Zakat dan Wakaf19-02-20213,503 tahun, 5 bulan
1711170001DARARI NADILLAHJl. Cimanuk 1c085279830585dararinadillah1818@gmail.com2017KOTA PADANG31 Maret 1998Perempuan78-Manajemen Haji dan Umroh19-02-20213,773 tahun, 8 bulan
1711170002NILAWATIkampung sekate082282741836nwati632@gmail.com2017KAB. MUSI BANYU ASIN08 Maret 1973Perempuan78-Manajemen Haji dan Umroh26-07-20213,544 tahun, 1 bulan
1711170003NISHA FIRDA AMALIAJL. RADEN KUNING085384276072nisavirda10@gmail.com2017KAB. TANGERANG29 Juni 1999Perempuan78-Manajemen Haji dan Umroh19-02-20213,783 tahun, 8 bulan
1711170004RIZKA ERTAMADesa Talang Marap, Kecmatan Kelam Tengah, Kabupaten Kaur085273994800rizkaertama@gmail.com2017PELAJARAN29 Juni 1999Perempuan78-Manajemen Haji dan Umroh19-02-20213,683 tahun, 8 bulan
1711170005SUBANDI SYAHROWILingkungan IV Sukamaju081278280814syahrowi369@gmail.com2017BATURAJA03 Juni 1999Laki-laki78-Manajemen Haji dan Umroh14-07-20213,734 tahun, 0 bulan
1711170006ABDUL RAHMAN ALGOVIXYDesa kembang seri/Jalan Lintas Pagar Alam085213653361miza180395@gmail.com2017DESA KEMBANG SERI29 Mei 1999Laki-laki78-Manajemen Haji dan Umroh28-01-20223,424 tahun, 6 bulan
1711170008DICKY ZULKARNAINJl.Raden fatah Air sebakul085368644802dickyzlkarnain@gmail.com2017Bengkulu14 Desember 1996Laki-laki78-Manajemen Haji dan Umroh25-07-20223,675 tahun, 0 bulan
1711170009DENI TRI SUHESTIJl. Merpati Dusun 6 Desa Rami Mulya082279799308denitrisuhesti@gmail.com2017Bengkulu Utara02 Juli 1997Perempuan78-Manajemen Haji dan Umroh11-02-20213,903 tahun, 6 bulan
1711170011HEFTI LIANAUlak Agung082371107142heftiliana22@gmail.com2017ULAK AGUNG05 Mei 1999Perempuan78-Manajemen Haji dan Umroh03-03-20223,574 tahun, 7 bulan
1711170012DESI PUSTIKADesa Ketaping Kecamatan Kota Manna Kabupaten Bengkulu Selatan085378438451desyimut934@yahoo.com2017MANNA07 Maret 1999Perempuan78-Manajemen Haji dan Umroh03-03-20223,404 tahun, 7 bulan
1711170013DERI MUHAMMAD NASYIHINPesantren Miftahul Hidayah Jalan Pahlawan Dusun V082278622364torivimari@gmail.com2017BUKIT PENINJAUAN 114 Februari 1998Laki-laki78-Manajemen Haji dan Umroh19-08-20213,464 tahun, 0 bulan
1711170014MELATI OKTAVIA UTAMIjln raya.Desa ps.sebelat082185987152Melatioktavia680@gmail.com2017PASAR SEBELAT21 Februari 2000Perempuan78-Manajemen Haji dan Umroh14-02-20223,594 tahun, 6 bulan
1711170015DHITA AFRILLIANYJALAN TIMOR NO.37 KEC.LUBUKLINGGAU TIMUR II081995871565dhitaafr24@gmail.com2017LUBUKLINGGAU02 Juli 1997Perempuan78-Manajemen Haji dan Umroh11-02-20213,703 tahun, 5 bulan
1711170016DION DARLINUSDesa Suka Negara0822794037987ddarlinus@gmail.com2017Desa Suka Negara14 Desember 1996Laki-laki78-Manajemen Haji dan Umroh25-07-20223,614 tahun, 11 bulan
1711170017EKA FEBRI ROHYANIAir sebakul,RT : 22, RW : 4082269029254ekafebri104@gmail.com2017TANJUNG HARAPAN02 Juli 1997Perempuan78-Manajemen Haji dan Umroh11-02-20213,883 tahun, 5 bulan
1711170018RINALDODESA GINDO SULI, KEC. BUNGA MAS, KAB. BENGKULU SELATAN0853694072912017DESA GINDO SULI12 Desember 1992Laki-laki78-Manajemen Haji dan Umroh18-02-20223,344 tahun, 5 bulan
1711170020EKA WAHYUNItl.giring kec.lubuk sandi kab.seluma082269538260eka58718@gmail.com2017tl.giring kec.lubuk sandi kab.seluma14 Mei 1999Perempuan78-Manajemen Haji dan Umroh18-02-20223,524 tahun, 5 bulan
1711170021LOVI SEPTRI MAYANG SARIjalan lintas barat. desa suku tiga kec.nasal kab.kaur082372254990lovi.sms@yahoo.com, lovisept28@gmail.com2017suku tiga12 Desember 1992Perempuan78-Manajemen Haji dan Umroh18-02-20223,414 tahun, 5 bulan
1711170022MOHAMMAD MAJA SAPUTRAJl.Telaga Dewa kel. Pagar Dewa Kec. Selebar Kota Bengkulu.082297975077mohammadmajasaputra@GMAIL.COM2017Bengkulu25 Maret 1998Laki-laki78-Manajemen Haji dan Umroh28-01-20223,434 tahun, 5 bulan
1711170023NURLAILA SARIJALAN. ISKANDAR 10081356173616lailasari24648@gmail.com2017BENGKULU01 Desember 1995Perempuan78-Manajemen Haji dan Umroh31-07-20213,683 tahun, 11 bulan
1711170024UCI PUPIANTIpadangkemiling permai0857882395732017talang kedurang29 Agustus 1999Perempuan78-Manajemen Haji dan Umroh16-02-20223,484 tahun, 5 bulan
1711170025WELLA EFETRIperumnas betungan raflesia asri0856094077472017lubuk sirih08 Maret 1973Perempuan78-Manajemen Haji dan Umroh26-07-20213,653 tahun, 11 bulan
1711170027SURISKITelaga Dewa 60857582804172017keban jati21 Februari 2000Perempuan78-Manajemen Haji dan Umroh14-02-20223,454 tahun, 5 bulan
1711170028ABDUL MUHYI ASYKURKELURAHAN PADANG RAMBUN, RT. 003 RW. 001, KECAMATAN SELUMA SELATAN, KABUPATEN SELUMA PROVINSI BENGKULU082290815649abdulmuhyi.asykur88@gmail.com2017PADANG RAMBUN14 Desember 1996Laki-laki78-Manajemen Haji dan Umroh25-07-20223,944 tahun, 11 bulan
1711170029M.ADI SUSANTO AJI HASMANNAGARANTAI085352556557adhishusanto26@gmail.com, adhishusanto05@gmail.com2017NAGARANTAI26 Oktober 1998Laki-laki78-Manajemen Haji dan Umroh26-07-20223,474 tahun, 11 bulan
1711170031YUHADIJALAN TELAGA DEWA 6081366690034yuhadinijarman10@Gmail.com2017Suka Maju10 Februari 1999Laki-laki78-Manajemen Haji dan Umroh26-08-20223,565 tahun, 0 bulan
1711170032ADJI PRABOWOjl.Raya Bengkulu-manna08153830739adjiprabowo56@gmail.com2017Tais02 Juli 1997Laki-laki78-Manajemen Haji dan Umroh11-02-20213,863 tahun, 5 bulan
1711170033BELA ARMELIA PUTRIMasmambang, Jln Raya, Puskesmas0858383706032017kampai08 Maret 1973Perempuan78-Manajemen Haji dan Umroh26-07-20213,633 tahun, 11 bulan
1711170034MUHTARROM ARIPINdesa penago II Kec.ilir talo Kab.seluma081278981028aripinlovemadrid@gmail.com2017PenagoII09 Desember 1997Laki-laki78-Manajemen Haji dan Umroh28-01-20223,834 tahun, 5 bulan
1611130002SARI SUWANDIJl Sumur Dewa, No 8 Kota Bengkulu.089530287911saripersiapans2@gmail.com2016BENGKULU19 April 1994Perempuan39-Ekonomi Syari'ah20-11-20203,884 tahun, 4 bulan
1611130003REVA AISIYAH HANIFJL. hibrida 14 rt 011 rw 003 Desa Sidomulyo Kec. Gading Cempaka Kota Bengkulu082374016461Revaaisyahhanif@gmail.com, Reva.aisiyah0308@gmail.com2016Banyuwangi11 Juli 1998Perempuan39-Ekonomi Syari'ah13-10-20203,604 tahun, 3 bulan
1611130004EEN MARDIANIDesa Sumber Harta Kecamatan Sumber Harta Kabupaten Musi Rawas082280989844mardianieen28@gmail.com2016SUMBER HARTA11 Juli 1998Perempuan39-Ekonomi Syari'ah13-10-20203,594 tahun, 3 bulan
1611130009AHMAD FANZURIjalan ahmad marzuki no 106085832438858ahmadfanzuri@ymail.com2016CURUP09 Desember 1997Laki-laki39-Ekonomi Syari'ah16-02-20223,415 tahun, 7 bulan
1611130010FIRDAUS ZULPIABRIJl. WR supratman082269449487firdauszulpiabri.bilingual@gmail.com2016Bengkulu11 Juli 1998Laki-laki39-Ekonomi Syari'ah13-10-20203,674 tahun, 3 bulan
1611130011NUNING INDRIYANI SARIDesa Sumber Makmur Kec. Sukaraja Kab. Seluma085379453826nuningindriyanisari17@gmail.com2016Mesuji11 Juli 1998Perempuan39-Ekonomi Syari'ah13-10-20203,654 tahun, 3 bulan
1611130012REZA OKTA VERANIDESA CIREBON BARU085788609219reza_oktaverani@yahoo.ac.id2016cerbon baru11 Juli 1998Perempuan39-Ekonomi Syari'ah13-10-20203,724 tahun, 3 bulan
1611130014IKA SRIYULIANIJl. Hibrida 9A RT.23 No.43 RW.08 Kel.Sidomulyo Kec.Gading Cempaka082285960889ikasriyuliani1998@gmail.com2016BENGKULU20 Juli 1998Perempuan39-Ekonomi Syari'ah10-09-20203,754 tahun, 2 bulan
1611130015AYU OKTA SARIHIBRIDA X, GANG AWU, no 34081273078790OKTAAYU54@YAHOO.CO.ID2016TABA PADANG14 Oktober 1997Perempuan39-Ekonomi Syari'ah10-09-20203,724 tahun, 2 bulan
1611130016RINDA TIARA PRAMESTIJalan Muhajirin gang smpn 6 No.50085788019356rindatiara.p@gmail.com2016Bengkulu11 Juli 1998Perempuan39-Ekonomi Syari'ah13-10-20203,684 tahun, 3 bulan
1611130017WINDA IKA AFFRIYANTI.ATanjung Dalam085764907756winda-ika11@yahoo.com2016Tanjung dalam11 Juli 1998Perempuan39-Ekonomi Syari'ah13-10-20203,454 tahun, 3 bulan
1611130019ADIAN SAPUTRAJl H Matnur081367784199mamazroillah@yahoo.com2016Lubuklinggau18 Maret 1998Laki-laki39-Ekonomi Syari'ah10-09-20203,644 tahun, 2 bulan
1611130020ANDRE SAPUTRAjln.kalimantan gg merapti 04082280295994andresaputra01402016bengkulu26 April 1998Laki-laki39-Ekonomi Syari'ah10-09-20203,734 tahun, 2 bulan
1611130022WIWINDA PRANSISKADesa Tanjung Agung085768689148wiwindapransiska@gmail.com2016Tanjung Agung22 Juli 1988Perempuan39-Ekonomi Syari'ah10-09-20203,584 tahun, 1 bulan
1611130023VERONICA VALENCIAjl raya padang kemiling085268068382veronicavalencia548@gmail.com2016bengkulu14 Desember 1997Perempuan39-Ekonomi Syari'ah06-09-20213,675 tahun, 1 bulan
1611130024SANTRI ARDIANTI RUKMANAJLN.SIMPANG TIGA, KEC. KAUR UTARA, KAB. KAUR, PROVINSI BENGKULU085368045386SANTRIARDIANTI@GMAIL.COM2016BENGKULU SELATAN23 Januari 1998Perempuan39-Ekonomi Syari'ah06-08-20213,785 tahun, 0 bulan
1611130025PARIANTODesa Bandu Agung, kec. kaur utara, kab. kaur, provinsi bengkulu081272096150parianto@gmail.com2016Bandu Agung15 November 1997Laki-laki39-Ekonomi Syari'ah29-07-20213,525 tahun, 0 bulan
1611130026INDAH SOPIAHJL. MURAI089629135817indahsopiah409@gmail.com2016BENGKULU11 Juli 1998Perempuan39-Ekonomi Syari'ah13-10-20203,384 tahun, 2 bulan
1611130027MELATI WAHANA PUTRIjln gelatik 1 nomor 160 rt 03 rw 01085838244922melatiwp77@gmail.com2016Lahat02 November 1998Perempuan39-Ekonomi Syari'ah02-06-20213,414 tahun, 10 bulan
1611130028RIFADILLA ANDHU KARINDRIPerumnas Pinang Mas No 94 Blok D Rt.01 Rw.01089524132646rifadillaandhukarindri@gmail.com2016Agung Jaya11 Juli 1998Perempuan39-Ekonomi Syari'ah13-10-20203,654 tahun, 2 bulan
1611130029SUCI DAYANTIJl. padat karya082176499075sucidayanti07@gmail.com2016LUBUK LINGGAUU19 Juli 1998Perempuan39-Ekonomi Syari'ah10-09-20203,934 tahun, 1 bulan
1611130030ICA DWI ANISKAAHALIK KEL.BETUNGAN KEC.SELEBAR089529884975icadwianiska27@gmail.com2016BENGKULU29 Desember 1986Perempuan39-Ekonomi Syari'ah12-03-20203,773 tahun, 7 bulan
1611130031AMELIAjalan Hibrida 3 Rt.18 Rw.03 No.23089686754228amelia.lia1805@gmail.com2016Bengkulu11 Juli 1998Perempuan39-Ekonomi Syari'ah13-10-20203,434 tahun, 2 bulan
1611130032EWANDA SARIDESA TENGAH PADANG KECAMATAN TALANG EMPAT KABUPATEN BENGKULU TENGAH PROVINSI BENGKULU0815323923292016TENGAH PADANG11 Juli 1998Perempuan39-Ekonomi Syari'ah13-10-20203,444 tahun, 2 bulan
1611130033ELVIA DEWI ANGGRAINIDESA PADANG PERI KEC. SEMIDANG ALAS MARAS KAB. SELUMA082375737204Elviadewianggraini@gmail.com,elviaanggraini8@gmail.com2016JAKARTA11 Juli 1998Perempuan39-Ekonomi Syari'ah13-10-20203,464 tahun, 2 bulan
1611130034DIAH ASMARAJl. Raden Fatah Pagar Dewa082282587146asmaradiah2@gmail.com2016PALEMBANG14 Maret 1999Perempuan39-Ekonomi Syari'ah10-09-20203,584 tahun, 1 bulan
1611130035MUHAMMAD HAFIDZjl.kgs hasan pasar ujung kepahiang082278820419m.hafidz0398@gmail.com2016KEPAHIANG11 Juli 1998Laki-laki39-Ekonomi Syari'ah13-10-20203,834 tahun, 2 bulan
1611130036WAHYULISA HARYANTIJl Merapi 12 No 39A085211314161Wahyulisa012@gmail.com2016Curup11 Juli 1998Perempuan39-Ekonomi Syari'ah13-10-20203,454 tahun, 2 bulan
1611130037HIMANISYAH WARDANIJL.UNIB PERMAI III NO 43085269703767himanisyahwardani@gmail.com2016Curup07 Februari 1998Perempuan39-Ekonomi Syari'ah10-09-20203,744 tahun, 1 bulan
1611130038PEPI JUSRIYANTIsawah lebar.jalan dempo1 rt21rw0508975762427jusriyantipepi@gmail.com2016Bengkulu11 Juli 1998Perempuan39-Ekonomi Syari'ah13-10-20203,404 tahun, 2 bulan
1611130039DARMA AGUSTINAjl.hibrida ujung rt 01 rw 02085768688739Darmaagustina50755@gmail.com2016bengkulu12 Agustus 1996Perempuan39-Ekonomi Syari'ah12-09-20203,544 tahun, 1 bulan
1611130042ANIKA SAFITRIJL.TELAGA DEWA085609522028anikasafitri@yahoo.co.id2016bungamas09 Februari 1998Perempuan39-Ekonomi Syari'ah10-09-20203,544 tahun, 0 bulan
1611130043ANISAJL. PURI LESTARI RT.14 RW.03083811899756annisah.syuhadi@gmail.com2016sibolga11 Juli 1998Perempuan39-Ekonomi Syari'ah13-10-20203,654 tahun, 2 bulan
1611130046DELVI ROBIKA OKTAFIANIKayu Arang085664705194delvirobika18@gmail.com2016Padang Pelawi28 Februari 1995Perempuan39-Ekonomi Syari'ah14-01-20213,704 tahun, 5 bulan
1611130047DESY PUSPITAjl.sukarami seginim085378657343desypuspita04041998@gmail.com2016SUKARAMI11 Juli 1998Perempuan39-Ekonomi Syari'ah13-10-20203,704 tahun, 2 bulan
1611130048DILMITADESA UJUNG PULAU082375813715rendra.agung12@yahoo.com2016Ujung Pulau14 Agustus 1998Perempuan39-Ekonomi Syari'ah13-08-20213,255 tahun, 0 bulan
1611130049EDO SARIGelombang085758008318edosari548@gmail.com2016GELOMBANG11 Juli 1998Perempuan39-Ekonomi Syari'ah13-10-20203,594 tahun, 2 bulan
1611130051ELSA DESVIA GUSTIDESA KOTA AGUNG082176835006elsadesviagusti4@gmail.com2016DESA KOTA AGUNG28 Februari 1995Perempuan39-Ekonomi Syari'ah14-01-20213,454 tahun, 5 bulan
1611130053EVA OKTARIKELURAHAN BUNGAMAS KABUPATEN SELUMA KOTA BENGKULU081539237398EVA OKTARII@GMAIL.COM2016BUNGAMAS12 Juni 1998Perempuan39-Ekonomi Syari'ah27-07-20223,225 tahun, 11 bulan
1611130054FENY MARTHA YUSIADIJln Sungai Rupat 2 RT 38 RW 37 No 49085896201311fyusiadi@gmail.com2016Bengkulu11 Juli 1998Perempuan39-Ekonomi Syari'ah13-10-20203,654 tahun, 2 bulan
1611130055FERARA ZURYATA TOYIBJalan Masjid At-taqwa Rt 37081273933710Ferara.z@yahoo.com2016Bengkulu11 Juli 1998Perempuan39-Ekonomi Syari'ah13-10-20203,624 tahun, 2 bulan
1611130057HERWINA RATNA SARIJALAN SETIA V RT 11 RW 0308961701601herwina.ratna@co.id2016Talang Sali26 Juni 1996Perempuan39-Ekonomi Syari'ah11-06-20213,204 tahun, 9 bulan
1611130060JAKA SURYANAjl. sedap malam 2 NO.36 RT.12 RW.3089699450530genreipa@gmail.com2016bengkulu11 Juli 1998Laki-laki39-Ekonomi Syari'ah13-10-20203,354 tahun, 2 bulan
1611130061KHAIRANAJL.Tongkol No.110083192339657rkhai326@gmail.com2016Bengkulu18 Mei 1998Perempuan39-Ekonomi Syari'ah10-09-20203,754 tahun, 0 bulan
1611130062M.ILHAM DIMAS PUTRAJln.Merpati 04 Rt 14 Rw 02082279558054Dimasputrasllumenanti@ymail.com2016BENGKULU18 Agustus 1998Laki-laki39-Ekonomi Syari'ah10-09-20203,904 tahun, 0 bulan
1611130063MEA WULAN NDARIJL. RAYA SUKA NEGERI KEC AIR NIPIS KAB BENGKULU SELATAN0853689805962016SUKA NEGERI11 Juli 1998Perempuan39-Ekonomi Syari'ah13-10-20203,444 tahun, 2 bulan
1611130064MEGA YOLANDADesa ujung pulau085268072231megayolanda05@gmail.com2016ujung pulau11 Juli 1998Perempuan39-Ekonomi Syari'ah13-10-20203,364 tahun, 2 bulan
1611130066MONICAgajah mati081279265379monica11@yahoo.com2016gajah mati07 Februari 1997Perempuan39-Ekonomi Syari'ah10-09-20203,624 tahun, 0 bulan
1611130068MUHAMMAD AGUNGJl. Raya desa landur082280305926muhammadagung2607@gmail.com2016Landur26 Juli 1999Laki-laki39-Ekonomi Syari'ah12-03-20203,783 tahun, 7 bulan
1611130071NIK KOMARSENJl. WR. Supratman Gg. Kinal Baru Rt10 Rw01 No.27082260195558komarsennik@gmail.com2016bengkulu11 Juli 1998Laki-laki39-Ekonomi Syari'ah13-10-20203,484 tahun, 2 bulan
1611130072NUR NIZMA OKTIARAJl. Timur Indah Ujung RT.09 RW.04 NO.18089522215194nurnizma05@gmail.com2016Manna11 Juli 1998Perempuan39-Ekonomi Syari'ah13-10-20203,554 tahun, 2 bulan
1611130073PUTRI EKA RUM HANISYAHBengkulu jalan gelatik no 21081540885196Puputeka935@gmail.com2016Pagar alam06 Agustus 1997Perempuan39-Ekonomi Syari'ah10-09-20203,554 tahun, 0 bulan
1611130074REDHO FIRMANSYAHJL. RETAK MUDIK DS. TALANG GADING082279211626redhofirmansyah64@gmail.com,Redhofirmandyah@gmail.com2016PADANG GADING16 Desember 1997Laki-laki39-Ekonomi Syari'ah29-01-20213,404 tahun, 5 bulan
1611130075RESTIKA SARIDESA TANJUNG BARU0853674905462016TANJUNG BARU29 Agustus 1997Perempuan39-Ekonomi Syari'ah10-09-20203,424 tahun, 0 bulan
1611130076RIO PUTRArenah semanek085783577490RIOOPUTRA96@GMAIL.COM2016RENA LEBAR05 Juli 2000Laki-laki39-Ekonomi Syari'ah19-02-20223,465 tahun, 6 bulan
1611130077RUDI YANTOJl. Raya Desa Muara Betung Kec. Ulu Musi, Kab. Empat Lawang Sumatera Selatan085268706397rudyan316@gmail.com2016Muara Betung11 Juli 1998Laki-laki39-Ekonomi Syari'ah13-10-20203,424 tahun, 2 bulan
1611130078SELLY EFRIANTIgunung agung0857891858592016kembang tanjung01 Maret 1999Perempuan39-Ekonomi Syari'ah11-06-20213,204 tahun, 9 bulan
1611130082TIARA ROSALINDABungin, jln.kipati raya081369186537tiara rl.ac.id2016pulau tengah17 Agustus 1998Perempuan39-Ekonomi Syari'ah15-12-20223,366 tahun, 4 bulan
1611130083WANDA COSI ANGGRAINIDESA LUBUK SAHUNG KEC. SUKARAJA KAB. SELUMA0895422984711wandacosy9@gmail.com2016PADANG PELAWI11 Juli 1998Perempuan39-Ekonomi Syari'ah13-10-20203,524 tahun, 2 bulan
1611130084WATIDesa Dusun Pulau082282385819watisasmita98@g.mail.com2016Dusun Pulau20 Oktober 1997Perempuan39-Ekonomi Syari'ah10-09-20203,844 tahun, 0 bulan
1611130085WIJI RAHAYUTanjung Kemuning II0857804102722016Tanjung kemuning04 April 1997Perempuan39-Ekonomi Syari'ah27-08-20213,295 tahun, 0 bulan
1611130086WINDI PITARA ANUGRAHJln. raya desa pagar dewa/kec. kelam tengah/ kab. kaur/ prov. bengkulu082375810060windipitrah@gmail.com2016pagar dewa11 Juli 1998Laki-laki39-Ekonomi Syari'ah13-10-20203,424 tahun, 2 bulan
1611130089YULIANA.AJl.RE.Martadinata no.45 rt28/rw0508988515394uliyuliana9707@gmail.com2016Bengkulu30 Juli 1997Perempuan39-Ekonomi Syari'ah10-09-20203,754 tahun, 0 bulan
1611130090YUSMI JAYANTIDesa kapitan. Kecamatan Suka Merindu085758647921Yusmijayanti0@gmail.com2016Muara Enim11 Juli 1998Perempuan39-Ekonomi Syari'ah13-10-20203,514 tahun, 2 bulan
1611130091NUNGKI ANGGRAINIJln ADAM MALIK NO 14085357577523Nungkianggraini@gmail. Com2016TJ KEMUNING16 Agustus 1998Perempuan39-Ekonomi Syari'ah12-08-20213,344 tahun, 11 bulan
1611130093INTAN DWI PUTRIANAJl.jawa0895360076766intandwiputriana589@gmail.com2016Bengkulu11 Juli 1998Perempuan39-Ekonomi Syari'ah13-10-20203,504 tahun, 1 bulan
1611130094AYU ASARIJalan raden fatah081274606426ayuasari0728@gmail.com2016tanjung saung11 Juli 1998Perempuan39-Ekonomi Syari'ah13-10-20203,394 tahun, 1 bulan
1611130095BAMBANG IRAWANJL. KALIMANTAN GANG HIDAYAH NO. 61 RT 008 RW 004082249442852bambangirawan100595@gmail.com2016PAKU HAJI10 Mei 1995Laki-laki39-Ekonomi Syari'ah21-02-20223,795 tahun, 5 bulan
1611130097BENNY REZONY ARMANdesa bunga melur kecamatan semidang gumay kab.kaur0822811890562016Ds. Bunga melur18 September 1998Laki-laki39-Ekonomi Syari'ah11-06-20213,334 tahun, 9 bulan
1611130098BUNGA RAHJI LESTARIJln. Bandar Raya, Rawamakmur RT 01, RW 01, Gang rawa indah085320534914Bungarahji22@gmail.com2016Bengkulu22 Desember 1997Perempuan39-Ekonomi Syari'ah10-09-20203,684 tahun, 0 bulan
1611130100DEKA ANGGRA SELArawa makmur/merpati 5085384546661Anggrasela.deka@g2016bengkulu28 Desember 1995Perempuan39-Ekonomi Syari'ah03-09-20213,045 tahun, 0 bulan
1611130101DEKA WULANDARIDesa Pasar ngalam082281924252Wullhandarii@gmail.com2016Padang Genting12 Mei 1998Perempuan39-Ekonomi Syari'ah13-08-20213,144 tahun, 11 bulan
1611130103DETRI AGUSTINASukarami082278406823Detri.agustin@gmail.com2016Sukarami16 Agustus 1997Perempuan39-Ekonomi Syari'ah10-09-20203,744 tahun, 0 bulan
1611130105EKO DARWIYANTOJL. KEPODANG 1 NO 122 BLOK 8 RT 021 RW 007 PERUMNAS CEMPAKA PERMAI LINGKAR BARAT087894833861ekodarwiyanto26@gmail.com2016BENGKULU01 Desember 1996Laki-laki39-Ekonomi Syari'ah12-03-20203,783 tahun, 6 bulan
1611130107ERPENA HARTATIJalan lintas bengkulu manna085268748740erpenahartati@gmail.com2016ketapang baru11 Juli 1998Perempuan39-Ekonomi Syari'ah13-10-20203,384 tahun, 1 bulan
1611130108FAHTIRA VIRDHA NOORjln letda abuhanifah no 56 rt 40895339273761vfahtira@gmail.com2016Bengkulu17 Desember 1997Perempuan39-Ekonomi Syari'ah10-09-20203,824 tahun, 0 bulan
1611130109FAKIHINJ.L Timur Indah raya085709230793Fakihindusunbaru12@gmail.com2016Talang beringin11 Juli 1998Laki-laki39-Ekonomi Syari'ah13-10-20203,444 tahun, 1 bulan
1611130110HERLENA PUSPAMUARA PAYANG081278976824herlenapuspa03@gmail.com,herlena.side@gmail.com2016Muara Payang03 Januari 1998Perempuan39-Ekonomi Syari'ah10-09-20203,634 tahun, 0 bulan
1611130111HERLIN SULIS TIA NINGSIHdesa cahaya negeri085789127958TIDAK2016CAHAYA NEGERI12 Desember 1992Perempuan39-Ekonomi Syari'ah18-02-20223,115 tahun, 5 bulan
1611130112ISWAN AHJA SAPUTRAdesa air buluh081368295891iswanahjasaputra@gmail.com2016air buluh03 Mei 1998Laki-laki39-Ekonomi Syari'ah23-12-20213,235 tahun, 3 bulan
1611130114JULIA SIPTIANIAUR RINGIT085384576680Juliasiptiani14@gmail.com2016AUR RINGIT11 Juli 1998Perempuan39-Ekonomi Syari'ah13-10-20203,384 tahun, 1 bulan
1611130115JULIAN SAPUTRAds.gunung meraksa lama082371497240jhuliansyaputra28@gmail.com2016gunung meraksa lama28 Juli 1997Laki-laki39-Ekonomi Syari'ah10-09-20203,544 tahun, 0 bulan
1611130116JUMITA ROMALA SARIJl. Raya Bengkulu-Tais KM 44085758290408tidak ada2016TALANG PANJANG11 Juli 1998Perempuan39-Ekonomi Syari'ah13-10-20203,434 tahun, 1 bulan
1611130118LARAS MELATIJL.RANGKONG BLOK 7 NO.72A
GANG MAYANG SARI
085383159989melatiaras29@gmail.com2016BENGKULU29 Agustus 1997Perempuan39-Ekonomi Syari'ah27-01-20223,455 tahun, 5 bulan
1611130119LIA IBNIWASUMJALAN SINAR LAUT082279803948liaibniwasum123@gmail.com2016AIR HITAM11 Juli 1998Perempuan39-Ekonomi Syari'ah13-10-20203,654 tahun, 1 bulan
1611130120LIDYA NOVITA SARIjl.nangka lintas, Rt.04085268358383derci?iana11@gmail2016LUBUKLINGGAU11 Juli 1998Perempuan39-Ekonomi Syari'ah13-10-20203,584 tahun, 1 bulan
1611130121MAULINDA SARIJL.TELUK SEPANG RT 06 RW 02082280168963maulindasari450@gmail.com2016Bengkulu16 Juni 1998Perempuan39-Ekonomi Syari'ah27-11-20203,754 tahun, 3 bulan
1611130122MEIRIKA FERAMA SARISIMPANG TIGA JL.RAYA SIMPANG TIGA RT. 03081390865681Meirikaferamasari97@gmail.com2016simpang tiga16 Juni 1998Perempuan39-Ekonomi Syari'ah27-11-20203,384 tahun, 3 bulan
1611130123MERI HANDANIJln sungai rupat gang bakti husada tiga pagar dewameri.04@yahoo.com2016Bukit tinggi14 Desember 1996Perempuan39-Ekonomi Syari'ah25-07-20223,575 tahun, 11 bulan
1611130124MUHAMMAD QHAIRUDINJl.adam malik 02082281930755Muhammadqhairudin@gmail.com2016Tanjung iman26 Oktober 1998Laki-laki39-Ekonomi Syari'ah10-09-20203,534 tahun, 0 bulan
1611130125MUHAMMAD REFO ANGGARAHIBRIDA 4085669475923Tidak ada2016setia marga08 Desember 1990Laki-laki39-Ekonomi Syari'ah22-07-20213,294 tahun, 10 bulan
1611130126MUHAMMAD REGA ANGGARAhibrida 4085285350152regaanggara36@gmail.com2016setia marga20 Agustus 1998Laki-laki39-Ekonomi Syari'ah16-02-20223,435 tahun, 5 bulan
1611130127NELI GUSTINDUSUN TIGA LAGAN BUNGIN. JLN LINTAS BATU BARA0858395829182016LAGAN BUNGIN16 Juni 1998Perempuan39-Ekonomi Syari'ah27-11-20203,294 tahun, 3 bulan
1611130129NINA AFRIANTIJL. ARAHMAN SLTPN 160895399006538ninaafrianti96@gmail.com2016Bengkulu09 April 1996Perempuan39-Ekonomi Syari'ah03-09-20213,195 tahun, 0 bulan
1611130130NITA SARIJl.zainal arifin085789882805nitasari7125@gmail.com2016Bengkulu05 Juni 1998Perempuan39-Ekonomi Syari'ah09-07-20213,504 tahun, 10 bulan
1611130131NOFA DWI SUSANTIgading jaya , gajah mati082186418281NOFADWI@GMAIL.COM2016Gajah mati18 November 1997Perempuan39-Ekonomi Syari'ah10-09-20203,344 tahun, 0 bulan
1611130132NORNI OKTAVIATalang Kebun0823747458652016Tl.kebun30 Agustus 1997Perempuan39-Ekonomi Syari'ah10-09-20203,624 tahun, 0 bulan
1611130133NOVITA SARIBABATAN0815321807192016BABATAN16 Juni 1998Perempuan39-Ekonomi Syari'ah27-11-20203,334 tahun, 3 bulan
1611130138RAIFI ERANDOJl. Flamboyan 17085273157397rayercris98@gmail.com2016Rantau Kadam25 Januari 1999Laki-laki39-Ekonomi Syari'ah31-01-20223,575 tahun, 5 bulan
1611130139RIA HARMONISPERLUASAN SUKARAJA085764510257riaharmonis9@gmail.com2016PERLUASAN SUKARAJA16 Juni 1998Perempuan39-Ekonomi Syari'ah27-11-20203,644 tahun, 3 bulan
1611130140RIA RESPIKADESA BINTUNAN RT 000 RW 000
DESA BINTUNAN KECAMATAN BATIK NAU
0852089887812016BINTUNAN20 November 1998Perempuan39-Ekonomi Syari'ah10-09-20203,954 tahun, 0 bulan
1611130141RIANA DWI HANDAYANIJLN EMPLASEMAN PABRIK082178548715rianatri243@yahoo.com2016KETAHUN26 Oktober 1998Perempuan39-Ekonomi Syari'ah11-06-20213,734 tahun, 9 bulan
1611130143SARJO SHANJAYABengkulu/hibrida ujung/pahlawan085758376671Sarjo_sanjaya@yahoo.com2016Bunga melur20 Juni 1998Laki-laki39-Ekonomi Syari'ah26-07-20213,394 tahun, 11 bulan
1611130144SELA WAHYU NINGSIHJl. Pulung Mas RT 30 RW 060895357269937selaelfishy@gmail.com2016ponorogo14 Desember 1996Perempuan39-Ekonomi Syari'ah25-07-20223,515 tahun, 11 bulan
1611130146SYAHRONISuka medan0822798724232016Suka Medan23 Juli 1996Laki-laki39-Ekonomi Syari'ah28-01-20223,285 tahun, 5 bulan
1611130147TATIK NURHAYATISINGAI GADING (MUKOMUKO)082281785287Tatiknurhayati@gmail.com2016SUNGAI GADING(MUKOMUKO)16 Juni 1998Perempuan39-Ekonomi Syari'ah27-11-20203,454 tahun, 3 bulan
1611130149TRIO OKTAFRASTYAJl.Pangeran Duayu085609439075triooktafrastya@yahoo.co.id2016MANNA26 Oktober 1999Laki-laki39-Ekonomi Syari'ah23-12-20213,665 tahun, 3 bulan
1611130150WIJIA ASTUTIsimpang pino085758077871@wijiaastuti.com2016simpang pino16 Juni 1998Perempuan39-Ekonomi Syari'ah27-11-20203,514 tahun, 3 bulan
1611130151WIKA DAMAYANTIDesa Tanjung Heran Kecamatan Taba Penanjung Kabupaten Bengkulu Tengah085758861970damayanti@yahoo.com2016Tanjung Heran16 Juni 1998Perempuan39-Ekonomi Syari'ah27-11-20203,624 tahun, 3 bulan
1611130152WIKE BELLA WAHYUNIDESA TALANG PERAPAT085263381910WIKEWAHYUNI021@GMAIL.COM2016TALANG PERAPAT16 Juni 1998Perempuan39-Ekonomi Syari'ah27-11-20203,694 tahun, 3 bulan
1611130153YUNI ANDRIANIJalan bhakti husada 6 rt 12 rw03 no 51082372799744yuniy5225@gmail.com2016Bengkulu10 Agustus 1997Perempuan39-Ekonomi Syari'ah10-09-20203,544 tahun, 0 bulan
1611130154YUNI MUTIA KANZAJL.AMALIAH 5 NO,26 RT.21 RW.02 KOMPI0895606403574yunimutiakanza@yahoo.com2016bengkulu16 Juni 1998Perempuan39-Ekonomi Syari'ah27-11-20203,624 tahun, 3 bulan
1611130155YUYUP PRATOMOHibrida/jl.Hibrida 3/gang mayang9082284690350yuyupmarcapolo01@gmail.com2016Tanah Rekah03 Desember 1997Laki-laki39-Ekonomi Syari'ah03-09-20213,025 tahun, 0 bulan
1611130156ISRI HANDAYANIsuka negeri kec.Air Nipis Kab.Bengkulu Selatan085767140140ISRIHANDAYANI@yahoo.com.id2016SUKA NEGERI10 April 1975Perempuan39-Ekonomi Syari'ah07-10-20203,524 tahun, 1 bulan
1611130157ABDUL AZIZJL.RE.Martadinata Pagar dewa Bengkulu082250802387abdulajiz0616@gmail.com2016bengkulu16 Juni 1998Laki-laki39-Ekonomi Syari'ah27-11-20203,744 tahun, 3 bulan
1611130158ADLI FEBRIANJL H ADAM MALIK082375814212adlibklu17@gmail.com2016BENGKULU28 Februari 1995Laki-laki39-Ekonomi Syari'ah14-01-20213,284 tahun, 4 bulan
1611130160AULIA RAUDHATUL JANNAHDesa padang ulak tanjung.kec.talang empat kab.bengkulu tengah085758756415Raudhatulaulia9@gmail.com2016Kedurang04 Maret 1999Perempuan39-Ekonomi Syari'ah10-09-20203,814 tahun, 0 bulan
1611130161BELLA MEILITHAdesa padang petron kecamatan kaur selatan kab kaur085788717960Bellameilitha98@gmail.com2016lubuk linggau21 Mei 1998Perempuan39-Ekonomi Syari'ah10-09-20203,764 tahun, 0 bulan
1611130162CALVIN RONASjalan timur indah2 gang 7 nomr rmh 99081279667451calvinronas53@gmail.com2016dusun baru v koto10 Oktober 1997Laki-laki39-Ekonomi Syari'ah14-01-20213,584 tahun, 4 bulan
1611130163CECEP SUMANTRIjl bandaraya rt.01 rw.01 no 30 rawa makmur permai kota bengkulu085273495059cecepsumantri66@gmail.com2016bengkulu20 April 1995Laki-laki39-Ekonomi Syari'ah27-07-20223,635 tahun, 11 bulan
1611130165DEVI HURSAIN SAELANGIJln.Citandui089529996113devihursain@gmail.com2016Bengkulu16 Juni 1998Perempuan39-Ekonomi Syari'ah27-11-20203,684 tahun, 3 bulan
1611130166DINA LORENZAPagar dewa085769746521Lorenzad481@gmail.com2016Dusun baru10 Agustus 1997Perempuan39-Ekonomi Syari'ah18-06-20213,484 tahun, 9 bulan
1611130167DISMIKA MAYANG SARIDESA PULAU PANGGUNG085669303519Shara.whyta@facebook.com2016DESA PULAU PANGGUNG01 Desember 1998Perempuan39-Ekonomi Syari'ah03-09-20213,465 tahun, 0 bulan
1611130168DIYANA UTAMIJalan nangka 4081369182414diyana.utami28@gmail.com2016Bengkulu16 Juni 1998Perempuan39-Ekonomi Syari'ah27-11-20203,854 tahun, 3 bulan
1611130169DWI NOVIA NINGSIHJl. Kenanga 8A085367259212dwi07nopi@gmail.com2016Sungai Ipuh14 Agustus 1998Perempuan39-Ekonomi Syari'ah13-08-20213,794 tahun, 11 bulan
1611130170TIKA DWI ARYANTIPADAT KARYA 3081367139213tikadweearianti@gmail.com2016TEBING RAMBUTAN18 November 1998Perempuan39-Ekonomi Syari'ah12-09-20203,504 tahun, 0 bulan
1611130171FITRIAHGang telaga dewa 6, kelurahan pagar dewa, kec. selebar, kab. kota bengkulu085764035594fitriahputri4@gmail.com2016Tiga Raksa16 Juni 1998Perempuan39-Ekonomi Syari'ah27-11-20203,634 tahun, 3 bulan
1611130173HELLEN DWI PUTRIjl. sumatera 1 RT6. RW3 No.72 kelurahan sukamerindu Bengkulu089922290513agoestuti@gmail.com2016bengkulu27 Juli 1997Perempuan39-Ekonomi Syari'ah25-01-20233,406 tahun, 5 bulan
1611130174HENDRA PRADESAJLN.RAYA SEGINIM08576671315882016BABATAN ULU16 Maret 1998Laki-laki39-Ekonomi Syari'ah28-01-20223,485 tahun, 5 bulan
1611130175HENDRA RADITIAJL. GELATIK 05 NO 37081368069108yadisuprihanto@gmail.com2016BENGKULU16 Juni 1998Laki-laki39-Ekonomi Syari'ah27-11-20203,454 tahun, 3 bulan
1611130176LUCIANDAJl. Hibrida Raya No. 20 Rt. 11 Rw. 08082376688182luciandamuchlizza@gmail.com2016Bengkulu29 September 1997Perempuan39-Ekonomi Syari'ah10-09-20203,854 tahun, 0 bulan
1611130177LUSIANA NOVITAdesa sendawar kec.semidang alas maras kab.seluma085384546172lusiananovita@ymail.com2016SENDAWAR16 Juni 1998Perempuan39-Ekonomi Syari'ah27-11-20203,724 tahun, 3 bulan
1611130178MAULIDA PITRI YANIJALAN HALMAHERA,GANG MANGGIS,NO 105082176415353risa.cantik2@yahoo.com2016TANJUNG AGUNG01 Januari 1981Perempuan39-Ekonomi Syari'ah11-02-20223,295 tahun, 5 bulan
1611130179MEGI BAROKAHjl. tugu hiu plajau desa pondok kubang085382466637megibarokah123@gmail.com2016pondok kubang03 Mei 1998Laki-laki39-Ekonomi Syari'ah10-09-20202,394 tahun, 0 bulan
1611130180MIPI OLPA MILSANDIsimpang batu082279253060mipi.olpa@gmail.com2016BEKASI16 Juni 1998Perempuan39-Ekonomi Syari'ah27-11-20203,564 tahun, 3 bulan
1611130181MUCH ILYAS ILYASAJl. Sungai Rupat 908987334001ilyasabc@yahoo.com2016MANINJAU16 Juni 1998Laki-laki39-Ekonomi Syari'ah27-11-20203,254 tahun, 3 bulan
1611130182NANDA SULASTIAMUHAJIRIN 18081274169314n306571@gmail.com2016JARAKAN15 Agustus 1998Perempuan39-Ekonomi Syari'ah18-09-20203,734 tahun, 0 bulan
1611130183NUR HAFIDZOHperum.puri nusantara no 50082279181498nurhafidzoh@gmail.com2016belitang08 November 1998Perempuan39-Ekonomi Syari'ah10-09-20203,694 tahun, 0 bulan
1611130184OKTAPIANI HERLENSIjalan Raya Kedurang, Gang masjid.082375572521oktapianiherlensi68@yahoo.com2016lawang agung15 Agustus 1998Perempuan39-Ekonomi Syari'ah18-09-20203,824 tahun, 0 bulan
1611130185PANI JULIAN PUTRADesa Cahaya Negeri Dusun V Kecamatan Sukaraja Kabupaten Seluma085840814335Abangpani19@gmail.com2016Manna29 Juli 1998Laki-laki39-Ekonomi Syari'ah18-06-20213,484 tahun, 9 bulan
1611130186RICO OCTAVIANJL.Bumi Ayu 50895370983041cocikgaul@yahoo.co.id2016Bengkulu15 Agustus 1998Laki-laki39-Ekonomi Syari'ah18-09-20203,334 tahun, 0 bulan
1611130187RINSI PUTRI AYUDUSUN GUNUNG RAJA0852085268712016GUNUNG RAJA23 Januari 1998Perempuan39-Ekonomi Syari'ah10-09-20203,714 tahun, 0 bulan
1611130190SUHENDRA RAHMADANmanna, jalan letnan jahidin,gang benteng081539360210suhendrabengkulu719@gmail.com2016manna15 Agustus 1998Laki-laki39-Ekonomi Syari'ah18-09-20203,564 tahun, 0 bulan
1611130191TEWI KARLINA SARIJL.Setia 09 RT.06 RW.04 Kelurahan Kandang Mas Kecamatan Kampung melayu Provinsi Bengkulu082186882790tewikarlinasari97@gmail.com2016DESA LUBUK LADUNG15 Agustus 1998Perempuan39-Ekonomi Syari'ah18-09-20203,564 tahun, 0 bulan
1611130192YOSI NARA SINTA DEWIJL. DURIAN 2 BUMI AYU RT. 11 RW. 3 KECAMATAN SELEBAR085788772517yosi.narasintadewi98@gmail.com2016RAWA INDAH08 Januari 1998Perempuan39-Ekonomi Syari'ah06-08-20213,814 tahun, 11 bulan
1611130193YOVAN YULEO GOZALIJL.JERANGLAH TINGGI KEC.MANNA KAB.BENGKULU SELATAN081279122707yovanyuleogozali@gmail.com, yovanyuleo31@gmail.com2016MANNA15 Agustus 1998Laki-laki39-Ekonomi Syari'ah18-09-20203,514 tahun, 0 bulan
1611130195ALI NUR RAHMANJalan Hibrida 2081368276707kurniawanw87252@yahoo.com2016BENGKULU15 Agustus 1998Laki-laki39-Ekonomi Syari'ah18-09-20203,184 tahun, 0 bulan
1611130197DALIL ILHAMjalan kz .abidin 1,kebun bungsu081377687778Dalililham110897@gmail.com2016BENGKULU14 Februari 1998Laki-laki39-Ekonomi Syari'ah19-08-20213,824 tahun, 11 bulan
1611130198DITIA SARI SUTRA DEWIBungin Tambun 1082375184201ditya05982016bungin tambun15 Agustus 1998Perempuan39-Ekonomi Syari'ah18-09-20203,544 tahun, 0 bulan
1611130199FEBI ANANTORbetungan jalan raya betungan gang pematang keramat082281968103Febianantor98@gmail.com2016BANGKO08 September 1998Laki-laki39-Ekonomi Syari'ah06-09-20213,305 tahun, 0 bulan
1611130200IIS SITI ROHANIjln.mangga desa karya pelita082289845534iissitirohani98@gmail.com2016karya pelita15 Agustus 1998Perempuan39-Ekonomi Syari'ah18-09-20203,704 tahun, 0 bulan
1611130203PUTRI AYU NABILAJln. Lintas PJKA082376115708putriayunabila102@gmail.com2016CURUP07 Agustus 1999Perempuan39-Ekonomi Syari'ah06-08-20213,444 tahun, 11 bulan
1611130205RINOVSA NINANTAJl. Utama Bukit Berlian Kec. Ulok Kupai Kab. Bengkulu Utara082282786249rinovsa.ninanta.mc@gmail.com2016BUKIT BERLIAN29 November 1997Laki-laki39-Ekonomi Syari'ah30-07-20213,714 tahun, 11 bulan
1611130206SAHARA RATNA SARIBlk SMA N. 1 Pagaralam082281346613sahararatnasari4@gmail.com2016pagaralam15 Agustus 1998Perempuan39-Ekonomi Syari'ah18-09-20203,564 tahun, 0 bulan
1611130207SELLA DESMAYANTIdesa harapan RT 01 BLOK A kec.pondok kelapa kab.bengkulu tengah082175846802selladesmayanti43@gmail.com2016Desa Harapan06 Desember 1998Perempuan39-Ekonomi Syari'ah10-09-20203,774 tahun, 0 bulan
1611130211PENTI MARDIANJl. Sepakat sawah lebar085273491077pentimardian818@gmail.com2016Bengkulu15 Agustus 1998Perempuan39-Ekonomi Syari'ah18-09-20203,564 tahun, 0 bulan
1611130212YESI MARLENAJL.BHAKTI HUSA VI LINGKAR BARAT085256874304Yesimerlena29@gmail.com2016BENGKULU15 Agustus 1998Perempuan39-Ekonomi Syari'ah18-09-20203,584 tahun, 0 bulan
1611130213YURIZA SEPTA ALAMDesa aromantai kec.jarai kab.lahat sumatera selatan083173175290yuriza_s@yahoo.co.id2016desa aromantai krc.jarai kab.lahat15 Agustus 1998Laki-laki39-Ekonomi Syari'ah18-09-20203,444 tahun, 0 bulan
1611130215ANDRI SYAFRIADIDesa CAHAYA NEGERI085758399793andrisyafriadi1996@gmail.com2016cahaya negeri03 September 1996Laki-laki39-Ekonomi Syari'ah18-06-20213,284 tahun, 9 bulan
1611130217NOVIA KRISNA WATIDS.Pulaipayung082279831220noviacwetzangel@yahoo.com2016PULAI PAYUNG15 Agustus 1998Perempuan39-Ekonomi Syari'ah18-09-20203,634 tahun, 2 bulan
1611140001AHMAD KHALID PRASETYAJL. Basuki Rahmat No.111082183838539Ak076159@gmail.com2016Napal15 Agustus 1998Laki-laki40-Perbankan Syari'ah18-09-20203,634 tahun, 2 bulan
1611140002NADA KINANTI AULIATl Jawa Utara (Gg Bangsal) Rt.003 Rw.001082279352609nadakinantiaulia.zfd123@gmail.com2016Lahat27 Mei 1999Perempuan40-Perbankan Syari'ah10-09-20203,764 tahun, 2 bulan
1611140003JULIA SHINTA BELLAMekar Alam Gang Pelangi 4A No.87085208131667bellajuliashinta@gmail.com2016LAHAT15 Agustus 1998Perempuan40-Perbankan Syari'ah18-09-20203,604 tahun, 2 bulan
1611140004ANGGI MARLINDODesa Kalbang Kec. Lais Kab. Bengkulu Utara082289138417Anggidaryana1@gmail.com2016GUNUNG SARI07 Juli 1998Laki-laki40-Perbankan Syari'ah10-09-20203,774 tahun, 2 bulan
1611140005MUHAMMAD ARI PRATAMAJl. Sidik Adim no.56 desa pagar gading RT/RW 07/004 Kelurahan Kuripan Babas Keca pagar alam utara kota pagar alam082177565486aritama955@gmail.com,arytama64@gmail.com2016Palembang15 Agustus 1998Laki-laki40-Perbankan Syari'ah18-09-20203,774 tahun, 2 bulan
1611140006FITRIA HANDAYANIJl. Hibrida 13 gang medika rt 29 rw 04082281397396Fitriahadayani44@gmail.com2016medan jaya09 Februari 1997Perempuan40-Perbankan Syari'ah10-09-20203,684 tahun, 2 bulan
1611140007SERLING SANJAYAtalang jelatang nusa indah 03085788189548sanjaya_serling@yahoo.com2016PAGARALAM27 Juli 1999Laki-laki40-Perbankan Syari'ah10-09-20203,754 tahun, 2 bulan
1611140008DONA DWI SAPUTRIJalan Lintas Mulak Ulu Pagar Gunung Lahat081271286068donadwisaputri82@gmail.com2016Germidar ilir21 Desember 1998Perempuan40-Perbankan Syari'ah10-09-20203,794 tahun, 2 bulan
1611140010SATRIEA EKA SAPUTRAJL. RADEN FATAH PERUMAHAN PONDOK INDAH BLOK E NO. 21085839020070Satrieaekasaputra08@gmail.com2016MANNA15 Agustus 1998Laki-laki40-Perbankan Syari'ah18-09-20203,744 tahun, 2 bulan
1611140011NASRULLAH KURNIAWANJl. Hibrida 2 RT 006 RW 007 Kota Bengkulu089510203438nasrullahk87252@gmail.com2016Bengkulu22 September 1997Laki-laki40-Perbankan Syari'ah10-09-20203,814 tahun, 2 bulan
1611140012ANDEA VERONICA MUSLIMJalan Hibrida Ujung Gang Tirta Dewa 5089607668778veronica_andea@yahoo.co.id2016BENGKULU29 November 1997Perempuan40-Perbankan Syari'ah12-03-20203,763 tahun, 8 bulan
1611140013RINIDA PISCIS ELVITA SIRMAJL.AMALIA 1 NO 23 RT 04 RW 02 KEL. PD. NANGKA KEC. SINGARANPATI BENGKULU081279020755rpes21@gmail.com2016BENGKULU21 Februari 1997Perempuan40-Perbankan Syari'ah10-09-20203,794 tahun, 2 bulan
1611140014EPITRIADs. Sukau Datang Kec.Pelabai Kab.Lebong085788613277epitria010199@gmail.com2016Ds.Suka Datang15 Agustus 1998Perempuan40-Perbankan Syari'ah18-09-20203,524 tahun, 2 bulan
1611140015MEGGY YULIANSYAHdesa talang karet kecamatan tebat karai kabupaten kepahiang085788056548megiyuliansyah@gmail.com2016Keban Agung15 Agustus 1998Laki-laki40-Perbankan Syari'ah18-09-20203,354 tahun, 2 bulan
1611140016MAS HAYYU ASRI SENTSIMEIjln.hm.zahab.rt.04.rw.02.kelurahan bajak,kecamatan teluk segara kota bengkulu082289014293mashayyu@yahoo.com2016curup22 Mei 1998Laki-laki40-Perbankan Syari'ah10-09-20203,624 tahun, 2 bulan
1611140017RIDHO SUTISYAH PUTRAJL.TELAGA DEWA 1 RT 50 SUKARAMI0000000000ridhosutisyahputra0614@gmail.com2016BENGKULU14 Juni 1998Laki-laki40-Perbankan Syari'ah10-09-20203,634 tahun, 2 bulan
1611140018MEIKE UTAMIJL.SIDODADI NO.66 PS.UJUNG089677005938Meikeutami31@gmail.com2016KEPAHIANG15 Agustus 1998Perempuan40-Perbankan Syari'ah18-09-20203,484 tahun, 2 bulan
1611140020ZELI ARTIKATanah Abang085664341387Zelyartika@yahoo.com,Zeliartika@gmail.como2016Tanah Abang15 Agustus 1998Perempuan40-Perbankan Syari'ah18-09-20203,454 tahun, 2 bulan
1611140021JUNIARTYPERUMAHAN BUMI PERSADA INDAH BLOK J NO 8083193510861juniartybkl1997@gmail.com2016BEKASI19 Juni 1997Perempuan40-Perbankan Syari'ah10-09-20203,614 tahun, 2 bulan
1611140022MUHAMAD AZHARIAir Temam, RT 06, Blok 51, lubuklinggau selatan 1082375817661azhari2939@yahoo.co.id2016Air Temam15 Agustus 1998Laki-laki40-Perbankan Syari'ah18-09-20203,654 tahun, 2 bulan
1611140023ANISA TRI AMANDAjalan putri gading cempaka rt 04/ rw 01/ no 27 penurunan081368555895anisatriamanda0411@gmail.com2016BENGKULU11 April 1998Perempuan40-Perbankan Syari'ah10-09-20203,554 tahun, 2 bulan
1611140024SUCI LESTARIJln. DP NEGARA 2 RT 25 PAGAR DEWA082282741749Sucilestari@yahoo.com2016merantau15 Agustus 1998Perempuan40-Perbankan Syari'ah18-09-20203,524 tahun, 2 bulan
1611140025LIRIZA PURNAMADesa Talang besar. Kec, padang guci hilir. Kab, kaur. Prov, bengkulu085769295798lirizapurnama98@gmail.com,lirizapurnama@gmail.com2016Talang Besar24 April 1998Perempuan40-Perbankan Syari'ah12-03-20203,703 tahun, 8 bulan
1611140026NADEA SARIHibrida 10, Jln. Panti Asuhan 1, No. 16, RT. 013, RW. 002081366157883nadeasr@gmail.com2016BENGKULU01 September 1998Perempuan40-Perbankan Syari'ah10-09-20203,824 tahun, 2 bulan
1611140027MONICA PRATIWIdesa medan jaya, kec.ipuh, kab.mukomuko, prop.bengkulu082281166003chapratiewie@roketmail.com2016medan jaya02 Juni 1998Perempuan40-Perbankan Syari'ah30-07-20213,355 tahun, 0 bulan
1611140028AIDILA AFRIZAJorong Piladang Kenagarian Koto Tangah Batu Hampar Kecamatan Akabiluru085788862524aidilaafriza87@gmail.com2016Piladang15 Agustus 1998Perempuan40-Perbankan Syari'ah18-09-20203,584 tahun, 2 bulan
1611140030RITA HARYATIjl. bengkulu-seluma08153844087Ritaharyati260898@gmail.com2016BABATAN15 Agustus 1998Perempuan40-Perbankan Syari'ah18-09-20203,704 tahun, 2 bulan
1611140031SELVYA FIRONICAJL.RADEN FATAH RT 17 RW 03 KOTA BENGKULU089677269829icaselvya@gmail.com2016BENGKULU15 Agustus 1998Perempuan40-Perbankan Syari'ah18-09-20203,664 tahun, 2 bulan
1611140033LIZA FITRIANAPrum. semarak rafflesia indah blok c no.10 RT.13 RW.03 AIR SEBAKUL BENGKULU089659877719lizafitriana195@gmail.com2016BENGKULU19 Mei 1998Perempuan40-Perbankan Syari'ah10-09-20203,624 tahun, 2 bulan
1611140035HENDRY RADITIAJl.Gelatik 5 Rt 14 Rw 05 Perumnas Gading Cempaka Bengkulu0895360694379Hendryraditya40@gmail.com2016Bengkulu23 Mei 1997Laki-laki40-Perbankan Syari'ah10-09-20203,614 tahun, 2 bulan
1611140036VIVIN HANAFIYAHJln. kalimantan082186481124vivinhanafiyah25@gmail.com2016Karang Pulau15 Agustus 1998Perempuan40-Perbankan Syari'ah18-09-20203,664 tahun, 2 bulan
1611140038BELA GUSTINAJl. Raya Penyangkak Lubuk Durian0895801216313bellayuna61@gmail.com2016padang bendar02 Agustus 1998Perempuan40-Perbankan Syari'ah22-07-20213,685 tahun, 0 bulan
1611140039SANTI EKA YANIjalan basuki rahmat sukamerindu089688991771santiekayani0@gmail.com2016BENGKULU05 Maret 1998Perempuan40-Perbankan Syari'ah10-09-20203,664 tahun, 2 bulan
1611140040DINI DINANTI AMALIAjl. merawan 06 no.07 sawah lebar bengkulu089629049690dinigatod08@gmail.com2016bengkulu15 Agustus 1998Perempuan40-Perbankan Syari'ah18-09-20203,544 tahun, 2 bulan
1611140041TIARA ANJELINA MAURICEJl. Jendral Sudirman, Gg. Kali Bening No.55081369171922tiaramuslimah17@gmail.com2016Bengkulu03 November 1997Perempuan40-Perbankan Syari'ah12-03-20203,783 tahun, 8 bulan
1611140042BELLA AYU YULIASNI UTAMIjl nangka gg damai082278357050belaayu200@gmail.com2016lubuklinggau22 Juli 1998Perempuan40-Perbankan Syari'ah15-12-20223,556 tahun, 5 bulan
1611140043ILHAM SAPUTRADEsa Padang Cekur082371005883is428306@gmail.com2016Padang Cekur03 November 1996Laki-laki40-Perbankan Syari'ah09-08-20213,365 tahun, 1 bulan
1611140045AJENG WIDIOWATILingkungan 01 Sumberjo082280322971ajengwidiowati20@gmail.com2016TANJUNG ENIM20 Desember 1997Perempuan40-Perbankan Syari'ah10-09-20203,544 tahun, 1 bulan
1611140047BELLA ZAFIRADESA MUARA PINANG
KEC.MUARA PINANG
KAB.EMPAT LAWANG
0852679628432016muara pinang14 Mei 1999Perempuan40-Perbankan Syari'ah10-09-20203,644 tahun, 1 bulan
1611140048ABDI WAHYU NUGRAHAjalan hibrida ujung tirta dewa 05082282406061abdiangga10@yahoo.com2016bengkulu22 Mei 1998Laki-laki40-Perbankan Syari'ah09-02-20223,345 tahun, 6 bulan
1611140049SERLI RAHAYUJL. A. RAHMAN RT 22 RW 0708987470357serlirahayu699@gmail.com2016GARUT01 Maret 1998Perempuan40-Perbankan Syari'ah10-09-20203,644 tahun, 1 bulan
1611140050DEKI FERNANDODusun Baru II Kec.Karang Tinggi089683213615cputra512@gmail.com2016DURIAN DEMANG27 Juli 1997Laki-laki40-Perbankan Syari'ah02-09-20213,655 tahun, 1 bulan
1611140051ULVIO MORINDRIJl. Muhajirin 17 A085758876746ulvio.morindri@yahoo.com2016Bengkulu15 Agustus 1998Perempuan40-Perbankan Syari'ah18-09-20203,694 tahun, 1 bulan
1611140053ILIN MEITASARIDESA SELEMAN ULU
KEC.MUARA PINANG
KAB.EMPAT LAWANG
0823725529502016SELEMAN ULU15 Agustus 1998Perempuan40-Perbankan Syari'ah18-09-20203,474 tahun, 1 bulan
1611140054SINTA AYUDA MARGA REKAPADANG JATI/JL.TRANSOS BENUA RATU085832945808sintaayuda98@gmail.com2016PADANG JATI20 Agustus 1998Perempuan40-Perbankan Syari'ah10-09-20203,664 tahun, 1 bulan
1611140056FIRANTI ISMAHjln.suprapto no.47 rt.10 rw.03 bengkulu085788917516firantiismah184@gmail.com, firantiismah282016bengkulu26 Maret 1997Perempuan40-Perbankan Syari'ah28-07-20223,416 tahun, 0 bulan
1611140057SELLY JULISA VETDRIANTIDESA SELIKA III085609064085Sellyjulisa0707@gmail.com2016manna07 Juli 1998Perempuan40-Perbankan Syari'ah10-09-20203,794 tahun, 1 bulan
1611140058RIZKI AMALIAJalan Halmahera RT 06 RW 03081367761647rizkiamalia1824@gmail.com2016Bengkulu15 Agustus 1998Perempuan40-Perbankan Syari'ah18-09-20203,664 tahun, 1 bulan
1611140059METI SETIAWATIdesa tanjung karet kecamatan air besi085709128577metisetiawati746@yahoo.co.id,metisetisetiawati047@gmail.com2016tanjung karet09 Juni 1997Perempuan40-Perbankan Syari'ah12-03-20203,883 tahun, 7 bulan
1611140060DINA ANDEKA PUTRI YANAjl.bhakti husada VI lingkar barat rt. 012 rw. 005085381524266dinaandeka01@gmail.com2016Limas Jaya01 Oktober 1997Perempuan40-Perbankan Syari'ah10-09-20203,844 tahun, 1 bulan
1611140062MARSALIDAJLN. PADAT KARYA082183228958marsyalida07@gmail.com2016SIBAK24 Maret 1997Perempuan40-Perbankan Syari'ah24-01-20233,556 tahun, 6 bulan
1611140063MERSATIJL.ADAM MALIK KM 9089692555562mersati12@yahoo.com2016PALEMBANG27 April 1996Perempuan40-Perbankan Syari'ah10-09-20203,624 tahun, 1 bulan
1611140064ULVA MAULIDADS. BATU RAJA KEC. PONDOK KUBANG KAB. BENGKULU TENGAH085367875862ulvamaulida217@gmail.com2016DS. BATU RAJA23 Juli 1997Perempuan40-Perbankan Syari'ah30-07-20213,445 tahun, 0 bulan
1611140065KASIH WULANDARIJl.merapi 6b no.66 Rt.6089624778716kasihwd28@gmail.com2016bengkulu28 September 1997Perempuan40-Perbankan Syari'ah10-09-20203,724 tahun, 1 bulan
1611140066CINDI NOVELITA SARIdesa kandang. kecamatan seberang musi081539260975Cindinovelita11@gmail.com2016kandang15 Agustus 1998Perempuan40-Perbankan Syari'ah18-09-20203,584 tahun, 1 bulan
1611140067WIDIA NINGSIHsurabaya permai JL.halmahera089671947014widiawn13@gmail.com2016curup13 Oktober 1998Perempuan40-Perbankan Syari'ah10-09-20203,604 tahun, 1 bulan
1611140069DANDY FENDRA GUSTAMADs. Tanjung Dalam085377899449Dandyfendra27@gmail.com2016Manna , Bengkulu Selatan15 Agustus 1998Laki-laki40-Perbankan Syari'ah18-09-20203,634 tahun, 1 bulan
1611140070ANISAH MAWAHDAHJalan gang dempo 02 RT 14 RW 04 No 27 Kelurahan Kebun Tebeng kecamatan Ratu Agung Provinsi Bengkulu089617103001annisamawahdah@gmail.com2016Bengkulu22 Desember 1997Perempuan40-Perbankan Syari'ah12-03-20203,933 tahun, 7 bulan
1611140071VIA AULIA SARIJL.A.YANI RT.001 RW.014 DESA PADANG JAYA KECAMATAN PADANG JAYA082371029073viaaulia945@gmail.com2016Bengkulu15 Agustus 1998Perempuan40-Perbankan Syari'ah18-09-20203,514 tahun, 1 bulan
1611140072MERRY IDWARJALAN TIMUR INDAH RAYA082175614480merry_idwar@yahoo.com2016BENGKULU25 Maret 1998Perempuan40-Perbankan Syari'ah10-09-20203,724 tahun, 1 bulan
1611140073CICI PUTRIANIBetungan082306715569ciciputriani20@yahoo.co.id2016Bengkulu20 Februari 1998Perempuan40-Perbankan Syari'ah10-09-20203,754 tahun, 1 bulan
1611140074SALSABILLAJalan.Air puar 1, Perum Griya betungan asri RT : 36 RW:02 NO 275081379011549Salsabilla.maxstep117@gmail.com2016Jakarta15 Agustus 1998Perempuan40-Perbankan Syari'ah18-09-20203,754 tahun, 1 bulan
1611140076NINE NURFAjl.cimanuk no 39085368424443nifanurfa@gmail.com2016bengkulu17 September 1996Perempuan40-Perbankan Syari'ah10-09-20203,674 tahun, 1 bulan
1611140079MUHAMMAD HASBI ASHSHIDDIQIJL.TIMUR INDAH JAYA081532441535HASBIDIQQI11@GMAIL.COM2016BENGKULU15 Maret 1997Laki-laki40-Perbankan Syari'ah15-12-20223,386 tahun, 4 bulan
1611140080DESTI UMILA SARIJorong Usak Nagari Alahan Panjang081368526264destiumilasari14@gmail.com2016Alahan Panjang14 Desember 1997Perempuan40-Perbankan Syari'ah10-09-20203,764 tahun, 1 bulan
1611140082ABDURAHMAN SAYUTIBATU RAJA085788067506rahmansayuti667@gmail.com2016BATU RAJA15 Agustus 1998Laki-laki40-Perbankan Syari'ah18-09-20203,484 tahun, 1 bulan
1611140083ANDESTI PUTRIDusun II Desa Rena Panjang082373065601andestiputri8@gmail.com2016Rena Panjang19 Agustus 1998Perempuan40-Perbankan Syari'ah10-09-20203,734 tahun, 0 bulan
1611140084ANDRIAS JARIANSYAHjln cendana,gg mangga besar,rt02 rw01 sawah lebar baru,kota bengkulu089634428960andreasjariansyah01@gmail.com2016napal putih15 Januari 1996Laki-laki40-Perbankan Syari'ah23-06-20223,415 tahun, 10 bulan
1611140085AYUNINGRUM PERMATASARIJALAN DEPATI PAYUNG NEGARA081278264527ayuningrum.ps@gmai.com2016PURBOSARI22 Maret 1998Perempuan40-Perbankan Syari'ah10-09-20203,874 tahun, 0 bulan
1611140086BELLA GUSTIANITAJALAN CEMPAKA 2 NO 48 RT 04 RW 02085269706572bellagustianita.bg@gmail.com2016Bengkulu05 Agustus 1997Perempuan40-Perbankan Syari'ah10-09-20203,774 tahun, 0 bulan
1611140087CITRA KURNIA SARIJL. BENGKULU-TAIS NO 14 RT 03 RW 02082280547972citrakurniasari.ipa1@gmail.com2016BABATAN25 November 1998Perempuan40-Perbankan Syari'ah10-09-20203,924 tahun, 0 bulan
1611140088DEKA PRATAMADUSUN IV DESA KUROTIDUR085839122636dekapratama127@gmail.com2016SEBELAT26 Desember 1996Laki-laki40-Perbankan Syari'ah18-01-20233,396 tahun, 5 bulan
1611140089DESY LESITAJL.SOEKARNO HATTA 4 RT 02 RW 01 ANGGUT ATAS KOTA BENGKULU089632354802lesitadesy@gmail.com2016ciamis26 Desember 1997Perempuan40-Perbankan Syari'ah10-09-20203,654 tahun, 0 bulan
1611140090EKA AGUS ANGGREANIJL. hibrida raya 4 RT.08 RW. 07082175753167ekaagusanggreani@gmail.com2016CIREBON23 Agustus 1997Perempuan40-Perbankan Syari'ah10-09-20203,634 tahun, 0 bulan
1611140091FIFIH FITRIANISELEMAN ULU KEC.MUARA PINANG081367752182fifih863@gmail.com2016tanggerang15 Agustus 1998Perempuan40-Perbankan Syari'ah18-09-20203,684 tahun, 1 bulan
1611140092HELDA FITRIANIDESA PADANG LEBAN082114462001heldafitriani845@gmail.com2016Padang leban15 Agustus 1998Laki-laki40-Perbankan Syari'ah18-09-20203,684 tahun, 1 bulan
1611140093HERLINA SAFITRIjl. mahakam Komplek bumi raflesia Blok A No. 51081273966364Herlinasafitri27@gmail.com2016Bekasi09 Februari 1998Perempuan40-Perbankan Syari'ah10-09-20203,814 tahun, 0 bulan
1611140095LIA FEBRIANTITERULUNG085609140944Liafebrianti1999@yahoo.com2016TERULUNG19 Februari 1999Perempuan40-Perbankan Syari'ah12-03-20203,713 tahun, 7 bulan
1611140097INDAH FEPBRI YUNIARMIjln padang kemiling rt 04 rw 02083172927812indahgogo43@gmail.com2016bengkulu15 Agustus 1998Perempuan40-Perbankan Syari'ah18-09-20203,394 tahun, 1 bulan
1611140098INDAH PERMATASARIJl.danau 14 panorama083164694817iipermata07@gmail.com2016BENGKULU07 Agustus 1998Perempuan40-Perbankan Syari'ah30-07-20213,564 tahun, 11 bulan
1611140099INDRA SASMITAKota Agung085758154198ivj16@yahoo.com2016Kota Agung15 April 1997Laki-laki40-Perbankan Syari'ah07-07-20223,305 tahun, 10 bulan
1611140100JULINADA APRIANTISiabun Jaya RT 010 RW 004082282372096julinadaaprianti27@yahoo.com2016Bengkulu27 Juli 1997Perempuan40-Perbankan Syari'ah10-09-20203,734 tahun, 0 bulan
1611140101LIA KARTIKA SARIdesa sukamaju082279891568kartikalif@gmail.com2016Srikaton14 Desember 1996Perempuan40-Perbankan Syari'ah25-07-20223,565 tahun, 11 bulan
1611140102MARLINA OKTAVIATANJUNG SAKTI085832352741marlinaoktavia2216@gmail.com2016TANJUNG BULAN03 Oktober 1998Perempuan40-Perbankan Syari'ah10-09-20203,724 tahun, 0 bulan
1611140103LINGKA SASTRAJl. Telaga dewa 9081369960803lingkasastra@gmail.com2016LANDUR15 Agustus 1998Laki-laki40-Perbankan Syari'ah18-09-20203,544 tahun, 1 bulan
1611140104MERA EKASARIDESA BUNGA MELUR085832438534meraekasari05@gmail.com2016Bunga Melur15 Agustus 1998Perempuan40-Perbankan Syari'ah18-09-20203,624 tahun, 1 bulan
1611140105MERLI ANGGRIANINanti giri085384274300merlianggriani@gmail.com2016NANTIGIRI27 Mei 1998Perempuan40-Perbankan Syari'ah10-09-20203,654 tahun, 0 bulan
1611140106SINTA APRILIANIDesa darmo083173480281shiintaapriliani0498@gmail.com2016Darmo15 Agustus 1998Perempuan40-Perbankan Syari'ah18-09-20203,454 tahun, 1 bulan
1611140107NUR AZIZAHPENDOPO082213048208nurazizahbkl@gmail.com2016JALAN JATI15 Agustus 1998Perempuan40-Perbankan Syari'ah18-09-20203,614 tahun, 1 bulan
1611140108NYIMAS CHESY DAYANTIBATU BANDUNG082177578752nyimaschesydayanti.07@gmail.com2016BATU BANDUNG15 Agustus 1998Perempuan40-Perbankan Syari'ah18-09-20203,504 tahun, 1 bulan
1611140109PARAMITA INTAN PRATIWIJl. Kuala Alam Rt.13 Rw.030895336409849paramithaintan2898@gmail.com,intanparamita151@gmail.com2016Bengkulu15 Agustus 1998Perempuan40-Perbankan Syari'ah18-09-20203,854 tahun, 1 bulan
1611140110RATI RAFIKAJL.AIR BETUNGAN081532459828ratirafika21@gmail.com2016Bukit Harapan15 Agustus 1998Perempuan40-Perbankan Syari'ah18-09-20203,474 tahun, 1 bulan
1611140111RATNA DEWIJl. Peremajaan085838736806ratna dewi123@yahoo.co.id2016riak siabun15 Agustus 1998Perempuan40-Perbankan Syari'ah18-09-20203,444 tahun, 1 bulan
1611140112RENSI ENDANG SARIKarang Dapo085788094730solemahfrans@gmail.com2016karang dapo16 April 1998Laki-laki40-Perbankan Syari'ah10-09-20203,684 tahun, 0 bulan
1611140113REREN YOLANDAjln serawai rt 25 rw 07 kelurahan pekan sabtu kota bengkulu085766876162rerenyolanda96@gmail.com2016bengkulu03 November 1996Perempuan40-Perbankan Syari'ah09-08-20213,584 tahun, 11 bulan
1611140114RIKE EKASARIPadang Jaau,Ganjuh,Manna,Bengkulu Selatan,Bengkulu085273152141rikheekasari@gmail.com2016ganjuh09 Juni 1998Perempuan40-Perbankan Syari'ah10-09-20203,674 tahun, 0 bulan
1611140115RIRI ANGGRAINIJl.Raya awat Mata KEC.Semidang Gumay KAB.Kaur085269799042ririanggrainimdk@gmail.com2016simpang tiga15 Agustus 1998Perempuan40-Perbankan Syari'ah18-09-20203,554 tahun, 1 bulan
1611140117SULASMI WULANDARIDs.Datar Lebar Kec.Taba Penanjung Kab. Bengkulu tengah081532863307sulasmiwulandari8787@gmail.com2016Datar Lebar15 Agustus 1998Perempuan40-Perbankan Syari'ah18-09-20203,544 tahun, 1 bulan
1611140119VINIA DESY ELIYANIJL. LINTAS KEPAHIANG-BENGKULU, DESA TEBAT MONOK KEC. KEPAHIANG KAB. KEPAHIANG081369309136vinia.desyeliyani@gmail.com2016KEPAHIANG15 Agustus 1998Perempuan40-Perbankan Syari'ah18-09-20203,844 tahun, 1 bulan
1611140120YANISTICA DWI UTAMIDESA NIUR JALAN RAYA BENGKULU-TAIS KM 27081539331278yanisticadwiutami12@gmail.com2016Bengkulu12 April 1998Perempuan40-Perbankan Syari'ah10-09-20203,874 tahun, 0 bulan
1611140121YELI ASTUTIDesa. Semundam, Kec. Ipuh, Kab. Mukomuko082214607583Yeliastuti97@gmail.com2016Desa. Semundam22 Desember 1997Perempuan40-Perbankan Syari'ah10-09-20203,644 tahun, 0 bulan
1611140122YEMI MARLEZAtelaga dewa Vlll082375667647yemimarleza@gmail.com2016serang bulan28 September 1997Perempuan40-Perbankan Syari'ah10-09-20203,684 tahun, 0 bulan
1611140123YULISA FUTRIANAKayu ajaran082282741487yulisafutriana@gmail.com, yulisafutriana19@gmail.com2016batu ajih19 Desember 1998Perempuan40-Perbankan Syari'ah10-09-20203,584 tahun, 0 bulan
1611140124YUNITA NIRWANA SARIjl.re martadinata 6 rt/rw 043/008081272554117yunitanirwana99@gmail.com2016mc,manis15 Agustus 1998Perempuan40-Perbankan Syari'ah18-09-20203,514 tahun, 1 bulan
1611140125MUHAMMAD ZAKI YASSIRJl. Gunung Bungkuk 3 no 49 RT 16 RW 05089502564789Yasir2@gmail.com2016Bengkulu02 September 1997Laki-laki40-Perbankan Syari'ah03-12-20213,485 tahun, 3 bulan
1611140126ADE RIANGPTPN 7 PADANG PELAWI Desa Kayu Arang Kec. Sukaraja Kab. Seluma085669431007ade.riang55@gmail.com2016TABA PENANJUNG07 Juni 1999Laki-laki40-Perbankan Syari'ah27-01-20233,536 tahun, 5 bulan
1611140128ALFIATUN KHASANAHDUSUN 1 RT.4 RW.1082282704492Hasanahalfiatun@gmail.com2016Padang Jaya15 Agustus 1998Perempuan40-Perbankan Syari'ah18-09-20203,664 tahun, 0 bulan
1611140131AMITA FITRI SARIJL.RADENFATAH TELGA DEWA BENGKULU081539904975Amimanna4@gmail.com2016KEMBANG MUMPO01 Januari 1996Perempuan40-Perbankan Syari'ah28-07-20213,394 tahun, 11 bulan
1611140132ANDREA YEZA HAFELYJERANGLAH TINGGI085768042098yezaandre@yahoo.co.id2016jeranglah tinggi15 Agustus 1998Perempuan40-Perbankan Syari'ah18-09-20203,774 tahun, 0 bulan
1611140134ANUGRAH TAKDIR SYAHPUTRAPASAR GEDANG LUBUK PINANG081368045303anugrahsyahputra5@gmail.com2016lubuk pinang15 Agustus 1998Laki-laki40-Perbankan Syari'ah18-09-20203,544 tahun, 0 bulan
1611140135ARIP JULIYANTODUSUN SUKA INDAH082281038990arifjulianto155@gmail.com, aripjuliyanto06@gmail.com2016Sukamakmur07 Juli 1998Laki-laki40-Perbankan Syari'ah03-12-20213,375 tahun, 3 bulan
1611140136ATIKA PERMATASARIPerum mentari 2 jalan padat karya 5 no.23 rt.001 rw.004082240928415permataatika24@gmail.com2016Talang Panjang16 Februari 1996Perempuan40-Perbankan Syari'ah10-09-20203,864 tahun, 0 bulan
1611140137AZIZAH AYU LESTARIjln.nangka panorama kota bengkulu082278753771azizahayulestari6@gmail.com2016Bengkulu15 Agustus 1998Perempuan40-Perbankan Syari'ah18-09-20203,524 tahun, 0 bulan
1611140138DIANA NOPITAJalan Hibrida Ujung No 08 RT 008 RW 002081368049767Diananvt123@gmail.com2016Bengkulu15 Agustus 1998Perempuan40-Perbankan Syari'ah18-09-20203,744 tahun, 0 bulan
1611140139EDIAN SAHRONIJALAN BASUKI RAHMAT0858323922488roni.gembrez11@gmail.com,ediansahroni2@gmail.com2016rimbo kedui15 Agustus 1998Laki-laki40-Perbankan Syari'ah18-09-20203,574 tahun, 0 bulan
1611140140ERA MITAKEBAN JATI082373872331eramita828@gmail.com2016Keban jati17 Mei 1997Perempuan40-Perbankan Syari'ah10-09-20203,604 tahun, 0 bulan
1611140142HANA PERTIWIpadang kelapo081539269460hanapertiwi940@gmail.com2016padang kelapo15 Agustus 1998Perempuan40-Perbankan Syari'ah18-09-20203,614 tahun, 0 bulan
1611140143MELSA DAYANTIJALAN TIMUR INDAH 2085366456015melsadayanti03@gmail.com2016BUNGIN TAMBUN15 Agustus 1998Perempuan40-Perbankan Syari'ah18-09-20203,664 tahun, 0 bulan
1611140144MEY SERO PRIKANTIDESA TENGAH PADANG, KECAMATAN TALANG EMPAT, KABUPATEN BENGKULU TENGAH081278224639meyseroprikanti@gmail.com2016TENGAH PADANG15 Agustus 1998Perempuan40-Perbankan Syari'ah18-09-20203,724 tahun, 0 bulan
1611140145MONITA RAHMARANIGAJAH MATI085379338980Monitarahma98@gmail.com2016IPUH28 Januari 1998Perempuan40-Perbankan Syari'ah10-09-20203,874 tahun, 0 bulan
1611140148NETFRI INDASARIDESA TALANG TINGGI085764666674Netfriindasari06@gmail.com2016TALANG TINGGI06 November 1998Perempuan40-Perbankan Syari'ah27-07-20213,634 tahun, 11 bulan
1611140149NOVITA OKTASARIRD.PJKA BANDAR AGUNG LAHAT081366599152novitaoktasari6@gmail.com2016lahat10 Desember 1996Perempuan40-Perbankan Syari'ah10-09-20203,774 tahun, 0 bulan
1611140151RIZAL WALDIANTOSuka Mulya082280275523Rizalwaldianto@yahoo.com2016Suka mulya,Bengkulu utara14 Agustus 1998Laki-laki40-Perbankan Syari'ah13-08-20213,174 tahun, 11 bulan
1611140153SELLY DESRAYANTItelaga dewa 5085379646452Sellydesrayanti@gmail.com2016Tanjung kemuning14 Juni 1998Perempuan40-Perbankan Syari'ah19-02-20213,584 tahun, 5 bulan
1611140154SELPI HIBIKA NUGROHOPenago 2 kec.ilir Talo kab. Seluma081369128557selpihibika15@gmail.com2016Penago 214 Juni 1998Perempuan40-Perbankan Syari'ah19-02-20213,584 tahun, 5 bulan
1611140155SESTY SRI JAYANTIDESA DUSUN CURUP KECAMATAN AIR BESI KABUPATEN BENGKULU UTARA PROVINSI BENGKULU085788542491sestysri192@gmail.com2016Argamakmur14 Juni 1998Perempuan40-Perbankan Syari'ah19-02-20213,564 tahun, 5 bulan
1611140156SITI MUNAWAROHJl. Pekik nyaring blok 1 Luar082375914457Siti_Mwh@yahoo.com2016Bengkulu14 Juni 1998Perempuan40-Perbankan Syari'ah19-02-20213,674 tahun, 5 bulan
1611140158WINTI ISNAINITeluk Sepang082279866263wintiisnainii@gmail.com2016Maras14 Juni 1998Perempuan40-Perbankan Syari'ah19-02-20213,544 tahun, 5 bulan
1611140159YENI SUHARIYENIjl. padang serai RT.11 Rw.03 kampung melayu082181942907yenisuhariyeni@gmail.com2016purbosari14 Juni 1998Perempuan40-Perbankan Syari'ah19-02-20213,604 tahun, 5 bulan
1611140160YOLANDA CITRA LESTARI PUTRIJln re martadinata rt26 rw 04089646458182Yolandacitra16@gmail.Com2016Bengkulu28 Februari 1995Perempuan40-Perbankan Syari'ah14-01-20213,704 tahun, 4 bulan
1611140162AHMAD THOHIRjl merapi 09089675312165ahmadthohir007@gmail.com2016BENGKULU06 April 1998Laki-laki40-Perbankan Syari'ah26-07-20213,414 tahun, 11 bulan
1611140163AISYA LARASATIjl.putri gading cempaka (penurunan) rt.04 rw.02085758216067aisyahlarasati4@gmail.com2016bengkulu11 April 1997Perempuan40-Perbankan Syari'ah10-09-20203,804 tahun, 0 bulan
1611140164ANI SAPUTRIPerum Raflesia085768071946anisaput9889@gmail.com2016Muara Payang08 September 1998Perempuan40-Perbankan Syari'ah16-10-20203,874 tahun, 1 bulan
1611140165ANIKE TRI RAHMAYANTIPAJAR BULAN082377238164MERZAN99@YAHOO.COM2016PAJAR BULAN15 Januari 1998Perempuan40-Perbankan Syari'ah28-07-20223,465 tahun, 11 bulan
1611140167CITRA NUR ASTUTIDESA.RENA JAYA.
KEC.GIRI MULYA
082282218293astuty_citra@yahoo.com2016WONOSOBO15 Agustus 1998Perempuan40-Perbankan Syari'ah18-09-20203,684 tahun, 0 bulan
1611140168DEDE APRIANSAHjl.cimanuk padang harapan08992246984Dedeapriansah040@gmail.com2016bengkulu02 April 1997Laki-laki40-Perbankan Syari'ah25-01-20233,056 tahun, 5 bulan
1611140169DHEA NURLIANIJl. Beringin Rt06 Rt03 No15085211918702dheanurliani98@gmail.com2016Pagar Alam15 Agustus 1998Perempuan40-Perbankan Syari'ah18-09-20203,584 tahun, 0 bulan
1611140171DWI RAMADHANTISIBAK082279847670dwiramadhanti1997@gmail.com2016SIBAK14 Juni 1998Perempuan40-Perbankan Syari'ah19-02-20213,394 tahun, 5 bulan
1611140172EKA NARTI WAHYUNIDS.AIR RAMAN085367340243ekanartiwahyuni29@gmail.com2016AIR RAMAN14 Juni 1998Perempuan40-Perbankan Syari'ah19-02-20213,544 tahun, 5 bulan
1611140173ELVIANA FIRONIKAhibrida 13
prumnas hibrida gria asri
kelurahan sumur dewa
kecamatan selebar
085783505165elvianafironika1997@gmail.com2016Suka Maju14 Juni 1998Perempuan40-Perbankan Syari'ah19-02-20213,464 tahun, 5 bulan
1611140174ENDANG ERYANA HAPSARIJl. Yos Sudarso Gg Al-Barokah 20895337317413endangeryana98@gmail.com2016Bengkulu14 Juni 1998Perempuan40-Perbankan Syari'ah19-02-20213,634 tahun, 5 bulan
1611140175GITA SAFITRIpd.bindu,kec.kedurang ilir,kab.bengkulu selatan082375255778gitaasafitri0411@gmail.com2016padang bindu04 November 1998Perempuan40-Perbankan Syari'ah10-09-20203,554 tahun, 0 bulan
1611140177INTAN AIS PAJANIDusun Kurawan081539392719intanais84@gmail.com2016KURAWAN24 Juni 1998Perempuan40-Perbankan Syari'ah10-09-20203,744 tahun, 0 bulan
1611140178INTAN HARTI LESTARIJL. RE. MARTADINATA0895603277643hartilestariintan@gmail.com2016BENGKULU04 April 1998Perempuan40-Perbankan Syari'ah10-09-20203,794 tahun, 0 bulan
1611140179JOHAN GUSTIN JAMINgang nusantara085788902356susanti.lia79@yahoo.co.id2016tanjung sari07 Agustus 1998Laki-laki40-Perbankan Syari'ah27-05-20223,415 tahun, 9 bulan
1611140180KURNIATIDESA SIBAK082380493482nyachimutz@yahoo.co.id2016SIBAK14 Juni 1998Perempuan40-Perbankan Syari'ah19-02-20213,534 tahun, 5 bulan
1611140181LINI SUSANTIDESA PENANDINGAN082377850611jimmymanna18@yahoo.co.id2016PENANDINGAN14 Juni 1998Perempuan40-Perbankan Syari'ah19-02-20213,304 tahun, 5 bulan
1611140185NINA JULYANIDESA TALANG JARANG KECAMATAN AIR NAPAL KABUPATEN BENGKULU UTARA081279223802Ninajulyani07@gmail.com2016TALANG JARANG14 Juni 1998Perempuan40-Perbankan Syari'ah19-02-20213,714 tahun, 5 bulan
1611140187NURUL AGUSTIANIWonosobo Kec.Penarik Kab.MukoMuko081271409096nurul13agustiani@gmail.com2016LUBUK MUKTI14 Juni 1998Perempuan40-Perbankan Syari'ah19-02-20213,684 tahun, 5 bulan
1611140188PUPUT FAUZIAHJALAN BIMA085783454693ksp.rias@yahoo.com2016PURWODADI14 Juni 1998Perempuan40-Perbankan Syari'ah19-02-20213,584 tahun, 5 bulan
1611140189RAHMAWATIDesa Srikuncoro Gang pungguk Timur089631297656rahmawati11081997@gmail.com2016Srikuncoro14 Juni 1998Perempuan40-Perbankan Syari'ah19-02-20213,824 tahun, 5 bulan
1611140190RANDI SISWANTOJalan Raya Marga sakti sebelat0822803206502016Suka negra14 Juni 1998Laki-laki40-Perbankan Syari'ah19-02-20213,294 tahun, 5 bulan
1611140191SELA MARLIANTIJl. Hibrida ujung Rt. 08 Rw. 02 no 50.081379017510selamarlianti@gmail..com2016LUBUK BUNTAK21 Januari 1999Perempuan40-Perbankan Syari'ah10-09-20203,944 tahun, 0 bulan
1611140192SITI MUSLIMAHjl.mawar desa air sekamanak082179360835sitimuslimahhh05@gmail.com2016Bengkulu utara14 Juni 1998Perempuan40-Perbankan Syari'ah19-02-20213,694 tahun, 5 bulan
1611140193TIARA PURNAMA SARIDESA PENANDINGAN082377850611tiarapurnamasari96@gmail.com2016PENANDINGAN29 April 1999Laki-laki40-Perbankan Syari'ah11-01-20213,094 tahun, 4 bulan
1611140195YUDHA ANUGERAH PRATAMAJl. Merapi 9085273468406alsarspider@yahoo.co.id2016Bengkulu15 Januari 1999Laki-laki40-Perbankan Syari'ah27-07-20223,125 tahun, 11 bulan
1611140197YONA INDAH ANGGRAINIsawang lebar kecamatan tanjung agung palik. kab. bengkulu utara. prop. bengkulu089668945392yoona_anggraini@yahoo.com2016sawang lebar20 April 1998Perempuan40-Perbankan Syari'ah10-09-20203,614 tahun, 0 bulan
1611140198LARA PATILOKAPADANG BANDAR085268479985-,rhia_nha@ymail.com2016PADANG BANDAR14 Juni 1998Perempuan40-Perbankan Syari'ah19-02-20213,614 tahun, 5 bulan
1611140199ERICK SAPTA PRATAMADESA PAGAR AGUNG085769521039ericksapta62@gmail.com2016Talang Tinggi01 September 1998Laki-laki40-Perbankan Syari'ah22-07-20213,704 tahun, 10 bulan
1611140200ERISA VENI AFRIANIDESA PUNGGUK KETUPAK/JL LINTAS LUBUK SINI-UJAN MAS,KABUPATEN BENGKULU TENGAH085279020453erissa_scoutmf@yahoo.com2016PUNGGUK KETUPAK14 Juni 1998Perempuan40-Perbankan Syari'ah19-02-20213,394 tahun, 5 bulan
1611140201ALHADI MULKATJl. Air Seluma 31 Kel. Betungan089611657835alhadi@yahoo.com2016bungamas14 Agustus 1998Laki-laki40-Perbankan Syari'ah13-08-20213,604 tahun, 11 bulan
1611140203FAJAR AKBARtanjung harapan085380742205IKERFAJARBUFFON@YAHOO.COM2016tanjung harapan15 Maret 1998Laki-laki40-Perbankan Syari'ah23-12-20213,505 tahun, 3 bulan
1611140204NUR IMANAHtelaga dewa 6085213958026nurimanahbengkulu.gmail@.com2016PENAGO II14 Desember 1996Perempuan40-Perbankan Syari'ah25-07-20223,795 tahun, 11 bulan
1611140206TIA AGUSTINADesa Lubuk Gilang085367290744tiaskj7@gmail.com2016PIR PADANG PELASAN14 Juni 1998Perempuan40-Perbankan Syari'ah19-02-20213,584 tahun, 5 bulan
1611140207YULFA INRAYANIJalan Poros Desa Pagardin082389554588Yulfainrayani@gmail.com2016Pagardin01 Desember 1997Perempuan40-Perbankan Syari'ah08-02-20233,596 tahun, 5 bulan
1611140208BEFTY SYALENADesa Pino Baru082175805406beftysyalenal@gmail.com2016pino baru14 Juni 1998Perempuan40-Perbankan Syari'ah19-02-20213,694 tahun, 5 bulan
1611140209DIDI SAPUTRASIMPANG TIGA, RT. 000/RW.000,085208726653didisaputrad44@gmail.com2016SIMPANG TIGA05 Juni 1997Laki-laki40-Perbankan Syari'ah10-09-20203,474 tahun, 0 bulan
1611140210ELIZA SEPTIANIJALAN.BUMI AYU 8
RT 10
RW 2
0815392725200857671389362016Talang jawi14 Juni 1998Perempuan40-Perbankan Syari'ah19-02-20213,384 tahun, 5 bulan
1611140211M. ALDI YOGA SYAPUTRAKP.SAWAH CILEUNGSI BOGOR JLN.JONGGOL GANG MASJID AL-MUKAROMAH089624125930aldiyoga57@ymail.com2016cianjur17 Mei 1998Laki-laki40-Perbankan Syari'ah28-07-20222,835 tahun, 11 bulan
1611140214RAFKI MUALIM RIDASKANJl. PANGERAN ZAENAL ARIFIN RT 03 RW 02 KELURAHAN AMEN KECAMATAN AMEN KABUPATEN LEBONG081279683963ridaskan_rafki@yahoo.com2016MUARA AMAN14 Juni 1998Laki-laki40-Perbankan Syari'ah19-02-20213,314 tahun, 5 bulan
1611160001RINDA RUSNIATIDesa Pondok Kubang Dusun 1 No. 12085896203460rindarusniati98@gmail.com2016Pondok Kubang10 Maret 1998Perempuan48-Manajemen Zakat dan Wakaf10-09-20203,774 tahun, 0 bulan
1611160002EVITA RHOTIKAJalan Rambutan ivB. RT.14 RW.0408100000000evitarhotika1@gmail.com2016Tj.Besar14 Desember 1996Perempuan48-Manajemen Zakat dan Wakaf25-07-20223,355 tahun, 11 bulan
1611160003NISA AINUNKOMPLEK BANDARA FATMAWATI0821832992112016PINANG SORI22 Juli 1998Perempuan48-Manajemen Zakat dan Wakaf10-09-20203,484 tahun, 0 bulan
1611160007ROY SUJIADIPadang serunaian085766958848roysujiadi27@gmail.com2016Bengkulu22 Juli 1998Laki-laki48-Manajemen Zakat dan Wakaf10-09-20203,624 tahun, 0 bulan
1611160008BAGASTA MAHARDIKAjalan raya tanjung kemuning082372279989bagastamahardika19@gmail.com2016surakarta17 Agustus 1997Laki-laki48-Manajemen Zakat dan Wakaf16-02-20223,135 tahun, 5 bulan
1611160009DONA SAPUTRAJALAN BERINGIN RAYA081539388113dona@yahoo.com2016TANJUNG BERINGIN27 November 1996Laki-laki48-Manajemen Zakat dan Wakaf21-02-20223,165 tahun, 5 bulan
1611160010NADIA FATONAH ISLAMIAHDESA SURAU083172927765-081977094934@gmail.com2016BENGKULU19 April 1999Perempuan48-Manajemen Zakat dan Wakaf12-03-20203,503 tahun, 6 bulan
1611160011DEWI ASTUTIjl. sadang 1 no.75089627145949dewia4639@gmail.com2016Bengkulu14 Juni 1998Perempuan48-Manajemen Zakat dan Wakaf19-02-20213,514 tahun, 5 bulan
1611160012DORA AMADEAJL. CEMPAKA X RT 12 RW 3 NO 64 KEBUN BELER085709918922DORA_AMADEA@YAHOO.COM2016BENGKULU22 Juli 1998Perempuan48-Manajemen Zakat dan Wakaf10-09-20203,444 tahun, 0 bulan
1611160013ELA GUSANTIDESA PADANG SEPAN BENGKULU UTARA085664690690ELA07@GMAIL.COM2016DESA PADANG SEPAN BENGKULU UTARA14 Desember 1996Perempuan48-Manajemen Zakat dan Wakaf25-07-20223,225 tahun, 11 bulan
1611160014LINGKI RAMIKAbandu agung085378657438lingkiramika0@gmail.com2016BANDU AGUNG14 Juni 1998Laki-laki48-Manajemen Zakat dan Wakaf19-02-20213,304 tahun, 5 bulan
1611160016RISTIKATANJUNG KEMUNING085839987446ingarestika@gmail.com2016TANJUNG KEMUNING14 Juni 1998Perempuan48-Manajemen Zakat dan Wakaf19-02-20213,224 tahun, 5 bulan
1611160017SUCI WULANDARIDESA REKIMAI JAYA KEC. SEMENDE DARAT TENGAH KAB. MUARA ENIM085841421613suciw7415@gmail.com2016REKIMAI JAYA14 Desember 1996Perempuan48-Manajemen Zakat dan Wakaf25-07-20223,285 tahun, 11 bulan
1611160019WAHYUDIJl. DP Negara Pagar Dewa085239136847wachyudie.pimimpi@facebook.com2016KERTAPATI22 Juli 1998Laki-laki48-Manajemen Zakat dan Wakaf10-09-20203,704 tahun, 0 bulan
1611160020WIWIK DEWANTYDESA TALANG BESAR PADANG GUCI HILIR KABUPATEN KAUR085362719603wewex.dawanty@facebook.com2016TALANG BESAR24 April 1996Perempuan48-Manajemen Zakat dan Wakaf10-09-20203,064 tahun, 0 bulan
1611160021YULI MELA MELOZAPadang Capo/Bengkulu Tais/4085664913011Yulimela12@yahoo.c0m2016Padang capo ulu17 Maret 1997Perempuan48-Manajemen Zakat dan Wakaf30-07-20213,374 tahun, 11 bulan
1611160023AGUS NURIMANjalan raya nanti agung kecamatan kedurang kab.bengkulu selatan085789209939Agusn2056@gmail.com2016nanti agung14 Juni 1998Laki-laki48-Manajemen Zakat dan Wakaf19-02-20213,074 tahun, 5 bulan
1611160024AYU JULITAJl. Timur Indah 2/ Gang 3085268442198ayujulita19@gmail.com2016Padang Gilang22 Juli 1998Perempuan48-Manajemen Zakat dan Wakaf10-09-20203,424 tahun, 0 bulan
1611160025DEDI PRATAMAjl.simpang tiga - pasar ngalam082384531086banxded25@gmail.com2016simpang tiga05 Juni 1997Laki-laki48-Manajemen Zakat dan Wakaf10-09-20203,544 tahun, 0 bulan
1611160026SURAPATIperumahan alfatindo blok A rt 11 no 530895355737147ahmadsurapati@yahoo.co.id2016lubuk pauh14 Juni 1998Laki-laki48-Manajemen Zakat dan Wakaf19-02-20213,244 tahun, 5 bulan
1611170001NIHARUL RIQQI MAKRUFJl. Timur Indah Raya No. 1008127943754makrufriqqi@gmail.com2016Jepara26 Juni 1995Laki-laki78-Manajemen Haji dan Umroh10-09-20203,873 tahun, 10 bulan
1611170002DINDA DWI ARMENIAJl. Datuk Maarus Belakang Gedung Manna082280244622Dindadwiarmenia563gmail.com2016Manna14 Juni 1998Perempuan78-Manajemen Haji dan Umroh19-02-20213,674 tahun, 3 bulan
1611170003BENNY SAPUTRADesa Tanjung Kemuning 30852684020052016Tanjung Kemuning12 Agustus 1997Laki-laki78-Manajemen Haji dan Umroh20-01-20233,566 tahun, 2 bulan
1611170004RAHMADI JUNIO HADI MISROJl. Mutiara No.61087797767438rahmadijunio.sama@gmail.com2016Bengkulu29 September 1997Laki-laki78-Manajemen Haji dan Umroh10-09-20203,803 tahun, 10 bulan
1611170088SUYUDI RAHMANjl.raden patah,085758076343intanlestari385@yahoo.com2016bengkulu15 Februari 1997Laki-laki78-Manajemen Haji dan Umroh02-09-20213,355 tahun, 0 bulan
1611170141FAUZAN HALALANJL. S PARMAN 16 RT 07 RW 02089683493428fauzanh669@gmail.com,halalanfauzan@yahoo.co.id2016BENGKULU15 Mei 1998Laki-laki78-Manajemen Haji dan Umroh27-02-20233,516 tahun, 6 bulan
1611170159AKBAR PUTRA JAYAJl. Basuki rahmat0896686473912Akbarpj14@gmail.com2016Bengkulu14 Agustus 1998Laki-laki78-Manajemen Haji dan Umroh18-07-20223,465 tahun, 10 bulan
1516130003AGUNG PRASETYAprum .senabung.kandang mas.simpang kandis08986489518fransiskha.martha@yahoo.co.id2015pagar dewa .bengkulu23 September 1995Laki-laki39-Ekonomi Syari'ah02-02-20223,336 tahun, 7 bulan
1516130004MUNTIA GUSTIKA RATUJln Enggano No 28 Rt 1 Rw 1 Kampung Bali
KOTA BENGKULU
085381291589muntia.gustika07@gmail.com2015Bengkulu05 Desember 1997Perempuan39-Ekonomi Syari'ah12-03-20203,464 tahun, 8 bulan
1516130005FIKRIATUN NIKMAHDs.mekar jadi Rt.011 Rw.004 kec.sungai lilin kab.musi banyuasin Palembang085352580141fikriatun_nikmah@yahoo.co.id2015Linggosari Muba20 April 1997Perempuan39-Ekonomi Syari'ah12-03-20203,584 tahun, 8 bulan
1516130006MEKO HERNANDODesa kembang manis081539881016meko97hernando@gmail.com2015Talang Ulu (Lebong)31 Mei 1995Laki-laki39-Ekonomi Syari'ah29-08-20193,124 tahun, 2 bulan
1516130007RUDIANTO SAPUTRAJl RE Martadinata089639071995RUDIANTOSAPUTRA81@GMAIL.COM,rudianto956@gmail. Com2015Bengkulu26 Juni 1996Laki-laki39-Ekonomi Syari'ah22-02-20193,843 tahun, 8 bulan
1516130008AL FADILLA DARMA NASRIJln. Samsul Bahrun, Gang Damai 2, Kr. Anyar 1, Arga Makmur, Bengkulu Utara085377765921fadilla.05nasril@gmail.com2015Pasar Purwodadi05 Januari 1997Perempuan39-Ekonomi Syari'ah12-03-20203,524 tahun, 8 bulan
1516130010YOLANDARIBintuhan. Jl. Kepala Pasar.082373269552yolan1296@gmail.com2015Bintuhan31 Mei 1995Perempuan39-Ekonomi Syari'ah21-07-20203,565 tahun, 1 bulan
1516130011SELI OKTALIAJl. Terminal Regional Gg. Serawai085838699326seli_oktalia@yahoo.com2015Bengkulu26 Oktober 1996Perempuan39-Ekonomi Syari'ah28-07-20223,457 tahun, 1 bulan
1516130012ARESE JULIKAJl. Telaga Dewa 06 Rt 14 Rw 03 No.82085384546760Arisejulika30@gmail.com,Aresejulika18@gmail.com,Arisejulika43@gmail.com2015Peraduan Binjai15 Februari 1994Perempuan39-Ekonomi Syari'ah15-02-20213,405 tahun, 7 bulan
1516130013IMA SAFITRIDesa Sidodadi085669247016anhiatuh@yahoo.com2015Sidodadi12 Agustus 1997Perempuan39-Ekonomi Syari'ah14-02-20203,194 tahun, 7 bulan
1516130015DIAN MAYA FUSTIKAJl. Transmigrasi Desa Sido Luhur Dusun 1082377703239mayafustika@gmail.com2015Curup25 September 1996Perempuan39-Ekonomi Syari'ah12-03-20203,604 tahun, 8 bulan
1516130016MIRNAWATIDesa Pondok Kubang085664934840mirnawati04@gmail.com2015Pondok Kubang04 Juni 1997Perempuan39-Ekonomi Syari'ah12-03-20203,604 tahun, 8 bulan
1516130017NUR KHASANAHDesa Sukarami085783899059Fhieznhur.c.ctia@ymail.com2015Kayu Kunyit30 Agustus 1996Perempuan39-Ekonomi Syari'ah12-03-20203,384 tahun, 8 bulan
1516130018NURDIANA ASTUTIDesa Suka Sari081539294259nurdianaastuti@yahoo.co.id2015Sukasari05 April 1997Perempuan39-Ekonomi Syari'ah12-09-20193,464 tahun, 2 bulan
1516130019UMI WAHIDDATUR ROHMATIN FITRIADesa Kungkai Baru085758316908rohmatinfitria.7@gmail.com2015Sukasari09 Februari 1983Perempuan39-Ekonomi Syari'ah19-07-20193,614 tahun, 0 bulan
1516130020IRFAN ALFARIZIjl. lintas sumatera kec.muara rupit Kelurahan Muara Rupit kab.musi rawas utara085809704202irfanalfarizi02@gmail.com2015Muara Rupit27 Agustus 1997Laki-laki39-Ekonomi Syari'ah12-09-20193,404 tahun, 2 bulan
1516130021ABDUL MANAF NASUTIONJl. Kuala Alam No.73A, RT/RW : 10/04082182918407a.manafkhan@yahoo.com, manafabdul825@gmail.com2015Bengkulu05 Juli 1996Laki-laki39-Ekonomi Syari'ah10-09-20203,175 tahun, 2 bulan
1516130022LIZA YULISTIA ANGGRAINIJl. Cempaka I No.67A RT 04 RW 02 Kota Bengkulu081379266645Liza.yulistia@yahoo.com2015Bengkulu29 Juli 1997Perempuan39-Ekonomi Syari'ah28-07-20223,307 tahun, 1 bulan
1516130024SUPRILIA MARCIAJl. Letkol. Santoso No. 44089661182970supriliamarcia@yahoo.co.id2015Bengkulu12 April 1997Perempuan39-Ekonomi Syari'ah12-03-20203,604 tahun, 8 bulan
1516130025RATIH ANGGRIANIDesa Sukaraja081919491849ratihanggriani9@gmail.com2015Sukaraja05 Desember 1997Perempuan39-Ekonomi Syari'ah12-03-20203,644 tahun, 8 bulan
1516130027ARIANTO PRANATAImigrasi Permu089510726431arihe@email.com2015Kepahiang28 Februari 1995Laki-laki39-Ekonomi Syari'ah14-01-20213,175 tahun, 6 bulan
1516130028ENDIN FRITZGARDO PURNA ARWENDYAJl RE Martadinata No 11089669879844FRITZGARDO69@GMAIL.COM2015Bengkulu05 September 1996Laki-laki39-Ekonomi Syari'ah10-09-20203,145 tahun, 2 bulan
1516130029NADA SYAZA SHALEHAHJl. Merpati II No.14085273826692nadasyaza99@yahoo.co.id2015Bengkulu21 Desember 1997Perempuan39-Ekonomi Syari'ah12-09-20193,774 tahun, 2 bulan
1516130030DELA SAPUTRIPenandingan085669906079dela16dsmed@gmail.com2015Penandingan16 Juni 1997Perempuan39-Ekonomi Syari'ah12-03-20203,534 tahun, 8 bulan
1516130031MITAKHUL FALAJl Nangka Lintas No 36087898045683mitakhulfala@ymail.com2015Lubuk Linggau11 Desember 1997Perempuan39-Ekonomi Syari'ah12-07-20193,754 tahun, 0 bulan
1516130032NANDA ALFIAN SINURATJl Sulawesi08974181173nandaalfian70@gmail.com2015Bengkulu11 Desember 1997Laki-laki39-Ekonomi Syari'ah12-07-20193,444 tahun, 0 bulan
1516130033KURNIA SARIds. Air Merah
kec. malin deman
kab. muko-muko
prof. bengkulu
082307368106kurniasari@gmail.com2015Talang Arah08 September 1996Perempuan39-Ekonomi Syari'ah12-03-20203,294 tahun, 8 bulan
1516130034PITRYA INDRIANI LUBISJl. RE. Marta Dinata 06 No.36085766630624pitryaindriani06@gmail.com2015Bengkulu06 Juni 1996Perempuan39-Ekonomi Syari'ah12-09-20193,644 tahun, 2 bulan
1516130035RAHMA OKTAVIAJl. Cimanuk089670648509rahmaimucz@yahoo.com2015BENGKULU07 Desember 1995Perempuan39-Ekonomi Syari'ah12-03-20203,194 tahun, 8 bulan
1516130036AGUNG WIBOWOjl. telaga dewa 10 rt.14 rw. 03 no.66085268279341wibowoagung846@gmail.com2015bengkulu15 Maret 1992Laki-laki39-Ekonomi Syari'ah03-09-20213,486 tahun, 0 bulan
1516130038YULITA EKA PUTRIJl. RE Martadinata II Pagar dewa085789155576putriyulita15@gmail.com2015bengkulu28 Desember 1996Perempuan39-Ekonomi Syari'ah12-03-20203,464 tahun, 7 bulan
1516130040WAHYU FATKHUROHIMdusun sumber sari kel.sumber makmur.kab musirawas utara085384496985weahyuerohim@yahoo.co.id2015Sumber Makmur22 November 1996Laki-laki39-Ekonomi Syari'ah12-03-20203,284 tahun, 7 bulan
1516130041ULFAH DANIAH ASTARIjl. meranti 4 .no.42. rt 12. rw 003 sawah lebar baru, kota bengkulu089620930235ulfahastaridania@gmail.com2015bengkulu15 Februari 1994Perempuan39-Ekonomi Syari'ah15-02-20213,265 tahun, 6 bulan
1516130042SUMANTIjalan karang tinggi-pelajau082186831375ssumanti96@yahoo.co.id, Sumanti342@gmail.com2015RENA LEBAR01 Januari 1996Perempuan39-Ekonomi Syari'ah12-03-20203,324 tahun, 7 bulan
1516130043SHINTA AYUNING TYASLUBUK GILANG082306447500Shintaayuningtyas54@gmail.com2015Talang Alai11 Desember 1997Perempuan39-Ekonomi Syari'ah12-07-20193,643 tahun, 11 bulan
1516130045ROSA LINDAHibrida Ujung, Gg. Tirta Dewa 3 RT 11, RW 02082281535656rosalindazy1@gmail.com2015TANJUNG ALAI23 Maret 1996Perempuan39-Ekonomi Syari'ah12-03-20203,214 tahun, 7 bulan
1516130046ROMI MARYADIJl kuala lempuing085669246997ROMIMARYADI13@GMAIL.COM2015BENGKULU22 Oktober 1996Laki-laki39-Ekonomi Syari'ah28-01-20223,446 tahun, 5 bulan
1516130047NURRIYANI SYAFITRIBP 1, Kecamatan Sukaraja Kabupaten Seluma081539261070nurriyanisyafitri@yahoo.com2015kebumen11 Desember 1997Perempuan39-Ekonomi Syari'ah12-07-20193,643 tahun, 11 bulan
1516130048NOVITA SARIPADANG LEBAN081539232089Novitasariii4483@gmail.com2015TANJUNG BULAN16 September 1996Perempuan39-Ekonomi Syari'ah21-07-20213,115 tahun, 11 bulan
1516130049NIA ADENIAJL.GARUDA NO 63 RT.5 KEL.KAYUARAH KEC.LUBUKLINGGAU BARAT 1089688364459niaadenia21@gmail.com2015lubuklinggau20 Agustus 1996Perempuan39-Ekonomi Syari'ah11-03-20193,353 tahun, 6 bulan
1516130050NEMI ELISASukananti082183247847nemielisa8@gmail.com2015sukananti28 September 1997Perempuan39-Ekonomi Syari'ah15-02-20213,505 tahun, 6 bulan
1516130051MUHAMMAD HAFIZONDusun Kerbang Tinggi Pekon Bangun Negara, Kecamatan Pesisir Selatan, Kabupaten Pesisir Barat, Provinsi Lampung082281133606muhammadhafizon08@gmail.com2015Kerbang Tinggi11 Desember 1997Laki-laki39-Ekonomi Syari'ah12-07-20193,513 tahun, 11 bulan
1516130052MUHAMAD RAMADANJl. flamboyan 16, RT 16, RW 05, NO 05 skip kota Bengkulu089622716132Muhamadramadan551@gmail.com2015BENGKULU11 Desember 1997Laki-laki39-Ekonomi Syari'ah12-07-20193,643 tahun, 11 bulan
1516130053MILA SUPIA LATIFAJL. RADEN PATTAH 17, PAGAR DEWA. BENGKULU081539398199milasupialatifa@gmail.com2015PADANG GUCI26 Januari 1997Perempuan39-Ekonomi Syari'ah12-03-20203,704 tahun, 7 bulan
1516130055MELDA PUSPITA SARIJL. PAKUAN RATU DESA HANAKAU JAYA KEC. SUNGKAI UTARA KAB. LAMPUNG UTARA PROP. LAMPUNG085368308540MELDAPUSPITASARI554@YAHOO.CO.ID, meldapuspitasari02@gmail.com2015Negara Ratu13 Agustus 1996Perempuan39-Ekonomi Syari'ah12-03-20203,294 tahun, 7 bulan
1516130056MEJI ERMA HARYANTIPagar Dewa082282884675mejierma@ymail.com2015Gelombang30 Mei 1995Perempuan39-Ekonomi Syari'ah12-03-20203,204 tahun, 7 bulan
1516130057MARDIAHAir rami082364344296mardiahsiregar26@gmail.com2015lubuk sanai25 Juni 1997Perempuan39-Ekonomi Syari'ah12-09-20193,464 tahun, 1 bulan
1516130058INGGIT DWI FELLAYATIdesa selolong kecamatan batiknau bengkulu utara082281933379inggitdwifela@gmail.com2015IPUH05 Juli 1995Perempuan39-Ekonomi Syari'ah10-11-20203,185 tahun, 2 bulan
1516130060HELDA NOVRIANTIJL. HALMAHERA NO. 17 RT 07 RW 04 KEL. SURABAYA KEC. SUNGAI SERUT KOTA BENGKULU081219038949novriantyhelda@gmail.com2015bengkulu23 November 1996Perempuan39-Ekonomi Syari'ah10-09-20203,415 tahun, 0 bulan
1516130061FITRI HANDAYANIJL. KUALA LEMPUING RT.09 RW.02 KOTA BENGKULU082376126705fitri.handayani1302@gmail.com2015Bengkulu13 Februari 1997Perempuan39-Ekonomi Syari'ah22-02-20193,603 tahun, 6 bulan
1516130063FITRIA HANDYANIBP 1 Kec.Sukaraja Kab.Seluma085769036285fitriacimut339@yahoo.com2015BP 114 April 1997Perempuan39-Ekonomi Syari'ah12-03-20203,454 tahun, 7 bulan
1516130064FERI LIOjalan gerak alam082186408613abanxlio@gmail.com2015tanjung bunian 12,januari199715 Februari 1994Laki-laki39-Ekonomi Syari'ah15-02-20213,195 tahun, 6 bulan
1516130065FEDRA HERMAWANdesa durian sebatang081379541420fedrahermawan46se@gmain.con2015TANGERANG21 September 1997Laki-laki39-Ekonomi Syari'ah12-03-20203,144 tahun, 7 bulan
1516130067ENI SULISTYO NINGSIHJLN NATADIRJA 10082376074315Enisulistyoningsih933@gmail.com2015LUBUK MUKTI26 September 1995Perempuan39-Ekonomi Syari'ah12-03-20203,164 tahun, 7 bulan
1516130070DEDEN MARWANTOHIBRIDA 15082371901499deden19021997@gmail.com2015pematang riding19 Februari 1997Laki-laki39-Ekonomi Syari'ah12-08-20213,446 tahun, 0 bulan
1516130071AZMI HASRIANdesa tunggang085609106686azmihasrian@gmail.com2015tunggang05 Juli 1995Laki-laki39-Ekonomi Syari'ah10-11-20203,625 tahun, 2 bulan
1516130072ANGGI MUH. FAUZANPALAK SIRING082186186661anggifauzanbkl@gmail.com, anggi.oneforall@gmail.com2015PALAK SIRING14 Oktober 1997Laki-laki39-Ekonomi Syari'ah12-03-20203,424 tahun, 7 bulan
1516130073ADE FENI MAILANTIPagar Dewa085839033376Adefeni@yahoo.com2015Bengkulu01 Mei 1997Perempuan39-Ekonomi Syari'ah17-02-20223,246 tahun, 6 bulan
1516130074ABDUL ROHMAN WAHIDDESA PADANG PELAWI081539331485rohmanrohelstha_love@yahoo.co.id2015desa.padang pelawi21 Februari 1997Laki-laki39-Ekonomi Syari'ah10-09-20203,235 tahun, 0 bulan
1516130075ZELMI HARTINIBabatan085357790817zelmi.hartini88@gmail.com2015Babatan24 Agustus 1996Perempuan39-Ekonomi Syari'ah12-03-20203,464 tahun, 7 bulan
1516130076YUMI ANGGRAINIBABATAN085766963035yumianggraini16@gmail.com2015Babatan21 Maret 1995Perempuan39-Ekonomi Syari'ah12-03-20203,174 tahun, 7 bulan
1516130077YELLI TRIANDASARIgang jeruk 6 blok 5 no 7808154196497yellitrianda@yahoo.com2015bengkulu04 Juli 1997Perempuan39-Ekonomi Syari'ah27-08-20193,544 tahun, 0 bulan
1516130078VINA APRILIA WULANDARIJL. Hibrida 2 No.1108992227852vinaapriliawulandari@gmail.com2015Negeri Kaya19 April 1997Perempuan39-Ekonomi Syari'ah12-03-20203,524 tahun, 7 bulan
1516130079SUSILAWATIKEPAHYANG085832905136susi7501@gmail.com2015kepahyang18 Desember 1995Perempuan39-Ekonomi Syari'ah08-08-20193,353 tahun, 11 bulan
1516130080SUPRIADIJL. IRIAN RT 01 RW01 NO 07 KELURAHAN TANJUNG JAYA089515023632adi6937@gmail.com2015bengkulu13 Juli 2015Laki-laki39-Ekonomi Syari'ah12-03-20203,554 tahun, 7 bulan
1516130081SHELLA PUTRIDusun III RT 002 RW 005 Desa Arga Mulya kecamatan Padang Jaya082186611039shellaputri91@gmail.com2015Lampung09 Agustus 1997Perempuan39-Ekonomi Syari'ah12-03-20203,694 tahun, 7 bulan
1516130082RIA SUSANTIDesa Air rami. kec, Air rami. kab, Mukomuko085383626344putrisulung@yahoo.com2015muko muko11 Juli 1996Perempuan39-Ekonomi Syari'ah12-03-20203,364 tahun, 7 bulan
1516130083MELTESA RAPITAPagar Dewa085839161006meltesarapita@gmail.com2015Air kemang20 Juni 1007Perempuan39-Ekonomi Syari'ah29-08-20193,624 tahun, 0 bulan
1516130084MELPI NOVITA SARIgang harapan0895640166882Melvia97@hotmail.com2015bengkulu23 Mei 2015Perempuan39-Ekonomi Syari'ah12-03-20203,364 tahun, 7 bulan
1516130085MEI SRI RAHAYUDesa Air rami, Kec. Air rami. Kab, mukomuko081367755546putrisulung@yahoo.com2015Air Rami05 Mei 1997Perempuan39-Ekonomi Syari'ah12-03-20203,304 tahun, 7 bulan
1516130086LEARN RAE PATTINAYApelajaran085383244450learnraepatinaya22@gmail.com2015pelajaran10 Juli 1998Laki-laki39-Ekonomi Syari'ah12-03-20203,214 tahun, 7 bulan
1516130089FARIZY ASJARAJalan merawan no 25089633092560farizy.asjara@yahoo.co.id2015BENGKULU23 Agustus 1997Laki-laki39-Ekonomi Syari'ah19-02-20223,046 tahun, 6 bulan
1516130090ENI DARMIATIJL. LINTAS SUMATERA081279783637enidarmiati@gmail.com2015KEBUMEN08 Mei 1998Perempuan39-Ekonomi Syari'ah06-12-20193,374 tahun, 3 bulan
1516130091ELVI SUKAISIDS,BABATAN0000000000Elvi95@yahoo.com2015muluk ulu03 Mei 1995Laki-laki39-Ekonomi Syari'ah28-07-20212,975 tahun, 11 bulan
1516130093ALVEIONITA HARLYTASARIJL. AIR MANNA 4 PRUMNAS GRIYA BETUNGAN ASRI082307382637alveionita@gmail.com2015BENGKULU07 Januari 1997Perempuan39-Ekonomi Syari'ah12-03-20203,494 tahun, 7 bulan
1516130095AHMAD FAUZANJL.LINTAS BARAT PEKON CAHAYA NEGERI KEC.LEMONG KAB.PESISIR BARAT LAMPUNG082374878745ahmadfauzanpc@gmail.com2015Cahaya Negeri20 Januari 1997Laki-laki39-Ekonomi Syari'ah12-03-20203,434 tahun, 7 bulan
1516130096YESSI ANISA FITRIJL.ADAM MALIK KM.09 DEPAN POLDA082377410847yessianisafitri@yahoo.com2015TANJUNG ENIM30 Maret 1997Perempuan39-Ekonomi Syari'ah12-03-20203,494 tahun, 7 bulan
1516130097WINDA SEPTIANAGUNUNG AYU081539249134SEPTI.WINDA.142@FACEBOOK.C0M2015MANNA17 September 1996Perempuan39-Ekonomi Syari'ah10-09-20203,015 tahun, 0 bulan
1516130098TENTI ANDRIYANItalang jambu082306875651tenti.andriyani@yahoo.com2015talang jambu06 April 1996Perempuan39-Ekonomi Syari'ah12-03-20203,424 tahun, 7 bulan
1516130099SUGISTI ERLINDADesa Talang Kabu Kec. Ilir Talo Kab. Seluma Prov. Bengkulu0856698032821@12015Talang Kabu05 Maret 1997Perempuan39-Ekonomi Syari'ah12-03-20203,054 tahun, 7 bulan
1516130102SHAFA BIMA FRANDIKAPagaralam085767108611bima00842@gmail.com2015PAGARALAM19 Mei 1993Laki-laki39-Ekonomi Syari'ah10-09-20202,975 tahun, 0 bulan
1516130103SEPRIADI MULYA RIZKIJL.IRIAN , KEL.SEMARANG BENGKULU081379842536sepriadi809@gmail.com2015BENGKULU28 Februari 1995Laki-laki39-Ekonomi Syari'ah14-01-20213,215 tahun, 5 bulan
1516130104SELA DIAN SARIJln. Al muhajirin 4a no 29 gang salak 10 lingkar timur bkl085758721323shelladiansari@yahoo.com2015sapapanjang09 Februari 1983Perempuan39-Ekonomi Syari'ah19-07-20193,353 tahun, 11 bulan
1516130106REZALDI OVAN SATRIAdesa suka nanti081540819917rezaldi@email.com2015lahat21 Agustus 1998Laki-laki39-Ekonomi Syari'ah12-03-20203,004 tahun, 7 bulan
1516130108REDA DEBIYANTINADS.PASAR BARU081532296928Redadebiantina@yahoo.co.id2015PASAR IPUH09 Januari 1997Perempuan39-Ekonomi Syari'ah23-08-20193,264 tahun, 0 bulan
1516130109RACHMAD PIRNADIBandar Ratu081355792872rahmad.pirnadi@gmail.com2015MEDAN15 Februari 1994Laki-laki39-Ekonomi Syari'ah15-02-20213,095 tahun, 6 bulan
1516130110PENTI MARSELAKeban Jati
Kecamatan,Air Nipis
Kabupaten, Bengkulu Selatan
Provinsi, Bengkulu
085273298647pentimarsela98@yahoo.com2015kebanjati18 Desember 1995Perempuan39-Ekonomi Syari'ah08-08-20193,423 tahun, 11 bulan
1516130111NOVI SRY WAHYUNISIMPANG TIGA081367095248Novi.zgirl@facebook.com2015Simpang Tiga06 November 1997Perempuan39-Ekonomi Syari'ah12-09-20193,754 tahun, 1 bulan
1516130112NOPITA SARIDesa Simpang Tiga Pagar Gasing082310249709NovitaSariJ.insyah@yahoo.id2015Pagar Gasing23 November 1995Perempuan39-Ekonomi Syari'ah12-03-20203,634 tahun, 7 bulan
1516130113NINGRUM LARASITAKel. Napal Kec Seluma kota Kab. Seluma082281762325ningrumlarsita@gmail.com2015Kelurahan Napal12 November 2015Perempuan39-Ekonomi Syari'ah10-09-20203,545 tahun, 0 bulan
1516130114MUHAMMAD IBRAHIMDs tumbuan085609399521maulpunyaemail12@yahoo.co.id2015tumbuan28 Februari 1995Laki-laki39-Ekonomi Syari'ah14-01-20212,975 tahun, 5 bulan
1516130116LENI SAHFITRItelaga dewa 5085609608058lenisahfitri123456@gmail.com2015perbo04 Oktober 1995Perempuan39-Ekonomi Syari'ah12-03-20203,414 tahun, 7 bulan
1516130117INDRI FITRIANINapal Jungur Kec. Lubuk Sandi Kab. Seluma085664727020indrifitriani09@gmail.com2015,Napal jungur,09 Agustus 199709 Agustus 1997Perempuan39-Ekonomi Syari'ah12-03-20203,394 tahun, 7 bulan
1516130118HOKI INTI SARIRANTAU PANJANG085273273208hoki.p.cinta@facebook.com2015rantau panjang27 Agustus 2000Laki-laki39-Ekonomi Syari'ah27-07-20222,836 tahun, 11 bulan
1516130119HENDRO SAPUTRA UTAMAJln telaga dewa 10085279322541hendrosaputrautama@gmail.com2015Kepahiang02 Agustus 1995Laki-laki39-Ekonomi Syari'ah03-09-20212,946 tahun, 0 bulan
1516130120GITA RARASATIJLN MANGGIS 5082184064102Gitararasati668@yahoo.com2015BENGKULU25 Agustus 1997Perempuan39-Ekonomi Syari'ah12-03-20203,524 tahun, 7 bulan
1516130122FAHMI HADIANSYAHLUBUK SAHUNG KEC.SUKARAJA KAB.SELUMA081246750987buluxsgodek@yahoo.com2015LUBUK SAHUNG12 Agustus 1997Laki-laki39-Ekonomi Syari'ah24-01-20232,537 tahun, 5 bulan
1516130123D. SABNI HARTATODesa Air Buluh, Kec, Ipuh kab. MukoMuko.Provinsi Bengkulu085268921450Safnibaye@gmail.com2015Air Buluh14 Agustus 1998Laki-laki39-Ekonomi Syari'ah13-08-20213,476 tahun, 0 bulan
1516130125ARIF RAHMANJl. Kalimantan Gang Merpati 04 Rt.05 Rw.02 No.18 kel. Rawa Makmur Kec. Muara Bangkahlu Kota. Bengkulu Prov.Bengkulu081395323834rahmanarief748@gmail.com2015BENGKULU26 Agustus 1997Laki-laki39-Ekonomi Syari'ah19-02-20223,426 tahun, 6 bulan
1516130126ANDRI SUCIPTOUJUNG PADANG085766964869andrisucipto@facebook.com2015PEMATANG BATU26 September 1997Laki-laki39-Ekonomi Syari'ah16-02-20222,886 tahun, 6 bulan
1516130127YORMAN HERAWANair keruh082363319781yormanher123@gmail.com2015air keruh05 Juli 1995Laki-laki39-Ekonomi Syari'ah10-11-20202,995 tahun, 2 bulan
1516130128WINDA PURNAMA SARIJALAN TELAGA DEWA 6085381657729sari.kedurang@gmail.com2015Kedurang25 Januari 1995Perempuan39-Ekonomi Syari'ah12-09-20193,384 tahun, 0 bulan
1516130129SINTA DANIA SARIDesa Padang Baru085766982832Sintadaniasari@gmail.com2015Padang Baru25 Juni 1996Perempuan39-Ekonomi Syari'ah07-01-20223,276 tahun, 4 bulan
1516130130SHERLY WULANDARIpadang peri081278464779sherlywulan33@yahoo.co.id2015BENGKULU27 Agustus 1997Perempuan39-Ekonomi Syari'ah03-09-20213,126 tahun, 0 bulan
1516130132RACHMAD RIZKI D Ijl.kenanga 9081369930838rrdi1312@gmail.com2015bengkulu13 Desember 1997Laki-laki39-Ekonomi Syari'ah29-01-20213,195 tahun, 5 bulan
1516130134NUR ASMA ILLAHIDs.Muara Siban081377793889nurasmailahi@gmail.com2015Palembang15 Desember 1997Perempuan39-Ekonomi Syari'ah12-03-20203,194 tahun, 6 bulan
1516130135NOVITA SARIMandiri 1081539332081novi14111996@yahoo.com201514-11-199614 November 1996Perempuan39-Ekonomi Syari'ah25-01-20233,197 tahun, 5 bulan
1516130136NOVI APRIANTIDesaTangga Batu0852180938163Noviaprianti@yahoo.com2015Tangga Batu30 Januari 1997Perempuan39-Ekonomi Syari'ah12-03-20203,214 tahun, 6 bulan
1516130137MUTHOHAROH PUTRI ALIZAHDesa Tawang Rejo087894624274Aliyzalikha@yahoo.co.id2015sukasari07 April 1997Perempuan39-Ekonomi Syari'ah12-03-20203,274 tahun, 6 bulan
1516130139MENTARIJln.hibrida 13082277911063taryhearttoheart@yahoo.co.id2015TAKENGON12 Juni 1996Perempuan39-Ekonomi Syari'ah12-03-20203,244 tahun, 6 bulan
1516130140LUSI FITRIA NENGSIGembung Raya Bengkulu Utara081367157244Lusyfitria_aprando@yahoo.com2015Penindaian20 Maret 1996Perempuan39-Ekonomi Syari'ah12-03-20203,184 tahun, 6 bulan
1516130143FINACIA MARDA SERAWATIJl. Raya Betungan - Air Sebakul RT 23 RW 04081366146618finaciamarda@gmail.com2015KEDIRI06 Maret 1996Perempuan39-Ekonomi Syari'ah12-09-20193,684 tahun, 0 bulan
1516130146EMILYA AGUSTINAlubuk linggau085268355512agustinaemilya@gmail.com2015Noman18 Desember 1995Perempuan39-Ekonomi Syari'ah08-08-20193,673 tahun, 11 bulan
1516130147DIANA SEPTIANAKayu Elang081273871615DIANA@GMAIL.COM2015kayu elang13 September 1997Perempuan39-Ekonomi Syari'ah12-03-20203,164 tahun, 6 bulan
1516130149ARIEQ ADITYA MUSYADII. SUKOMULYO085840336374arieqkaditya.cwoqcueqk@facebook.com2015yogyakarta02 Februari 1998Laki-laki39-Ekonomi Syari'ah10-09-20203,055 tahun, 0 bulan
1516130151ADE REZITA SURYANIDESA CAHAYA NEGERI KECAMATAN SUKARAJA KABUPATEN SELUMA085788777398aderezita225@gmail.com2015padang pelawi27 Oktober 1993Perempuan39-Ekonomi Syari'ah3,317 tahun, 9 bulan
1516130153YUNI SUWASTIjln hibrida ujun 108988486336yunisuwasti@gmail.com2015bengkulu07 Juni 1996Perempuan39-Ekonomi Syari'ah12-03-20203,244 tahun, 6 bulan
1516130154YOGI DEWANTARASIMPANG TIGA085758687278YOGI.@DEWANTARA.AC.ID2015PADANG GUCI06 Desember 1996Laki-laki39-Ekonomi Syari'ah10-09-20202,935 tahun, 0 bulan
1516130155YETI OCTAVIAJl. Sumur Dewa Hibrida 13, Perumahan Griya Hibrida Asri, Blok B, No:7081279386559yetioctavia96@yahoo.com2015Argamakmur31 Oktober 1996Perempuan39-Ekonomi Syari'ah12-03-20203,284 tahun, 6 bulan
1516130156WIDIA APRIANADESA KARYA MULYA085664987802widia_apriana@yahoo.co.id2015tunggang10 April 1996Perempuan39-Ekonomi Syari'ah12-03-20203,454 tahun, 6 bulan
1516130157TRIAWAN WAIS ALKORNISuka Bulan Kec. Talo Kecil Kab. Seluma085208570654wendyowen21@yahoo.com2015Suka Bulan30 Agustus 1997Laki-laki39-Ekonomi Syari'ah25-01-20233,237 tahun, 5 bulan
1516130160SELPI EFRIANTO SAPUTRAPANDAN085208527578selpiefrianto@gmail.com2015Pandan09 April 1997Laki-laki39-Ekonomi Syari'ah25-01-20233,247 tahun, 5 bulan
1516130162PERDIAN NEPER WAHIDJL.PANCUR MAS081367098640PERDIAN_NW@YAHOO.COM2015BENGKULU27 April 1997Laki-laki39-Ekonomi Syari'ah10-09-20203,255 tahun, 0 bulan
1516130165MURLIA DWI HASTAMIJL.RADEN FATAH AIR SEBAKUL089505356386murliadwi@yahoo.com2015BEKASI14 Agustus 1996Perempuan39-Ekonomi Syari'ah22-02-20193,783 tahun, 5 bulan
1516130168LEONARDO MUSLIANJL. CIMANUK NO 73 E BKL089653657686leonardomuslian@yahoo.com2015BENGKULU13 April 1997Laki-laki39-Ekonomi Syari'ah12-03-20203,294 tahun, 6 bulan
1516130169IIS KARPILAkertasaari082176820495iiskarpila@gmail.com2015kertasari29 Agustus 1992Perempuan39-Ekonomi Syari'ah12-03-20203,284 tahun, 6 bulan
1516130171FARLLY MARIZENLawang Agung085609035361farlydebel.yahho@.com2015Lawang Agung24 Oktober 1997Laki-laki39-Ekonomi Syari'ah13-08-20212,805 tahun, 11 bulan
1516130173ANDI MUSTAHRINALPONDOK KUBANG085896181312andimustahrinal06@gmail.com2015pondok kubang09 Februari 1983Laki-laki39-Ekonomi Syari'ah19-07-20193,733 tahun, 10 bulan
1516130175AHMAD RIFAI LUBISjalan citarum3 belakang balai buntar no:1A kota bengkulu081366330290ahmadlubis14@rocketmail.com2015bengkulu12 Oktober 1996Laki-laki39-Ekonomi Syari'ah12-03-20203,484 tahun, 6 bulan
1516130179YUNI KRISTIANADesa Lubuk Ladung082280292397yunikristiana73@yahoo.com2015Padang Bindu04 Juni 1997Perempuan39-Ekonomi Syari'ah12-03-20203,394 tahun, 6 bulan
1516130180WAHYU ARI PRASETYO BUDIDESA HARAPAN MAKMUR KEC PONDOK KUBANG BENGKULU TENGAH085832914742Wahyuaritrax02@gmail.com2015SUGIH WARAS09 Januari 1997Laki-laki39-Ekonomi Syari'ah23-08-20193,383 tahun, 11 bulan
1516130182RHOMIO ALAMZAHJl.Hibrida Ujung,Kota Bengkulu081539290406rhomioalamzah@gmail.com2015selali30 Agustus 1997Laki-laki39-Ekonomi Syari'ah12-03-20203,174 tahun, 6 bulan
1516130183SONY SETIAWANJl. Merawan 20089632150178Sony.yes17@gmail.com2015Bengkulu22 Agustus 1996Laki-laki39-Ekonomi Syari'ah12-03-20203,104 tahun, 6 bulan
1516130185NENO VEVI YANTIBetungan082371768693nenoveviyanti@yahoo.co.id2015Ulak Kemang22 Desember 1994Perempuan39-Ekonomi Syari'ah12-03-20203,474 tahun, 6 bulan
1516130186MAULANA MALIK IBRAHIMJln. belimbing no 12 prumnas lama argamakmur bengkulu utara082306550096maulanamlikibrahim1704@gmail.com2015KERKAP17 April 1997Laki-laki39-Ekonomi Syari'ah03-09-20213,196 tahun, 0 bulan
1516130187LIANDO PRATAMAhibridA 10082281377417liandopratama@yahoo.com2015kota baru17 Desember 1996Laki-laki39-Ekonomi Syari'ah12-03-20203,174 tahun, 6 bulan
1516130188LEWI PERNATI SARItalang alai081539262409Dexlewycayang@yhoo.com2015TALANG ALAI20 Agustus 1996Perempuan39-Ekonomi Syari'ah11-03-20193,133 tahun, 6 bulan
1516130189KINANTI AGUSELLAds. padang binjai kec.tetap kab. kaur085709167633kinantiagusela@yahoo.co.id2015sukaraja30 Agustus 1998Perempuan39-Ekonomi Syari'ah12-03-20203,314 tahun, 6 bulan
1516130192IKI AFRIZALLAZIJL. DHARMA WANITA085268697977afrizallrafly@gmail.com2015TINGGI ARI02 Juni 1969Laki-laki39-Ekonomi Syari'ah31-03-20223,366 tahun, 7 bulan
1516130194ANDIKA SAPUTRALubuk Durian081366341518andikasaputra1693@gmail.com2015Lubuk Durian16 September 1993Laki-laki39-Ekonomi Syari'ah12-03-20203,124 tahun, 6 bulan
1516130195AGUNG RAHMAD AKBARjln.KENANGA II LINTAS, rt.06, KEC.LUBUKLINGGAU UTARA II, KEL.SENALANG082279744059agungr024@gmail.com2015lubuklinggau22 Agustus 1997Laki-laki39-Ekonomi Syari'ah10-09-20203,205 tahun, 0 bulan
1516130197INTAN PERMATA SARIJL. HIBRIDA 2 NO 43085381999310Intanpermata0897@gmail.com2015BENGKULU18 Desember 1995Perempuan39-Ekonomi Syari'ah08-08-20193,383 tahun, 11 bulan
1516130237ANGGA MANDALA PUTRADusun VII Sungai Pinang082345058309Angga.speedshop16@gmail.com2015Paduraksa26 Agustus 1997Laki-laki39-Ekonomi Syari'ah12-03-20203,484 tahun, 6 bulan
1516130238LENI PURNAMA SARIjl. Pariwisata no. 8081373674316nutlps74@gmail.com2015lubuk mumpo18 Desember 1995Perempuan39-Ekonomi Syari'ah08-08-20193,723 tahun, 11 bulan
1516130239INGGRIANITimur Indah081278114234inggriani82@gmail.com2015Pagardin17 Juli 1997Perempuan39-Ekonomi Syari'ah12-03-20203,334 tahun, 6 bulan
1516130241ANJA PUTRANDAJl Amalia08985341689anja.putranda@yahoo.com,anjaputranda@gmail.com2015Bengkulu27 Juli 1997Laki-laki39-Ekonomi Syari'ah14-01-20213,035 tahun, 4 bulan
1516130243EMELDA HERAWATIkembang seri085896518277kikiwahyuni001@gmail.com2015Kembang Seri18 Desember 1995Perempuan39-Ekonomi Syari'ah08-08-20193,133 tahun, 11 bulan
1516130244AYU RIZKI AMANAHJl.Merapi No.860895617074792Ayurizki444@gmail.com2015Bengkulu12 November 1996Perempuan39-Ekonomi Syari'ah25-01-20233,697 tahun, 4 bulan
1516130246WIDIA KARTIKAJL.GUNUNG BUNGKUK085267354078WIDIAKARTIKA79@YAHOO.CO.ID2015BENGKULU14 Desember 1996Perempuan39-Ekonomi Syari'ah12-03-20203,194 tahun, 6 bulan
1516130247DESMALITASARIDesa Muara Jaya085664712008rhyza_danrie20@yahoo.co.id2015Transos Linau27 Desember 1997Perempuan39-Ekonomi Syari'ah12-03-20203,524 tahun, 6 bulan
1516130248LEZI PITRIANIAIR KELINGSAR085766961614LEZI085766961614@YAHOO.COM2015AIR KELINSAR09 Januari 1997Perempuan39-Ekonomi Syari'ah23-08-20193,093 tahun, 11 bulan
1516130249YESI PURNAMA SARIDESA SUKAMERINDU085789439007yesipurnamisari@yahoo.com2015sukamerindu18 Desember 1995Perempuan39-Ekonomi Syari'ah08-08-20193,503 tahun, 11 bulan
1516130250AGUNG SUGIANTOSELIKA081278320166Agungputrasuwito207@gmail.com2015selika20 Juli 1996Laki-laki39-Ekonomi Syari'ah2,847 tahun, 9 bulan
1516130251LITA OGI OLIVIAPerumahan bunga mas PT wong duo082378804019LITAOGI@YAHOO.COM2015Bengkulu12 November 1997Perempuan39-Ekonomi Syari'ah12-03-20203,164 tahun, 6 bulan
1516130252ERIK NOVIA SUSANTIDesa sidosari dusun swadaya, rt 006/rw 003 no.11085669553954eriknoviasusanti33@gmail.com2015Padang Pelawi08 November 1996Perempuan39-Ekonomi Syari'ah28-07-20223,356 tahun, 10 bulan
1516130254FINARTI ROZITA AFRIZADesa Talang Alai085219185336finarti783@gmail.com2015Bengkulu23 Februari 1997Perempuan39-Ekonomi Syari'ah12-03-20203,244 tahun, 6 bulan
1516130255NONI PURNAMA SARIDESA SUKARAMI KEC. TABA PENANJUNG KAB. BENGKULU TENGAH083173207679nonipurnamasari302@gmail.com2015Sukarami24 November 1996Laki-laki39-Ekonomi Syari'ah3,577 tahun, 9 bulan
1516130257NARTI OKTAVIADesa Benteng Harapan Kecamatan maje kabupaten kaur081632282867ferthya@yahoo.com2015Benteng Harapan27 Oktober 1997Perempuan39-Ekonomi Syari'ah12-03-20203,364 tahun, 6 bulan
1516130258JUARIAHJl. Bengkulu-Tais Desa Dermayu, RT 7081539856009jjuariah683@gmail.com2015Dermayu23 Desember 1996Perempuan39-Ekonomi Syari'ah3,637 tahun, 9 bulan
1516130259WIDYA ANGERA YUNITATelaga dewa 5081368452320angerayunita@gmail.com2015Talang Kabu30 Juni 1997Perempuan39-Ekonomi Syari'ah01-07-20223,186 tahun, 10 bulan
1516130260BUDI YANTODESA KEPAHYANG KEC.LUAS KAB.KAUR PROV.BENGKULU085838155497BY0124678@g.mail.com2015Kepahyang04 Juni 1997Laki-laki39-Ekonomi Syari'ah12-03-20203,394 tahun, 6 bulan
1516130261NORA GUSTIANIdesa jenggalu kec.sukaraja kab.seluma085758224023noraallays@yahoo.co.id2015desa jenggalu17 Agustus 1996Perempuan39-Ekonomi Syari'ah12-03-20203,544 tahun, 6 bulan
1516130262BAYU REZKYDs.Banu Ayu,Kec.Kikim Selatan,Kab.Lahat082186186661bayurizky1304@gmail.com2015Banu Ayu04 April 1995Laki-laki39-Ekonomi Syari'ah12-03-20203,244 tahun, 6 bulan
1516130263MARDIAN EPENDIDesa Karang Dapo Kec. Semidang Gumai085758421532mardian.effendy28@gmailñ.com2015Karang Dapo28 Mei 1995Laki-laki39-Ekonomi Syari'ah3,547 tahun, 9 bulan
1516130264ANGGUN PUTRI SARIdesa tanjung cermin No.45 Rt/Rw 015/008 kel. Nendagung kec. Pagaralam selatan085769912614anggunputri1202@gmail.com2015Tanjung cermin12 Februari 1998Perempuan39-Ekonomi Syari'ah3,647 tahun, 9 bulan
1516130265HELEN FITRIJalan poros desa suka maju085357919445helenfitri96@gmail.com2015SUKA MAJU28 Februari 1996Perempuan39-Ekonomi Syari'ah10-09-20203,495 tahun, 0 bulan
1516130269TRI UTAMIMargo Mulyo082227332164triu350@gmail.com2015Harapan Makmur27 September 1997Perempuan39-Ekonomi Syari'ah28-07-20223,206 tahun, 10 bulan
1516130270YESSI VINA WINATADesa sukarami, kec. taba penanjung kab. bengkulu tengah.085788105763yessi.vina@gmail.com2015sukarami28 Juli 1997Perempuan39-Ekonomi Syari'ah03-09-20213,366 tahun, 0 bulan
1516130274RAPITA SARIBetungan082178961316sarirapita69@gmail.com2015Curup16 Juni 1998Perempuan39-Ekonomi Syari'ah12-03-20203,104 tahun, 6 bulan
1516130296ELSI APRIANIJorong Tanjung 5181274628130ELSIAPRIANI@YAHOO.COM2015Batu Sanggkar16 April 1994Perempuan39-Ekonomi Syari'ah12-03-20203,194 tahun, 6 bulan
1516130298PARTIKO TRI BUDIAWANdesa tanjung alam081265771231partiko1205@gmail.com2015tanjung alam12 Mei 1997Laki-laki39-Ekonomi Syari'ah10-09-20203,105 tahun, 0 bulan
1516130299ERVITA KOMALASARITanjung Alam Kedurang081532516710ervita_komalasari@yahoo.com, ervitakomalasari19@gmail.com2015Kedurang11 Juli 1997Perempuan39-Ekonomi Syari'ah21-01-20223,156 tahun, 4 bulan
1516130303WIJI HASTUTIDesa Purbasari082289269339whastuti36@yahoo.com2015Sragen31 Oktober 1996Perempuan39-Ekonomi Syari'ah12-09-20193,504 tahun, 0 bulan
1516130305EDI SETIAWANDS. SUKASARI085764100502edisetiawan443z@gmail.com2015Balo Agung Pati22 April 1996Laki-laki39-Ekonomi Syari'ah12-09-20193,424 tahun, 1 bulan
1516130306FAHRUR ROZIDS.muara danau.Kec lintang Kanan Kab Empat Lawang prop.sumsel Indonesia082186002475fakhrurr26@gmail.com2015Muara danau09 Januari 1997Laki-laki39-Ekonomi Syari'ah23-08-20193,203 tahun, 11 bulan
1516140001NOLA SEPTIA SARIjln.terminal regional air sebakul kelurahan pekan sabtu. kec. selebar089667090445Nolaseptiasari719@gmail.com2015BENGKULU02 September 1996Perempuan40-Perbankan Syari'ah12-09-20193,754 tahun, 2 bulan
1516140002LISMI ARTIJl. Sumas Raya Gang Sepakat 5 Rt09 Rw08 No. 26085363306650Lismiarti14.la@gmail.com2015Bengkulu14 Maret 1997Perempuan40-Perbankan Syari'ah12-03-20203,574 tahun, 8 bulan
1516140003MERZA FAJRIANITALANG PADANG KEL. PADANG BINDU KEC. PASEMAH AIR KERUH081539329268Merzafadjriani33@gmail.com2015TALANG PADANG03 Maret 1997Perempuan40-Perbankan Syari'ah12-03-20203,154 tahun, 8 bulan
1516140004RAMADHAYANI PUTRIJl.Telaga Dewa x085357029483ramadhayanip@yahoo.co.id2015Jambi25 Juni 1997Perempuan40-Perbankan Syari'ah12-09-20193,724 tahun, 2 bulan
1516140005RAHMI OCTAVIANIJl Pesisir Desa Raja Basa089651563684rahmioctaviani18@gmail.com2015Kunjir18 Oktober 1997Perempuan40-Perbankan Syari'ah12-03-20203,614 tahun, 8 bulan
1516140006MACHFIRAH SRI AGUNGDesa Cahaya Negeri KEC.SUKARAJA085758066750FIRAMAHLANI@YAHOO.CO.ID2015Cahaya Negeri31 Agustus 1997Perempuan40-Perbankan Syari'ah12-09-20193,634 tahun, 2 bulan
1516140008VINA CHEFTALINADesa Batu Gane Musi Rawas081367786208vinacheftalina@yahoo.com2015Batu Gane25 Juni 1997Perempuan40-Perbankan Syari'ah12-09-20193,504 tahun, 2 bulan
1516140009ABDILAH RAHMADPT BPP Air Balam05379676505abdillahrahmad19@gmail.com2015Ujung Gading19 Februari 1997Laki-laki40-Perbankan Syari'ah12-03-20203,454 tahun, 8 bulan
1516140010MUTIARA PRISTI MIRANTIJl. Waringin Lintas No.17 Megang081996339041mutia.pristi@yahoo.com2015Lubuk Linggau24 Februari 1998Perempuan40-Perbankan Syari'ah12-09-20193,544 tahun, 2 bulan
1516140011SEPTI LESTARIJl Pancur Mas , rt01 rw01 no34089647533321SEPTILESTARI868@GMAIL.COM2015Bengkulu03 November 1996Perempuan40-Perbankan Syari'ah09-08-20213,506 tahun, 1 bulan
1516140012VIVI ESTY MAGFIROHPuri Mas 2 Blok F No. 24081903318784viviesty.m@gmail.com2015Cilacap27 September 1997Perempuan40-Perbankan Syari'ah12-09-20193,844 tahun, 2 bulan
1516140014NOVIA LATIFATUS SOLEHAJalan Raya Sumber Rejo085669350307novialatifa96@gmail.com2015Pal 3009 Januari 1997Perempuan40-Perbankan Syari'ah23-08-20193,294 tahun, 2 bulan
1516140015NENI ANGGRAINIJl Curup Lubuk Linggau085768794357nenianggraini100298@gmail.com2015Air Apo10 Februari 1998Perempuan40-Perbankan Syari'ah16-08-20193,584 tahun, 1 bulan
1516140016VINA ANGRAINIJl Vetran Pasar Ujung Kepahiang081532992249vinaanggraini98@gmail.com2015Kepahiang09 Nopember 1997Perempuan40-Perbankan Syari'ah3,597 tahun, 11 bulan
1516140017IZZAHTUN WAHYUNIAir Lakok085839113286izzah_wahyuni@yahoo.com2015Air Lakok05 Januari 1998Perempuan40-Perbankan Syari'ah12-03-20203,454 tahun, 8 bulan
1516140018DHIA BULKIAH DARAJATAir Lakok082372808874cute_dhia@yahoo.co.id2015Air Lakok29 Mei 1997Perempuan40-Perbankan Syari'ah28-08-20193,434 tahun, 2 bulan
1516140019EKA PUTRI ISTIQOMA HPrumnas Bentungan rt 34 rw 05085273220188Diantarabintangpartii@yahoo.co.id2015Bengkulu17 September 1999Perempuan40-Perbankan Syari'ah12-03-20203,234 tahun, 8 bulan
1516140020RIA MARGA RETADesa Bantu Ampar082179841312margarethacuyy25@gmail.com2015Batu Ampar25 Maret 1998Perempuan40-Perbankan Syari'ah10-09-20203,325 tahun, 2 bulan
1516140021ALAN ANDRIANJl Telaga Dewa085664902850alanandrian@ymail.com2015Nanjungan03 Januari 1997Laki-laki40-Perbankan Syari'ah05-01-20232,997 tahun, 6 bulan
1516140022DINA NOVRIYANTIDesa Niur081919406388Dinanovri@yahoo.com2015Niur09 Januari 1997Perempuan40-Perbankan Syari'ah23-08-20193,344 tahun, 2 bulan
1516140023SILVIYANTIJl. DP. Negara pagar dewa rt 19 rw 04 no 12 kota bengkulu081279020219silviabengkulu82@gmail.com2015Bengkulu18 Juni 1997Perempuan40-Perbankan Syari'ah12-03-20203,304 tahun, 8 bulan
1516140024OKTARINA MY YANIDesa Padang Bendar082282264981oktarina_queen@yahoo.co.id2015Padang Bendar05 Oktober 1997Perempuan40-Perbankan Syari'ah12-03-20203,324 tahun, 8 bulan
1516140025MUTIARA KURNIATIPerumahan Permata Gading Blok A No 8 Lingkar Barat089682757089Mutiaallegiance@yahoo.com, Mutiarakurniati02@gmail.com2015Bengkulu02 April 1997Perempuan40-Perbankan Syari'ah12-03-20203,364 tahun, 8 bulan
1516140026NAFA FERGITAJl. Kapuas V Padang Harapan082375814214navafergita@gmail.com2015Bengkulu22 Mei 1997Perempuan40-Perbankan Syari'ah12-03-20203,354 tahun, 8 bulan
1516140028ENDANG SUSILAWATIDesa Jayakarta08153574362endangsusila874@gmail.com2015Kepahiang09 Januari 1997Perempuan40-Perbankan Syari'ah23-08-20193,594 tahun, 2 bulan
1516140029DINI SYAPIA DELYA HARITSAJl. Tugu Hiu Perum BIP Taba Jambu No.1308117382309dinidelya001@gmail.com2015Manna23 September 1999Perempuan40-Perbankan Syari'ah12-03-20203,604 tahun, 8 bulan
1516140030PENI EXTAMI BERTIDesa Penindaian085839037974Lusyfitria_aparando@yahoo.com2015Penindaian25 Mei 1995Perempuan40-Perbankan Syari'ah3,457 tahun, 11 bulan
1516140031RENNY AGUSTINAJl Kapuas 4 Kom Dolog085769956263rennyagustina13@gmail.com2015Bengkulu13 Agustus 1997Perempuan40-Perbankan Syari'ah12-09-20193,554 tahun, 2 bulan
1516140032RAHMA WIDIAJl Irian rt 09.rw 02.kel semarang.kec sungai serut089606474099rahmawidia26@yahoo.com2015Bengkulu26 Mei 1996Perempuan40-Perbankan Syari'ah12-03-20203,544 tahun, 8 bulan
1516140033MUHAMMAD ADNIN WARIDJl Lintas Bengkulu Seluma085758040477Adninwarid09@gmail.com2015Bengkulu09 Maret 1997Laki-laki40-Perbankan Syari'ah12-03-20203,544 tahun, 8 bulan
1516140034MUHAMMAD SETIAWANJl Harapan Baru085658982453msetiaone1@gmail.com2015Bekasi13 Desember 1997Laki-laki40-Perbankan Syari'ah29-01-20213,335 tahun, 7 bulan
1516140035NOVRIYANSAHJl. Kenanga I No.77087898030721Novriyansah77@ymail.com2015Lubuk Linggau23 November 1995Laki-laki40-Perbankan Syari'ah10-09-20203,565 tahun, 2 bulan
1516140036ANDRY WAHYU PRATAMAJl Kapuas Raya085380888209andrybaqenzuue@ymail.com2015Bengkulu02 Juni 1969Laki-laki40-Perbankan Syari'ah31-03-20223,006 tahun, 9 bulan
1516140038ULFA NURIYANIJl. Kuala Lempuing RT.07 RW.02089681290884nuriyani.ulfa@yahoo.com2015Bengkulu25 Juni 1997Perempuan40-Perbankan Syari'ah12-09-20193,574 tahun, 2 bulan
1516140040LUSI JURIANTIpagar dewa087747071037Lusi.jur1anti@gmail.com2015Sukamenang28 September 1999Perempuan40-Perbankan Syari'ah12-09-20193,404 tahun, 2 bulan
1516140043RISKA MULYANIPensiunan Depan,kabupaten kepahiang085840163197rhiskha0205@yahoo.com2015Kepahiang02 Agustus 1997Perempuan40-Perbankan Syari'ah3,507 tahun, 11 bulan
1516140044IMAM SETIONOJl.lintas pagar alam,Ds.Sumber Agung,kec.bermani ilir,kab.kepahiang,prov.bengkulu085758688225Setionoim97@gmail.com2015Sumber Agung05 September 1997Laki-laki40-Perbankan Syari'ah12-09-20193,704 tahun, 2 bulan
1516140045LISA YULIANAJalan Syahrial , Gang Assholihin Pasar Kepahiang085378625259lisayuliana416@gmail.com2015Kepahiang29 September 1996Perempuan40-Perbankan Syari'ah10-09-20203,425 tahun, 2 bulan
1516140046DEWI APRILIANIJalan Tebing Alep Padang Lekat Kepahiang087819783071dapriliani75@yahoo.co.id2015Kepahiang16 April 1997Perempuan40-Perbankan Syari'ah12-09-20193,654 tahun, 2 bulan
1516140047RATNA DEWIJl. Semangka 13 No.32 rt.17 rw 00608994004550Nanadewichan15@gmail.com2015Bengkulu15 Juli 1997Perempuan40-Perbankan Syari'ah12-03-20203,634 tahun, 8 bulan
1516140048EDI SAPRURODINDesa Tawang Rejo085669337605edisyafru15@gmail.com2015Suka Sari21 Juni 1996Laki-laki40-Perbankan Syari'ah3,467 tahun, 11 bulan
1516140049FIFI PUSPITA SARIJl Bumi Ayu 8 RT 10 RW 02085709555928vivipuspita15@gmail.com2015Bengkulu30 Agustus 1996Perempuan40-Perbankan Syari'ah3,547 tahun, 11 bulan
1516140051DIRA HAYU MITA SARIJl Cendana 2 gang Jambu 3 No.25089515024239Dirahayu19@gmail.com2015Bengkulu19 September 1997Perempuan40-Perbankan Syari'ah12-03-20203,514 tahun, 8 bulan
1516140052SITI HUMAIRAHJl Padang Kemiling089612109825sitihumairah050996@gmail.com,humairahsiti0509@yahoo.com2015Bengkulu25 Juni 1997Perempuan40-Perbankan Syari'ah12-09-20193,464 tahun, 2 bulan
1516140053SELVI WULANDARIJl.Sumur Dewa No.61 Rt.20 Rw. 06081279328716Selvi.wulandari89@yahoo.co.id2015Lubuk Linggau07 April 1996Perempuan40-Perbankan Syari'ah3,807 tahun, 11 bulan
1516140054INTAN ANDINI PUTRIJl Pulau Payung surabaya permai081919366077intanandini_putri@yahoo.com2015Bengkulu17 November 1996Perempuan40-Perbankan Syari'ah12-03-20203,374 tahun, 8 bulan
1516140055DESI NOVIANTIJl Pulau Payung085609411745desinovianti999@yahoo.co.id2015Bengkulu20 Desember 1996Perempuan40-Perbankan Syari'ah12-03-20203,544 tahun, 8 bulan
1516140056FEFI MARNISsinar gunung087801685946fefymarnis25@gmail.com2015Nanti Agung25 Maret 1997Perempuan40-Perbankan Syari'ah12-03-20203,174 tahun, 8 bulan
1516140057GITA MEILANIJl. Depati Payung Negara NO.12085279640791gitameilani10@yahoo.co.id2015Pagar Alam20 Mei 1998Perempuan40-Perbankan Syari'ah30-08-20193,764 tahun, 2 bulan
1516140058INDO NOPLI OMOGAPrumnas Padang Kemiling082307063943indonopli39@gmail.com2015Bengkulu07 Desember 1997Laki-laki40-Perbankan Syari'ah22-01-20213,135 tahun, 7 bulan
1516140059HERLIA RAHMA FADILA.BDesa Banyumas Baru Kec.Kerkap Kab.Bengkulu Utara082279252910Herliarahma77@gmail.com2015Suka Negeri,Seginim21 Januari 1997Perempuan40-Perbankan Syari'ah12-09-20193,514 tahun, 2 bulan
1516140060DELLA ARISKAJL.mandiri 3 HIBRIDA 9A085758314483Della1586@gmail.com2015PADANG TEPONG10 Juni 1996Perempuan40-Perbankan Syari'ah3,257 tahun, 11 bulan
1516140061RAFIQATUZ ZAKIAHGg.Semarak 12089633042694Khyki_zakia95@yahoo.co.id2015Bengkulu06 November 1995Perempuan40-Perbankan Syari'ah26-07-20193,494 tahun, 1 bulan
1516140062HELEN KURNIAWATIJl.A.Rahman, Betungan089665345745Helenkurniawati061@gmail.com2015Pinang Jawa25 Juni 1997Perempuan40-Perbankan Syari'ah12-09-20193,484 tahun, 2 bulan
1516140063NOVITA AL-ULANDARIDesa Parda Suka082177088767novitaulandari91@yahoo.com2015Lampung Tengah11 November 1996Perempuan40-Perbankan Syari'ah12-03-20203,514 tahun, 8 bulan
1516140064AZMI AFRIYULANIZAJl. Teratai Indah Blok C Sukarami085758219397azmiafriyulaniza21@yahoo.com2015Serui21 April 1997Perempuan40-Perbankan Syari'ah3,577 tahun, 11 bulan
1516140065AULIA AKMARAWA MAKMUR PERMAI MERPATI 14 RT 05 RW 0208972287731auliaakmaa@yahoo.com2015BENGKULU24 Februari 1997Perempuan40-Perbankan Syari'ah3,447 tahun, 11 bulan
1516140066YUPITA SARIJln, Raya Lawang Agung kab Bengkulu Kec Kedurang081271317294sariyupta59@gmail.com2015Lawang Agung06 April 1997Perempuan40-Perbankan Syari'ah3,537 tahun, 9 bulan
1516140069WINDA APRIANIDesa Kayu Arang Kec.Sukaraja Kab.Seluma081919317709windaapriani474@yahoo.co.id2015BUKIT PENINJAUAN II06 April 1996Perempuan40-Perbankan Syari'ah12-03-20203,614 tahun, 7 bulan
1516140070WENTI PURWATIKel.Lubuk Lintang Kec.Seluma Kota Kab.Seluma085709558630wentyvirgirls@ymail.com2015lubuk.lintang28 Agustus 1996Perempuan40-Perbankan Syari'ah12-03-20203,594 tahun, 7 bulan
1516140071VIDYA PRADANAJln.ogan No.5908982227248vidyapradana.vp@gmail.com2015Sleman05 Desember 1997Perempuan40-Perbankan Syari'ah12-03-20203,684 tahun, 7 bulan
1516140072VENNY TRI PAHLEVIDesa Talang Baru I082249295127Vennytri07@yahoo.co.id, pahlevitris@gmail.com2015Curup15 Februari 1994Laki-laki40-Perbankan Syari'ah15-02-20213,215 tahun, 6 bulan
1516140073TOMI EKO PUTRAjalan raden patah 1085758047862tomy@gmail.com2015suka raja22 Oktober 1995Laki-laki40-Perbankan Syari'ah12-03-20202,974 tahun, 7 bulan
1516140075SYAHRIL HIDAYATULLOHHarapan Makmur081539226382hidayats778@gmail.com2015Palembang21 November 1998Laki-laki40-Perbankan Syari'ah25-02-20223,386 tahun, 6 bulan
1516140076SUSI MARLINADESA AIR SELIMANG KEC.SEBERANG MUSI KABUPATEN KEPAHIANG085758380436susi_marlina1@yahoo.com2015bengkulu utara25 September 1996Perempuan40-Perbankan Syari'ah12-03-20203,594 tahun, 7 bulan
1516140077SUSANTIBENGKULU TENGAH081377752623susanti241195@gmail.com2015RENA LEBAR08 Juli 1995Perempuan40-Perbankan Syari'ah12-03-20203,384 tahun, 7 bulan
1516140078SRI WAHYUNIPARAU SORAT082179036201sriwahyuni231998@gmail.com2015parau sorat23 Februari 1998Perempuan40-Perbankan Syari'ah12-03-20203,294 tahun, 7 bulan
1516140079SONY NURWIYAYAjl.beringin no 34 RT 05, Rw 03 padang jati Kota Bengkulu081539906361sonynurwiyaya@yahoo.com2015BENGKULU03 Juli 1997Laki-laki40-Perbankan Syari'ah3,207 tahun, 9 bulan
1516140080SINDI KURNIAWANJalan teratai indah Blok C RT 25 RW 07082281176243zegiecool@yahoo.co.id2015kedurang31 Agustus 1997Laki-laki40-Perbankan Syari'ah12-09-20193,434 tahun, 1 bulan
1516140081SHELY FEBRIAJl. Telaga Dewa No. 07 RT 14 RW 03082371059403febriashely17@gmail.com2015CAHAYA NEGERI17 Februari 1997Perempuan40-Perbankan Syari'ah12-09-20193,614 tahun, 1 bulan
1516140082SATRIA ALAMSYAHKERBANG TINGGI082306915059satriaalamsyah48@yahoo.com2015kerbang tinggi01 Agustus 1995Laki-laki40-Perbankan Syari'ah10-09-20203,385 tahun, 0 bulan
1516140083RIZKY ANUGRAH ARMA SELLAJl. Bhakti Husada Blok B V no. 24085789289004rizkyanugraharmasella@yahoo.co.id2015Bengkulu18 Agustus 1997Perempuan40-Perbankan Syari'ah3,717 tahun, 9 bulan
1516140084RISMIATItanjung baru082380267693rismiati_azmi@yahoo.co.id2015tanjung baru03 Oktober 1996Perempuan40-Perbankan Syari'ah12-03-20203,384 tahun, 7 bulan
1516140085RENISME YULIANTIJL.Muhajirin 12085767109002Renisbkl22@gmail.com2015Bengkulu13 Desember 1997Perempuan40-Perbankan Syari'ah29-01-20213,465 tahun, 5 bulan
1516140086RANIA MUJASARIMANGGILAN, KEC PENDOPO, KAB EMPAT LAWANG081278080931Raniamujasari@gmail.com2015LANDUR10 November 1997Perempuan40-Perbankan Syari'ah12-03-20203,024 tahun, 7 bulan
1516140087RAHMI SYAFRIANIJl. Enggano089654894596syafrianirahmi@gmail.com2015Bengkulu11 Juni 1997Perempuan40-Perbankan Syari'ah12-03-20203,674 tahun, 7 bulan
1516140088PUTRI HANDAYANIDESA LUBUK TANJUNG KECAMATAN AIR NAPAL KABUPATEN BENGKULU UTARA082374668900putrihandayani544@gmail.com2015lubuk tanjung23 Mei 1997Perempuan40-Perbankan Syari'ah12-03-20203,234 tahun, 7 bulan
1516140089POPI ANDESTRI IRIAN SJLN. MERANTI 3 SAWAH LEBAR KOTA BENGKULU082186939283Popiandestri09@gmail.com2015AIR SELIMANG09 Januari 1997Perempuan40-Perbankan Syari'ah23-08-20193,734 tahun, 0 bulan
1516140090NYIMAS ADITYA EKA PUTRIJL.PANTI ASUHAN082307607125tyut_t@rocketmail.com2015curup28 Januari 1996Perempuan40-Perbankan Syari'ah22-08-20193,664 tahun, 0 bulan
1516140091NURAINUNJl. Adam Malik KM 9081367560205ainun_nur59@yahoo.com2015bengkulu17 April 1997Perempuan40-Perbankan Syari'ah12-09-20193,834 tahun, 1 bulan
1516140093NOPIYANTIjl.hibrida 3081273634509viyan2644@gmail.com2015MEKAR JAYA01 November 1998Perempuan40-Perbankan Syari'ah12-03-20203,264 tahun, 7 bulan
1516140094NENSI PERMATA SARIJL. Sungai Rupat 15 RT. 40 RW. 08085896170017nensipermatasari@gmail.com, nensipermatasaribkl@gmail.com2015bengkulu03 Februari 1997Perempuan40-Perbankan Syari'ah3,657 tahun, 9 bulan
1516140095NELA SUCI UTAMIdesa pulau panggung kecamatan padang guci hilir kabupaten kaur081272076090nela.suciutami@GMAIL.COM2015pulau panggung27 Oktober 1997Perempuan40-Perbankan Syari'ah12-09-20193,774 tahun, 1 bulan
1516140097MIRA SUSANTIDesa Muara Karang/jl.sd n 12085286470935mirasusanti9496@gmail.co2015Muara Karang02 Februari 1990Perempuan40-Perbankan Syari'ah3,497 tahun, 9 bulan
1516140098MILA DAHLIATELAGA DEWA 06082297901930Miladahlia08@gmail.com2015TANJUNG ALAI08 Mei 1996Perempuan40-Perbankan Syari'ah12-03-20203,344 tahun, 7 bulan
1516140099KURNIA FAJARISTIANIJalan Durian 1 No. 41 Rt. 11 Rw. 003 Bumi Ayu 9 Kelurahan Bumi Ayu Kecamatan Selebar Kota Bengkulu089676807742kurnia_fajaristiani@yahoo.co.id2015BENGKULU31 Agustus 1997Perempuan40-Perbankan Syari'ah12-09-20193,784 tahun, 1 bulan
1516140100JASMIKO HENDRIjl.karang indah Rt.18 Rw.003085383622427jatmiko_hardi@yahoo.com2015bengkulu12 Agustus 1993Laki-laki40-Perbankan Syari'ah10-09-20203,345 tahun, 0 bulan
1516140101ISMAWATIjl.kuala alam08985878732ismawati03051997@gmail.com2015bengkulu03 Mei 1997Perempuan40-Perbankan Syari'ah12-03-20203,124 tahun, 7 bulan
1516140102IRIK ARIANIKELURAHAN PUGUK085269265609ariani@yahoo.com2015kelurahan puguk22 September 1996Perempuan40-Perbankan Syari'ah12-03-20203,364 tahun, 7 bulan
1516140103HENDRA SAPUTRASEMUNDAM085357091647hendrasaputra671996@gmail.com2015SEMUNDAM06 Juli 1996Laki-laki40-Perbankan Syari'ah12-03-20203,374 tahun, 7 bulan
1516140104HENI JULIANAperum kemiling asri pratama rt 19 rw 08 blok j 14089676952630henijuliana15@gmail.com2015bengkulu14 Desember 1996Perempuan40-Perbankan Syari'ah25-07-20223,016 tahun, 11 bulan
1516140105FATMAH WATItenangan RT. 2 / RW 2085758689541fatmahwati52@gmail.com2015TENANGAN28 Januari 1996Perempuan40-Perbankan Syari'ah22-08-20193,484 tahun, 0 bulan
1516140106FAREZA SOFYA LESTARIJl hibrida Ujung089699568188farezhasofiyahlestari@ymail.com2015Talang Panjang18 Juni 1997Perempuan40-Perbankan Syari'ah12-03-20203,604 tahun, 7 bulan
1516140107FAISAL HARISTMARGA SAKTI081278823648faisalharis69@gmail.com2015Margasakti25 September 1996Laki-laki40-Perbankan Syari'ah27-01-20233,307 tahun, 5 bulan
1516140108ESTI PUJAHATIARANG SAPAT085758578985estipujahati24@gmail.com2015Arang sapat24 Januari 1997Perempuan40-Perbankan Syari'ah12-03-20203,234 tahun, 7 bulan
1516140110EGA RAFITA GUSTIANAHTANJUNG ALAM,KEC.KEDURANG ULU,KAB.BENGKULU SELATAN082375635411Egarafitagustianah24@gmail.com2015TANJUNG ALAM08 Maret 1973Perempuan40-Perbankan Syari'ah26-07-20213,605 tahun, 11 bulan
1516140112DONI ABDILLAHjln. surabaya permai blo d3 no. 64 rt 20 rw 5
kec. sungai serut kota bengkulu
087894836393doniabdillah19@yahoo.co.id2015bengkulu19 Februari 1997Laki-laki40-Perbankan Syari'ah12-03-20203,564 tahun, 7 bulan
1516140114DEA SYAHRIJL.DANAU RT/RW. 03/001 NO.05085709145619deasyahri13@gmail.com2015BENGKULU05 September 1996Perempuan40-Perbankan Syari'ah12-03-20203,714 tahun, 7 bulan
1516140115BELA FITRIYANAjl. Merawan 14 No 41 Rt 24 Rw 07 Kel. Sawah Lebar Kec.Ratu Agung Bengkulu081272719429belafitriana46@gmail.com2015Bengkulu25 Juni 1997Perempuan40-Perbankan Syari'ah12-09-20193,614 tahun, 1 bulan
1516140116ANIT REPITA DEANIJl. Lintas Sumatera Selatan. Kebur Jaya. Kec. Tiang Pumpung Kepungut. Kab. Musi Rawas085379681503anitrepitadeani@gmail.com2015Muara Beliti14 Maret 1998Perempuan40-Perbankan Syari'ah12-03-20203,664 tahun, 7 bulan
1516140117WINDI SRI YULIANIMuko-Muko082310249236windi_sriyuliani@yahoo.co.id2015Lubuk sahung14 Oktober 1997Perempuan40-Perbankan Syari'ah10-09-20203,325 tahun, 0 bulan
1516140118ULFA KURNIADs. Barumanis kab.rejang lebong082281311486ulfakurnia231a@gmail.com, Ulfa.k@yahoo.com.2015Barumanis08 Juli 1997Perempuan40-Perbankan Syari'ah12-09-20193,754 tahun, 1 bulan
1516140123RIANAJL. MUHAJIRIN 14081333062168Rianapuspa20@gmail.com2015jarakan20 Oktober 1996Perempuan40-Perbankan Syari'ah12-09-20193,694 tahun, 1 bulan
1516140124REVI SUNANTIJln. Muara aman - curup082376377357revisunanti99@gmail.com2015suka sari13 Desember 1997Perempuan40-Perbankan Syari'ah29-01-20213,385 tahun, 5 bulan
1516140125RAFIQ SAPIROseleka085215950933rafiqsafiro@yahoo.com2015seleka30 Desember 1996Laki-laki40-Perbankan Syari'ah3,327 tahun, 9 bulan
1516140126PUTRI YANIJL. TIMUR INDAH 5089666803896endairawan30@gmail.com2015CURUP27 Februari 2000Perempuan40-Perbankan Syari'ah12-03-20203,604 tahun, 7 bulan
1516140128OGI ERWANSYADESA KEBAN AGUNG TIGA KECAMATAN KEDURANG ULU, KABUPATEN BENGKULU SELATAN0000000000ogikedurang@gmail.com2015RANTAU SIALANG08 Desember 1990Laki-laki40-Perbankan Syari'ah22-07-20213,455 tahun, 11 bulan
1516140129NURMALINAJL. Ratu Agung, Karang Anyar 2085269799687Linanurma26@yahoo.co.id2015Muara Aman26 Januari 1997Perempuan40-Perbankan Syari'ah3,577 tahun, 9 bulan
1516140130NISA VURNIAJL. Timur Indah 1 No.88089627726691nisavurnia@yahoo.coid2015Bengkulu06 November 1996Perempuan40-Perbankan Syari'ah12-03-20203,484 tahun, 7 bulan
1516140131MEKISA PUTRAJL.IRIAN089674028349mekisaputra3105@gmail.COM2015bengkulu31 Mei 1995Laki-laki40-Perbankan Syari'ah12-03-20203,514 tahun, 7 bulan
1516140132MAYA ANGGELINAJAJARAN BARU 1 dusun 2082372487995100005809666028@Facebook.com2015JAJARAN BARU22 Februari 1998Perempuan40-Perbankan Syari'ah12-03-20203,614 tahun, 7 bulan
1516140133MARTIN SATRIA PUTRAjl. mentiring kabupaten kaur081539859769martin.satria28@yahoo.com2015mentiring26 Juni 1997Laki-laki40-Perbankan Syari'ah12-09-20193,294 tahun, 1 bulan
1516140134INDAH LUCKYTAJL. WALET NO.370000000000indahluckyta08@gmail.com2015Bengkulu07 Agustus 1997Perempuan40-Perbankan Syari'ah12-03-20203,494 tahun, 7 bulan
1516140137ANCE MARSHERESSUKA NEGERI085366607345ance@yahoo.com2015Suka negeri20 Mei 1997Perempuan40-Perbankan Syari'ah12-09-20193,444 tahun, 1 bulan
1516140138SEDESNIDesa.Lubuk Lagan081271102736Sedesni10@gmail.com2015Lubuk Lagan17 Oktober 1994Perempuan40-Perbankan Syari'ah29-08-20193,464 tahun, 0 bulan
1516140139RYAN FIRDAUSPasar Surulangun Kec. Rawas Ulu, Kab. Musi Rawas Utara, Provinsi Sumatra Selatan085758862139rianfirdaus1994@gmail.com2015Pasar Surulangun24 Mei 1994Laki-laki40-Perbankan Syari'ah28-07-20223,416 tahun, 11 bulan
1516140140RICE EFPRIYANIJL. AIR BANG JAYA082372258883riceefpriyani@yahoo.co.id2015muara palu20 Agustus 1996Perempuan40-Perbankan Syari'ah11-03-20193,643 tahun, 6 bulan
1516140141RESI RESTIANTIRetak mudik082282119651reshye.restianti.facebook@mail.com2015Retak Mudik23 Desember 1995Perempuan40-Perbankan Syari'ah12-03-20203,434 tahun, 7 bulan
1516140142RENI AGUSTINperumnas kemiling permai RT 13 RW 05 BLOK D8089517271253reniagustin483@gmail.com2015Curup18 Agustus 1996Perempuan40-Perbankan Syari'ah12-09-20193,544 tahun, 1 bulan
1516140143RARA PERMATA SARIJalan Jeruk Ujung08984226163rarapermata49 @gmail.com2015KARANG ANYAR08 Juni 1995Perempuan40-Perbankan Syari'ah25-01-20233,527 tahun, 5 bulan
1516140144RANGGA MANDALA YUDHAJalan. Telaga Dewa 1081368648998Ranggamandala31@gmail.com2015Bengkulu01 November 1997Laki-laki40-Perbankan Syari'ah12-03-20203,754 tahun, 7 bulan
1516140147PASKAL ERNANDODESA AIR BULUH KEC.IPUH KAB.MUKO-MUKO085357250994Pascal_ernando@yahoo.co.id2015AIR BULUH24 September 1995Laki-laki40-Perbankan Syari'ah2,587 tahun, 9 bulan
1516140148NOPRIANSYAH RAHMANJALAN ADAM MALIK 5089633090346nopriansyahrahman@gmail.com2015BENGKULU24 November 1996Laki-laki40-Perbankan Syari'ah12-03-20203,624 tahun, 7 bulan
1516140149NANDA TRI CINTYAjl.raya air sebakul085768347192Nandatc@gmail.com2015Lubuk linggau28 Mei 1997Perempuan40-Perbankan Syari'ah30-08-20193,644 tahun, 0 bulan
1516140151MUHAMMAD SOLIHINtaba satting, Kepahiang082183430614solihinbengkulu12@gmail.com2015kepahiang12 Oktober 1995Laki-laki40-Perbankan Syari'ah25-01-20233,187 tahun, 5 bulan
1516140152M. RISKI AMANDA LUBISperumahan BUMI NUSANTARA ASRI 1082280130851Rizkylubis667@gmail.com2015Bengkulu11 Juni 1999Laki-laki40-Perbankan Syari'ah10-09-20203,065 tahun, 0 bulan
1516140153MITA ERMAYNIjln iskandar 07082306326439A23mithaermayni@gmail.com2015kunduran23 Mei 1996Perempuan40-Perbankan Syari'ah12-03-20203,524 tahun, 7 bulan
1516140154MERI WULAN MAYANG SARIJl. Sepakat089619635283meriwulanmayangsari@gmail.com,meri_wulan@yahoo.com2015Gunung Kembang Baru09 Februari 1983Perempuan40-Perbankan Syari'ah19-07-20193,643 tahun, 11 bulan
1516140155MARIA TIKA SANJANIJL. Lintas Bengkulu-Manna082178726643mariatikasanjani@gmail.com2015KARANG ANYAR07 Juni 1997Perempuan40-Perbankan Syari'ah12-09-20193,504 tahun, 1 bulan
1516140157JOVI PERNANDOpir air kemuning081539870342jovipernando0@gmail.com2015bengkulu17 Oktober 1996Laki-laki40-Perbankan Syari'ah10-09-20202,815 tahun, 0 bulan
1516140158INDRIYANA UTAMITeluk Sepang.081368306551indrigunawan08@gmail.com2015bengkulu08 Juni 1996Perempuan40-Perbankan Syari'ah12-03-20203,224 tahun, 7 bulan
1516140159ILAL MAHDIDS. AIR BULUH KEC. IPUH KAB. MUKO-MUKO PROV. BENGKULU081271555986Ilalmahdi9@gmail.com2015Air Buluh02 Mei 1996Laki-laki40-Perbankan Syari'ah10-09-20203,325 tahun, 0 bulan
1516140160HUSNUL KHOTIMAHDESA TUNGGANG KEC.PONDOK SUGUH KAB. MUKOMUKO085669304895HUSNUL@GMAIL.COM2015desa tunggang13 September 1996Perempuan40-Perbankan Syari'ah12-03-20203,524 tahun, 7 bulan
1516140161FERRY HIDAYATJL.BELIMBING 3089519556069ferry.boyzz@yahoo.com2015BENGKULU19 Februari 1997Laki-laki40-Perbankan Syari'ah12-03-20203,374 tahun, 7 bulan
1516140162ERLIN PRANSISKAkembang seri082306331819aidilman14@gmail.com2015kembang seri01 Maret 1996Perempuan40-Perbankan Syari'ah12-09-20193,104 tahun, 1 bulan
1516140163DWI WAHYUNI PUTRIJL. SUMATERA 6 NO.98081369346436dwi.wahyuniputri@yahoo.com2015Bengkulu04 Desember 1996Perempuan40-Perbankan Syari'ah12-09-20193,604 tahun, 1 bulan
1516140164DONI SUSANTOJL.RADEN FATAH RT 17 RW 03081539292017Doni2015bengkulu17 April 1996Laki-laki40-Perbankan Syari'ah10-09-20203,155 tahun, 0 bulan
1516140165DITA SAFITRI AWALIAHjln.kebun vetran 2 no 82 RT 15 RW 03089632933148dita_safitriawaliah@yahoo.com, ditasafitriawaliah@gmail.com2015BENGKULU30 Juni 1997Perempuan40-Perbankan Syari'ah12-09-20193,694 tahun, 1 bulan
1516140166DESIYANI RACHMADANI PJl. RE Martadinata Perum Bumi Persada Indah Blok Q No.23081266647849desiyani2015bkl@gmail.com2015Depok31 Desember 1997Perempuan40-Perbankan Syari'ah29-08-20193,704 tahun, 0 bulan
1516140167DEKO HANDIKADESA AIR BULUH KEC.IPUH KAB.MUKO-MUKO083166209128dekohandika1@gmail.com2015AIR BULUH29 September 1996Laki-laki40-Perbankan Syari'ah30-06-20223,176 tahun, 10 bulan
1516140168ANNISYA SARAH URFAJLN.BUMI AYU082376253197anniyhasarahurfa@yahoo.co.id2015Bengkulu06 Juni 1997Perempuan40-Perbankan Syari'ah12-03-20203,094 tahun, 7 bulan
1516140169YUNI ASTRINA FITRIJL ISKANDAR BAKSIR085609674312yuniastrinafitri38@yahoo.com2015Manna21 Februari 1996Perempuan40-Perbankan Syari'ah3,357 tahun, 9 bulan
1516140170VAHMI BASUKIDesa Lawang Agung.kec.kedurang.kab.Bengkulu Selatan085788082656vahmibasuki@gmail.com2015Lawang Agung26 Juli 1997Laki-laki40-Perbankan Syari'ah28-08-20193,504 tahun, 0 bulan
1516140172RIZKY NANDA PRASTYA N.kebun beler087894888484nandananvi1995@gmail.com2015jakarta10 Februari 1998Perempuan40-Perbankan Syari'ah16-08-20193,643 tahun, 11 bulan
1516140173RATIH ARDINA OKTASARIJL.TITIRAN 1 BLOK 3 NO. 5008113952020ra.oktasari03@gmail.com2015Bengkulu20 Juli 2000Perempuan40-Perbankan Syari'ah28-07-20223,426 tahun, 11 bulan
1516140176NUR FITRIANIJL.bakhti husada 06,kel: lingkar barat : kec: gading cempaka082289122013.0858323fitriainur22@gmail.com2015muara aman22 Mei 1997Perempuan40-Perbankan Syari'ah10-09-20203,275 tahun, 0 bulan
1516140177NANDA PRANSISKASUKA MENANG087898185364muslima68@gmailcom2015sukamenang09 Februari 1983Perempuan40-Perbankan Syari'ah19-07-20193,153 tahun, 10 bulan
1516140178MUHAMMAD BAYU HARTAWANJL. Semangka 4085208551428bterlaluselo@yahoo.co.id2015BENGKULU14 Juli 1997Laki-laki40-Perbankan Syari'ah10-09-20203,205 tahun, 0 bulan
1516140179MITA ANDRI YANITANGGA BATU085767017184MITA@YAHOO.COM2015TANGGA BATU05 September 1996Perempuan40-Perbankan Syari'ah12-03-20203,254 tahun, 6 bulan
1516140180M FERYANSYAHGG salak 1089677201255feryansyah_14@yahoo.com2015bengkulu02 Juni 1969Laki-laki40-Perbankan Syari'ah31-03-20223,046 tahun, 7 bulan
1516140181METRI WAHYUNIPENINDAIAN, KEC. KEDURANG ILIR, KOTA MANNA, KAB. BENGKULU SELATAN085382321119metriwahyuni03@gmail.com, metriwahyuni@yahoo.co.id2015Penindaian03 Mei 1997Perempuan40-Perbankan Syari'ah12-03-20203,504 tahun, 6 bulan
1516140182MAYENDRA RIAN PRATAMApekan baru pkl.kerinci85272316125RIAN19871987@gmail.com2015Bengkulu23 Mei 1997Laki-laki40-Perbankan Syari'ah10-12-20212,816 tahun, 3 bulan
1516140183LIANA SANDORADS.KEROYA KEC.PAGAR JATI KAB.BENTENG085279126216lianasando@yahoo.com2015TABA RENA07 Agustus 1996Perempuan40-Perbankan Syari'ah12-03-20203,294 tahun, 6 bulan
1516140186HINI NOPITASARIJl.Tanjung Gemilang081539200158hinnie.97tazty@gmailcom, hinnicuantik@gail.com2015Desa Genting13 Desember 1997Perempuan40-Perbankan Syari'ah29-01-20213,225 tahun, 5 bulan
1516140188HELTA OKTASARIDesa Sukarami085273369018heltaoktasari96@gmail.com2015Sukarami16 Oktober 1994Perempuan40-Perbankan Syari'ah12-09-20193,584 tahun, 0 bulan
1516140190GUSTIANALubuk Tapi085273272683putridwiramadani@ymail.com2015Lubuk Tapi25 Juni 1997Perempuan40-Perbankan Syari'ah12-09-20193,254 tahun, 0 bulan
1516140191ERLENA VETI MARSONAUjung Padang085609445978Erlenavety@yahoo.com2015UJUNG PADANG17 April 1996Perempuan40-Perbankan Syari'ah12-03-20203,174 tahun, 6 bulan
1516140192ERA PUSPITA SARIJL.raya gelumbang081539251090erapuspitasari@gmail.com2015gelumbang29 September 1997Perempuan40-Perbankan Syari'ah27-01-20233,227 tahun, 5 bulan
1516140194APRIYANI LESTARIDs.Air kemuning085664824259yhanielestari@yahoo.co.id2015bengkulu05 April 1997Perempuan40-Perbankan Syari'ah12-03-20203,224 tahun, 6 bulan
1516140195ANISA SORAYAJL. Gunung Bungkuk 1 tanah patah bengkulu08999112354Anisasoraya413@yahoo.com2015bengkulu23 Juli 2000Perempuan40-Perbankan Syari'ah12-03-20203,444 tahun, 6 bulan
1516140196AMATISSAjl salak 4 lingkar timur bengkulu089646405772amatissa@yahoo.com2015curup05 Agustus 1997Perempuan40-Perbankan Syari'ah12-03-20203,274 tahun, 6 bulan
1516140198TERYJl. Bumi ayu 4089671264069teryty97@gmail.com2015Bengkulu24 April 1997Perempuan40-Perbankan Syari'ah12-03-20203,714 tahun, 6 bulan
1516140199METTA EHDA AGUSTIJl Bumi Ayu 7089615217662metaehda@gmail.com2015Bengkulu28 Januari 1996Perempuan40-Perbankan Syari'ah22-08-20193,474 tahun, 0 bulan
1516140200ALEN PUSPITA SARIDARAT SAWAH081539290767alen@yahoo.com2015DARAT SAWAH02 Juni 1997Perempuan40-Perbankan Syari'ah12-03-20203,354 tahun, 6 bulan
1516140201ALMIDA ELIT PUTRISUKA PINDAH082186618875almidaelitputri26@gmail.com2015suka pindah26 Januari 1997Perempuan40-Perbankan Syari'ah12-09-20193,494 tahun, 0 bulan
1516140203DHEA PRISKA FEBRIANTIPrumnas Telaga Dewa Asri Blok I089659745177dpriska71@yahoo.com2015Bengkulu09 Februari 1999Perempuan40-Perbankan Syari'ah12-09-20193,484 tahun, 0 bulan
1516140205SENJA PRATIWIDs. embong panjang. lebong tengah085609043212Senjapratiwi28@yahoo.com2015Embong Panjang12 Desember 1996Perempuan40-Perbankan Syari'ah12-09-20193,504 tahun, 0 bulan
1516140206SELI AGUSTINIJl.Rafflesia II N. 007081219039272Seliagustini596@yahoo.co.id2015Bengkulu03 Agustus 1997Perempuan40-Perbankan Syari'ah12-09-20193,714 tahun, 0 bulan
1516140207SAIMALUBUK TOROB085379447048saimaborpas@yahoo.conm2015LUBUK TOROB17 April 1997Perempuan40-Perbankan Syari'ah12-03-20203,414 tahun, 6 bulan
1516140209RIEFKY KUNTARAjl depati pyung negara 04
pagar dewa kota bengkulu
0895603225465riefkykuntara@gmail.com2015bengkulu07 Maret 1996Laki-laki40-Perbankan Syari'ah06-09-20213,166 tahun, 0 bulan
1516140210RATI PERWASIHJln.Kuala lempuing082278111758Perwasihratih@gmail.com2015M.lintang23 Maret 1997Perempuan40-Perbankan Syari'ah12-09-20193,324 tahun, 0 bulan
1516140211RAHMADI SALEHjalan merapi 9 rt07 rw 03 panorama bengkulu08984213315rahmadisalehale@yahoo.co.id2015bengkulu13 Desember 1997Laki-laki40-Perbankan Syari'ah29-01-20212,995 tahun, 5 bulan
1516140212MELISA PITRIDesa Talang Tige085839009357melisa.fitri61@yahoo.co.id2015TALANG TIGE03 Januari 1997Perempuan40-Perbankan Syari'ah12-03-20203,564 tahun, 6 bulan
1516140213MELATI RAHAYA SYAFITRIdurian sebatang kec.kedurang kab.bengkulu selatan081539349212melatirahaya@ymail.com2015Durian Sebatang29 Mei 1997Perempuan40-Perbankan Syari'ah12-03-20203,344 tahun, 6 bulan
1516140215INDAH PERMATA SARIDESA PASAR PEDATI KECAMATAN PONDOK KELAPA KABUPATEN BENGKULU TENGAH0895323206959permatasi760@gmail.com2015bengkulu22 Desember 1996Perempuan40-Perbankan Syari'ah12-09-20193,674 tahun, 0 bulan
1516140216HERI NOVRIANSYAHDESA RENA JAYA082280610849hery.novrian@yahoo.co.id2015RENA JAYA13 Desember 1997Laki-laki40-Perbankan Syari'ah29-01-20213,075 tahun, 5 bulan
1516140219ADI SUPRIADIDESA KARYA PELITA082281394829adi9supriadi12@gmail.com2015Karya Pelita09 Desember 1995Laki-laki40-Perbankan Syari'ah23-08-20193,513 tahun, 11 bulan
1516140220CINDI GRASELAPerunas Pondok Indah blok D085896522454Graselacindy01@yahoo.co.id2015Muara Dua09 Februari 1983Perempuan40-Perbankan Syari'ah19-07-20193,554 tahun, 0 bulan
1516140221WINDA ARUMNINGSIHJalan Pelajar083164878979windaarum330@yahoo.com2015Argamakmur16 Mei 1996Perempuan40-Perbankan Syari'ah12-09-20193,414 tahun, 0 bulan
1516140222TIKA MEKARSARI WIJAYANTIjalan veteran padang kapuk085841810364tikamekarsari30@gmail.com2015Timika26 April 1997Perempuan40-Perbankan Syari'ah19-07-20193,543 tahun, 10 bulan
1516140223RONALDI ANDRI IVANDANIJLN. CIMANUK INDAH PERMATA,RT 05 / RW 02,Kelurahan Padang Harapan Kota Bengkulu089607000644ronaldialdysky@gmail.com2015Bengkulu30 Desember 1996Laki-laki40-Perbankan Syari'ah27-05-20223,016 tahun, 9 bulan
1516140224MARYATIjln.sulawesi rt07 rw03 no 14 pengantungan08988402082maryati08@yahoo.com2015BENGKULU06 Maret 1997Perempuan40-Perbankan Syari'ah28-07-20223,236 tahun, 11 bulan
1516140228ISTI SUNDARI APRIANIDESA TEPI KEC.AIR NAPAL KAB .BENGKULU UTARA08153572715istisundariapriani96@yahoo.co.id2015kerkap26 April 1996Perempuan40-Perbankan Syari'ah12-03-20203,304 tahun, 6 bulan
1516140229LIZA OKTAVIANIDESA MELA'O085758050082Oliza523@gmail.com2015mela'o17 Oktober 1998Perempuan40-Perbankan Syari'ah12-03-20203,174 tahun, 6 bulan
1516140230GIA OLIVIANTITanjung beringin,kecamatan air nipis,kabupaten bengkulu selatan085357217705Giaolivianti1997@gmail.com2015Tanjung Beringin02 Juni 1997Perempuan40-Perbankan Syari'ah12-03-20203,454 tahun, 6 bulan
1516140231FAJRI RAMADHANJL.FLAMBOYAN NO. 7708984226926fajriramadhan15@yahoo.co.id2015bengkulu19 Februari 1996Laki-laki40-Perbankan Syari'ah12-03-20203,564 tahun, 6 bulan
1516140232EVI TAMALAjln salak 2 lingkar timur082282777855evitamala1997@gmail.com2015bengkulu19 Juli 1995Perempuan40-Perbankan Syari'ah12-03-20203,084 tahun, 6 bulan
1516140233APENDRIAir Sebakul Gang Mandiri085364323193apendriapen3@gmail.com2015GEDUNG AGUNG13 Desember 1997Laki-laki40-Perbankan Syari'ah29-01-20213,575 tahun, 5 bulan
1516140234GIZKA ANGGUN SARIJln Hibrida 07 no 97082179364803gizka.anggun04@gmail.com2015Bengkulu04 April 1995Perempuan40-Perbankan Syari'ah12-03-20203,324 tahun, 6 bulan
1516140264DIAN PURNAMASARISEMBOYAN085641141175nofir@yahoo.co.id2015padang ulak tanding03 Juli 1997Perempuan40-Perbankan Syari'ah12-03-20203,254 tahun, 6 bulan
1516140265DORA ANGGRAINANanti Agung08986330255DORAANGRAYNA@YAHOO.CO.ID2015Nanti Agung01 April 1997Perempuan40-Perbankan Syari'ah12-09-20193,484 tahun, 0 bulan
1516140266PIRDAUSJalan.Lintas Sumatra KM.47 Kecamatan.STL Ulu Terawas085768205833nofir@yahoo.co.id2015Pangkalan20 Agustus 1996Laki-laki40-Perbankan Syari'ah11-03-20193,493 tahun, 6 bulan
1516140267DEDI SUPRANDISUKA MERINDU,KC TALO KECIL,KBUPATEN SELUMA085609419777hida.yati12@yahoo.co.id2015suka merindu09 Januari 1997Laki-laki40-Perbankan Syari'ah23-08-20193,153 tahun, 11 bulan
1516140269ELA EMILIADESA AIR SELIMANG081367514063ELA.EMILIA16@yahoo.com2015Tebat Monok16 Agustus 1996Perempuan40-Perbankan Syari'ah20-08-20213,175 tahun, 11 bulan
1516140270CIPTA ISRATUL MUSLIHTeluk Sepang085368574799ciptaisratul13@gmail.com2015Curup13 Desember 1996Perempuan40-Perbankan Syari'ah12-09-20193,734 tahun, 0 bulan
1516140271HENDY KURNIAWANkecamatan sukaraja087894631995hendykurniawan09@gmail.com2015bengkulu selatan30 Januari 1995Laki-laki40-Perbankan Syari'ah12-03-20203,554 tahun, 6 bulan
1516140272NURFITRAH UKHTIJln. Samudra Rt. 14 Rw. 01
Kel.Teluk Sepang Kec. Kampung Melayu
082248842429Nurfitrahukhti@gmail.com2015CURUP09 Juni 1996Perempuan40-Perbankan Syari'ah12-09-20193,514 tahun, 0 bulan
1516140273HALIM MARLIS EKO PUTRAJl Air Manjunto082279292958HALIMEKOPUTRA@GMAIL.COM2015Curup12 Maret 1997Laki-laki40-Perbankan Syari'ah12-03-20203,494 tahun, 6 bulan
1516140274NEDI ALPINOdesa sibak085379124123nedialvino@gmail.com2015sibak29 April 1995Laki-laki40-Perbankan Syari'ah10-09-20203,315 tahun, 0 bulan
1516140275ASES NELAPalak Bengkerung081539226673asesnela@yahoo.com2015Pino Baru02 April 1996Perempuan40-Perbankan Syari'ah23-08-20193,193 tahun, 11 bulan
1516140277MARDIANAJL. MUHAJIRIN 07089639956442mm5659832@gmail.com2015BENGKULU29 Mei 1997Perempuan40-Perbankan Syari'ah28-08-20193,403 tahun, 11 bulan
1516140279ANITA MEISARIJL. RADEN FATAH08992222694Anitameisari2727@yahoo.com2015BENGKULU27 Mei 1996Perempuan40-Perbankan Syari'ah3,537 tahun, 9 bulan
1516140280PUSPITA SEPTI WIANIDs HARAPAN MAKMUR KEC.PONDOK KUBANG KAB.BENGKULU TENGAH081368290696puspitawiani11@gmail.com2015Harapan Makmur11 September 1996Perempuan40-Perbankan Syari'ah12-03-20203,684 tahun, 6 bulan
1516140281M DIMAS NURDIANSYAH PUTRAPERUMAHAN NAKAU ASRI BLOK B NO 14 DS.TABA PASEMAH KEC.TALANG EMPAT KAB.BENGKULU TENGAH082372532427dimasnp05@gmail.com2015ARGAMAKMUR05 Desember 1996Laki-laki40-Perbankan Syari'ah10-09-20203,815 tahun, 0 bulan
1516140282PIGI NURBILAJl.Padat Karya 09081540818742peginurbela@gmail.com2015Desa Gunung Raya04 September 1998Perempuan40-Perbankan Syari'ah12-09-20193,704 tahun, 0 bulan
1516140283STEFANI AMALIA PUTRIJl. Sungai Rupat 2 Gang Pengadilan Tipikor089674826966stefaniamp05@gmail.com2015Curup04 Maret 1998Perempuan40-Perbankan Syari'ah10-09-20203,315 tahun, 0 bulan
1516140284SETIAWATIGajah mati085669882757wsetia150@gmail.com,shetiawati78@gmail.com2015lubuklinggau08 April 1997Perempuan40-Perbankan Syari'ah12-09-20193,704 tahun, 0 bulan
1516140285M. RONALDO P.B.HJL.BERINGIN BUMI AYU085769188228Ronaldoperdana77@gmail.com2015MANNA31 Oktober 1997Laki-laki40-Perbankan Syari'ah3,387 tahun, 9 bulan
1516140286CINTYA PRATNA MUSTIKA D.Jalan S. Parman No. 107 RT. 01 RW. 01089624742269cintyapratna6@gmail.com2015Bengkulu06 April 1997Perempuan40-Perbankan Syari'ah12-09-20193,614 tahun, 0 bulan
1516140287RIZKA AYU FITRIdusun 01 desa sukamerindu085269791819ayufitrir@gmail.com2015SUKAMERINDU04 Februari 1995Perempuan40-Perbankan Syari'ah12-03-20203,614 tahun, 6 bulan
1516140288RENSI ROSALIAjalan pancur mas kelurahan sukarami kecamatan selebar.kota bengkulu085758378717Rensi.rosalia@facebook.com2015awat mata30 Juli 1996Perempuan40-Perbankan Syari'ah3,387 tahun, 9 bulan
1516140290USWATUN HASANAHprumnas polda betungan085758323536hasanah_ntuhuswa@yahoo.com2015ulak lebar02 April 1997Perempuan40-Perbankan Syari'ah12-03-20203,344 tahun, 6 bulan
1516140292DAYNA OKLIN NDRURUJl. Sukamaju Padang Serai RT04 RW 01089502996621daynaoklin25@gmail.com2015Bengkulu25 September 1996Perempuan40-Perbankan Syari'ah16-08-20193,643 tahun, 11 bulan
1516140293YORA MELANDABatu Belarik085758995235yora.melanda@yahoo.com2015Batu Belarik23 Mei 1998Perempuan40-Perbankan Syari'ah28-08-20193,523 tahun, 11 bulan
1516140294RESTI MELINDA SARIJl. Raya Tahura085609609694Restimelindasari5@gmail.com2015DUSUN BARU 117 Juni 1996Perempuan40-Perbankan Syari'ah12-03-20203,484 tahun, 6 bulan
1516140295RAPIKA PUTRI YANTIDesa Tanjung Alam KEC.Kedurang KAB.Bengkulu selatan082177626151pikaputri96@gmail.com2015Tj.Alam17 Maret 1996Perempuan40-Perbankan Syari'ah12-03-20203,394 tahun, 6 bulan
1516140297DECKI HARSUNISJl,tanjung iman,kec kaur tengah,kab kaur087894674546Deckihasunis26@gmail.com2015tanjung iman26 Desember 1996Laki-laki40-Perbankan Syari'ah10-09-20203,205 tahun, 0 bulan
1516140298FIRDA UTAMIcokoh betung082375710801FIRDAUTAMI983@yahoo.co.id2015cokoh betung06 Mei 1998Perempuan40-Perbankan Syari'ah12-09-20193,704 tahun, 1 bulan
1516140300JULIANA EVASARIpagralam085267140248julianaevasari@yahoo.com2015Bengkulu02 Juli 1997Perempuan40-Perbankan Syari'ah11-02-20213,245 tahun, 5 bulan
1516140301SIPI MERNAYUdesa batu rancing085758744813rinawahyu29@gmail.com2015batu rancing05 Juli 1997Perempuan40-Perbankan Syari'ah12-03-20203,104 tahun, 6 bulan
1516140303DINO HARLAMBANGAIR SEBAKUL081367127054YUNISUWASTI@GMAIL.COM2015BENGKULU20 September 1996Laki-laki40-Perbankan Syari'ah10-09-20203,075 tahun, 0 bulan
1516140304INDAH PERMATA SARIJL.telaga dewa 6081539234664indahpermatasarii736@gmail.com2015pd.mumpo28 Agustus 1997Perempuan40-Perbankan Syari'ah12-03-20203,394 tahun, 6 bulan
1516160003TITIN SAGITARt.07, Kel. Simpang Tiga, Kec. Kaur Utara, Kab. Kaur, Prov. Bengkulu082176615528Titinsagita@ymail.com2015Bengko09 Maret 1995Perempuan48-Manajemen Zakat dan Wakaf0,007 tahun, 9 bulan
1516160004EKO IRAWANJLN.RAYA BENGKULU MANNA KELURAHAN SELEBAR085788388897ekoirawan@gmail.com2015SELEBAR02 Februari 1990Laki-laki48-Manajemen Zakat dan Wakaf0,007 tahun, 9 bulan
1516160005SYAFRIZALmukomuko085609046924syafrizal0496@gmai.com2015air bikuk08 April 1996Laki-laki48-Manajemen Zakat dan Wakaf0,007 tahun, 9 bulan
1516160006RAFIKA EDYAN PUTRIDesa Talang Pito,Kec.Bermani Ilir,Kab.Kepahiang082177578283Rapikaedianputri@yahoo.co.id2015Keban Agung20 Juni 1997Perempuan48-Manajemen Zakat dan Wakaf25-02-20190,003 tahun, 6 bulan
1516160007HEDI OPRIADIJln.Raya Bengkulu Manna Kelurahan Selebar085839592153hediopriadi@gmail.com2015selebar09 Maret 1995Laki-laki48-Manajemen Zakat dan Wakaf30-07-20190,003 tahun, 11 bulan
1516160009ARIEF APRIANSYAHDESA PADANG BURNAI, KECAMATAN BUNGA MAS, KABUPATEN BENGKULU SELATAN085789102589ARIEFAPRIANSYAH@YMAIL.COM2015Rawa Buaya26 Juni 1995Laki-laki48-Manajemen Zakat dan Wakaf10-09-20200,005 tahun, 0 bulan
1516160010MUHAMMAD MAHERDIJL.Raya Air Sebakul RT.04 NO. 11085213443822muhammadmaherdi68@gmail.com2015bengkulu09 Maret 1995Laki-laki48-Manajemen Zakat dan Wakaf0,007 tahun, 9 bulan
1516160017ITA GUSVITA SARISIMPANG TIGA085384307075ita.graciu@facebook.com2015simpang tiga18 Maret 1987Perempuan48-Manajemen Zakat dan Wakaf03-09-20190,004 tahun, 0 bulan
1516160018NIDI HADIMANSYAHjl.adius 06085788534964nediypaguchiy@yahoo.com2015bengkulu09 Maret 1995Laki-laki48-Manajemen Zakat dan Wakaf30-07-20190,003 tahun, 10 bulan
1516160019WIRA NAFALIYANTODesa air napal kecamatan sukaraja Kabupaten Seluma profinsi bengkulu085357826504wiranapalan@ymail.com2015Air Napal02 Februari 1990Laki-laki48-Manajemen Zakat dan Wakaf0,007 tahun, 9 bulan
1516160020ANDIKA SAPUTRADesa Pasar Talo085758506539andikasaputra059@yahoo.com2015Pasar Talo26 Juni 1995Laki-laki48-Manajemen Zakat dan Wakaf10-09-20200,005 tahun, 1 bulan
1516160021ISMAIL MARJOKOJalan Karang Indah Raya Hibrida 10 Ujung081539321939-ismailmarjoko78@mail. Com2015Sukarami11 Juli 2015Laki-laki48-Manajemen Zakat dan Wakaf0,007 tahun, 9 bulan
1516160022NUR MALIK IBRAHIMJl. Amanah 2089653028419malikgamer@rocketmail.com2015Sukasari25 Maret 1997Laki-laki48-Manajemen Zakat dan Wakaf30-08-20190,003 tahun, 11 bulan
1516160023LOKA OKTARAJl.M.Ali.Amin Pematang Gubernur089524476244Lokatar12@yahoo.com2015Bengkulu16 Oktober 1996Perempuan48-Manajemen Zakat dan Wakaf0,007 tahun, 9 bulan
1516160024ERSEP JAYADIUJUNG PADANG SELUMA085839097010bang.boys20@yahoo.com2015UJUNG PADANG04 Juni 1996Laki-laki48-Manajemen Zakat dan Wakaf0,007 tahun, 9 bulan
1516160025KENSIWIDesa Talang Ginting, kec. Air Besi, Kab. Begkulu Utara082281210188kensiwi440@yahoo.co.id2015Talang Ginting26 Juli 1997Perempuan48-Manajemen Zakat dan Wakaf0,007 tahun, 11 bulan
1516610001JELITA PUSPITAjln.regional air sebakul
pekan sabtu
085368868115*2015manna02 April 1995Perempuan39-Ekonomi Syari'ah3,287 tahun, 9 bulan
1516610004PUTRI DWI RAMADANILubuk Tapi085379366536putridwi.ramadani@yahoo.com2015Bengkulu20 Agustus 1996Perempuan39-Ekonomi Syari'ah11-03-20193,273 tahun, 6 bulan
1516610005MARDHTILAH ZUHARA-keban agung087894607598mardhatilah@yahoo.co.id2015mardhtilah zuhara12 April 1996Perempuan39-Ekonomi Syari'ah3,367 tahun, 9 bulan
1516610008WIKE ANGGRAINIJL.SETIA 2 NO 39085758551342wike680@gmail.com2015NP.JUNGUR24 Februari 1997Perempuan39-Ekonomi Syari'ah3,657 tahun, 9 bulan
1516610009SABAR FIRMANTOGajah mati085758879695sabarfirmanto1@gmail.com2015gajah mati12 Desember 1996Laki-laki39-Ekonomi Syari'ah3,467 tahun, 9 bulan
1516610010RUSLAINIJL.AREN08997858123RUSLAINI100@GMAIL.COM2015BENGKULU10 Februari 1995Perempuan39-Ekonomi Syari'ah12-09-20193,454 tahun, 0 bulan
1516610012NICI BARTESjln sepakat 6081291305923nichiputri82@gmail.com2015guru agung21 November 1988Perempuan39-Ekonomi Syari'ah23-02-20193,733 tahun, 5 bulan
1516610013MUKHLIADI INDRAkampung parak batu hampar08191940896508536738indra.gusgus@ymail.com2015Padang31 Agustus 1993Laki-laki39-Ekonomi Syari'ah12-03-20203,204 tahun, 6 bulan
1516610018GUNAWAN SUPARJOdesa pondok kubang085609656544gunawansuparjo1@gmail.com2015pondok kubang03 Juli 1996Laki-laki39-Ekonomi Syari'ah29-07-20223,036 tahun, 10 bulan
1516610019FITRI MARYATIDESA TEBAT PACUR KEC KERKAP085269781544FITRIMARYATI@GMAIL.COM2015LUBUK DURIAN14 Maret 1996Perempuan39-Ekonomi Syari'ah3,527 tahun, 9 bulan
1516610020DWI OKTAVIANI PRATIWIpadang pelawi081212184721thiwiechity@yahoo.co.id2015padang pelawi20 Agustus 1996Perempuan39-Ekonomi Syari'ah11-03-20193,063 tahun, 6 bulan
1516610021BUDI SURYANAKecamatan:pondok kubang
Kab: Bengkulu tengah
082378297833budisuryana9875@yahoo.com2015Mulyoharjo01 Juli 1992Laki-laki39-Ekonomi Syari'ah3,697 tahun, 9 bulan
1516610025ADE TRI PUTRAJL. MUHAJIRIN 17B08983590802adetriputra95@gmail.com2015BENGKULU03 Juli 1995Laki-laki39-Ekonomi Syari'ah3,287 tahun, 9 bulan
1516610028BENDITA ARIANSYAHJL082269564648benalexandria@gmail.com2015BIARO BARU31 Mei 1995Laki-laki39-Ekonomi Syari'ah12-03-20203,364 tahun, 6 bulan
1516610032TRIA WAHYUNItangsi duren082282679700triawahyuni95@gmail.com2015tangsi duren02 Februari 1995Perempuan39-Ekonomi Syari'ah12-03-20203,514 tahun, 6 bulan
1516610034YENI ENDA SARIDesa Lokasi Baru087894731351yenisiregarbkl@gmail.com2015Talang Benuang20 Agustus 1996Perempuan39-Ekonomi Syari'ah11-03-20193,383 tahun, 6 bulan
1516610038SITI FATONAHDesa Kedung Ringin085789997623sitifatonahss05@gmail.com2015KEdung Ringin29 April 1997Perempuan39-Ekonomi Syari'ah12-09-20193,364 tahun, 0 bulan
1516610039YULIANA FIRIANTIDesa Maras082375174102yulianafirianti@gmail.com2015Jambat Akar29 April 1997Perempuan39-Ekonomi Syari'ah12-09-20193,493 tahun, 11 bulan
1516610041OKY BUDIMANPERUMADAM085758550109okybudiman730@gmail.com2015TANJUNG ENIM10 September 1990Laki-laki39-Ekonomi Syari'ah26-01-20222,796 tahun, 3 bulan
1516610042OKTORA DWI HARDIJL.MERAWAN 08 NO.460895345614903Oktoraxiipac@gmail.com2015Bengkulu27 Oktober 1996Laki-laki39-Ekonomi Syari'ah26-07-20193,403 tahun, 11 bulan
1516610044EZI AGUSTIAWANDesa Kembang Seri Kecamatan Talo Kabupaten Seluma085378069640eziagus030895@gmail.com2015kembang seri03 Agustus 1995Laki-laki39-Ekonomi Syari'ah26-08-20213,606 tahun, 0 bulan
1516610045KIKI APRILDesa Pagar Banyu085384586403kikiapril.wijaya@yahoo.co.id2015Pagar Banyu14 April 1996Laki-laki39-Ekonomi Syari'ah19-07-20223,456 tahun, 9 bulan
1516610046NASRI NOPINJl. Pematang Keramat089627497911nasri.novin123@gmail.com2015Bengkulu18 Maret 1990Laki-laki39-Ekonomi Syari'ah10-09-20203,034 tahun, 11 bulan
1516610050JAFAR NURNASIHINPenago II085840322336jafarjaalhaq@gmail.com2015Penago II30 November 1996Laki-laki39-Ekonomi Syari'ah06-07-20193,413 tahun, 10 bulan
1516610051HERPANjl.ks kebun 5 no 44085368893961baeherpan@gmail.com2015inderapura09 April 1991Laki-laki39-Ekonomi Syari'ah12-03-20203,074 tahun, 5 bulan
1516610052RINDI AGUSTIANDesa Muara Gelumpai
kec ,muara payang
kab. lahat
085832905297rendiagus1994@gmail.com2015Muara Gelumpai14 Agustus 1994Laki-laki39-Ekonomi Syari'ah3,057 tahun, 8 bulan
1516610053AHMAD NOFFYARjl. Raya Sebakul No. 308987376383ahmadaja767@gmail.com2015BENGKULU23 September 1995Laki-laki39-Ekonomi Syari'ah28-01-20223,076 tahun, 4 bulan
1516610055YUNITA HARTATIenggano085379787776ardhea.rizka12@gmail.com2015enggano26 Juni 1995Perempuan39-Ekonomi Syari'ah10-09-20203,095 tahun, 0 bulan
1516610058REFIKA ONESISDesa Penembang Kecamatan Merigi Kelindang081279261143refikapenembang@gmail.com2015penembang23 September 1995Perempuan39-Ekonomi Syari'ah16-02-20222,956 tahun, 5 bulan
1516610059DIAN MANDALA PUTRA SULUNGkandang mulya,blok f
rt. 19/6
kec.kampung melayu
kota bengkulu
08973354295mandalaputradian5@gmail.com2015manna03 September 1994Laki-laki39-Ekonomi Syari'ah12-03-20203,034 tahun, 5 bulan
1516610060ASMI SANJAYAJL.TUTWURI HANDAYANI082388160346HASMISANJAYA19@GMAIL.COM2015BENGKULU19 April 1994Laki-laki39-Ekonomi Syari'ah20-11-20203,275 tahun, 1 bulan
1516610062SYARIFAHJln. Merawan 14 no 20085379800628syarifaha2702@yahoo.co.id2015sumber agung09 Februari 1983Perempuan39-Ekonomi Syari'ah19-07-20193,563 tahun, 9 bulan
1516610063VAN HOVEL IBRAHIMJl. Sentot Ali Basa081271039935vhanhovelibrahim@gmail.com2015Ulak Agung27 Desember 1996Laki-laki39-Ekonomi Syari'ah28-07-20193,113 tahun, 9 bulan
1516610065NUR FADILLAH ISNAINIJl Aren no 24082377961461isnaini.fhadilla@gmail.com2015Bengkulu04 Desember 1995Perempuan39-Ekonomi Syari'ah12-03-20203,244 tahun, 5 bulan
1516610067RIAN PUTRAJl Merawan 8082281673140rianp71@gmail.com2015Pendopo Lintang03 November 1993Laki-laki39-Ekonomi Syari'ah12-03-20203,104 tahun, 5 bulan
1516610068HEQI JIANSYAHJl. durian rt.11 g.6 bumi ayu085789158177heqijiansyah343@gmai.com2015bengkulu29 April 1996Laki-laki39-Ekonomi Syari'ah12-03-20203,154 tahun, 7 bulan
1516620001DINA SRI RAHAYUJL. CITANDUI RT.08 RW.02 NO 21082161173208Rahayudina237@yahoo.com2015BENGKULU20 Oktober 1997Perempuan39-Ekonomi Syari'ah29-06-20193,423 tahun, 9 bulan
1416131784SANTRIWATIDesa Sukemenang, RT 001, RW 004. Kec. Karang jaya Kabupaten Muara rupit085377974494santriwati27@gmail.com2014Desa Sukamenang27 November 2015Perempuan39-Ekonomi Syari'ah30-07-20183,343 tahun, 10 bulan
1416131955OPETRIJln. Belimbing 3085758041559Opetcynk@yahoo.com2014Bunga Mas29 Agustus 1995Perempuan39-Ekonomi Syari'ah11-03-20193,094 tahun, 6 bulan
1416131956AMALIA SEPTILINAperum tanjung permai B 1508984214297meeldiye@yahoo.co.id2014Bengkulu24 September 1993Perempuan39-Ekonomi Syari'ah11-03-20193,214 tahun, 6 bulan
1416131960SAUMI RAHAYUJL. TERMINAL TL. JAWA DESA SIDOREJO KEC. PAGARALAM SELATAN087813063328saumirahayu28@gmail.com2014Pagaralam28 Januari 1997Perempuan39-Ekonomi Syari'ah15-08-20183,473 tahun, 11 bulan
1416131961RIA ANITALUBUK LINGGAU081283356120riaanita766@yahoo.co.id2014Bengkulu12 November 1996Perempuan39-Ekonomi Syari'ah31-08-20183,213 tahun, 11 bulan
1416131962ILHAM UTAMA PUTRAjl kopral makruf082175379496ilhamutamaputra20@gmail.com2014Lubuk Linggau20 April 1996Laki-laki39-Ekonomi Syari'ah11-03-20193,334 tahun, 6 bulan
1416131964TUTI ARYANTI LUBISJalan Flamboyan 9 Skip Kota Bengkulu089603654004tutiaryanti28@yahoo.com2014Bengkulu21 Mei 1996Perempuan39-Ekonomi Syari'ah03-08-20183,283 tahun, 10 bulan
1416131965MARIYA ULFAJL.SEMARAK SIDODADI RT 18, RW 02, NO 56, BENTIRING PERMAI, KECAMATAN MUARA BANGKAHULU089671383408mariyaulfa117@gmail.com2014Bengkulu10 Februari 1997Perempuan39-Ekonomi Syari'ah30-08-20183,513 tahun, 11 bulan
1416131966ANNA SHINTIASimpang Tiga Pagar Gasing081539271745ANNASHINTIA@GMAIL.COM2014Benakat Minyak19 Juni 1996Perempuan39-Ekonomi Syari'ah12-03-20203,115 tahun, 6 bulan
1416131967NIRHAM SUKMADusun IV NOMAN KEL. NOMAN BARU KEC. RUPIT082280704251sniirham@yahoo.com,nirhamsukma27@gmail.com2014Noman21 Mei 1996Perempuan39-Ekonomi Syari'ah03-08-20183,493 tahun, 10 bulan
1416131968ANISA RESKIDESA BATU GAJAH BARU KEC. MUARA RUPIT KAB. MUSI RAWAS UTARA085268361366rezkianisa@rocketmail.com,rezkianisa25@gmail.com2014Batu Gajah05 Oktober 1991Perempuan39-Ekonomi Syari'ah15-08-20183,713 tahun, 11 bulan
1416131969MANDALA DWI SAPUTRAjalan hibrida raya089696556627mandalasaputra86@yahoo.co.id2014Bengkulu18 April 1996Laki-laki39-Ekonomi Syari'ah12-03-20193,254 tahun, 6 bulan
1416131970YENI APRIYANTIParumnas Diknas Surabaya RT 13 No 87 Kec Sungai Serut081996371323yenniapriyanti24@yahoo.com2014Air Beliti06 April 1995Perempuan39-Ekonomi Syari'ah31-08-20183,403 tahun, 11 bulan
1416131971SERLY OKTADIANAJln. kapuas 408999223489serlyoktadiana@yahoo.co.id2014Bengkulu04 Januari 1997Perempuan39-Ekonomi Syari'ah15-08-20183,583 tahun, 11 bulan
1416131972AZMI KARTINIjl.rambutan 4B rt.14 rw.o4 no.48085788487640azmi.kartini96@yahoo.com2014Air Kemuning22 Januari 1993Perempuan39-Ekonomi Syari'ah16-07-20183,453 tahun, 10 bulan
1416131974EMA NOVITA SARIMEGANG SAKTI087894720061emanovitasari33@yahoo.com2014Megang Sakti01 Desember 1996Perempuan39-Ekonomi Syari'ah24-07-20183,093 tahun, 10 bulan
1416131975ANNISA JANUR. NZjalan cendana gang mangga besar rt rw 01 no 15 sawah lebar baru kota bengkulu081539841323annisajanurn.z@gmail.com2014Padang23 November 1993Perempuan39-Ekonomi Syari'ah24-08-20183,663 tahun, 11 bulan
1416131976DELPA PITRIKAJln. Hibrida Ujung Gng. Tirta Dewa 2 Rw 02 Rt 11 No 12082281120351delpapitrika.96@gmail.com2014Ulak Pandan26 September 1996Perempuan39-Ekonomi Syari'ah20-03-20183,763 tahun, 6 bulan
1416131977RESTI PURNIKA SARIJALAN SEMANGKA 5C PERUMAHAN BUMI ALAM PERSADA BLOK C NO 10 PADANG SERAI085783555115restipurnikasari@gmail.com2014Palembang30 Mei 1995Perempuan39-Ekonomi Syari'ah16-07-20183,793 tahun, 10 bulan
1416131978SUNARTI LATIFJl. Raden Fattah, Depan IAI Bengklulu082389274833latifsunarti99@gmail.com2014Batu Ajung05 April 1996Perempuan39-Ekonomi Syari'ah28-02-20183,783 tahun, 5 bulan
1416131979LEFFI NIA ROSITAJln. raya talang rasau, kec. Lais, Kab. Bengkulu Utara, Popinsi Bengkulu082281684045leffiniarosita@gmail.com2014Talang Rasau02 Agustus 1996Perempuan39-Ekonomi Syari'ah24-07-20183,553 tahun, 10 bulan
1416131980NADYA ANNISAjalan pepaya gang Jeruk 1 no. 60 rt 07 rw 00308154168586nadyaannisa96@gmail.com,nadyaannisa259@gmail.com2014Bengkulu13 Maret 1996Perempuan39-Ekonomi Syari'ah30-08-20183,703 tahun, 11 bulan
1416131981INNA SURIYATIJln. Tahura085609397883ingainna@gmail.com2014Tanjung Terdana23 Desember 1995Perempuan39-Ekonomi Syari'ah30-07-20183,513 tahun, 10 bulan
1416131982REZA MEI SUSANTIperum semarak raflesia indah blok c085769183556meisusantireza@gmail.com2014Bengkulu09 Mei 1996Perempuan39-Ekonomi Syari'ah17-07-20183,603 tahun, 10 bulan
1416131983FEBRI LERANDADesa Pasar Palik, Kec Air Napal, Kab. Bengkulu Utara082375303807Febrileranda97@gmail.com2014Pasar Palik10 Februari 1997Laki-laki39-Ekonomi Syari'ah28-08-20183,503 tahun, 11 bulan
1416131984DEWI IKA IKRIMAHJLN. MANGGIS PADANG SERAI RT 12 RW 04 KECAMATAN KAMPUNG MELAYU KELURAHAN PADANG SERAI085832095900Dewi.ikaikrimah@ymail.com2014Bengkulu01 Januari 1995Perempuan39-Ekonomi Syari'ah11-03-20193,484 tahun, 6 bulan
1416131985UTHARI VILAPIKEJALAN HIBRIDA UJUNG 1082279493578Uvilapike@gmail.com2014Padang Pelawi04 Maret 1996Perempuan39-Ekonomi Syari'ah18-07-20183,643 tahun, 10 bulan
1416131986HAMIDAHJALAN CILIWUNG BAWAH0895327552816Hamidah230596.@gmail.com,Hamidahwinda32@yahoo.com2014Bengkulu23 Mei 1996Perempuan39-Ekonomi Syari'ah17-07-20183,643 tahun, 10 bulan
1416131988A. KHANIFULLAH NURMANJln. Hibrida Ujung Gang. Tirta Dewa 5 No 38089633024107khanifullah08@gmail.com2014Bengkulu09 Februari 1983Laki-laki39-Ekonomi Syari'ah19-07-20193,534 tahun, 10 bulan
1416131989ERSA MARLIYANTI NASUTIONJalan RE. Martadinata, Gang Perhubungan II Pagar Dewa.089648340486marliyantiersa@gmail.com2014Bengkulu18 Maret 1996Perempuan39-Ekonomi Syari'ah27-07-20183,443 tahun, 10 bulan
1416131990DESI CHANIAJl Kapuas BTN Bina Harapan Blok C No.1082177387949desichania2@gmail.com2014Indragiri Hilir19 Desember 1995Perempuan39-Ekonomi Syari'ah28-08-20183,523 tahun, 11 bulan
1416131991DESI ARIANIJl. H. Aswari RT.03 RW.03 Kelurahan Kota Negara, Kabupaten Lahat, Sumatera Selatan082278320340adesi828@gmail.com2014Lahat30 Desember 1996Perempuan39-Ekonomi Syari'ah20-03-20183,713 tahun, 6 bulan
1416131992DESVI SARININGSIHJl. H. Aswari, RT 3/RW 3, Kel. Kota Negara, Kec. Lahat, Kab. Lahat, Sumatera Selatan087714930260desvi.sari@yahoo.co.id2014Lahat04 Desember 1996Perempuan39-Ekonomi Syari'ah20-03-20183,553 tahun, 6 bulan
1416131993WIRA PUSPITA SARIJl. Prumnas kemiling permai Rt 17 Rw 05 kel pekan sabtu kec selebar085809797175wirapuspita73@yahoo.com2014Selika06 Agustus 1995Perempuan39-Ekonomi Syari'ah11-03-20193,114 tahun, 6 bulan
1416131994RIRIN MARISAHJln. irian RT/RW 02/01 Kelurahan Semarang Kecamatan sungai Serut, Kota Bengkulu089651792544ririnmarisah.xiiaktiga@gmail.com2014Tangerang30 Maret 1996Perempuan39-Ekonomi Syari'ah20-07-20183,703 tahun, 10 bulan
1416131997WAHYU RIZKI RAMADHANGang Damai 1 No 54A085281303200wahyurizki306@gmail.com2014Bengkulu17 September 1995Laki-laki39-Ekonomi Syari'ah27-01-20213,236 tahun, 4 bulan
1416131999BONITApagar jati089633072554bonitalia85@yahoo.com, bonita021@yahoo.com2014Petai Gayo20 Februari 1995Perempuan39-Ekonomi Syari'ah11-03-20193,514 tahun, 6 bulan
1416132002DEDE TRI NOPRANJL. IRIAN08973377042dedenopran@gmail.com2014Bengkulu04 Oktober 1995Laki-laki39-Ekonomi Syari'ah30-07-20183,543 tahun, 10 bulan
1416132005ADINDA KURNIA RANTOWATITalang Sebaris081539385369Adindakurniaea@gmail.com2014Padang Pelawi24 Mei 1996Perempuan39-Ekonomi Syari'ah28-08-20183,433 tahun, 11 bulan
1416132006MUHAMMAD SULAIMANjl imam amran bengkulu selatan089603903847lemancoz@gmail.com2014Manna12 Desember 1995Laki-laki39-Ekonomi Syari'ah11-03-20192,984 tahun, 6 bulan
1416132008MARTONO ADHE SANJAYAJL MANGGA 5 E RT 022 RW 007 KELURAHAN LINGKAR TIMUR KECAMATAN SINGARAN PATI KOTA BENGKULU085609422505martonoadhesanjaya@gmail.com2014Tanjung Baru20 Oktober 1994Laki-laki39-Ekonomi Syari'ah30-08-20183,463 tahun, 11 bulan
1416132009JUWITA PUTRI SARIJalan Pariwisata089614892551juwitap08@gmail.com2014Bengkulu29 Juli 1995Perempuan39-Ekonomi Syari'ah11-03-20193,254 tahun, 6 bulan
1416132010DEDES PASLINDADs. muara Lintang Baru082279212295avhaslin@gmail.com2014Muara Lintang02 Desember 1995Perempuan39-Ekonomi Syari'ah20-03-20183,433 tahun, 6 bulan
1416132011YUNI OKTAVIANIDesa Bumi Agung kec.dempo Utara Kota Pagaralam085768216850yunioktaviani571@yahoo.co.id2014Pagaralam28 Oktober 1996Perempuan39-Ekonomi Syari'ah30-08-20183,273 tahun, 11 bulan
1416132012SITI HENDRIAN WAHYU LESTARIDs. Sukasari Kec. Air Periukan Kab. Seluma085664977178Sitihendrian96@gmail.com2014Sukasari03 Januari 1996Perempuan39-Ekonomi Syari'ah11-03-20193,574 tahun, 6 bulan
1416132013SAHANDRILUBUK LINGGAU081283356120sahandri@gmail.com2014Embacang Baru10 Oktober 1996Laki-laki39-Ekonomi Syari'ah12-09-20192,985 tahun, 0 bulan
1416132014JOFI HERIANTOMILINGKAR BARAT085368546220jofi.heriantomi@yahoo.com2014Desa Nusuk05 Januari 1993Laki-laki39-Ekonomi Syari'ah20-08-20183,303 tahun, 11 bulan
1416132015RATI SARIDesa Manggilan085279005363Ratisari32@gmail.com2014Manggilan17 April 1994Perempuan39-Ekonomi Syari'ah31-08-20183,253 tahun, 11 bulan
1416132016SEPTA DARMA GUMAYJln. gelatik 5 lingkar barat08973313053ajasssepta@yahoo.com2014Bengkulu23 September 1995Laki-laki39-Ekonomi Syari'ah11-03-20193,214 tahun, 6 bulan
1416132017MIZA ELPIANAtaba dipoa, kec. lebong sakti, kab. lebong, provinsi bengkulu081274729660mizaelpiana01@gmail.com ,elpianamiza@gmail.com2014Taba Seberang01 September 1996Perempuan39-Ekonomi Syari'ah31-08-20183,193 tahun, 11 bulan
1416132018NOVIAN ENANDAJl Teratai Indah085783572317Novianenanda17@gmail.com2014Kepahyang17 November 1994Laki-laki39-Ekonomi Syari'ah24-07-20183,643 tahun, 10 bulan
1416132019MITA EKASARITELAGA DEWA 1085709245372MITAEKASARI@YAHOO.COM2014Nusuk27 Mei 1993Perempuan39-Ekonomi Syari'ah11-03-20193,214 tahun, 6 bulan
1416132020YENI ASEHMegang sakti RT 17 lingkungan III085758280197yeni.diana20@gmail.com2014Megang Sakti11 Juni 1996Perempuan39-Ekonomi Syari'ah20-07-20183,413 tahun, 10 bulan
1416132021SRI WULANDARIJL. lintas sumatra082377545340sri.wulandari118@yahoo.com2014Beriang Tinggi16 Juni 1997Perempuan39-Ekonomi Syari'ah15-08-20183,583 tahun, 11 bulan
1416132022PUTRI SUSANTIKB. AGUNG 3089648699051stiawandede@yahoo.com2014Curup26 Juni 2000Perempuan39-Ekonomi Syari'ah31-01-20223,167 tahun, 4 bulan
1416132023OKTIMI RINAJl. Raden Fatah 6 Air Sebakul085783553082oktimir5@gmail.com2014Naga Rantai10 Oktober 1995Perempuan39-Ekonomi Syari'ah11-03-20193,114 tahun, 6 bulan
1416132025YELI DARTIKabupaten Seluma, Kecamatan Seluma Utara, provinsi Bengkulu082375736056yelidarti@yahoo.co.id2014Puguk12 April 1996Perempuan39-Ekonomi Syari'ah11-03-20193,164 tahun, 6 bulan
1416132029RINI MARGIANTIKelurahan Dermayu082378948813rini.margianti11@gmail.com2014Talang Benuang21 Mei 1996Perempuan39-Ekonomi Syari'ah03-08-20183,593 tahun, 10 bulan
1416132030SRI WARJINIDs. Sukasari Kec. Air Periukan Kab. Seluma085758158178Sriwarjini6@gmail.com2014Sukasari11 Mei 1995Perempuan39-Ekonomi Syari'ah11-03-20193,574 tahun, 6 bulan
1416132032NOPRIAN HIDAYATJl. RE Martadinata.
Kelurahan Pagar dewa RT.27-RW.O5 NO.53
Kecamatan Selebar
Kota Bengkulu
Provinsi Bengkulu
0000000000hidayat.noprian@yahoo.co.id2014Talang Besar25 Mei 1993Laki-laki39-Ekonomi Syari'ah11-03-20193,264 tahun, 6 bulan
1416132035DIA ANITA SARIjl. koll alamsyah/ gunung agung/ argamakmur/ bengkulu utara082377601489dyahanitha96@yahoo.com2014Gunung Agung15 Mei 1996Perempuan39-Ekonomi Syari'ah27-07-20183,313 tahun, 10 bulan
1416132037REGEN TRI SYAHYADIDESA Peraduan Binjai085758364432triyadiregen3@yahoo.com2014Talang Karet30 Agustus 1996Laki-laki39-Ekonomi Syari'ah30-07-20193,044 tahun, 10 bulan
1416132038OKTAVIANIjln. gandaria 1 panorama089624207089aroktaviani@yahoo.co.id2014Bengkulu24 Oktober 1995Perempuan39-Ekonomi Syari'ah14-08-20183,223 tahun, 11 bulan
1416132039NOVITA SARIJL.Raden fattah Rt 03 Rw o1 kel sumur dewa085758126440Snovhyta@yahoo.co.id2014Kedurang27 November 1996Perempuan39-Ekonomi Syari'ah31-08-20183,263 tahun, 11 bulan
1416132040ENY HERLINAJLN. KOMPLEKS PERUMDAM 2 SRIWIJAYA RT. 5 RW. 001 NO. 9 GANG MATAHARI 3 BLOK T085377332036enyherlinaa@yahoo.com2014Bengkulu Utara04 Juli 2015Perempuan39-Ekonomi Syari'ah31-07-20183,383 tahun, 10 bulan
1416132041SODIK CAHYONODESA LOKASI BARU RT.03 NO.29. KEC.AIR PRIUKAN KAB. SELUMA085384310628sodikcahyono30@gmail.com2014Talang Benuang30 April 1994Laki-laki39-Ekonomi Syari'ah22-08-20193,704 tahun, 11 bulan
1416132042DITA SARI WAHYUNIjl.merawan sawah lebar kecamatan ratu agung bengkulu085758830131ditadamayanti167@yahoo.com2014Bengkulu25 April 1994Perempuan39-Ekonomi Syari'ah11-03-20193,174 tahun, 6 bulan
1416132044ROSA LINA NOVERAdusun raja kecamatan lais kabupaten bengkulu utara085609156399vhera_rossa@yahoo.co.id2014Durian Daun09 November 1996Perempuan39-Ekonomi Syari'ah11-03-20193,404 tahun, 6 bulan
1416132045MUHAMMAD ABRORjl merapi 12 kebun tebeng089502868772muhammadabror41@ymail.com2014Bengkulu20 Januari 1996Laki-laki39-Ekonomi Syari'ah12-03-20202,925 tahun, 6 bulan
1416132046AYU LANDYRAHIBRIDA 10082375528329ayu.landyra@gmail.com2014Tanjung Iman04 September 1996Perempuan39-Ekonomi Syari'ah30-08-20183,193 tahun, 11 bulan
1416132048MUHAMMAD KADIR YANTOJL P.NATADIRJA 12085769141431m.khaydyry@yahoo.com2014Bengkulu13 Maret 1994Laki-laki39-Ekonomi Syari'ah06-08-20213,106 tahun, 10 bulan
1416132049ZUMROTUL AINIDesa Margasakti, Kecamatan Padang Jaya, Bengkulu Utara085609236859Zumrotulainie@yahoo.com2014Margasakti28 Maret 1995Perempuan39-Ekonomi Syari'ah13-08-20183,723 tahun, 11 bulan
1416132050PIMI SATRIANITanjung Bunian085768367996PimiSatriani@gmail.com2014Tanjung Bunian18 Mei 1996Perempuan39-Ekonomi Syari'ah28-08-20183,383 tahun, 11 bulan
1416132051MITI KUSTIJAdusun baru085788746454Mitykustija@yahoo.com2014Dusun Baru13 Mei 1992Perempuan39-Ekonomi Syari'ah24-08-20183,153 tahun, 11 bulan
1416132052YUSILAWATIJLN MANGGIS PADANG SERAI RT 16 RW 04085839002968yusilawali@yahoo.co.id2014Sukaraja03 Agustus 1996Perempuan39-Ekonomi Syari'ah15-08-20183,533 tahun, 11 bulan
1416132053PUTRI AYUDesa. Serami Baru kec. malin deman, kab. mukomuko085266906163putriayu120794@gmail.com2014Serami Baru07 Desember 1994Perempuan39-Ekonomi Syari'ah31-08-20183,233 tahun, 11 bulan
1416132054PARIDA ASTUTIDesa Harapan Makmur085609521627Parida Astuti306@yahoo.com2014Bengkulu31 Maret 1996Perempuan39-Ekonomi Syari'ah11-03-20193,604 tahun, 6 bulan
1416132056JAUNATUL MUKMINDESA LAGAN KECAMATAN TALANG EMPAT BENGKULU TENGAH081539235765hardcore_mukmin@yahoo.com2014Desa Lagan04 Februari 1994Laki-laki39-Ekonomi Syari'ah12-09-20193,315 tahun, 0 bulan
1416132058MELI TAICINJalan Raden Patah089621462447meythaixchien@yahoo.com2014Batu Jungul27 September 1995Perempuan39-Ekonomi Syari'ah11-03-20193,144 tahun, 6 bulan
1416132061KHOIRIAH RAHMAWATITANJUNG MUARA KEC. KETAHUN KAB. BENGKULU UTARA081368306136Khoiriah.1395@gmail.com2014Gisting03 Januari 1994Perempuan39-Ekonomi Syari'ah20-08-20183,483 tahun, 11 bulan
1416132064SYAFIQ ABRIYANSAHPadang lekat kepahiang kabupaten kepahiang082289998979syafiqabriyansyah@gmail.com2014Bengkulu05 Oktober 1996Laki-laki39-Ekonomi Syari'ah12-09-20193,155 tahun, 0 bulan
1416132065GALUH KUSUMA WARDHANIKAMPUNG PENSIUNAN089627086533galuhkusuma88@yahoo.com2014Kepahyang21 November 1996Perempuan39-Ekonomi Syari'ah11-03-20193,564 tahun, 6 bulan
1416132066AKBAR MALIKDesa padang leban kec. Tanjung kemuning kab. Kaur085664623499AKBARMALIK@gmail.com2014Padang Leban10 Oktober 1996Laki-laki39-Ekonomi Syari'ah24-08-20183,163 tahun, 11 bulan
1416132067ROCKY BETA LESIjalan manggis 1 bengkulu0895056575355ROCKYEXTRIME@YAHOO.COM2014Lubuk Linggau24 Januari 1993Laki-laki39-Ekonomi Syari'ah11-03-20193,294 tahun, 6 bulan
1416132068AISYAH SETIYA NINGRUMjl.rinjani no 44 bengkulu089625874144aisyahsetiyaningrum@email.yahoo.com2014Semarang14 Juni 1994Perempuan39-Ekonomi Syari'ah11-03-20193,214 tahun, 6 bulan
1416132069RISA OKTAVIAJL TIMUR INDAH 2085769141433oktaviarisa@yahoo.com2014Padang Manis12 April 1996Perempuan39-Ekonomi Syari'ah11-03-20193,184 tahun, 6 bulan
1416132072YEJI PUSPITA SARIJln.Raden patah no.58085788611635Yejipuspita07@gmail.com2014Palak Siring07 Juli 1996Perempuan39-Ekonomi Syari'ah20-07-20183,403 tahun, 10 bulan
1416132073MELANY KOES HARYONOJLN. BUMI AYU 5089633003084melany_mardiansyah14@yahoo.co.id2014Bengkulu17 Oktober 1996Perempuan39-Ekonomi Syari'ah11-03-20193,564 tahun, 6 bulan
1416132074SINDA NANDA PRISKAsk.raja seginim bengkulu selatan085664692504cyndananda.frisca@facebook.com2014Sukaraja06 Mei 1994Perempuan39-Ekonomi Syari'ah11-03-20193,124 tahun, 6 bulan
1416132077POPY HARYANTIPAGAR DEWA0852681530582POPY_HARYANTI@GMAIL.COM2014Pajar Bulan11 Juli 1995Perempuan39-Ekonomi Syari'ah30-08-20183,123 tahun, 11 bulan
1416132078YOLANDA LORENZAKEBAN JATI PASEMAH AIR KERUH085267722983yolandalorenza96@gmail.com2014Keban Jati04 Juli 1996Perempuan39-Ekonomi Syari'ah11-03-20193,044 tahun, 6 bulan
1416132079SITI ARIANTINUR KHASANAHDesa puding kecamat pino kab.bengkulu selatan prov.bengkulu085758061208sitiarianti15@yahoo.co.id2014Mandi Angin17 Oktober 1994Perempuan39-Ekonomi Syari'ah31-08-20183,263 tahun, 11 bulan
1416132082JOKO PURNOMOJL.AIR SEBAKUL DESA AIR PUTIH KECAMATAN TALANG 4 KABUPATEN BENGKULU TNGAH085874024785indaayuk@yahoo.co.id.co.id2014Bengkulu28 Juni 1993Laki-laki39-Ekonomi Syari'ah11-03-20193,244 tahun, 6 bulan
1416132085RENI AGUSTINAJalan padat karya 28 rt 17 rw 04 kel sumur dewa kec. Selebar089613980661reniagustina837@yahoo.co.id2014Margasakti17 Agustus 1996Perempuan39-Ekonomi Syari'ah20-03-20183,723 tahun, 6 bulan
1416132086CICA PUTRI SUSANTIJLN.TELAGA DEWA 6085758227775chachica823@yahoo.co.id2014Genting Juar20 November 1997Perempuan39-Ekonomi Syari'ah18-02-20213,196 tahun, 5 bulan
1416132088LIDYA SEPTAJLN.KENANGA 2 RT 8 RW 3 NO 30 A KOTA BENGKULU087894749143lidyasepta99@gmail.com2014Bengkulu16 September 1993Perempuan39-Ekonomi Syari'ah28-08-20183,413 tahun, 11 bulan
1416132089RITI SUSANTIjln telaga dewa 1008999694828ritibengkulu@gmail.com2014Bengkulu15 September 1996Perempuan39-Ekonomi Syari'ah28-08-20183,443 tahun, 11 bulan
1416132092MIAS RATRI SAPARAJALAN SALAK085383472155mias_am@yahoo.com2014Ketahun24 Juli 1995Perempuan39-Ekonomi Syari'ah28-08-20183,443 tahun, 11 bulan
1416132093PUTRI HERIYANIJl.Kuala lempuing Gg.Cemara 1 No.19085768217517heri_shinichi@yahoo.com2014Bengkulu04 Oktober 1995Perempuan39-Ekonomi Syari'ah30-07-20183,653 tahun, 10 bulan
1416132094AGUNG AHMAD ZAENUL ARIFINsumur dewa/jalan hibrida asri082216945264agungaped@gmail.com2014Bandung14 Juli 1995Laki-laki39-Ekonomi Syari'ah11-03-20193,114 tahun, 6 bulan
1416132096TENTI ANISAJembatan Dua087894740949tentianisa7@gmail.com2014Bintuhan07 Januari 1996Perempuan39-Ekonomi Syari'ah30-08-20183,603 tahun, 11 bulan
1416132097RUDI HARTONODESA GIRI MULYA085669494139rudy.hartonogegez@.yahoo.co.id2014Air Sebakul28 Oktober 1997Laki-laki39-Ekonomi Syari'ah11-03-20193,444 tahun, 6 bulan
1416132098NOVITA PURNAMA SARIKelurahan Napal Kecamatan Seluma KOta Kabupaten Seluma Provinsi Bengkulu085664997854novitapurnamasariz14@gmail.com2014Lubuk Unen24 Juli 1996Perempuan39-Ekonomi Syari'ah15-08-20183,653 tahun, 11 bulan
1416132099PERRA PUSPITAJL. SUHADA KEPAHIANG081919413012verapuspita383@gmail.com2014Air Raman08 Agustus 1997Perempuan39-Ekonomi Syari'ah31-07-20183,483 tahun, 10 bulan
1416132100BEBIN OKRASI SAPUTRAPAGAR GUNUNG, KECAMATAN PADANG GUCI ULU, KABUPATEN KAUR082306735839BEBINOKRASISAPUTRA@YAHOO.COM2014Pagar Gunung12 Oktober 1994Laki-laki39-Ekonomi Syari'ah20-08-20183,413 tahun, 11 bulan
1416132101MIKI SASTRIAWANtuguk085366607132mikiluas01.@gmail.com2014Ganda Suli09 Februari 1983Laki-laki39-Ekonomi Syari'ah19-07-20193,044 tahun, 10 bulan
1416132102YUDHA NINGRATJL. JATI 4 NO 14081919454525ningratyudha@gmail.com2014Jakarta08 Agustus 1991Laki-laki39-Ekonomi Syari'ah11-03-20193,304 tahun, 6 bulan
1416132103LOSI YANTIjln.hibrida ujung Gng. Tirta Dewa 2 Rt 11 Rw 02085758360325losyyanti.94@facebook.com2014Talang Jawi26 Maret 1994Perempuan39-Ekonomi Syari'ah11-03-20193,254 tahun, 6 bulan
1416132104ISMARANIjln. al-mukaromah 3089522781405rani_ismarani@yahoo.com2014Pendopo17 Februari 1993Perempuan39-Ekonomi Syari'ah31-08-20183,383 tahun, 11 bulan
1416132108NASRUL HIDAYATsukabaru085378664079nasrulelmesiah@yahoo.com2014Suka Marga25 Juni 1997Laki-laki39-Ekonomi Syari'ah12-09-20193,075 tahun, 0 bulan
1416132110SUPRIANTODS TANJUNG HARAPAN082380864253Ceceppunk43@yahoo.com2014Pasar Ipuh21 Oktober 1995Laki-laki39-Ekonomi Syari'ah11-03-20192,994 tahun, 6 bulan
1416132111AHMAD REFKY VANTONIjl.raden fatah082374520212Ahmad_refkyvantoni@yahoo.com2014Lubuk Ladung09 Desember 1996Laki-laki39-Ekonomi Syari'ah11-03-20193,254 tahun, 6 bulan
1416132113POSTI HELAINIJln. Lintas Bengkulu Manna Desa Talang Sali Kec. Seluma Timur Kab. Seluma Prov. Bengkulu085758334423postihelaini96@gmail.com2014Talang Sali28 Maret 1996Perempuan39-Ekonomi Syari'ah20-03-20183,503 tahun, 6 bulan
1416132114FEBRI YANTIjalan kapten tendean089671425166febbysalim34@gmail.com2014Bengkulu09 Februari 1994Perempuan39-Ekonomi Syari'ah12-03-20203,085 tahun, 6 bulan
1416132115DONY CRISTYANTObumi ayu 5089685139211doni.rike@yahoo.com2014Bengkulu04 September 1994Laki-laki39-Ekonomi Syari'ah12-09-20193,335 tahun, 0 bulan
1416132119KARTIKA ANJARINIDESA SINAR LAUT KECAMATAN PONDOK SUGUH KABUPATEN MUKO MUKO085216794595anjarinikartika@gmail.com2014Bandar Agung06 Juni 1995Perempuan39-Ekonomi Syari'ah11-03-20193,494 tahun, 6 bulan
1416132121ABDUL ANZIZdesa talang kuning, kec. teras terunjam, kab. mukomuko085381969150anjis223@gmail.com2014Teras Terunjam04 Juli 2015Laki-laki39-Ekonomi Syari'ah11-03-20193,504 tahun, 6 bulan
1416132123LIZA SYAMSIYAHBENGKULU085379990244Lizasyamsiyah@yahoo.com2014Pondok Makmur17 April 1995Perempuan39-Ekonomi Syari'ah14-08-20183,433 tahun, 11 bulan
1416132124DESI EKA SARIDusun II Blok A2 Desa Marga Baru, kecamatan muara lakitan, kabupaten musi rawas081283504725Desiekasari01@gmail.com2014Marga Baru15 Desember 1996Perempuan39-Ekonomi Syari'ah30-07-20183,583 tahun, 10 bulan
1416132125HUSNUL HOTIMAHMekar Sari Mukti085609107096HotimahHusnul2015@gmail.com2014Lampung09 Maret 1995Perempuan39-Ekonomi Syari'ah30-08-20183,613 tahun, 11 bulan
1416132126DEDO ADEFFIYOLEBONG085380105463adedoadeffiyo@yahoo.com2014Talang Bunut28 November 1994Laki-laki39-Ekonomi Syari'ah11-03-20193,074 tahun, 6 bulan
1416132129SABAR HERO ARIF MARDIANTODesa Lubuk lagan085758266653Sabararif31@gmail.com2014Lubuk Lagan19 Juli 1996Laki-laki39-Ekonomi Syari'ah30-07-20183,483 tahun, 10 bulan
1416132257RAHMAT FAUZIJLn raden patah, gang anggrek 2082376720447fauzidevil94@yahoo.com2014bengkulu22 Februari 1994Laki-laki39-Ekonomi Syari'ah11-03-20193,014 tahun, 7 bulan
1416132394EVAN YUWANDAKarang Dapo Baru Sumatera Selatan085357362765evanjuanda@gmail.com2014Karang Dapo Baru27 Maret 1996Laki-laki39-Ekonomi Syari'ah12-09-20193,035 tahun, 0 bulan
1416132414HARMELINAJalan MT. Haryono RT 12 RW 04 No 46085382550507harmelinachaniago@yahoo.co.id2014Bengkulu29 Maret 1994Perempuan39-Ekonomi Syari'ah10-09-20203,016 tahun, 0 bulan
1416133376LUSI LESTARIPondok Suguh085273458382Lusilestari997@yahoo.co.id2014Bengkulu02 Mei 1995Perempuan39-Ekonomi Syari'ah11-03-20193,414 tahun, 6 bulan
1416133377NURUL FAIZAHJl. Manggis No.50 RT.18 RW.06 Kel. Panorama Kec. Singaran Pati085268385990Nurulfaiz14@yahoo.co.id2014Bengkulu14 Agustus 1996Perempuan39-Ekonomi Syari'ah11-03-20193,624 tahun, 6 bulan
1416133390MARLITA MARDIANAJLN.KAVUAS V PERUM. DOLOK NO. 09 RT. 04 RW. 02 LINGKAR BARAT089680469511marlitamardiana@gmail.com2014Palembang18 Maret 1996Perempuan39-Ekonomi Syari'ah31-08-20183,513 tahun, 11 bulan
1416133391RINA OCTIANDARIDesa Perbo,RT.01085609440097rinaoctiandari26@gmail.com2014Desa Perbo26 Oktober 1995Perempuan39-Ekonomi Syari'ah31-08-20183,683 tahun, 11 bulan
1416133410HERLISAPERUMNAS KEMILING PERMAI089649024471HERLISA354@GMAIL.COM2014Bengkulu06 Mei 1995Perempuan39-Ekonomi Syari'ah11-03-20193,494 tahun, 6 bulan
1416133411YEYEN OKTAVIANIdesa pandan dulang, kec. tanjung agung, kab. muara enim081273301563yeyenoktavie@gmail.com2014Lingge04 Oktober 1995Perempuan39-Ekonomi Syari'ah30-07-20183,673 tahun, 10 bulan
1416133441HERIANSYAHPULAU PANGGUNG085839004085riyantastie@gmail.com2014Pulau Panggung01 Februari 1995Laki-laki39-Ekonomi Syari'ah11-03-20193,084 tahun, 6 bulan
1416133443EBET PERNANDADesa Keban Agung, Kec. Air Periukan Kab. Seluma082289108367ebetdika@yahoo.co.id2014Keban Agung20 September 1994Laki-laki39-Ekonomi Syari'ah11-03-20193,174 tahun, 6 bulan
1416141827BOBI DERMAWANDESA AIR BULUH087741931658bobyrosantoz@yahoo.com2014Desa Air Buluh20 Agustus 1996Laki-laki40-Perbankan Syari'ah11-03-20193,184 tahun, 6 bulan
1416141828ZAM ZAMIRAIR BULUH082372369107zamzamir99@gmail.com2014Desa Air Buluh05 Juli 2000Laki-laki40-Perbankan Syari'ah19-02-20222,587 tahun, 5 bulan
1416141922AGUSTIKADesa Pasar Ketahun082176048176agustikapbs@gmail.com2014Talang Baru08 September 1996Perempuan40-Perbankan Syari'ah11-03-20193,454 tahun, 6 bulan
1416141958WAWAN SAPUTRAJl. sungai rupat 3a0895362909369wawansibasaputra@gmail.com2014Curup03 November 1996Laki-laki40-Perbankan Syari'ah09-08-20212,706 tahun, 11 bulan
1416141959ENDA JANU LESTARIgang setia 5. kel kandang mas kec. kampung melayu kota bengkulu085896175374enda.janulestari@yahoo.co.id2014Bengkulu18 Januari 1995Perempuan40-Perbankan Syari'ah31-07-20183,233 tahun, 10 bulan
1416142131MARDIAN SURYANIJL. RADEN FATAH 1 RT:16 RW:03 N0:63 PAGAR DEWA KOTA BENGKULU08996576717mardian.satria@yahoo.co.id2014Bengkulu01 Maret 1996Perempuan40-Perbankan Syari'ah14-08-20183,573 tahun, 11 bulan
1416142133AHMAT MISNADIdesa pagar dewa padang guci ecamatan kelam tengah kabupaten kaur provinsi bengkulu082378802658amatmisnadi@ymail.com2014Aceh12 Februari 1997Laki-laki40-Perbankan Syari'ah01-09-20183,443 tahun, 11 bulan
1416142135SAHRIL PAUZIJL. MERAWAN 14A SAWAH LEBAR KOTA BENGKULU082279803132sahrilpauzi@gmail.com2014Bengkulu11 September 1995Laki-laki40-Perbankan Syari'ah03-08-20183,363 tahun, 10 bulan
1416142136DEANTY NUR FADILLAHJALAN PEPAYA 4 BUMI AYU089671460816deantynurfadillah@gmail.com2014Bengkulu06 Agustus 1996Perempuan40-Perbankan Syari'ah20-08-20183,333 tahun, 11 bulan
1416142138BUNGA NUR INDA SARIJalan Pondok Bulat085896169878Bunganurindasari@gmail.com2014Bengkulu29 Agustus 1996Perempuan40-Perbankan Syari'ah30-07-20183,623 tahun, 10 bulan
1416142140YOVI PUSPITASARIJL. TIMUR INDAH 5
RT / RW: 022 / 001
KEL/DESA : SIDOMULYO
KECAMATAN: GADING CEMPAKA
089515537025puspitasari.yovi@gmail.co.id2014Kepahiang05 Juni 1995Perempuan40-Perbankan Syari'ah11-03-20193,344 tahun, 6 bulan
1416142142EWI ANGGUN SYAHFUTRIJl. Halmahera Dalam089624902252anggunewi@gmail.com2014Bengkulu08 Juni 1996Perempuan40-Perbankan Syari'ah31-07-20183,783 tahun, 10 bulan
1416142143DINA OKTARIKEPAHIANG085609101618DINAOKTARI@YMAIL.COM2014Kepahiang28 Oktober 1996Perempuan40-Perbankan Syari'ah24-08-20183,493 tahun, 11 bulan
1416142145LUFIKA AFRIDANIjl.bhakti husada no.61085788354309lufika_afridani@yahoo.co.id, afridanilufika964@gmail. com2014Bengkulu28 April 1996Perempuan40-Perbankan Syari'ah24-07-20183,533 tahun, 10 bulan
1416142146EKSI OCTAVIANIJln. Sumas 1085758255697octavianieksi5@gmail.com2014Gunung Kaya29 Mei 1997Perempuan40-Perbankan Syari'ah28-08-20193,594 tahun, 11 bulan
1416142147ZEZA MEIRI SENTHIAJl. Beringin082211315585Zeza29mei@gmail.com2014Bengkulu29 Mei 1996Perempuan40-Perbankan Syari'ah20-07-20183,703 tahun, 10 bulan
1416142148MAR`ATUL KHAYATIJln. Tri Tunggal, Kel. Talang Ubi, Kec. Megang Sakti, Kab. Musi Rawas085758001218maratul.khayati21@gmail.com2014Megang Sakti01 Juli 1996Perempuan40-Perbankan Syari'ah20-03-20183,853 tahun, 6 bulan
1416142149JUITA DESTRIANIPengubaian081927373112juitadestriani01@gmail.com2014Jembatan Dua09 Desember 1999Perempuan40-Perbankan Syari'ah14-08-20183,313 tahun, 11 bulan
1416142150LISA CITRA AFRI YANTIBelitang, Oku Timur085764639480Lisa2518@yahoo.com2014Belitang08 April 1997Perempuan40-Perbankan Syari'ah20-07-20183,543 tahun, 10 bulan
1416142151HETTY KURNIANTIJL Semarak no 32 B RT 10 RW 0308961671428Hettykurnianti@yahoo.com2014Bengkulu08 Agustus 1996Perempuan40-Perbankan Syari'ah20-03-20183,453 tahun, 6 bulan
1416142152AHMAD NURHIDAYATjl mangga besar085788086985dannisharrasyid@gmail.com2014Lubuklinggau01 Juni 1996Laki-laki40-Perbankan Syari'ah3,498 tahun, 9 bulan
1416142155TESA ANDOVAJl.Air Bengkulu 06, no 36, rt 10 rw 02, Perumnas Betungan Asri kel Betungan kec Selebar Kota Bengkulu08987520565TESA_ANDOVA@YAHOO.COM2014Bengkulu14 Oktober 1995Perempuan40-Perbankan Syari'ah01-09-20183,593 tahun, 11 bulan
1416142156WULAN SEPTIA ANGGRAENIjalan telaga dewa . pagar dewa kota bengkulu08982223459wulanseptiaanggraeni@gmail.com2014Bengkulu01 September 1996Perempuan40-Perbankan Syari'ah30-07-20183,573 tahun, 10 bulan
1416142158AGUSTAWANPERUGAIAN KEC. KAUR UTARA KAB. KAUR085758250053agustawan401@gmail.com2014Perugaian14 Agustus 1994Laki-laki40-Perbankan Syari'ah12-09-20193,325 tahun, 0 bulan
1416142159DIYESI ANTIKADS.PANGKALAN081278162929ttheothika@yahoo.com2014Ds. Bentangur10 Agustus 1995Perempuan40-Perbankan Syari'ah11-03-20193,154 tahun, 6 bulan
1416142160MUHAMMAD BIMA IRSANDIjl tribratagang aren rt 01089523077784Bhimbhiim@yahoo.com2014Bengkulu26 Mei 1996Laki-laki40-Perbankan Syari'ah03-08-20183,343 tahun, 10 bulan
1416142161OKTA NOVIYANTIJl.Bandar Bintuhan087894670454oktanoviyanti21@gmail.com2014Bintuhan21 Oktober 1996Perempuan40-Perbankan Syari'ah27-07-20183,623 tahun, 10 bulan
1416142164YUNITAPadang Petron081919373720yunitaziya8@gmail.com2014Bintuhan20 Juni 1996Perempuan40-Perbankan Syari'ah20-08-20183,693 tahun, 11 bulan
1416142165PUJA PUTRI SUMADS MAUR LAMA081271040209pujaputrisuma@gmail.com2014Maur19 Juli 1996Perempuan40-Perbankan Syari'ah12-03-20203,295 tahun, 6 bulan
1416142166HUTRI ASTARIjl. cabai no.141/22 perumnas nendagung kota pagaralam082279871826hutriastari17.ha@gamil.com2014Pagar Alam17 Agustus 1996Perempuan40-Perbankan Syari'ah01-09-20183,243 tahun, 11 bulan
1416142167NURHAYATIJl Dusun Sukamaju Rt 08 Rw 003 Riak Siabun085367285198Nur96145@gmail.com2014Riak Siabun15 November 1996Perempuan40-Perbankan Syari'ah31-07-20183,683 tahun, 10 bulan
1416142169SITI MEISAROHJl. Mitsubishi No. 40 Rt. 06 Kel. Watervang Kota lubuklinggau081996167304sitimeisaroh21@gmail.com2014Lubuk Linggau21 Mei 1996Perempuan40-Perbankan Syari'ah03-08-20183,513 tahun, 10 bulan
1416142170OKTA JUMIATIPERUMNAS NIKAN BLOK E.5 NO.25085896169904oktajumiati12@gmail.com2014Bengkulu04 Oktober 1996Perempuan40-Perbankan Syari'ah27-07-20183,513 tahun, 10 bulan
1416142171ASMARADesa Lubuk Pandan085269600563asmaraasri22@gmail.com2014Lubuk Pandan25 Juni 1997Laki-laki40-Perbankan Syari'ah12-09-20193,745 tahun, 0 bulan
1416142172MIA RIYANTIKAKarang Jaya, Musi Rawas Utara, Sumatera Selatan085709231210Miariyantika27@gmail.com2014Karang Jaya27 April 1997Perempuan40-Perbankan Syari'ah11-03-20193,454 tahun, 6 bulan
1416142173ROPA APITIAHibrida 9b085264416851ropa.apitia@gmail.com2014Kepahiang09 April 1996Perempuan40-Perbankan Syari'ah11-03-20193,434 tahun, 6 bulan
1416142174LAILA NURHALIMAHjl.Nias rt 007/ rw 009 desa karang pulau kecamatan putri hijau089601333906lailanurhalimah85@yahoo.com2014Karang Pulau05 Oktober 1996Perempuan40-Perbankan Syari'ah27-07-20183,633 tahun, 10 bulan
1416142175INDAH NUFITA SARIDusun III RT 04 desa Setia Marga Kec Krang Dapo085609020285Nufitasariindah@yahoo.com2014Musi Rawas22 Mei 1996Perempuan40-Perbankan Syari'ah11-03-20193,344 tahun, 6 bulan
1416142176SEPTI YUNIKA SARIJl. sukun Rt. 07 Kel. Taba Jemekeh. Kec. Lubuklinggau Timur 1. Provinsi Sumatera Selatan .085841224390septiyunikasari@yahoo.co.id2014Muara Saling20 September 1996Perempuan40-Perbankan Syari'ah31-08-20183,523 tahun, 11 bulan
1416142177RETNO HADIYATIJLN. BUMI AYU 8 RT 10 RW 02 N0.24089610352656retnohadiyati@yahoo.com2014Lubuk Linggau16 April 1996Perempuan40-Perbankan Syari'ah31-07-20183,553 tahun, 10 bulan
1416142178HANIPADesa Air Kemuning085609409665hanifah.ajah98@yahoo.co.id2014Air Kemuning20 Februari 1995Perempuan40-Perbankan Syari'ah11-03-20193,154 tahun, 6 bulan
1416142179NIA DANIATIjalan pematang keramat081539271813nia.daniati_9d@yahoo.com2014Bengkulu12 Oktober 1995Perempuan40-Perbankan Syari'ah23-02-20183,553 tahun, 5 bulan
1416142180VANIA FITRI ELVINAjl.telaga dewa 2085758342907fitrielvinav@yahoo.co.id2014Palembang10 Februari 1997Perempuan40-Perbankan Syari'ah11-03-20193,314 tahun, 6 bulan
1416142181DAHLIAjl.mangga km.808961675185dahliapbs@gmail.com2014Bengkulu12 September 1995Perempuan40-Perbankan Syari'ah11-03-20193,494 tahun, 6 bulan
1416142182FAJAR HARWADIJl. Nangka Lintas081539889424harwadi.fajar@gmail.com2014Lubuk Linggau31 Maret 1996Laki-laki40-Perbankan Syari'ah20-07-20183,483 tahun, 10 bulan
1416142183REZKI TERNANDOPasar Lama. Bintuhan. Kabupaten Kaur081977092623Rezkiternando99@gmail.com2014Bintuhan05 September 1995Laki-laki40-Perbankan Syari'ah03-08-20183,473 tahun, 10 bulan
1416142184TRICIA PRATIWIGang Teratai087894739474pratiwi_tricia@yahoo.com2014Padang01 Juni 1995Perempuan40-Perbankan Syari'ah20-08-20183,493 tahun, 11 bulan
1416142185MEILI RAHMAWATIJL CEMPAKA RT.06 RW.02 BENGKULU082278424860MEILIRAHMAWATI16@GMAIL.COM2014Ambon16 Mei 1996Perempuan40-Perbankan Syari'ah20-03-20183,573 tahun, 6 bulan
1416142186ATIKA JAMILAHPINANG MAS B-V RT.003 RW.001 KELURAHAN BENTIRING PERMAI KECAMATAN MUARA BANGKAHULU PROPINSI BENGKULU081367380459atikajamilah71@yahoo.com2014Bengkulu11 Juni 1996Perempuan40-Perbankan Syari'ah24-08-20183,363 tahun, 11 bulan
1416142187EKA DIAN APRILIANIJln. Santoso, Kel. kampung Pensiunan, kec. Kepahiang, Kab. Kepahiang089689641210ekadianapriliani@ymail.com2014Kepahiang20 Januari 1994Perempuan40-Perbankan Syari'ah31-08-20183,613 tahun, 11 bulan
1416142188PUTRI RAHMAWATIDESA KAMPUNG BOGOR, KELURAHAN KAMPUNG BOGOR, KECAMATAN KEPAHIANG, KABUPATEN KEPAHIANG082186605467putribengkulu1717@gmail.com2014Kampung Bogor17 Juni 1999Perempuan40-Perbankan Syari'ah15-08-20183,613 tahun, 11 bulan
1416142189TITIN RAHMAGEDUNG SAKO085758288591titin_rahma49@yahoo.co.id2014Bintuhan10 Oktober 2000Perempuan40-Perbankan Syari'ah11-03-20193,274 tahun, 6 bulan
1416142190TRI WIDODODesa tugu sempurna082175175832Twidodo882@gmail.com2014Jaya Loka06 Juni 1996Laki-laki40-Perbankan Syari'ah11-03-20193,604 tahun, 6 bulan
1416142192RIPA AYU PRATIWIBENUA RATU085789288551Revaayu66@gmail.com2014Benua Ratu11 Maret 1996Perempuan40-Perbankan Syari'ah31-08-20183,163 tahun, 11 bulan
1416142194WAHYU ERLANGGAdesa turan tiging082375913446wahyuerlangga22@gmail.com2014Turan Tiging11 Oktober 1995Laki-laki40-Perbankan Syari'ah15-08-20183,763 tahun, 11 bulan
1416142195WIRO HERIADIJL.PADANG LEKAT KEPAHIANG085758638646wiro.heriadi@gmail.com2014Kepahiang13 Mei 1996Laki-laki40-Perbankan Syari'ah11-03-20193,494 tahun, 6 bulan
1416142196ANIZA OKTAPIAJAMBAT AKAR082371546519dankngguak@yahoo.com2014Jambat Akar07 April 1997Perempuan40-Perbankan Syari'ah12-03-20203,175 tahun, 6 bulan
1416142197WIRAjln fehg085856009566wira29031996@gmail.com2014Bengkulu29 Maret 1996Perempuan39-Ekonomi Syari'ah20-03-20183,683 tahun, 6 bulan
1416142201ROBI SERTABUNGA MELUR,SEMIDANG GUMAY,KAB KAUR085273305436ROBISERTA@YAHOO.COM2014Bunga Melur03 Juni 1995Laki-laki40-Perbankan Syari'ah30-07-20183,353 tahun, 10 bulan
1416142202EVI NOPALIAAIR SEMPIANG085789049932Evinovalia60@gmail.com2014Air Sempiang03 November 1996Perempuan40-Perbankan Syari'ah11-03-20193,314 tahun, 6 bulan
1416142204WIWIK ANJELINArindu hati087894660781wiwikanggelina@yahoo.co.id2014Rindu Hati03 Januari 1996Perempuan40-Perbankan Syari'ah14-08-20183,303 tahun, 11 bulan
1416142206MIKE DAMA PUTRIjalan bumi ayu081539263041damaputri.mike@yahoo.com2014Rejang Lebong30 Desember 1995Perempuan40-Perbankan Syari'ah03-12-20213,307 tahun, 2 bulan
1416142207ANDI IRAWAN SYAPUTRADESA PASAR SELUMA085268383655soulandy1993@gmail.com2014Pasar Seluma09 November 1993Laki-laki40-Perbankan Syari'ah17-02-20212,926 tahun, 5 bulan
1416142208REZI FATRIANIJL. Rri 2 Desa Air Putih, Kec. Talang Empat, Kab. Bengkulu Tengah085768216762rezifatriani@gmail.com2014Air Sebakul28 Januari 1995Perempuan40-Perbankan Syari'ah24-08-20183,573 tahun, 11 bulan
1416142209ANGGA HERDIANPALAK SIRING085783278639anggaherdian@yahoo.com2014Bogor05 Mei 1995Laki-laki40-Perbankan Syari'ah11-03-20193,204 tahun, 6 bulan
1416142211MARIA DESI RATNA SARIJL. TELAGA DEWA 6081274204227mariadesiratnasari50@gmail.com2014Suka Bandung18 Desember 1995Perempuan40-Perbankan Syari'ah11-03-20193,384 tahun, 6 bulan
1416142212RENDI MUHAMMAD FIKRIJl. sadang 4 Rt.11 Rw.03 Kel. Lingkar Barat085273726443rendimuhammadfikri1@gmail.com2014Bengko27 September 1994Laki-laki40-Perbankan Syari'ah28-01-20223,417 tahun, 4 bulan
1416142213LILI SAPUTRIsemundam, ipuh, mukomuko082213048396lilisaputri55@yahoo.com2014Semundam10 November 1996Perempuan40-Perbankan Syari'ah11-03-20193,394 tahun, 6 bulan
1416142214RIRIN AGUSTIANDARKarang caya085767014665Ririn.agustiandar@yahoo.com2014Lubuk Ladung17 Agustus 1996Perempuan40-Perbankan Syari'ah20-07-20183,163 tahun, 10 bulan
1416142215RIZKI ADE KURNIASIHJL SETIA NEGARA 5089699545926rizkiadekurniasihbee@gmail.com2014Curup14 Juni 1996Perempuan40-Perbankan Syari'ah31-07-20183,163 tahun, 10 bulan
1416142216HELSI DINA FITRIMARAS085273979376helsi.fitri@gmail.com2014Tabah Rena17 Mei 1996Perempuan40-Perbankan Syari'ah18-07-20183,283 tahun, 10 bulan
1416142217PEBRIANSYAHkelurahan kandang089692455331pebri.jd@gmai.com2014Bengkulu05 Februari 1996Laki-laki40-Perbankan Syari'ah11-03-20193,154 tahun, 6 bulan
1416142218HENDRA SETIAWANPrumnas cahaya negri085709433215hsetiawan381@yahoo.com2014Padang Pelawi04 April 1996Laki-laki40-Perbankan Syari'ah11-03-20193,234 tahun, 6 bulan
1416142219OKSEN PRANA JAYADESA TANJUNG NEGARA, KEC. KEDURANG, KAB.BENGKULU SELATAN081273039596oksenpranajaya@yahoo.com2014Tanjung Negara07 Oktober 1996Laki-laki40-Perbankan Syari'ah12-03-20203,175 tahun, 6 bulan
1416142220YULIS NOKA PUTRIdesa tanjung karet ,kec air besi, kabupaten bengkulu utara085357714456yulis66@gmail.com2014Tanjung Karet24 Juli 1994Perempuan40-Perbankan Syari'ah31-08-20183,243 tahun, 11 bulan
1416142221JAUHARI ARIANTOJalan Rinjani Kel. Jembatan Kecil Kota Bengkulu085609004740jauhari.arianto@yahoo.com2014Napal Melintang22 Juni 1998Laki-laki40-Perbankan Syari'ah11-03-20193,294 tahun, 6 bulan
1416142222NOVITA SARI SDESA COKO ENAU KEC.KAUR UTARA KAB.KAUR082377545110novitasaudi@gmail.com2014Coko Enau05 Agustus 1997Perempuan40-Perbankan Syari'ah11-03-20193,254 tahun, 6 bulan
1416142223RABAWATI SUKARTAdusun 1 Desa rantau jaya087894733561Rabawati11@gmail.com2014Rantau Jaya11 November 1996Perempuan40-Perbankan Syari'ah03-08-20183,863 tahun, 10 bulan
1416142224RIKI HARMADISAWAH LEBAR MERANTI 2082282187426harmadiriki@yahoo.co.id2014Rajak Besi05 Januari 1993Laki-laki40-Perbankan Syari'ah11-03-20192,954 tahun, 6 bulan
1416142225IHWAN ARIFINJalan Mangga 5 RT26 RW 07089634892017ihwanarifin2020@gmail.com2014Bengkulu20 Juni 1996Laki-laki40-Perbankan Syari'ah11-03-20193,244 tahun, 6 bulan
1416142226RIZKI CLAUDIAdesa kayuara kecamatan rambang kuang kabupaten ogan ilir082306441349Rizkiclaudia483@yahoo.co.id2014Kayuara04 November 1996Perempuan40-Perbankan Syari'ah20-08-20183,613 tahun, 11 bulan
1416142229EVI JAYANTIJln. SUKARAMI PAGAR DEWA PANCURMAS 2085758321995evijayantirangkuti@gmail.com2014Manna28 Juli 1995Perempuan40-Perbankan Syari'ah11-03-20193,284 tahun, 6 bulan
1416142230EDI SEFRIYADYDERMAYU RT.06 KEC. AIR PRIUKAN ( KAB. SELUMA )081539872309edi_sefriyady@yahoo.co.id2014Lampung01 November 1993Laki-laki40-Perbankan Syari'ah11-03-20193,194 tahun, 6 bulan
1416142232IRWAN SETIAWANDESA KEMANG MANIS KECAMATAN KAUR TENGAH KABUPATEN KAUR081532387821setiawanirwan2190@yahoo.com2014Jakarta21 Januari 1996Laki-laki40-Perbankan Syari'ah31-08-20183,433 tahun, 11 bulan
1416142233ADHITYA MUSTAFADesa Padang Hangat, Kecamatan Kaur Tengah, Kabupaten Kaur081977091997mustafa.adhitya@yahoo.co.id2014Padang Hangat09 Februari 1983Laki-laki40-Perbankan Syari'ah19-07-20193,434 tahun, 10 bulan
1416142235YOAN AFIFAHDesa Aromantai Kec. Jarai Kab Lahat Sumatera Selatan081990062959yoanasudrajat@yahoo.com2014Bandung26 Agustus 1996Perempuan40-Perbankan Syari'ah11-03-20193,334 tahun, 6 bulan
1416142236REFSI TRIJAYADESA AIR PIKAT KEC.BERMANI ULU KAB.REJANG LEBONG provinsi bengkulu085768216750refsitrijaya@yahoo.co.id2014Air Pikat20 Agustus 1996Laki-laki40-Perbankan Syari'ah11-03-20193,224 tahun, 6 bulan
1416142237INDA PERMATAJL. ALMUKAROMMAH 17. RT 27. RW 05081367272766indapermataa21@gmail.com2014Bengkulu21 November 1995Perempuan40-Perbankan Syari'ah11-03-20193,414 tahun, 6 bulan
1416142239MIA MIRANTIJALAN POROS LAIS085764389362miiamiranti28@yahoo.co.id2014Taba Baru28 Maret 1999Perempuan40-Perbankan Syari'ah11-03-20193,464 tahun, 6 bulan
1416142240IMAM SANTOSOSukaraja085110447995imamsanto48@gmail.com2014Pasar Ngalam20 Agustus 1996Laki-laki40-Perbankan Syari'ah11-03-20193,094 tahun, 6 bulan
1416142241ROPASI SAPUTRABERIANG TINGGI085664693308ropasisaputra@yahoo.com2014Beriang Tinggi28 Agustus 1996Laki-laki40-Perbankan Syari'ah12-03-20202,995 tahun, 6 bulan
1416142244REDO FEBRIANSYAHJL. PEPAYA 3 BUMI AYU RT.17 RW O4 KELURAHAN BUMI AYU KECAMATAN SELEBAR KOTA BENGKULU.085896173090REDOFEBRIANSYAH46@GMAIL.COM2014Bengkulu11 Februari 1996Laki-laki40-Perbankan Syari'ah11-03-20193,404 tahun, 6 bulan
1416142245EVA CRISTEA DEWYJln.tanjung alam082176747940evacristeadewy95@gmail.com2014Tanjung Alam16 Mei 1995Perempuan40-Perbankan Syari'ah31-08-20183,153 tahun, 11 bulan
1416142246NURFITRIYANIJL. RAFLESIA 3081539266326nurfitriyani.ya@gmail.com2014Bengkulu15 Januari 1996Perempuan40-Perbankan Syari'ah13-07-20183,593 tahun, 10 bulan
1416142248WINA PURNAMASARIkurawan, kec pino raya, kab bengkulu selatan082281114700winapurnamasari17@yahoo.com2014Kurawan17 Oktober 1996Perempuan40-Perbankan Syari'ah20-08-20183,403 tahun, 11 bulan
1416142249NOVRIZA WARDIANTIJl. Semangka 4, No:66 ; RT. 12 ; RW. 004 ; Panorama; Singaran Pati. Kota Bengkulu08992243734ibramsyah1453@gmail.com2014Curup11 Juni 1996Perempuan40-Perbankan Syari'ah11-03-20193,094 tahun, 6 bulan
1416142250AGUSTINAJln. merawan sawah lebar Bengkulu Rt 29 Rw 08089633035230nhathinaadjaa@yahoo.co.id2014Bengkulu22 Desember 1995Perempuan40-Perbankan Syari'ah31-07-20183,443 tahun, 10 bulan
1416142251YULIAKarang Anyar Kepahiang082298781380yuliapbs@yahoo.com2014Lahat14 Juli 1996Perempuan40-Perbankan Syari'ah11-03-20192,974 tahun, 6 bulan
1416142254RIZKY YUDHISTIRAJL.KAMPAR 3081272724344rizkyyudhistira88@yahoo.com2014Bengkulu10 Maret 1996Laki-laki40-Perbankan Syari'ah12-03-20203,065 tahun, 6 bulan
1416142255LENI SUPRIATIDesa Rena semanek kec.karang tinggi kab.Bengkulu tengah082306664906Lenysupriati39@gmail.com2014Rena Lebar09 September 1995Perempuan40-Perbankan Syari'ah20-09-20183,414 tahun, 0 bulan
1416142256AKHIMULLAH FAIZAL AZRIPULAU BERINGIN
DESA HARAPAN
KEC. PONDOK KELAPA
KAB. BENGKULU TENGAH
082282888713faizalazri15@gmail.com2014Bengkulu15 April 1999Laki-laki40-Perbankan Syari'ah11-03-20193,134 tahun, 6 bulan
1416142258CARLES SETIAWANJL.IP AWALUDIN N0,12 KEL PADANG SIALANG KEC PSAR MANNA KAB BENGKULU SELATAN081539240735carles-setiwan@yahoo.co.id2014Manna27 Januari 1996Laki-laki40-Perbankan Syari'ah11-03-20192,934 tahun, 6 bulan
1416142259RANDA MAHENDRAJl.telaga dewa no.54089686662289Randamahendra45@gmail.com2014Pariaman17 Mei 1996Laki-laki40-Perbankan Syari'ah03-08-20183,533 tahun, 10 bulan
1416142260ANITA PUTRI WULANDARIJl. Lintas Bengkulu-Manna085384408449Anitaputriw@gmail.com2014Karang Anyar16 Desember 1997Perempuan40-Perbankan Syari'ah14-08-20183,403 tahun, 11 bulan
1416142261ANGGUN PUTRI WULANDARIJl. Kamtibmas No.23 Kel. Sumber Jaya kec. Kampung Melayu Kota Bengkulu089659725695anggun.wulandariputri@yahoo.co.id2014Bengkulu31 Agustus 1996Perempuan40-Perbankan Syari'ah11-03-20193,244 tahun, 6 bulan
1416142262HERU DEWANTARAJL.RADEN PATAH081539318110herukedurang6071@gmail.com2014Nanjungan25 November 1995Laki-laki40-Perbankan Syari'ah20-07-20183,393 tahun, 10 bulan
1416142264EGAH RAYENIkedurang bengkulu selatan081367160417egahrayeni@gmail.com2014Keban Agung III18 Juli 1996Perempuan40-Perbankan Syari'ah31-07-20183,383 tahun, 10 bulan
1416142265SITI SOPIAHjalan Hibrida Raya085658740537siti.sopiah3E@gmail.com2014Tegal04 Juni 1996Perempuan40-Perbankan Syari'ah24-08-20183,443 tahun, 11 bulan
1416142266SEKTI KURNIAWANDusun Pulau Beringin Desa Harapan Kecamatan Pondok Kelapa Kabupaten Bengkulu Tengah Provinsi Bengkulu085758687357sechtykurniawan@yahoo.com2014Pulau Beringin31 Maret 1995Laki-laki40-Perbankan Syari'ah13-07-20183,923 tahun, 10 bulan
1416142267ARIS SURONOjln. riyak siabun 16282282227163toteles.aris1010@yahoo.com2014Gunung Raya25 Juni 1997Laki-laki40-Perbankan Syari'ah12-09-20193,035 tahun, 0 bulan
1416142268RINA MARYANAtanjung iman081539387910Rinamaryana667@yahoo.co.id2014Tanjung Iman03 Januari 1997Perempuan40-Perbankan Syari'ah31-07-20183,253 tahun, 10 bulan
1416142269FEBRIAN NARCHOLISCUCUPAN085214017172febrian.narcholis.75@yahoo.com,febriannarcholis@gmail.com2014Muara Tetap26 April 1996Laki-laki40-Perbankan Syari'ah20-08-20183,583 tahun, 11 bulan
1416142270HELLEN DIA YUNETAJl. Meranti 4 RT. 11 RW. 3 kel. Sawah Lebar Baru Kec. Ratu Agung Bengkulu085664726468diayunetahellen@yahoo.com2014Rantau Dodor19 Juli 1996Perempuan40-Perbankan Syari'ah15-08-20183,433 tahun, 11 bulan
1416142271RINTO EFENDI PRATAMAJL.HIBRIDA UJUNG082177626147rintoefendi279@yahoo.com2014Lubuk Ladung07 April 1996Laki-laki40-Perbankan Syari'ah14-08-20183,333 tahun, 11 bulan
1416142272YEFI GUSLIANIDESA KOTA AGUNG085758367386yepigusliani2@gmail.com2014Kota Agung19 Agustus 1996Perempuan40-Perbankan Syari'ah27-01-20223,197 tahun, 4 bulan
1416142273FEBRILIYAN HIDAYANTIJl.Manggis089663838808febriliyanti19@gmail.com2014Demak19 September 1996Perempuan40-Perbankan Syari'ah11-03-20193,274 tahun, 6 bulan
1416142274NOVA LESTARIdesa talang kering087794085063novalestari275@gmail.com2014Talang Kering13 November 1999Perempuan40-Perbankan Syari'ah11-03-20193,394 tahun, 6 bulan
1416142275NURMAYANTIjl.manggis 01 no 7308982219188nurmayanti316@yahoo.co.id2014Bengkulu05 Mei 1995Perempuan40-Perbankan Syari'ah01-09-20183,203 tahun, 11 bulan
1416142277DEKA YULIZAlandur089653856501dekyuliza15@gmail.com2014Landur27 Juli 1996Perempuan40-Perbankan Syari'ah12-03-20203,125 tahun, 6 bulan
1416142278JELI PUSPITA SARIIPUH085788565734jeli.puspitasari@gmail.com2014Sibak02 Juli 1997Perempuan40-Perbankan Syari'ah18-07-20183,393 tahun, 10 bulan
1416142280SINTA WULANDARIDESA BATU AMPAR085609149901sintawulandari892@gmail.com2014Curup31 Mei 1996Perempuan40-Perbankan Syari'ah30-07-20183,593 tahun, 10 bulan
1416142281MUHAMAD AGUSTjalan kinibalu 6 .RT 6 RW 2 NO.28 KEBUN TEBENG0895399947017muhamadagust2@gmail.com2014Bengkulu17 September 1995Laki-laki40-Perbankan Syari'ah27-01-20213,116 tahun, 4 bulan
1416142282JOVI ANANDA PRATAMAIPUH085383651294jovi14pratama@gmail.com2014Pasar Ipuh25 Januari 1996Laki-laki40-Perbankan Syari'ah11-03-20193,054 tahun, 6 bulan
1416142285DEBIS KAWER KANSENkandang mas089681366109debis_kawerkansen@yahoo.co.id2014Talang Bengkulu16 Januari 1996Laki-laki40-Perbankan Syari'ah30-08-20183,243 tahun, 11 bulan
1416142287JAYA ANTONIDESA KOTA AGUNG
KECAMATAN SELUMA TIMUR
KABUPATEN SELUMA
PROVINSI BENGKULU
085783552969jayasyariah.js@gmail.com2014Kota Agung23 Maret 1995Laki-laki40-Perbankan Syari'ah28-01-20213,376 tahun, 4 bulan
1416142288EKA ALVIANIperum. Griya Betungan Asri RT. 41 RW.01 No.17208962333113ekaalviani27@gmail.com2014Bengkulu27 Maret 1996Perempuan40-Perbankan Syari'ah24-08-20183,213 tahun, 11 bulan
1416142289EDI SISWANTOrebang tinggi081539430268edisiswanto43@yahoo.co.id2014Menanga Siamang05 Mei 1995Laki-laki40-Perbankan Syari'ah3,438 tahun, 9 bulan
1416142290TITIANA DEVI LESTARIJALAN RADEN FATAH PERUMAHAN PONDOK INDAH NO.5B KOTA BENGKULU081368315426titianalestari93@gmail.com2014Bengkulu03 Desember 1995Perempuan40-Perbankan Syari'ah26-07-20183,523 tahun, 10 bulan
1416142291MELINDA RAHMIJl.Timur indah 1089693425144melindarahmi02@gmail.com2014Bengkulu02 Agustus 1996Perempuan40-Perbankan Syari'ah03-08-20183,513 tahun, 10 bulan
1416142292DENDI ATMOKOPALAK SIRING KEDURANG085712383939dendiatmoko94@gmail.com2014Palak Siring15 September 1994Laki-laki40-Perbankan Syari'ah10-09-20203,096 tahun, 0 bulan
1416142293YULIUS AFIP KIRANAdesa sukarami082281103901yuliusafipkirana@gmail.com2014Sukarami17 Juli 1995Perempuan40-Perbankan Syari'ah12-03-20202,905 tahun, 6 bulan
1416142294VERA ANGGRAINIJalan.Taman Remaja Lingkar Timur081927388853veraanggraini112@yahoo.com2014Bengkulu02 Desember 1995Perempuan40-Perbankan Syari'ah20-07-20183,593 tahun, 10 bulan
1416142296ENI KERISTIANITanjung Baru082371848744eni.keristianipbs@yahoo.com2014Sarang Bulan20 Maret 1996Perempuan40-Perbankan Syari'ah11-03-20193,244 tahun, 6 bulan
1416142297YOLANDAPINJU LAYANG085367269951yolanda@gmail.com2014Pinju Layang28 Mei 1996Perempuan40-Perbankan Syari'ah15-08-20183,173 tahun, 11 bulan
1416142298LIZA BETRIDusun Gunung Kayo, Kecamatan Bunga Mas, Kabupaten Bengkulu Selatan, Provensi Bengkulu085664635954lizabetri1996@gmail.com.2014Gunung Kayo21 Februari 1996Perempuan40-Perbankan Syari'ah31-08-20183,413 tahun, 11 bulan
1416142299MARZUKI EFENDIJLN. TERANTAI INDAH082177602685marzukieffendi75@yahoo.co.id2014Talang Arah08 Agustus 1995Laki-laki40-Perbankan Syari'ah11-03-20193,094 tahun, 6 bulan
1416142300WANDI ARDIANSYAHJL.Lintas Bengko, Ds.Tapak Gedung, Kec.Tebat karai, Kab.Kepahiang, Prov.Bengkulu085832646217WandiArdiansyahPBS@gmail.com2014Tapak Gedung19 November 1995Laki-laki40-Perbankan Syari'ah28-08-20183,423 tahun, 11 bulan
1416142301AKBAR AL FATAHjalan Transmigarasi085789166527alfatah9@yahoo.com2014Bengkulu17 September 1995Laki-laki40-Perbankan Syari'ah27-01-20213,136 tahun, 4 bulan
1416142302FERA GUSNIAGUNUNG TIGA,KEC.SEMIDANG GUMAI085377817741Leoniey.fhera@yahoo.com2014Gunung Tiga08 Agustus 1995Perempuan40-Perbankan Syari'ah30-08-20183,193 tahun, 11 bulan
1416142303MEILIN DEFIKA PUTRI UTAMIJLN kenanga rt 06 rw 0208985067648meilin.defika@gmail.com2014Bengkulu19 Mei 1996Perempuan40-Perbankan Syari'ah28-08-20183,453 tahun, 11 bulan
1416142304M. RIZKI GUSTI MANDALAJl.Dr. AK Gani No.64089667748388rizkokorizuky@ymail.com2014Curup09 Februari 1983Laki-laki40-Perbankan Syari'ah19-07-20193,434 tahun, 10 bulan
1416142305CEPTI DWI ANJANIJalan Merapi IX RT VII RW III No. XIX085788122344ceptidwianjani@yahoo.co.id2014Bengkulu02 September 1995Perempuan40-Perbankan Syari'ah01-03-20183,923 tahun, 5 bulan
1416142307NELI ARDILADESA SUKADANA082375397981neli.ardila@yahoo.co.id2014Sukadana25 Oktober 1996Perempuan40-Perbankan Syari'ah11-03-20193,394 tahun, 6 bulan
1416142308KARLINAtunggul bute085896518344karlina_perbankansyariah@yahoo.co.id2014Tunggul Bute09 Juli 1996Perempuan40-Perbankan Syari'ah11-03-20193,224 tahun, 6 bulan
1416142309BAYU ADI PRATAMAJL. H ADAM MALIK 5089679854548bayuadipratama799@gmail.com2014Bengkulu19 Mei 1996Laki-laki40-Perbankan Syari'ah28-08-20183,443 tahun, 11 bulan
1416142310RESI LOVE FIKAberingin datar082179800363resilovefika@yahoo.com, resilovefika@gmail.com2014Tanjung Aur10 Mei 1995Perempuan40-Perbankan Syari'ah28-02-20183,453 tahun, 5 bulan
1416142311VIVI ANAVISA BETRIZAJl. Iskandar 1 RT 10 RW 4 No 26 Tengah Padang08987181466vanavisa15@gmail.com2014Bengkulu30 November 1996Perempuan40-Perbankan Syari'ah03-08-20183,563 tahun, 10 bulan
1416142312SELVIA WLANDARIkembang mumpo087894876290selviawlandari07@gmail.com2014Kembang Mumpo17 November 1995Perempuan40-Perbankan Syari'ah14-08-20183,383 tahun, 11 bulan
1416142313AVINDA APRILSILIAjalan Rambutan No. 9081366805819avindaaprilsilia@rocketmail.com2014Bengkulu01 April 1996Perempuan40-Perbankan Syari'ah11-03-20193,244 tahun, 6 bulan
1416142314AHMAD MUZAKKYDesa Belumai II Kecamatan Padang ulak Tanding,kabupaten Rejang Lebong,Provinsi Bengkulu.085832110884ahmadmuzakky@gmail.com2014Belumai II05 Juli 1996Laki-laki40-Perbankan Syari'ah27-07-20183,743 tahun, 10 bulan
1416142315GITA DWI LESTARIJLN. TIMUR INDAH RAYA089663838641gitaaquarius88@yahoo.co.id2014Bengkulu05 Desember 1997Perempuan40-Perbankan Syari'ah12-03-20203,045 tahun, 6 bulan
1416142316WINDA SARIRINDUHATI087894675950windasari@yahoo.co.id2014Rindu Hati06 Juni 1995Perempuan40-Perbankan Syari'ah20-08-20183,263 tahun, 11 bulan
1416142319DIANA SUNDARIJALAN PASUNDAN 2 NO 34 RT25 RW01 KEL.SUMBERJAYA KEC.KAMPUNG MELAYU BENGKULU089673450492dianasundari15@gmail.com2014Bengkulu11 April 1996Perempuan40-Perbankan Syari'ah12-03-20203,195 tahun, 6 bulan
1416142320DWINDA SARITABA SATING085208282544dwindasari96@gmail.com2014Taba Sating14 Agustus 1996Perempuan40-Perbankan Syari'ah11-03-20193,204 tahun, 6 bulan
1416142321FAZAL RONALDODESA TALANG GADING081532182985Fazalronaldo30@gmail.com2014Jakarta30 Agustus 1996Laki-laki40-Perbankan Syari'ah01-09-20183,283 tahun, 11 bulan